<?xml version="1.0" encoding="UTF-8" standalone="no" ?>
<gpx xmlns="http://www.topografix.com/GPX/1/1" xmlns:xsi="http://www.w3.org/2001/XMLSchema-instance" xsi:schemaLocation="http://www.topografix.com/GPX/1/1 http://www.topografix.com/GPX/1/1/gpx.xsd" version="1.1" creator="VisuGPX - https://www.visugpx.com">
  <metadata>
    <name>Soum de Matte (2.313 m)</name>
    <desc><![CDATA[Départ du Pla d'Adet (Hautes-Pyrénées) ]]></desc>
  </metadata>
  <trk>
    <name><![CDATA[Soum de Matte (2.313 m)_1]]></name>
    <trkseg>
      <trkpt lat="42.81279" lon="0.29391">
        <ele>1698</ele>
        <time>2020-07-27T15:17:05.000Z</time>
      </trkpt>
      <trkpt lat="42.81279" lon="0.29391">
        <ele>1698</ele>
        <time>2020-07-27T15:17:06.000Z</time>
      </trkpt>
      <trkpt lat="42.81279" lon="0.2939">
        <ele>1697</ele>
        <time>2020-07-27T15:17:07.000Z</time>
      </trkpt>
      <trkpt lat="42.81278" lon="0.29388">
        <ele>1697</ele>
        <time>2020-07-27T15:17:08.000Z</time>
      </trkpt>
      <trkpt lat="42.81277" lon="0.29387">
        <ele>1697</ele>
        <time>2020-07-27T15:17:09.000Z</time>
      </trkpt>
      <trkpt lat="42.81276" lon="0.29387">
        <ele>1696</ele>
        <time>2020-07-27T15:17:10.000Z</time>
      </trkpt>
      <trkpt lat="42.81274" lon="0.29388">
        <ele>1695</ele>
        <time>2020-07-27T15:17:11.000Z</time>
      </trkpt>
      <trkpt lat="42.81273" lon="0.29391">
        <ele>1695</ele>
        <time>2020-07-27T15:17:12.000Z</time>
      </trkpt>
      <trkpt lat="42.81271" lon="0.29393">
        <ele>1695</ele>
        <time>2020-07-27T15:17:13.000Z</time>
      </trkpt>
      <trkpt lat="42.8127" lon="0.29396">
        <ele>1695</ele>
        <time>2020-07-27T15:17:14.000Z</time>
      </trkpt>
      <trkpt lat="42.8127" lon="0.29399">
        <ele>1696</ele>
        <time>2020-07-27T15:17:15.000Z</time>
      </trkpt>
      <trkpt lat="42.81269" lon="0.29403">
        <ele>1694</ele>
        <time>2020-07-27T15:17:16.000Z</time>
      </trkpt>
      <trkpt lat="42.81269" lon="0.29407">
        <ele>1694</ele>
        <time>2020-07-27T15:17:17.000Z</time>
      </trkpt>
      <trkpt lat="42.8127" lon="0.29411">
        <ele>1694</ele>
        <time>2020-07-27T15:17:18.000Z</time>
      </trkpt>
      <trkpt lat="42.8127" lon="0.29415">
        <ele>1694</ele>
        <time>2020-07-27T15:17:19.000Z</time>
      </trkpt>
      <trkpt lat="42.81271" lon="0.29418">
        <ele>1694</ele>
        <time>2020-07-27T15:17:20.000Z</time>
      </trkpt>
      <trkpt lat="42.81271" lon="0.29421">
        <ele>1695</ele>
        <time>2020-07-27T15:17:21.000Z</time>
      </trkpt>
      <trkpt lat="42.81272" lon="0.29425">
        <ele>1695</ele>
        <time>2020-07-27T15:17:22.000Z</time>
      </trkpt>
      <trkpt lat="42.81273" lon="0.29429">
        <ele>1695</ele>
        <time>2020-07-27T15:17:23.000Z</time>
      </trkpt>
      <trkpt lat="42.81274" lon="0.29432">
        <ele>1696</ele>
        <time>2020-07-27T15:17:24.000Z</time>
      </trkpt>
      <trkpt lat="42.81275" lon="0.29436">
        <ele>1696</ele>
        <time>2020-07-27T15:17:25.000Z</time>
      </trkpt>
      <trkpt lat="42.81276" lon="0.29439">
        <ele>1697</ele>
        <time>2020-07-27T15:17:26.000Z</time>
      </trkpt>
      <trkpt lat="42.81278" lon="0.29443">
        <ele>1697</ele>
        <time>2020-07-27T15:17:27.000Z</time>
      </trkpt>
      <trkpt lat="42.81279" lon="0.29447">
        <ele>1697</ele>
        <time>2020-07-27T15:17:28.000Z</time>
      </trkpt>
      <trkpt lat="42.81281" lon="0.2945">
        <ele>1697</ele>
        <time>2020-07-27T15:17:29.000Z</time>
      </trkpt>
      <trkpt lat="42.81282" lon="0.29454">
        <ele>1697</ele>
        <time>2020-07-27T15:17:30.000Z</time>
      </trkpt>
      <trkpt lat="42.81284" lon="0.29457">
        <ele>1698</ele>
        <time>2020-07-27T15:17:31.000Z</time>
      </trkpt>
      <trkpt lat="42.81286" lon="0.2946">
        <ele>1698</ele>
        <time>2020-07-27T15:17:32.000Z</time>
      </trkpt>
      <trkpt lat="42.81288" lon="0.29463">
        <ele>1698</ele>
        <time>2020-07-27T15:17:33.000Z</time>
      </trkpt>
      <trkpt lat="42.81289" lon="0.29467">
        <ele>1698</ele>
        <time>2020-07-27T15:17:34.000Z</time>
      </trkpt>
      <trkpt lat="42.81291" lon="0.2947">
        <ele>1699</ele>
        <time>2020-07-27T15:17:35.000Z</time>
      </trkpt>
      <trkpt lat="42.81292" lon="0.29473">
        <ele>1699</ele>
        <time>2020-07-27T15:17:36.000Z</time>
      </trkpt>
      <trkpt lat="42.81293" lon="0.29477">
        <ele>1699</ele>
        <time>2020-07-27T15:17:37.000Z</time>
      </trkpt>
      <trkpt lat="42.81294" lon="0.29481">
        <ele>1699</ele>
        <time>2020-07-27T15:17:38.000Z</time>
      </trkpt>
      <trkpt lat="42.81294" lon="0.29485">
        <ele>1699</ele>
        <time>2020-07-27T15:17:39.000Z</time>
      </trkpt>
      <trkpt lat="42.81295" lon="0.29489">
        <ele>1699</ele>
        <time>2020-07-27T15:17:40.000Z</time>
      </trkpt>
      <trkpt lat="42.81295" lon="0.29493">
        <ele>1700</ele>
        <time>2020-07-27T15:17:41.000Z</time>
      </trkpt>
      <trkpt lat="42.81296" lon="0.29497">
        <ele>1701</ele>
        <time>2020-07-27T15:17:42.000Z</time>
      </trkpt>
      <trkpt lat="42.81298" lon="0.29501">
        <ele>1702</ele>
        <time>2020-07-27T15:17:43.000Z</time>
      </trkpt>
      <trkpt lat="42.81299" lon="0.29505">
        <ele>1703</ele>
        <time>2020-07-27T15:17:44.000Z</time>
      </trkpt>
      <trkpt lat="42.813" lon="0.29509">
        <ele>1704</ele>
        <time>2020-07-27T15:17:45.000Z</time>
      </trkpt>
      <trkpt lat="42.81301" lon="0.29513">
        <ele>1704</ele>
        <time>2020-07-27T15:17:46.000Z</time>
      </trkpt>
      <trkpt lat="42.81301" lon="0.29517">
        <ele>1704</ele>
        <time>2020-07-27T15:17:47.000Z</time>
      </trkpt>
      <trkpt lat="42.813" lon="0.29521">
        <ele>1704</ele>
        <time>2020-07-27T15:17:48.000Z</time>
      </trkpt>
      <trkpt lat="42.81299" lon="0.29524">
        <ele>1705</ele>
        <time>2020-07-27T15:17:49.000Z</time>
      </trkpt>
      <trkpt lat="42.81298" lon="0.29527">
        <ele>1705</ele>
        <time>2020-07-27T15:17:50.000Z</time>
      </trkpt>
      <trkpt lat="42.81297" lon="0.2953">
        <ele>1706</ele>
        <time>2020-07-27T15:17:51.000Z</time>
      </trkpt>
      <trkpt lat="42.81295" lon="0.29533">
        <ele>1707</ele>
        <time>2020-07-27T15:17:52.000Z</time>
      </trkpt>
      <trkpt lat="42.81294" lon="0.29536">
        <ele>1707</ele>
        <time>2020-07-27T15:17:53.000Z</time>
      </trkpt>
      <trkpt lat="42.81293" lon="0.29539">
        <ele>1707</ele>
        <time>2020-07-27T15:17:54.000Z</time>
      </trkpt>
      <trkpt lat="42.81291" lon="0.29541">
        <ele>1708</ele>
        <time>2020-07-27T15:17:55.000Z</time>
      </trkpt>
      <trkpt lat="42.8129" lon="0.29544">
        <ele>1708</ele>
        <time>2020-07-27T15:17:56.000Z</time>
      </trkpt>
      <trkpt lat="42.81288" lon="0.29547">
        <ele>1708</ele>
        <time>2020-07-27T15:17:57.000Z</time>
      </trkpt>
      <trkpt lat="42.81286" lon="0.29549">
        <ele>1708</ele>
        <time>2020-07-27T15:17:58.000Z</time>
      </trkpt>
      <trkpt lat="42.81285" lon="0.29552">
        <ele>1709</ele>
        <time>2020-07-27T15:17:59.000Z</time>
      </trkpt>
      <trkpt lat="42.81283" lon="0.29554">
        <ele>1710</ele>
        <time>2020-07-27T15:18:00.000Z</time>
      </trkpt>
      <trkpt lat="42.81281" lon="0.29554">
        <ele>1710</ele>
        <time>2020-07-27T15:18:01.000Z</time>
      </trkpt>
      <trkpt lat="42.81279" lon="0.29554">
        <ele>1709</ele>
        <time>2020-07-27T15:18:02.000Z</time>
      </trkpt>
      <trkpt lat="42.81275" lon="0.29553">
        <ele>1707</ele>
        <time>2020-07-27T15:18:03.000Z</time>
      </trkpt>
      <trkpt lat="42.81272" lon="0.29552">
        <ele>1707</ele>
        <time>2020-07-27T15:18:04.000Z</time>
      </trkpt>
      <trkpt lat="42.81269" lon="0.29548">
        <ele>1709</ele>
        <time>2020-07-27T15:18:05.000Z</time>
      </trkpt>
      <trkpt lat="42.81266" lon="0.29545">
        <ele>1709</ele>
        <time>2020-07-27T15:18:06.000Z</time>
      </trkpt>
      <trkpt lat="42.81263" lon="0.29542">
        <ele>1710</ele>
        <time>2020-07-27T15:18:07.000Z</time>
      </trkpt>
      <trkpt lat="42.81261" lon="0.2954">
        <ele>1710</ele>
        <time>2020-07-27T15:18:08.000Z</time>
      </trkpt>
      <trkpt lat="42.81258" lon="0.29538">
        <ele>1709</ele>
        <time>2020-07-27T15:18:09.000Z</time>
      </trkpt>
      <trkpt lat="42.81255" lon="0.29536">
        <ele>1709</ele>
        <time>2020-07-27T15:18:10.000Z</time>
      </trkpt>
      <trkpt lat="42.81252" lon="0.29533">
        <ele>1709</ele>
        <time>2020-07-27T15:18:11.000Z</time>
      </trkpt>
      <trkpt lat="42.8125" lon="0.2953">
        <ele>1708</ele>
        <time>2020-07-27T15:18:12.000Z</time>
      </trkpt>
      <trkpt lat="42.81248" lon="0.29526">
        <ele>1708</ele>
        <time>2020-07-27T15:18:13.000Z</time>
      </trkpt>
      <trkpt lat="42.81246" lon="0.29523">
        <ele>1707</ele>
        <time>2020-07-27T15:18:14.000Z</time>
      </trkpt>
      <trkpt lat="42.81244" lon="0.29519">
        <ele>1706</ele>
        <time>2020-07-27T15:18:15.000Z</time>
      </trkpt>
      <trkpt lat="42.81243" lon="0.29516">
        <ele>1706</ele>
        <time>2020-07-27T15:18:16.000Z</time>
      </trkpt>
      <trkpt lat="42.81241" lon="0.29513">
        <ele>1707</ele>
        <time>2020-07-27T15:18:17.000Z</time>
      </trkpt>
      <trkpt lat="42.8124" lon="0.29509">
        <ele>1707</ele>
        <time>2020-07-27T15:18:18.000Z</time>
      </trkpt>
      <trkpt lat="42.81239" lon="0.29506">
        <ele>1706</ele>
        <time>2020-07-27T15:18:19.000Z</time>
      </trkpt>
      <trkpt lat="42.81239" lon="0.29503">
        <ele>1705</ele>
        <time>2020-07-27T15:18:20.000Z</time>
      </trkpt>
      <trkpt lat="42.81238" lon="0.295">
        <ele>1704</ele>
        <time>2020-07-27T15:18:21.000Z</time>
      </trkpt>
      <trkpt lat="42.81237" lon="0.29497">
        <ele>1704</ele>
        <time>2020-07-27T15:18:22.000Z</time>
      </trkpt>
      <trkpt lat="42.81236" lon="0.29494">
        <ele>1703</ele>
        <time>2020-07-27T15:18:23.000Z</time>
      </trkpt>
      <trkpt lat="42.81234" lon="0.29491">
        <ele>1703</ele>
        <time>2020-07-27T15:18:24.000Z</time>
      </trkpt>
      <trkpt lat="42.81233" lon="0.29488">
        <ele>1702</ele>
        <time>2020-07-27T15:18:25.000Z</time>
      </trkpt>
      <trkpt lat="42.81232" lon="0.29484">
        <ele>1702</ele>
        <time>2020-07-27T15:18:26.000Z</time>
      </trkpt>
      <trkpt lat="42.81231" lon="0.2948">
        <ele>1702</ele>
        <time>2020-07-27T15:18:27.000Z</time>
      </trkpt>
      <trkpt lat="42.8123" lon="0.29476">
        <ele>1702</ele>
        <time>2020-07-27T15:18:28.000Z</time>
      </trkpt>
      <trkpt lat="42.81228" lon="0.29471">
        <ele>1702</ele>
        <time>2020-07-27T15:18:29.000Z</time>
      </trkpt>
      <trkpt lat="42.81227" lon="0.29467">
        <ele>1702</ele>
        <time>2020-07-27T15:18:30.000Z</time>
      </trkpt>
      <trkpt lat="42.81226" lon="0.29463">
        <ele>1701</ele>
        <time>2020-07-27T15:18:31.000Z</time>
      </trkpt>
      <trkpt lat="42.81225" lon="0.29459">
        <ele>1700</ele>
        <time>2020-07-27T15:18:32.000Z</time>
      </trkpt>
      <trkpt lat="42.81225" lon="0.29455">
        <ele>1700</ele>
        <time>2020-07-27T15:18:33.000Z</time>
      </trkpt>
      <trkpt lat="42.81224" lon="0.29451">
        <ele>1700</ele>
        <time>2020-07-27T15:18:34.000Z</time>
      </trkpt>
      <trkpt lat="42.81223" lon="0.29447">
        <ele>1699</ele>
        <time>2020-07-27T15:18:35.000Z</time>
      </trkpt>
      <trkpt lat="42.81223" lon="0.29443">
        <ele>1700</ele>
        <time>2020-07-27T15:18:36.000Z</time>
      </trkpt>
      <trkpt lat="42.81222" lon="0.29439">
        <ele>1700</ele>
        <time>2020-07-27T15:18:37.000Z</time>
      </trkpt>
      <trkpt lat="42.81221" lon="0.29435">
        <ele>1700</ele>
        <time>2020-07-27T15:18:38.000Z</time>
      </trkpt>
      <trkpt lat="42.81221" lon="0.29431">
        <ele>1700</ele>
        <time>2020-07-27T15:18:39.000Z</time>
      </trkpt>
      <trkpt lat="42.8122" lon="0.29427">
        <ele>1699</ele>
        <time>2020-07-27T15:18:40.000Z</time>
      </trkpt>
      <trkpt lat="42.81219" lon="0.29423">
        <ele>1700</ele>
        <time>2020-07-27T15:18:41.000Z</time>
      </trkpt>
      <trkpt lat="42.81219" lon="0.29419">
        <ele>1699</ele>
        <time>2020-07-27T15:18:42.000Z</time>
      </trkpt>
      <trkpt lat="42.81218" lon="0.29415">
        <ele>1700</ele>
        <time>2020-07-27T15:18:43.000Z</time>
      </trkpt>
      <trkpt lat="42.81217" lon="0.29412">
        <ele>1700</ele>
        <time>2020-07-27T15:18:44.000Z</time>
      </trkpt>
      <trkpt lat="42.81217" lon="0.29408">
        <ele>1700</ele>
        <time>2020-07-27T15:18:45.000Z</time>
      </trkpt>
      <trkpt lat="42.81217" lon="0.29405">
        <ele>1700</ele>
        <time>2020-07-27T15:18:46.000Z</time>
      </trkpt>
      <trkpt lat="42.81216" lon="0.29401">
        <ele>1700</ele>
        <time>2020-07-27T15:18:47.000Z</time>
      </trkpt>
      <trkpt lat="42.81216" lon="0.29397">
        <ele>1700</ele>
        <time>2020-07-27T15:18:48.000Z</time>
      </trkpt>
      <trkpt lat="42.81215" lon="0.29394">
        <ele>1701</ele>
        <time>2020-07-27T15:18:49.000Z</time>
      </trkpt>
      <trkpt lat="42.81215" lon="0.2939">
        <ele>1702</ele>
        <time>2020-07-27T15:18:50.000Z</time>
      </trkpt>
      <trkpt lat="42.81214" lon="0.29386">
        <ele>1702</ele>
        <time>2020-07-27T15:18:51.000Z</time>
      </trkpt>
      <trkpt lat="42.81214" lon="0.29383">
        <ele>1702</ele>
        <time>2020-07-27T15:18:52.000Z</time>
      </trkpt>
      <trkpt lat="42.81213" lon="0.29379">
        <ele>1702</ele>
        <time>2020-07-27T15:18:53.000Z</time>
      </trkpt>
      <trkpt lat="42.81213" lon="0.29376">
        <ele>1704</ele>
        <time>2020-07-27T15:18:54.000Z</time>
      </trkpt>
      <trkpt lat="42.81212" lon="0.29372">
        <ele>1704</ele>
        <time>2020-07-27T15:18:55.000Z</time>
      </trkpt>
      <trkpt lat="42.81212" lon="0.29368">
        <ele>1703</ele>
        <time>2020-07-27T15:18:56.000Z</time>
      </trkpt>
      <trkpt lat="42.81211" lon="0.29365">
        <ele>1703</ele>
        <time>2020-07-27T15:18:57.000Z</time>
      </trkpt>
      <trkpt lat="42.8121" lon="0.29361">
        <ele>1703</ele>
        <time>2020-07-27T15:18:58.000Z</time>
      </trkpt>
      <trkpt lat="42.8121" lon="0.29358">
        <ele>1704</ele>
        <time>2020-07-27T15:18:59.000Z</time>
      </trkpt>
      <trkpt lat="42.81209" lon="0.29354">
        <ele>1704</ele>
        <time>2020-07-27T15:19:00.000Z</time>
      </trkpt>
      <trkpt lat="42.81209" lon="0.29351">
        <ele>1704</ele>
        <time>2020-07-27T15:19:01.000Z</time>
      </trkpt>
      <trkpt lat="42.81208" lon="0.29347">
        <ele>1704</ele>
        <time>2020-07-27T15:19:02.000Z</time>
      </trkpt>
      <trkpt lat="42.81208" lon="0.29344">
        <ele>1705</ele>
        <time>2020-07-27T15:19:03.000Z</time>
      </trkpt>
      <trkpt lat="42.81207" lon="0.29341">
        <ele>1705</ele>
        <time>2020-07-27T15:19:04.000Z</time>
      </trkpt>
      <trkpt lat="42.81207" lon="0.29337">
        <ele>1705</ele>
        <time>2020-07-27T15:19:05.000Z</time>
      </trkpt>
      <trkpt lat="42.81206" lon="0.29334">
        <ele>1706</ele>
        <time>2020-07-27T15:19:06.000Z</time>
      </trkpt>
      <trkpt lat="42.81205" lon="0.29331">
        <ele>1706</ele>
        <time>2020-07-27T15:19:07.000Z</time>
      </trkpt>
      <trkpt lat="42.81205" lon="0.29328">
        <ele>1706</ele>
        <time>2020-07-27T15:19:08.000Z</time>
      </trkpt>
      <trkpt lat="42.81204" lon="0.29324">
        <ele>1707</ele>
        <time>2020-07-27T15:19:09.000Z</time>
      </trkpt>
      <trkpt lat="42.81204" lon="0.29321">
        <ele>1707</ele>
        <time>2020-07-27T15:19:10.000Z</time>
      </trkpt>
      <trkpt lat="42.81203" lon="0.29317">
        <ele>1707</ele>
        <time>2020-07-27T15:19:11.000Z</time>
      </trkpt>
      <trkpt lat="42.81203" lon="0.29314">
        <ele>1707</ele>
        <time>2020-07-27T15:19:12.000Z</time>
      </trkpt>
      <trkpt lat="42.81202" lon="0.2931">
        <ele>1707</ele>
        <time>2020-07-27T15:19:13.000Z</time>
      </trkpt>
      <trkpt lat="42.81201" lon="0.29307">
        <ele>1708</ele>
        <time>2020-07-27T15:19:14.000Z</time>
      </trkpt>
      <trkpt lat="42.81201" lon="0.29303">
        <ele>1708</ele>
        <time>2020-07-27T15:19:15.000Z</time>
      </trkpt>
      <trkpt lat="42.81201" lon="0.293">
        <ele>1709</ele>
        <time>2020-07-27T15:19:16.000Z</time>
      </trkpt>
      <trkpt lat="42.812" lon="0.29296">
        <ele>1709</ele>
        <time>2020-07-27T15:19:17.000Z</time>
      </trkpt>
      <trkpt lat="42.812" lon="0.29293">
        <ele>1710</ele>
        <time>2020-07-27T15:19:18.000Z</time>
      </trkpt>
      <trkpt lat="42.81199" lon="0.29289">
        <ele>1710</ele>
        <time>2020-07-27T15:19:19.000Z</time>
      </trkpt>
      <trkpt lat="42.81199" lon="0.29284">
        <ele>1710</ele>
        <time>2020-07-27T15:19:20.000Z</time>
      </trkpt>
      <trkpt lat="42.81198" lon="0.2928">
        <ele>1710</ele>
        <time>2020-07-27T15:19:21.000Z</time>
      </trkpt>
      <trkpt lat="42.81198" lon="0.29276">
        <ele>1710</ele>
        <time>2020-07-27T15:19:22.000Z</time>
      </trkpt>
      <trkpt lat="42.81198" lon="0.29272">
        <ele>1710</ele>
        <time>2020-07-27T15:19:23.000Z</time>
      </trkpt>
      <trkpt lat="42.81198" lon="0.29267">
        <ele>1710</ele>
        <time>2020-07-27T15:19:24.000Z</time>
      </trkpt>
      <trkpt lat="42.81198" lon="0.29263">
        <ele>1710</ele>
        <time>2020-07-27T15:19:25.000Z</time>
      </trkpt>
      <trkpt lat="42.81198" lon="0.29259">
        <ele>1709</ele>
        <time>2020-07-27T15:19:26.000Z</time>
      </trkpt>
      <trkpt lat="42.81199" lon="0.29255">
        <ele>1709</ele>
        <time>2020-07-27T15:19:27.000Z</time>
      </trkpt>
      <trkpt lat="42.81199" lon="0.29251">
        <ele>1709</ele>
        <time>2020-07-27T15:19:28.000Z</time>
      </trkpt>
      <trkpt lat="42.81199" lon="0.29247">
        <ele>1710</ele>
        <time>2020-07-27T15:19:29.000Z</time>
      </trkpt>
      <trkpt lat="42.812" lon="0.29243">
        <ele>1711</ele>
        <time>2020-07-27T15:19:30.000Z</time>
      </trkpt>
      <trkpt lat="42.812" lon="0.2924">
        <ele>1711</ele>
        <time>2020-07-27T15:19:31.000Z</time>
      </trkpt>
      <trkpt lat="42.812" lon="0.29236">
        <ele>1711</ele>
        <time>2020-07-27T15:19:32.000Z</time>
      </trkpt>
      <trkpt lat="42.812" lon="0.29232">
        <ele>1711</ele>
        <time>2020-07-27T15:19:33.000Z</time>
      </trkpt>
      <trkpt lat="42.812" lon="0.29228">
        <ele>1711</ele>
        <time>2020-07-27T15:19:34.000Z</time>
      </trkpt>
      <trkpt lat="42.812" lon="0.29223">
        <ele>1710</ele>
        <time>2020-07-27T15:19:35.000Z</time>
      </trkpt>
      <trkpt lat="42.812" lon="0.29219">
        <ele>1710</ele>
        <time>2020-07-27T15:19:36.000Z</time>
      </trkpt>
      <trkpt lat="42.81201" lon="0.29216">
        <ele>1711</ele>
        <time>2020-07-27T15:19:37.000Z</time>
      </trkpt>
      <trkpt lat="42.81201" lon="0.29212">
        <ele>1711</ele>
        <time>2020-07-27T15:19:38.000Z</time>
      </trkpt>
      <trkpt lat="42.81201" lon="0.29208">
        <ele>1711</ele>
        <time>2020-07-27T15:19:39.000Z</time>
      </trkpt>
      <trkpt lat="42.81201" lon="0.29204">
        <ele>1711</ele>
        <time>2020-07-27T15:19:40.000Z</time>
      </trkpt>
      <trkpt lat="42.81201" lon="0.292">
        <ele>1711</ele>
        <time>2020-07-27T15:19:41.000Z</time>
      </trkpt>
      <trkpt lat="42.81201" lon="0.29196">
        <ele>1712</ele>
        <time>2020-07-27T15:19:42.000Z</time>
      </trkpt>
      <trkpt lat="42.81201" lon="0.29192">
        <ele>1712</ele>
        <time>2020-07-27T15:19:43.000Z</time>
      </trkpt>
      <trkpt lat="42.81201" lon="0.29188">
        <ele>1713</ele>
        <time>2020-07-27T15:19:44.000Z</time>
      </trkpt>
      <trkpt lat="42.81201" lon="0.29184">
        <ele>1714</ele>
        <time>2020-07-27T15:19:45.000Z</time>
      </trkpt>
      <trkpt lat="42.81201" lon="0.29181">
        <ele>1714</ele>
        <time>2020-07-27T15:19:46.000Z</time>
      </trkpt>
      <trkpt lat="42.81201" lon="0.29177">
        <ele>1714</ele>
        <time>2020-07-27T15:19:47.000Z</time>
      </trkpt>
      <trkpt lat="42.81201" lon="0.29173">
        <ele>1715</ele>
        <time>2020-07-27T15:19:48.000Z</time>
      </trkpt>
      <trkpt lat="42.81201" lon="0.29169">
        <ele>1714</ele>
        <time>2020-07-27T15:19:49.000Z</time>
      </trkpt>
      <trkpt lat="42.81202" lon="0.29166">
        <ele>1716</ele>
        <time>2020-07-27T15:19:50.000Z</time>
      </trkpt>
      <trkpt lat="42.81202" lon="0.29162">
        <ele>1716</ele>
        <time>2020-07-27T15:19:51.000Z</time>
      </trkpt>
      <trkpt lat="42.81202" lon="0.29159">
        <ele>1717</ele>
        <time>2020-07-27T15:19:52.000Z</time>
      </trkpt>
      <trkpt lat="42.81201" lon="0.29155">
        <ele>1717</ele>
        <time>2020-07-27T15:19:53.000Z</time>
      </trkpt>
      <trkpt lat="42.81201" lon="0.29151">
        <ele>1717</ele>
        <time>2020-07-27T15:19:54.000Z</time>
      </trkpt>
      <trkpt lat="42.81201" lon="0.29148">
        <ele>1718</ele>
        <time>2020-07-27T15:19:55.000Z</time>
      </trkpt>
      <trkpt lat="42.81201" lon="0.29144">
        <ele>1718</ele>
        <time>2020-07-27T15:19:56.000Z</time>
      </trkpt>
      <trkpt lat="42.812" lon="0.2914">
        <ele>1718</ele>
        <time>2020-07-27T15:19:57.000Z</time>
      </trkpt>
      <trkpt lat="42.812" lon="0.29137">
        <ele>1719</ele>
        <time>2020-07-27T15:19:58.000Z</time>
      </trkpt>
      <trkpt lat="42.812" lon="0.29133">
        <ele>1719</ele>
        <time>2020-07-27T15:19:59.000Z</time>
      </trkpt>
      <trkpt lat="42.812" lon="0.29129">
        <ele>1719</ele>
        <time>2020-07-27T15:20:00.000Z</time>
      </trkpt>
      <trkpt lat="42.81199" lon="0.29126">
        <ele>1719</ele>
        <time>2020-07-27T15:20:01.000Z</time>
      </trkpt>
      <trkpt lat="42.81199" lon="0.29122">
        <ele>1719</ele>
        <time>2020-07-27T15:20:02.000Z</time>
      </trkpt>
      <trkpt lat="42.81199" lon="0.29119">
        <ele>1720</ele>
        <time>2020-07-27T15:20:03.000Z</time>
      </trkpt>
      <trkpt lat="42.81199" lon="0.29116">
        <ele>1720</ele>
        <time>2020-07-27T15:20:04.000Z</time>
      </trkpt>
      <trkpt lat="42.81198" lon="0.29113">
        <ele>1720</ele>
        <time>2020-07-27T15:20:05.000Z</time>
      </trkpt>
      <trkpt lat="42.81198" lon="0.29109">
        <ele>1720</ele>
        <time>2020-07-27T15:20:06.000Z</time>
      </trkpt>
      <trkpt lat="42.81197" lon="0.29106">
        <ele>1720</ele>
        <time>2020-07-27T15:20:07.000Z</time>
      </trkpt>
      <trkpt lat="42.81197" lon="0.29102">
        <ele>1720</ele>
        <time>2020-07-27T15:20:08.000Z</time>
      </trkpt>
      <trkpt lat="42.81197" lon="0.29099">
        <ele>1720</ele>
        <time>2020-07-27T15:20:09.000Z</time>
      </trkpt>
      <trkpt lat="42.81196" lon="0.29095">
        <ele>1721</ele>
        <time>2020-07-27T15:20:10.000Z</time>
      </trkpt>
      <trkpt lat="42.81196" lon="0.29091">
        <ele>1721</ele>
        <time>2020-07-27T15:20:11.000Z</time>
      </trkpt>
      <trkpt lat="42.81196" lon="0.29087">
        <ele>1721</ele>
        <time>2020-07-27T15:20:12.000Z</time>
      </trkpt>
      <trkpt lat="42.81195" lon="0.29084">
        <ele>1721</ele>
        <time>2020-07-27T15:20:13.000Z</time>
      </trkpt>
      <trkpt lat="42.81195" lon="0.2908">
        <ele>1722</ele>
        <time>2020-07-27T15:20:14.000Z</time>
      </trkpt>
      <trkpt lat="42.81195" lon="0.29076">
        <ele>1721</ele>
        <time>2020-07-27T15:20:15.000Z</time>
      </trkpt>
      <trkpt lat="42.81195" lon="0.29073">
        <ele>1721</ele>
        <time>2020-07-27T15:20:16.000Z</time>
      </trkpt>
      <trkpt lat="42.81195" lon="0.29069">
        <ele>1721</ele>
        <time>2020-07-27T15:20:17.000Z</time>
      </trkpt>
      <trkpt lat="42.81195" lon="0.29066">
        <ele>1722</ele>
        <time>2020-07-27T15:20:18.000Z</time>
      </trkpt>
      <trkpt lat="42.81195" lon="0.29062">
        <ele>1722</ele>
        <time>2020-07-27T15:20:19.000Z</time>
      </trkpt>
      <trkpt lat="42.81195" lon="0.29059">
        <ele>1722</ele>
        <time>2020-07-27T15:20:20.000Z</time>
      </trkpt>
      <trkpt lat="42.81195" lon="0.29056">
        <ele>1723</ele>
        <time>2020-07-27T15:20:21.000Z</time>
      </trkpt>
      <trkpt lat="42.81195" lon="0.29052">
        <ele>1723</ele>
        <time>2020-07-27T15:20:22.000Z</time>
      </trkpt>
      <trkpt lat="42.81195" lon="0.29049">
        <ele>1723</ele>
        <time>2020-07-27T15:20:23.000Z</time>
      </trkpt>
      <trkpt lat="42.81194" lon="0.29045">
        <ele>1724</ele>
        <time>2020-07-27T15:20:24.000Z</time>
      </trkpt>
      <trkpt lat="42.81194" lon="0.29042">
        <ele>1724</ele>
        <time>2020-07-27T15:20:25.000Z</time>
      </trkpt>
      <trkpt lat="42.81194" lon="0.29039">
        <ele>1723</ele>
        <time>2020-07-27T15:20:26.000Z</time>
      </trkpt>
      <trkpt lat="42.81194" lon="0.29035">
        <ele>1723</ele>
        <time>2020-07-27T15:20:27.000Z</time>
      </trkpt>
      <trkpt lat="42.81194" lon="0.29032">
        <ele>1722</ele>
        <time>2020-07-27T15:20:28.000Z</time>
      </trkpt>
      <trkpt lat="42.81194" lon="0.29029">
        <ele>1722</ele>
        <time>2020-07-27T15:20:29.000Z</time>
      </trkpt>
      <trkpt lat="42.81194" lon="0.29026">
        <ele>1723</ele>
        <time>2020-07-27T15:20:30.000Z</time>
      </trkpt>
      <trkpt lat="42.81194" lon="0.29023">
        <ele>1724</ele>
        <time>2020-07-27T15:20:31.000Z</time>
      </trkpt>
      <trkpt lat="42.81194" lon="0.2902">
        <ele>1725</ele>
        <time>2020-07-27T15:20:32.000Z</time>
      </trkpt>
      <trkpt lat="42.81194" lon="0.29017">
        <ele>1726</ele>
        <time>2020-07-27T15:20:33.000Z</time>
      </trkpt>
      <trkpt lat="42.81194" lon="0.29014">
        <ele>1727</ele>
        <time>2020-07-27T15:20:34.000Z</time>
      </trkpt>
      <trkpt lat="42.81193" lon="0.29011">
        <ele>1727</ele>
        <time>2020-07-27T15:20:35.000Z</time>
      </trkpt>
      <trkpt lat="42.81193" lon="0.29008">
        <ele>1726</ele>
        <time>2020-07-27T15:20:36.000Z</time>
      </trkpt>
      <trkpt lat="42.81193" lon="0.29005">
        <ele>1727</ele>
        <time>2020-07-27T15:20:37.000Z</time>
      </trkpt>
      <trkpt lat="42.81193" lon="0.29002">
        <ele>1727</ele>
        <time>2020-07-27T15:20:38.000Z</time>
      </trkpt>
      <trkpt lat="42.81193" lon="0.28999">
        <ele>1729</ele>
        <time>2020-07-27T15:20:39.000Z</time>
      </trkpt>
      <trkpt lat="42.81193" lon="0.28995">
        <ele>1729</ele>
        <time>2020-07-27T15:20:40.000Z</time>
      </trkpt>
      <trkpt lat="42.81193" lon="0.28992">
        <ele>1730</ele>
        <time>2020-07-27T15:20:41.000Z</time>
      </trkpt>
      <trkpt lat="42.81193" lon="0.28989">
        <ele>1732</ele>
        <time>2020-07-27T15:20:42.000Z</time>
      </trkpt>
      <trkpt lat="42.81193" lon="0.28986">
        <ele>1731</ele>
        <time>2020-07-27T15:20:43.000Z</time>
      </trkpt>
      <trkpt lat="42.81193" lon="0.28983">
        <ele>1732</ele>
        <time>2020-07-27T15:20:44.000Z</time>
      </trkpt>
      <trkpt lat="42.81193" lon="0.2898">
        <ele>1732</ele>
        <time>2020-07-27T15:20:45.000Z</time>
      </trkpt>
      <trkpt lat="42.81194" lon="0.28977">
        <ele>1732</ele>
        <time>2020-07-27T15:20:46.000Z</time>
      </trkpt>
      <trkpt lat="42.81194" lon="0.28974">
        <ele>1732</ele>
        <time>2020-07-27T15:20:47.000Z</time>
      </trkpt>
      <trkpt lat="42.81195" lon="0.28971">
        <ele>1732</ele>
        <time>2020-07-27T15:20:48.000Z</time>
      </trkpt>
      <trkpt lat="42.81195" lon="0.28968">
        <ele>1732</ele>
        <time>2020-07-27T15:20:49.000Z</time>
      </trkpt>
      <trkpt lat="42.81195" lon="0.28965">
        <ele>1733</ele>
        <time>2020-07-27T15:20:50.000Z</time>
      </trkpt>
      <trkpt lat="42.81196" lon="0.28961">
        <ele>1733</ele>
        <time>2020-07-27T15:20:51.000Z</time>
      </trkpt>
      <trkpt lat="42.81196" lon="0.28958">
        <ele>1735</ele>
        <time>2020-07-27T15:20:52.000Z</time>
      </trkpt>
      <trkpt lat="42.81196" lon="0.28955">
        <ele>1734</ele>
        <time>2020-07-27T15:20:53.000Z</time>
      </trkpt>
      <trkpt lat="42.81197" lon="0.28952">
        <ele>1735</ele>
        <time>2020-07-27T15:20:54.000Z</time>
      </trkpt>
      <trkpt lat="42.81198" lon="0.28948">
        <ele>1735</ele>
        <time>2020-07-27T15:20:55.000Z</time>
      </trkpt>
      <trkpt lat="42.81198" lon="0.28945">
        <ele>1736</ele>
        <time>2020-07-27T15:20:56.000Z</time>
      </trkpt>
      <trkpt lat="42.81199" lon="0.28942">
        <ele>1736</ele>
        <time>2020-07-27T15:20:57.000Z</time>
      </trkpt>
      <trkpt lat="42.81199" lon="0.28939">
        <ele>1735</ele>
        <time>2020-07-27T15:20:58.000Z</time>
      </trkpt>
      <trkpt lat="42.812" lon="0.28936">
        <ele>1736</ele>
        <time>2020-07-27T15:20:59.000Z</time>
      </trkpt>
      <trkpt lat="42.81201" lon="0.28932">
        <ele>1736</ele>
        <time>2020-07-27T15:21:00.000Z</time>
      </trkpt>
      <trkpt lat="42.81201" lon="0.28928">
        <ele>1736</ele>
        <time>2020-07-27T15:21:01.000Z</time>
      </trkpt>
      <trkpt lat="42.81202" lon="0.28925">
        <ele>1737</ele>
        <time>2020-07-27T15:21:02.000Z</time>
      </trkpt>
      <trkpt lat="42.81203" lon="0.28921">
        <ele>1737</ele>
        <time>2020-07-27T15:21:03.000Z</time>
      </trkpt>
      <trkpt lat="42.81203" lon="0.28918">
        <ele>1738</ele>
        <time>2020-07-27T15:21:04.000Z</time>
      </trkpt>
      <trkpt lat="42.81204" lon="0.28914">
        <ele>1738</ele>
        <time>2020-07-27T15:21:05.000Z</time>
      </trkpt>
      <trkpt lat="42.81205" lon="0.2891">
        <ele>1739</ele>
        <time>2020-07-27T15:21:06.000Z</time>
      </trkpt>
      <trkpt lat="42.81206" lon="0.28907">
        <ele>1739</ele>
        <time>2020-07-27T15:21:07.000Z</time>
      </trkpt>
      <trkpt lat="42.81206" lon="0.28904">
        <ele>1738</ele>
        <time>2020-07-27T15:21:08.000Z</time>
      </trkpt>
      <trkpt lat="42.81207" lon="0.289">
        <ele>1738</ele>
        <time>2020-07-27T15:21:09.000Z</time>
      </trkpt>
      <trkpt lat="42.81208" lon="0.28897">
        <ele>1739</ele>
        <time>2020-07-27T15:21:10.000Z</time>
      </trkpt>
      <trkpt lat="42.81208" lon="0.28894">
        <ele>1739</ele>
        <time>2020-07-27T15:21:11.000Z</time>
      </trkpt>
      <trkpt lat="42.81209" lon="0.28891">
        <ele>1739</ele>
        <time>2020-07-27T15:21:12.000Z</time>
      </trkpt>
      <trkpt lat="42.8121" lon="0.28887">
        <ele>1739</ele>
        <time>2020-07-27T15:21:13.000Z</time>
      </trkpt>
      <trkpt lat="42.8121" lon="0.28884">
        <ele>1739</ele>
        <time>2020-07-27T15:21:14.000Z</time>
      </trkpt>
      <trkpt lat="42.81211" lon="0.28881">
        <ele>1740</ele>
        <time>2020-07-27T15:21:15.000Z</time>
      </trkpt>
      <trkpt lat="42.81212" lon="0.28877">
        <ele>1741</ele>
        <time>2020-07-27T15:21:16.000Z</time>
      </trkpt>
      <trkpt lat="42.81212" lon="0.28874">
        <ele>1741</ele>
        <time>2020-07-27T15:21:17.000Z</time>
      </trkpt>
      <trkpt lat="42.81213" lon="0.28871">
        <ele>1742</ele>
        <time>2020-07-27T15:21:18.000Z</time>
      </trkpt>
      <trkpt lat="42.81213" lon="0.28868">
        <ele>1742</ele>
        <time>2020-07-27T15:21:19.000Z</time>
      </trkpt>
      <trkpt lat="42.81214" lon="0.28864">
        <ele>1743</ele>
        <time>2020-07-27T15:21:20.000Z</time>
      </trkpt>
      <trkpt lat="42.81214" lon="0.2886">
        <ele>1743</ele>
        <time>2020-07-27T15:21:21.000Z</time>
      </trkpt>
      <trkpt lat="42.81214" lon="0.28856">
        <ele>1744</ele>
        <time>2020-07-27T15:21:22.000Z</time>
      </trkpt>
      <trkpt lat="42.81214" lon="0.28853">
        <ele>1744</ele>
        <time>2020-07-27T15:21:23.000Z</time>
      </trkpt>
      <trkpt lat="42.81215" lon="0.28849">
        <ele>1744</ele>
        <time>2020-07-27T15:21:24.000Z</time>
      </trkpt>
      <trkpt lat="42.81215" lon="0.28846">
        <ele>1745</ele>
        <time>2020-07-27T15:21:25.000Z</time>
      </trkpt>
      <trkpt lat="42.81215" lon="0.28842">
        <ele>1746</ele>
        <time>2020-07-27T15:21:26.000Z</time>
      </trkpt>
      <trkpt lat="42.81215" lon="0.28839">
        <ele>1745</ele>
        <time>2020-07-27T15:21:27.000Z</time>
      </trkpt>
      <trkpt lat="42.81215" lon="0.28835">
        <ele>1746</ele>
        <time>2020-07-27T15:21:28.000Z</time>
      </trkpt>
      <trkpt lat="42.81215" lon="0.28832">
        <ele>1747</ele>
        <time>2020-07-27T15:21:29.000Z</time>
      </trkpt>
      <trkpt lat="42.81215" lon="0.28828">
        <ele>1747</ele>
        <time>2020-07-27T15:21:30.000Z</time>
      </trkpt>
      <trkpt lat="42.81216" lon="0.28825">
        <ele>1747</ele>
        <time>2020-07-27T15:21:31.000Z</time>
      </trkpt>
      <trkpt lat="42.81216" lon="0.28821">
        <ele>1748</ele>
        <time>2020-07-27T15:21:32.000Z</time>
      </trkpt>
      <trkpt lat="42.81216" lon="0.28818">
        <ele>1748</ele>
        <time>2020-07-27T15:21:33.000Z</time>
      </trkpt>
      <trkpt lat="42.81216" lon="0.28814">
        <ele>1748</ele>
        <time>2020-07-27T15:21:34.000Z</time>
      </trkpt>
      <trkpt lat="42.81216" lon="0.28811">
        <ele>1748</ele>
        <time>2020-07-27T15:21:35.000Z</time>
      </trkpt>
      <trkpt lat="42.81216" lon="0.28807">
        <ele>1749</ele>
        <time>2020-07-27T15:21:36.000Z</time>
      </trkpt>
      <trkpt lat="42.81217" lon="0.28803">
        <ele>1749</ele>
        <time>2020-07-27T15:21:37.000Z</time>
      </trkpt>
      <trkpt lat="42.81217" lon="0.28799">
        <ele>1749</ele>
        <time>2020-07-27T15:21:38.000Z</time>
      </trkpt>
      <trkpt lat="42.81217" lon="0.28796">
        <ele>1750</ele>
        <time>2020-07-27T15:21:39.000Z</time>
      </trkpt>
      <trkpt lat="42.81218" lon="0.28792">
        <ele>1750</ele>
        <time>2020-07-27T15:21:40.000Z</time>
      </trkpt>
      <trkpt lat="42.81218" lon="0.28788">
        <ele>1750</ele>
        <time>2020-07-27T15:21:41.000Z</time>
      </trkpt>
      <trkpt lat="42.81218" lon="0.28784">
        <ele>1749</ele>
        <time>2020-07-27T15:21:42.000Z</time>
      </trkpt>
      <trkpt lat="42.81219" lon="0.2878">
        <ele>1748</ele>
        <time>2020-07-27T15:21:43.000Z</time>
      </trkpt>
      <trkpt lat="42.81219" lon="0.28776">
        <ele>1748</ele>
        <time>2020-07-27T15:21:44.000Z</time>
      </trkpt>
      <trkpt lat="42.81219" lon="0.28772">
        <ele>1748</ele>
        <time>2020-07-27T15:21:45.000Z</time>
      </trkpt>
      <trkpt lat="42.81219" lon="0.28769">
        <ele>1748</ele>
        <time>2020-07-27T15:21:46.000Z</time>
      </trkpt>
      <trkpt lat="42.8122" lon="0.28765">
        <ele>1748</ele>
        <time>2020-07-27T15:21:47.000Z</time>
      </trkpt>
      <trkpt lat="42.8122" lon="0.28761">
        <ele>1748</ele>
        <time>2020-07-27T15:21:48.000Z</time>
      </trkpt>
      <trkpt lat="42.8122" lon="0.28757">
        <ele>1748</ele>
        <time>2020-07-27T15:21:49.000Z</time>
      </trkpt>
      <trkpt lat="42.81221" lon="0.28753">
        <ele>1748</ele>
        <time>2020-07-27T15:21:50.000Z</time>
      </trkpt>
      <trkpt lat="42.81221" lon="0.28749">
        <ele>1748</ele>
        <time>2020-07-27T15:21:51.000Z</time>
      </trkpt>
      <trkpt lat="42.81222" lon="0.28745">
        <ele>1748</ele>
        <time>2020-07-27T15:21:52.000Z</time>
      </trkpt>
      <trkpt lat="42.81223" lon="0.28741">
        <ele>1748</ele>
        <time>2020-07-27T15:21:53.000Z</time>
      </trkpt>
      <trkpt lat="42.81223" lon="0.28738">
        <ele>1748</ele>
        <time>2020-07-27T15:21:54.000Z</time>
      </trkpt>
      <trkpt lat="42.81224" lon="0.28734">
        <ele>1747</ele>
        <time>2020-07-27T15:21:55.000Z</time>
      </trkpt>
      <trkpt lat="42.81224" lon="0.2873">
        <ele>1747</ele>
        <time>2020-07-27T15:21:56.000Z</time>
      </trkpt>
      <trkpt lat="42.81225" lon="0.28727">
        <ele>1747</ele>
        <time>2020-07-27T15:21:57.000Z</time>
      </trkpt>
      <trkpt lat="42.81226" lon="0.28724">
        <ele>1748</ele>
        <time>2020-07-27T15:21:58.000Z</time>
      </trkpt>
      <trkpt lat="42.81228" lon="0.28721">
        <ele>1748</ele>
        <time>2020-07-27T15:21:59.000Z</time>
      </trkpt>
      <trkpt lat="42.81229" lon="0.28717">
        <ele>1747</ele>
        <time>2020-07-27T15:22:00.000Z</time>
      </trkpt>
      <trkpt lat="42.8123" lon="0.28714">
        <ele>1747</ele>
        <time>2020-07-27T15:22:01.000Z</time>
      </trkpt>
      <trkpt lat="42.81231" lon="0.2871">
        <ele>1746</ele>
        <time>2020-07-27T15:22:02.000Z</time>
      </trkpt>
      <trkpt lat="42.81233" lon="0.28707">
        <ele>1745</ele>
        <time>2020-07-27T15:22:03.000Z</time>
      </trkpt>
      <trkpt lat="42.81234" lon="0.28703">
        <ele>1745</ele>
        <time>2020-07-27T15:22:04.000Z</time>
      </trkpt>
      <trkpt lat="42.81235" lon="0.287">
        <ele>1745</ele>
        <time>2020-07-27T15:22:05.000Z</time>
      </trkpt>
      <trkpt lat="42.81236" lon="0.28697">
        <ele>1745</ele>
        <time>2020-07-27T15:22:06.000Z</time>
      </trkpt>
      <trkpt lat="42.81238" lon="0.28693">
        <ele>1745</ele>
        <time>2020-07-27T15:22:07.000Z</time>
      </trkpt>
      <trkpt lat="42.81239" lon="0.28689">
        <ele>1745</ele>
        <time>2020-07-27T15:22:08.000Z</time>
      </trkpt>
      <trkpt lat="42.8124" lon="0.28685">
        <ele>1744</ele>
        <time>2020-07-27T15:22:09.000Z</time>
      </trkpt>
      <trkpt lat="42.81241" lon="0.28681">
        <ele>1745</ele>
        <time>2020-07-27T15:22:10.000Z</time>
      </trkpt>
      <trkpt lat="42.81243" lon="0.28677">
        <ele>1746</ele>
        <time>2020-07-27T15:22:11.000Z</time>
      </trkpt>
      <trkpt lat="42.81244" lon="0.28674">
        <ele>1747</ele>
        <time>2020-07-27T15:22:12.000Z</time>
      </trkpt>
      <trkpt lat="42.81245" lon="0.2867">
        <ele>1747</ele>
        <time>2020-07-27T15:22:13.000Z</time>
      </trkpt>
      <trkpt lat="42.81245" lon="0.28667">
        <ele>1747</ele>
        <time>2020-07-27T15:22:14.000Z</time>
      </trkpt>
      <trkpt lat="42.81246" lon="0.28663">
        <ele>1748</ele>
        <time>2020-07-27T15:22:15.000Z</time>
      </trkpt>
      <trkpt lat="42.81247" lon="0.2866">
        <ele>1748</ele>
        <time>2020-07-27T15:22:16.000Z</time>
      </trkpt>
      <trkpt lat="42.81248" lon="0.28656">
        <ele>1749</ele>
        <time>2020-07-27T15:22:17.000Z</time>
      </trkpt>
      <trkpt lat="42.81249" lon="0.28653">
        <ele>1749</ele>
        <time>2020-07-27T15:22:18.000Z</time>
      </trkpt>
      <trkpt lat="42.8125" lon="0.2865">
        <ele>1749</ele>
        <time>2020-07-27T15:22:19.000Z</time>
      </trkpt>
      <trkpt lat="42.81251" lon="0.28647">
        <ele>1748</ele>
        <time>2020-07-27T15:22:20.000Z</time>
      </trkpt>
      <trkpt lat="42.81253" lon="0.28644">
        <ele>1748</ele>
        <time>2020-07-27T15:22:21.000Z</time>
      </trkpt>
      <trkpt lat="42.81255" lon="0.28641">
        <ele>1748</ele>
        <time>2020-07-27T15:22:22.000Z</time>
      </trkpt>
      <trkpt lat="42.81256" lon="0.28638">
        <ele>1748</ele>
        <time>2020-07-27T15:22:23.000Z</time>
      </trkpt>
      <trkpt lat="42.81258" lon="0.28635">
        <ele>1748</ele>
        <time>2020-07-27T15:22:24.000Z</time>
      </trkpt>
      <trkpt lat="42.81259" lon="0.28633">
        <ele>1748</ele>
        <time>2020-07-27T15:22:25.000Z</time>
      </trkpt>
      <trkpt lat="42.81261" lon="0.2863">
        <ele>1748</ele>
        <time>2020-07-27T15:22:26.000Z</time>
      </trkpt>
      <trkpt lat="42.81262" lon="0.28627">
        <ele>1748</ele>
        <time>2020-07-27T15:22:27.000Z</time>
      </trkpt>
      <trkpt lat="42.81264" lon="0.28624">
        <ele>1749</ele>
        <time>2020-07-27T15:22:28.000Z</time>
      </trkpt>
      <trkpt lat="42.81266" lon="0.28621">
        <ele>1748</ele>
        <time>2020-07-27T15:22:29.000Z</time>
      </trkpt>
      <trkpt lat="42.81267" lon="0.28618">
        <ele>1749</ele>
        <time>2020-07-27T15:22:30.000Z</time>
      </trkpt>
      <trkpt lat="42.81269" lon="0.28615">
        <ele>1750</ele>
        <time>2020-07-27T15:22:31.000Z</time>
      </trkpt>
      <trkpt lat="42.81271" lon="0.28612">
        <ele>1750</ele>
        <time>2020-07-27T15:22:32.000Z</time>
      </trkpt>
      <trkpt lat="42.81272" lon="0.28609">
        <ele>1751</ele>
        <time>2020-07-27T15:22:33.000Z</time>
      </trkpt>
      <trkpt lat="42.81274" lon="0.28606">
        <ele>1751</ele>
        <time>2020-07-27T15:22:34.000Z</time>
      </trkpt>
      <trkpt lat="42.81275" lon="0.28604">
        <ele>1751</ele>
        <time>2020-07-27T15:22:35.000Z</time>
      </trkpt>
      <trkpt lat="42.81277" lon="0.28601">
        <ele>1751</ele>
        <time>2020-07-27T15:22:36.000Z</time>
      </trkpt>
      <trkpt lat="42.81278" lon="0.28598">
        <ele>1751</ele>
        <time>2020-07-27T15:22:37.000Z</time>
      </trkpt>
      <trkpt lat="42.81279" lon="0.28596">
        <ele>1752</ele>
        <time>2020-07-27T15:22:38.000Z</time>
      </trkpt>
      <trkpt lat="42.81281" lon="0.28593">
        <ele>1751</ele>
        <time>2020-07-27T15:22:39.000Z</time>
      </trkpt>
      <trkpt lat="42.81282" lon="0.2859">
        <ele>1751</ele>
        <time>2020-07-27T15:22:40.000Z</time>
      </trkpt>
      <trkpt lat="42.81283" lon="0.28587">
        <ele>1752</ele>
        <time>2020-07-27T15:22:41.000Z</time>
      </trkpt>
      <trkpt lat="42.81284" lon="0.28584">
        <ele>1752</ele>
        <time>2020-07-27T15:22:42.000Z</time>
      </trkpt>
      <trkpt lat="42.81285" lon="0.28581">
        <ele>1753</ele>
        <time>2020-07-27T15:22:43.000Z</time>
      </trkpt>
      <trkpt lat="42.81286" lon="0.28578">
        <ele>1753</ele>
        <time>2020-07-27T15:22:44.000Z</time>
      </trkpt>
      <trkpt lat="42.81287" lon="0.28575">
        <ele>1754</ele>
        <time>2020-07-27T15:22:45.000Z</time>
      </trkpt>
      <trkpt lat="42.81287" lon="0.28572">
        <ele>1754</ele>
        <time>2020-07-27T15:22:46.000Z</time>
      </trkpt>
      <trkpt lat="42.81288" lon="0.28568">
        <ele>1755</ele>
        <time>2020-07-27T15:22:47.000Z</time>
      </trkpt>
      <trkpt lat="42.81288" lon="0.28565">
        <ele>1755</ele>
        <time>2020-07-27T15:22:48.000Z</time>
      </trkpt>
      <trkpt lat="42.81288" lon="0.28562">
        <ele>1755</ele>
        <time>2020-07-27T15:22:49.000Z</time>
      </trkpt>
      <trkpt lat="42.81287" lon="0.28559">
        <ele>1756</ele>
        <time>2020-07-27T15:22:50.000Z</time>
      </trkpt>
      <trkpt lat="42.81287" lon="0.28556">
        <ele>1756</ele>
        <time>2020-07-27T15:22:51.000Z</time>
      </trkpt>
      <trkpt lat="42.81287" lon="0.28554">
        <ele>1757</ele>
        <time>2020-07-27T15:22:52.000Z</time>
      </trkpt>
      <trkpt lat="42.81287" lon="0.28551">
        <ele>1757</ele>
        <time>2020-07-27T15:22:53.000Z</time>
      </trkpt>
      <trkpt lat="42.81287" lon="0.28549">
        <ele>1758</ele>
        <time>2020-07-27T15:22:54.000Z</time>
      </trkpt>
      <trkpt lat="42.81286" lon="0.28546">
        <ele>1760</ele>
        <time>2020-07-27T15:22:55.000Z</time>
      </trkpt>
      <trkpt lat="42.81286" lon="0.28544">
        <ele>1761</ele>
        <time>2020-07-27T15:22:56.000Z</time>
      </trkpt>
      <trkpt lat="42.81286" lon="0.28542">
        <ele>1762</ele>
        <time>2020-07-27T15:22:57.000Z</time>
      </trkpt>
      <trkpt lat="42.81286" lon="0.28539">
        <ele>1763</ele>
        <time>2020-07-27T15:22:58.000Z</time>
      </trkpt>
      <trkpt lat="42.81286" lon="0.28537">
        <ele>1764</ele>
        <time>2020-07-27T15:22:59.000Z</time>
      </trkpt>
      <trkpt lat="42.81286" lon="0.28534">
        <ele>1766</ele>
        <time>2020-07-27T15:23:00.000Z</time>
      </trkpt>
      <trkpt lat="42.81286" lon="0.28531">
        <ele>1765</ele>
        <time>2020-07-27T15:23:01.000Z</time>
      </trkpt>
      <trkpt lat="42.81286" lon="0.28528">
        <ele>1766</ele>
        <time>2020-07-27T15:23:02.000Z</time>
      </trkpt>
      <trkpt lat="42.81286" lon="0.28525">
        <ele>1767</ele>
        <time>2020-07-27T15:23:03.000Z</time>
      </trkpt>
      <trkpt lat="42.81286" lon="0.28522">
        <ele>1768</ele>
        <time>2020-07-27T15:23:04.000Z</time>
      </trkpt>
      <trkpt lat="42.81286" lon="0.28519">
        <ele>1768</ele>
        <time>2020-07-27T15:23:05.000Z</time>
      </trkpt>
      <trkpt lat="42.81286" lon="0.28515">
        <ele>1768</ele>
        <time>2020-07-27T15:23:06.000Z</time>
      </trkpt>
      <trkpt lat="42.81287" lon="0.28511">
        <ele>1768</ele>
        <time>2020-07-27T15:23:07.000Z</time>
      </trkpt>
      <trkpt lat="42.81287" lon="0.28508">
        <ele>1767</ele>
        <time>2020-07-27T15:23:08.000Z</time>
      </trkpt>
      <trkpt lat="42.81288" lon="0.28504">
        <ele>1768</ele>
        <time>2020-07-27T15:23:09.000Z</time>
      </trkpt>
      <trkpt lat="42.81289" lon="0.28501">
        <ele>1768</ele>
        <time>2020-07-27T15:23:10.000Z</time>
      </trkpt>
      <trkpt lat="42.8129" lon="0.28499">
        <ele>1768</ele>
        <time>2020-07-27T15:23:11.000Z</time>
      </trkpt>
      <trkpt lat="42.8129" lon="0.28496">
        <ele>1768</ele>
        <time>2020-07-27T15:23:12.000Z</time>
      </trkpt>
      <trkpt lat="42.81291" lon="0.28493">
        <ele>1767</ele>
        <time>2020-07-27T15:23:13.000Z</time>
      </trkpt>
      <trkpt lat="42.81292" lon="0.2849">
        <ele>1767</ele>
        <time>2020-07-27T15:23:14.000Z</time>
      </trkpt>
      <trkpt lat="42.81293" lon="0.28488">
        <ele>1768</ele>
        <time>2020-07-27T15:23:15.000Z</time>
      </trkpt>
      <trkpt lat="42.81295" lon="0.28486">
        <ele>1768</ele>
        <time>2020-07-27T15:23:16.000Z</time>
      </trkpt>
      <trkpt lat="42.81296" lon="0.28483">
        <ele>1767</ele>
        <time>2020-07-27T15:23:17.000Z</time>
      </trkpt>
      <trkpt lat="42.81297" lon="0.28481">
        <ele>1767</ele>
        <time>2020-07-27T15:23:18.000Z</time>
      </trkpt>
      <trkpt lat="42.81298" lon="0.28479">
        <ele>1767</ele>
        <time>2020-07-27T15:23:19.000Z</time>
      </trkpt>
      <trkpt lat="42.81299" lon="0.28477">
        <ele>1767</ele>
        <time>2020-07-27T15:23:20.000Z</time>
      </trkpt>
      <trkpt lat="42.81301" lon="0.28475">
        <ele>1768</ele>
        <time>2020-07-27T15:23:21.000Z</time>
      </trkpt>
      <trkpt lat="42.81302" lon="0.28473">
        <ele>1768</ele>
        <time>2020-07-27T15:23:22.000Z</time>
      </trkpt>
      <trkpt lat="42.81304" lon="0.28471">
        <ele>1768</ele>
        <time>2020-07-27T15:23:23.000Z</time>
      </trkpt>
      <trkpt lat="42.81306" lon="0.2847">
        <ele>1768</ele>
        <time>2020-07-27T15:23:24.000Z</time>
      </trkpt>
      <trkpt lat="42.81308" lon="0.28469">
        <ele>1769</ele>
        <time>2020-07-27T15:23:25.000Z</time>
      </trkpt>
      <trkpt lat="42.8131" lon="0.28468">
        <ele>1769</ele>
        <time>2020-07-27T15:23:26.000Z</time>
      </trkpt>
      <trkpt lat="42.81312" lon="0.28468">
        <ele>1768</ele>
        <time>2020-07-27T15:23:27.000Z</time>
      </trkpt>
      <trkpt lat="42.81314" lon="0.28468">
        <ele>1768</ele>
        <time>2020-07-27T15:23:28.000Z</time>
      </trkpt>
      <trkpt lat="42.81317" lon="0.28467">
        <ele>1769</ele>
        <time>2020-07-27T15:23:29.000Z</time>
      </trkpt>
      <trkpt lat="42.81319" lon="0.28467">
        <ele>1769</ele>
        <time>2020-07-27T15:23:30.000Z</time>
      </trkpt>
      <trkpt lat="42.81321" lon="0.28468">
        <ele>1769</ele>
        <time>2020-07-27T15:23:31.000Z</time>
      </trkpt>
      <trkpt lat="42.81324" lon="0.28468">
        <ele>1771</ele>
        <time>2020-07-27T15:23:32.000Z</time>
      </trkpt>
      <trkpt lat="42.81326" lon="0.28469">
        <ele>1772</ele>
        <time>2020-07-27T15:23:33.000Z</time>
      </trkpt>
      <trkpt lat="42.81329" lon="0.2847">
        <ele>1772</ele>
        <time>2020-07-27T15:23:34.000Z</time>
      </trkpt>
      <trkpt lat="42.81331" lon="0.28471">
        <ele>1772</ele>
        <time>2020-07-27T15:23:35.000Z</time>
      </trkpt>
      <trkpt lat="42.81334" lon="0.28472">
        <ele>1772</ele>
        <time>2020-07-27T15:23:36.000Z</time>
      </trkpt>
      <trkpt lat="42.81336" lon="0.28473">
        <ele>1773</ele>
        <time>2020-07-27T15:23:37.000Z</time>
      </trkpt>
      <trkpt lat="42.81339" lon="0.28474">
        <ele>1773</ele>
        <time>2020-07-27T15:23:38.000Z</time>
      </trkpt>
      <trkpt lat="42.81341" lon="0.28475">
        <ele>1773</ele>
        <time>2020-07-27T15:23:39.000Z</time>
      </trkpt>
      <trkpt lat="42.81343" lon="0.28476">
        <ele>1773</ele>
        <time>2020-07-27T15:23:40.000Z</time>
      </trkpt>
      <trkpt lat="42.81345" lon="0.28476">
        <ele>1774</ele>
        <time>2020-07-27T15:23:41.000Z</time>
      </trkpt>
      <trkpt lat="42.81347" lon="0.28476">
        <ele>1773</ele>
        <time>2020-07-27T15:23:42.000Z</time>
      </trkpt>
      <trkpt lat="42.81349" lon="0.28477">
        <ele>1773</ele>
        <time>2020-07-27T15:23:43.000Z</time>
      </trkpt>
      <trkpt lat="42.81351" lon="0.28477">
        <ele>1774</ele>
        <time>2020-07-27T15:23:44.000Z</time>
      </trkpt>
      <trkpt lat="42.81353" lon="0.28477">
        <ele>1775</ele>
        <time>2020-07-27T15:23:45.000Z</time>
      </trkpt>
      <trkpt lat="42.81355" lon="0.28477">
        <ele>1775</ele>
        <time>2020-07-27T15:23:46.000Z</time>
      </trkpt>
      <trkpt lat="42.81357" lon="0.28477">
        <ele>1775</ele>
        <time>2020-07-27T15:23:47.000Z</time>
      </trkpt>
      <trkpt lat="42.81358" lon="0.28476">
        <ele>1775</ele>
        <time>2020-07-27T15:23:48.000Z</time>
      </trkpt>
      <trkpt lat="42.8136" lon="0.28476">
        <ele>1775</ele>
        <time>2020-07-27T15:23:49.000Z</time>
      </trkpt>
      <trkpt lat="42.81362" lon="0.28475">
        <ele>1775</ele>
        <time>2020-07-27T15:23:50.000Z</time>
      </trkpt>
      <trkpt lat="42.81363" lon="0.28474">
        <ele>1775</ele>
        <time>2020-07-27T15:23:51.000Z</time>
      </trkpt>
      <trkpt lat="42.81365" lon="0.28473">
        <ele>1775</ele>
        <time>2020-07-27T15:23:52.000Z</time>
      </trkpt>
      <trkpt lat="42.81366" lon="0.28472">
        <ele>1775</ele>
        <time>2020-07-27T15:23:53.000Z</time>
      </trkpt>
      <trkpt lat="42.81368" lon="0.28471">
        <ele>1775</ele>
        <time>2020-07-27T15:23:54.000Z</time>
      </trkpt>
      <trkpt lat="42.8137" lon="0.2847">
        <ele>1775</ele>
        <time>2020-07-27T15:23:55.000Z</time>
      </trkpt>
      <trkpt lat="42.81373" lon="0.28469">
        <ele>1776</ele>
        <time>2020-07-27T15:23:56.000Z</time>
      </trkpt>
      <trkpt lat="42.81375" lon="0.28468">
        <ele>1776</ele>
        <time>2020-07-27T15:23:57.000Z</time>
      </trkpt>
      <trkpt lat="42.81377" lon="0.28467">
        <ele>1778</ele>
        <time>2020-07-27T15:23:58.000Z</time>
      </trkpt>
      <trkpt lat="42.81379" lon="0.28465">
        <ele>1777</ele>
        <time>2020-07-27T15:23:59.000Z</time>
      </trkpt>
      <trkpt lat="42.81381" lon="0.28463">
        <ele>1778</ele>
        <time>2020-07-27T15:24:00.000Z</time>
      </trkpt>
      <trkpt lat="42.81382" lon="0.28461">
        <ele>1779</ele>
        <time>2020-07-27T15:24:01.000Z</time>
      </trkpt>
      <trkpt lat="42.81383" lon="0.28458">
        <ele>1780</ele>
        <time>2020-07-27T15:24:02.000Z</time>
      </trkpt>
      <trkpt lat="42.81383" lon="0.28456">
        <ele>1782</ele>
        <time>2020-07-27T15:24:03.000Z</time>
      </trkpt>
      <trkpt lat="42.81383" lon="0.28454">
        <ele>1783</ele>
        <time>2020-07-27T15:24:04.000Z</time>
      </trkpt>
      <trkpt lat="42.81383" lon="0.28453">
        <ele>1786</ele>
        <time>2020-07-27T15:24:05.000Z</time>
      </trkpt>
      <trkpt lat="42.81383" lon="0.28452">
        <ele>1788</ele>
        <time>2020-07-27T15:24:06.000Z</time>
      </trkpt>
      <trkpt lat="42.81383" lon="0.28451">
        <ele>1791</ele>
        <time>2020-07-27T15:24:07.000Z</time>
      </trkpt>
      <trkpt lat="42.81382" lon="0.2845">
        <ele>1793</ele>
        <time>2020-07-27T15:24:08.000Z</time>
      </trkpt>
      <trkpt lat="42.81382" lon="0.2845">
        <ele>1795</ele>
        <time>2020-07-27T15:24:09.000Z</time>
      </trkpt>
      <trkpt lat="42.8138" lon="0.28449">
        <ele>1797</ele>
        <time>2020-07-27T15:24:10.000Z</time>
      </trkpt>
      <trkpt lat="42.81379" lon="0.28448">
        <ele>1798</ele>
        <time>2020-07-27T15:24:11.000Z</time>
      </trkpt>
      <trkpt lat="42.81377" lon="0.28448">
        <ele>1800</ele>
        <time>2020-07-27T15:24:12.000Z</time>
      </trkpt>
      <trkpt lat="42.81375" lon="0.28447">
        <ele>1802</ele>
        <time>2020-07-27T15:24:13.000Z</time>
      </trkpt>
      <trkpt lat="42.81373" lon="0.28446">
        <ele>1803</ele>
        <time>2020-07-27T15:24:14.000Z</time>
      </trkpt>
      <trkpt lat="42.81372" lon="0.28446">
        <ele>1805</ele>
        <time>2020-07-27T15:24:15.000Z</time>
      </trkpt>
      <trkpt lat="42.8137" lon="0.28446">
        <ele>1807</ele>
        <time>2020-07-27T15:24:16.000Z</time>
      </trkpt>
      <trkpt lat="42.81368" lon="0.28446">
        <ele>1807</ele>
        <time>2020-07-27T15:24:17.000Z</time>
      </trkpt>
      <trkpt lat="42.81366" lon="0.28445">
        <ele>1807</ele>
        <time>2020-07-27T15:24:18.000Z</time>
      </trkpt>
      <trkpt lat="42.81365" lon="0.28444">
        <ele>1807</ele>
        <time>2020-07-27T15:24:19.000Z</time>
      </trkpt>
      <trkpt lat="42.81364" lon="0.28441">
        <ele>1806</ele>
        <time>2020-07-27T15:24:20.000Z</time>
      </trkpt>
      <trkpt lat="42.81363" lon="0.28439">
        <ele>1804</ele>
        <time>2020-07-27T15:24:21.000Z</time>
      </trkpt>
      <trkpt lat="42.81362" lon="0.28436">
        <ele>1804</ele>
        <time>2020-07-27T15:24:22.000Z</time>
      </trkpt>
      <trkpt lat="42.81361" lon="0.28434">
        <ele>1805</ele>
        <time>2020-07-27T15:24:23.000Z</time>
      </trkpt>
      <trkpt lat="42.8136" lon="0.28432">
        <ele>1805</ele>
        <time>2020-07-27T15:24:24.000Z</time>
      </trkpt>
      <trkpt lat="42.81359" lon="0.28431">
        <ele>1806</ele>
        <time>2020-07-27T15:24:25.000Z</time>
      </trkpt>
      <trkpt lat="42.81358" lon="0.28429">
        <ele>1807</ele>
        <time>2020-07-27T15:24:26.000Z</time>
      </trkpt>
      <trkpt lat="42.81358" lon="0.28428">
        <ele>1808</ele>
        <time>2020-07-27T15:24:27.000Z</time>
      </trkpt>
      <trkpt lat="42.81358" lon="0.28426">
        <ele>1808</ele>
        <time>2020-07-27T15:24:28.000Z</time>
      </trkpt>
      <trkpt lat="42.81357" lon="0.28425">
        <ele>1808</ele>
        <time>2020-07-27T15:24:29.000Z</time>
      </trkpt>
      <trkpt lat="42.81356" lon="0.28423">
        <ele>1808</ele>
        <time>2020-07-27T15:24:30.000Z</time>
      </trkpt>
      <trkpt lat="42.81356" lon="0.28422">
        <ele>1808</ele>
        <time>2020-07-27T15:24:31.000Z</time>
      </trkpt>
      <trkpt lat="42.81355" lon="0.2842">
        <ele>1807</ele>
        <time>2020-07-27T15:24:32.000Z</time>
      </trkpt>
      <trkpt lat="42.81354" lon="0.28418">
        <ele>1808</ele>
        <time>2020-07-27T15:24:33.000Z</time>
      </trkpt>
      <trkpt lat="42.81354" lon="0.28416">
        <ele>1809</ele>
        <time>2020-07-27T15:24:34.000Z</time>
      </trkpt>
      <trkpt lat="42.81353" lon="0.28415">
        <ele>1809</ele>
        <time>2020-07-27T15:24:35.000Z</time>
      </trkpt>
      <trkpt lat="42.81353" lon="0.28413">
        <ele>1810</ele>
        <time>2020-07-27T15:24:36.000Z</time>
      </trkpt>
      <trkpt lat="42.81352" lon="0.28411">
        <ele>1811</ele>
        <time>2020-07-27T15:24:37.000Z</time>
      </trkpt>
      <trkpt lat="42.81351" lon="0.28409">
        <ele>1812</ele>
        <time>2020-07-27T15:24:38.000Z</time>
      </trkpt>
      <trkpt lat="42.8135" lon="0.28408">
        <ele>1813</ele>
        <time>2020-07-27T15:24:39.000Z</time>
      </trkpt>
      <trkpt lat="42.81349" lon="0.28406">
        <ele>1814</ele>
        <time>2020-07-27T15:24:40.000Z</time>
      </trkpt>
      <trkpt lat="42.81348" lon="0.28404">
        <ele>1816</ele>
        <time>2020-07-27T15:24:41.000Z</time>
      </trkpt>
      <trkpt lat="42.81347" lon="0.28403">
        <ele>1816</ele>
        <time>2020-07-27T15:24:42.000Z</time>
      </trkpt>
      <trkpt lat="42.81346" lon="0.28401">
        <ele>1818</ele>
        <time>2020-07-27T15:24:43.000Z</time>
      </trkpt>
      <trkpt lat="42.81344" lon="0.28398">
        <ele>1819</ele>
        <time>2020-07-27T15:24:44.000Z</time>
      </trkpt>
      <trkpt lat="42.81343" lon="0.28396">
        <ele>1819</ele>
        <time>2020-07-27T15:24:45.000Z</time>
      </trkpt>
      <trkpt lat="42.81342" lon="0.28393">
        <ele>1820</ele>
        <time>2020-07-27T15:24:46.000Z</time>
      </trkpt>
      <trkpt lat="42.81341" lon="0.28391">
        <ele>1820</ele>
        <time>2020-07-27T15:24:47.000Z</time>
      </trkpt>
      <trkpt lat="42.8134" lon="0.28389">
        <ele>1820</ele>
        <time>2020-07-27T15:24:48.000Z</time>
      </trkpt>
      <trkpt lat="42.81339" lon="0.28387">
        <ele>1820</ele>
        <time>2020-07-27T15:24:49.000Z</time>
      </trkpt>
      <trkpt lat="42.81338" lon="0.28386">
        <ele>1821</ele>
        <time>2020-07-27T15:24:50.000Z</time>
      </trkpt>
      <trkpt lat="42.81338" lon="0.28384">
        <ele>1822</ele>
        <time>2020-07-27T15:24:51.000Z</time>
      </trkpt>
      <trkpt lat="42.81337" lon="0.28382">
        <ele>1822</ele>
        <time>2020-07-27T15:24:52.000Z</time>
      </trkpt>
      <trkpt lat="42.81336" lon="0.2838">
        <ele>1822</ele>
        <time>2020-07-27T15:24:53.000Z</time>
      </trkpt>
      <trkpt lat="42.81336" lon="0.28378">
        <ele>1823</ele>
        <time>2020-07-27T15:24:54.000Z</time>
      </trkpt>
      <trkpt lat="42.81335" lon="0.28377">
        <ele>1823</ele>
        <time>2020-07-27T15:24:55.000Z</time>
      </trkpt>
      <trkpt lat="42.81334" lon="0.28375">
        <ele>1822</ele>
        <time>2020-07-27T15:24:56.000Z</time>
      </trkpt>
      <trkpt lat="42.81334" lon="0.28373">
        <ele>1822</ele>
        <time>2020-07-27T15:24:57.000Z</time>
      </trkpt>
      <trkpt lat="42.81333" lon="0.28371">
        <ele>1823</ele>
        <time>2020-07-27T15:24:58.000Z</time>
      </trkpt>
      <trkpt lat="42.81332" lon="0.28369">
        <ele>1823</ele>
        <time>2020-07-27T15:24:59.000Z</time>
      </trkpt>
      <trkpt lat="42.81332" lon="0.28367">
        <ele>1823</ele>
        <time>2020-07-27T15:25:00.000Z</time>
      </trkpt>
      <trkpt lat="42.81332" lon="0.28366">
        <ele>1823</ele>
        <time>2020-07-27T15:25:01.000Z</time>
      </trkpt>
      <trkpt lat="42.81331" lon="0.28364">
        <ele>1823</ele>
        <time>2020-07-27T15:25:02.000Z</time>
      </trkpt>
      <trkpt lat="42.81331" lon="0.28361">
        <ele>1822</ele>
        <time>2020-07-27T15:25:03.000Z</time>
      </trkpt>
      <trkpt lat="42.8133" lon="0.28359">
        <ele>1823</ele>
        <time>2020-07-27T15:25:04.000Z</time>
      </trkpt>
      <trkpt lat="42.81329" lon="0.28356">
        <ele>1823</ele>
        <time>2020-07-27T15:25:05.000Z</time>
      </trkpt>
      <trkpt lat="42.81329" lon="0.28354">
        <ele>1824</ele>
        <time>2020-07-27T15:25:06.000Z</time>
      </trkpt>
      <trkpt lat="42.81328" lon="0.28352">
        <ele>1823</ele>
        <time>2020-07-27T15:25:07.000Z</time>
      </trkpt>
      <trkpt lat="42.81328" lon="0.2835">
        <ele>1822</ele>
        <time>2020-07-27T15:25:08.000Z</time>
      </trkpt>
      <trkpt lat="42.81328" lon="0.28348">
        <ele>1822</ele>
        <time>2020-07-27T15:25:09.000Z</time>
      </trkpt>
      <trkpt lat="42.81328" lon="0.28346">
        <ele>1822</ele>
        <time>2020-07-27T15:25:10.000Z</time>
      </trkpt>
      <trkpt lat="42.81328" lon="0.28344">
        <ele>1821</ele>
        <time>2020-07-27T15:25:11.000Z</time>
      </trkpt>
      <trkpt lat="42.81329" lon="0.28343">
        <ele>1820</ele>
        <time>2020-07-27T15:25:12.000Z</time>
      </trkpt>
      <trkpt lat="42.81329" lon="0.28341">
        <ele>1820</ele>
        <time>2020-07-27T15:25:13.000Z</time>
      </trkpt>
      <trkpt lat="42.81329" lon="0.28339">
        <ele>1820</ele>
        <time>2020-07-27T15:25:14.000Z</time>
      </trkpt>
      <trkpt lat="42.8133" lon="0.28337">
        <ele>1819</ele>
        <time>2020-07-27T15:25:15.000Z</time>
      </trkpt>
      <trkpt lat="42.8133" lon="0.28336">
        <ele>1819</ele>
        <time>2020-07-27T15:25:16.000Z</time>
      </trkpt>
      <trkpt lat="42.8133" lon="0.28334">
        <ele>1819</ele>
        <time>2020-07-27T15:25:17.000Z</time>
      </trkpt>
      <trkpt lat="42.81331" lon="0.28333">
        <ele>1819</ele>
        <time>2020-07-27T15:25:18.000Z</time>
      </trkpt>
      <trkpt lat="42.81331" lon="0.28331">
        <ele>1819</ele>
        <time>2020-07-27T15:25:19.000Z</time>
      </trkpt>
      <trkpt lat="42.81332" lon="0.28329">
        <ele>1819</ele>
        <time>2020-07-27T15:25:20.000Z</time>
      </trkpt>
      <trkpt lat="42.81333" lon="0.28327">
        <ele>1819</ele>
        <time>2020-07-27T15:25:21.000Z</time>
      </trkpt>
      <trkpt lat="42.81334" lon="0.28326">
        <ele>1819</ele>
        <time>2020-07-27T15:25:22.000Z</time>
      </trkpt>
      <trkpt lat="42.81335" lon="0.28324">
        <ele>1818</ele>
        <time>2020-07-27T15:25:23.000Z</time>
      </trkpt>
      <trkpt lat="42.81336" lon="0.28322">
        <ele>1818</ele>
        <time>2020-07-27T15:25:24.000Z</time>
      </trkpt>
      <trkpt lat="42.81337" lon="0.2832">
        <ele>1817</ele>
        <time>2020-07-27T15:25:25.000Z</time>
      </trkpt>
      <trkpt lat="42.81338" lon="0.28318">
        <ele>1817</ele>
        <time>2020-07-27T15:25:26.000Z</time>
      </trkpt>
      <trkpt lat="42.81339" lon="0.28316">
        <ele>1817</ele>
        <time>2020-07-27T15:25:27.000Z</time>
      </trkpt>
      <trkpt lat="42.81339" lon="0.28314">
        <ele>1816</ele>
        <time>2020-07-27T15:25:28.000Z</time>
      </trkpt>
      <trkpt lat="42.8134" lon="0.28312">
        <ele>1816</ele>
        <time>2020-07-27T15:25:29.000Z</time>
      </trkpt>
      <trkpt lat="42.81341" lon="0.2831">
        <ele>1817</ele>
        <time>2020-07-27T15:25:30.000Z</time>
      </trkpt>
      <trkpt lat="42.81341" lon="0.28308">
        <ele>1817</ele>
        <time>2020-07-27T15:25:31.000Z</time>
      </trkpt>
      <trkpt lat="42.81342" lon="0.28306">
        <ele>1817</ele>
        <time>2020-07-27T15:25:32.000Z</time>
      </trkpt>
      <trkpt lat="42.81342" lon="0.28303">
        <ele>1817</ele>
        <time>2020-07-27T15:25:33.000Z</time>
      </trkpt>
      <trkpt lat="42.81343" lon="0.28301">
        <ele>1818</ele>
        <time>2020-07-27T15:25:34.000Z</time>
      </trkpt>
      <trkpt lat="42.81343" lon="0.283">
        <ele>1819</ele>
        <time>2020-07-27T15:25:35.000Z</time>
      </trkpt>
      <trkpt lat="42.81343" lon="0.28298">
        <ele>1819</ele>
        <time>2020-07-27T15:25:36.000Z</time>
      </trkpt>
      <trkpt lat="42.81343" lon="0.28297">
        <ele>1820</ele>
        <time>2020-07-27T15:25:37.000Z</time>
      </trkpt>
      <trkpt lat="42.81344" lon="0.28295">
        <ele>1820</ele>
        <time>2020-07-27T15:25:38.000Z</time>
      </trkpt>
      <trkpt lat="42.81344" lon="0.28294">
        <ele>1821</ele>
        <time>2020-07-27T15:25:39.000Z</time>
      </trkpt>
      <trkpt lat="42.81344" lon="0.28292">
        <ele>1822</ele>
        <time>2020-07-27T15:25:40.000Z</time>
      </trkpt>
      <trkpt lat="42.81344" lon="0.28291">
        <ele>1823</ele>
        <time>2020-07-27T15:25:41.000Z</time>
      </trkpt>
      <trkpt lat="42.81344" lon="0.28288">
        <ele>1823</ele>
        <time>2020-07-27T15:25:42.000Z</time>
      </trkpt>
      <trkpt lat="42.81344" lon="0.28286">
        <ele>1824</ele>
        <time>2020-07-27T15:25:43.000Z</time>
      </trkpt>
      <trkpt lat="42.81344" lon="0.28283">
        <ele>1825</ele>
        <time>2020-07-27T15:25:44.000Z</time>
      </trkpt>
      <trkpt lat="42.81344" lon="0.28281">
        <ele>1825</ele>
        <time>2020-07-27T15:25:45.000Z</time>
      </trkpt>
      <trkpt lat="42.81343" lon="0.28278">
        <ele>1826</ele>
        <time>2020-07-27T15:25:46.000Z</time>
      </trkpt>
      <trkpt lat="42.81343" lon="0.28274">
        <ele>1826</ele>
        <time>2020-07-27T15:25:47.000Z</time>
      </trkpt>
      <trkpt lat="42.81343" lon="0.28271">
        <ele>1827</ele>
        <time>2020-07-27T15:25:48.000Z</time>
      </trkpt>
      <trkpt lat="42.81343" lon="0.28268">
        <ele>1828</ele>
        <time>2020-07-27T15:25:49.000Z</time>
      </trkpt>
      <trkpt lat="42.81343" lon="0.28265">
        <ele>1829</ele>
        <time>2020-07-27T15:25:50.000Z</time>
      </trkpt>
      <trkpt lat="42.81344" lon="0.28263">
        <ele>1830</ele>
        <time>2020-07-27T15:25:51.000Z</time>
      </trkpt>
      <trkpt lat="42.81344" lon="0.2826">
        <ele>1830</ele>
        <time>2020-07-27T15:25:52.000Z</time>
      </trkpt>
      <trkpt lat="42.81344" lon="0.28256">
        <ele>1830</ele>
        <time>2020-07-27T15:25:53.000Z</time>
      </trkpt>
      <trkpt lat="42.81345" lon="0.28253">
        <ele>1831</ele>
        <time>2020-07-27T15:25:54.000Z</time>
      </trkpt>
      <trkpt lat="42.81345" lon="0.28249">
        <ele>1830</ele>
        <time>2020-07-27T15:25:55.000Z</time>
      </trkpt>
      <trkpt lat="42.81346" lon="0.28246">
        <ele>1831</ele>
        <time>2020-07-27T15:25:56.000Z</time>
      </trkpt>
      <trkpt lat="42.81345" lon="0.28242">
        <ele>1830</ele>
        <time>2020-07-27T15:25:57.000Z</time>
      </trkpt>
      <trkpt lat="42.81346" lon="0.28238">
        <ele>1830</ele>
        <time>2020-07-27T15:25:58.000Z</time>
      </trkpt>
      <trkpt lat="42.81346" lon="0.28235">
        <ele>1830</ele>
        <time>2020-07-27T15:25:59.000Z</time>
      </trkpt>
      <trkpt lat="42.81346" lon="0.28232">
        <ele>1830</ele>
        <time>2020-07-27T15:26:00.000Z</time>
      </trkpt>
      <trkpt lat="42.81347" lon="0.28228">
        <ele>1829</ele>
        <time>2020-07-27T15:26:01.000Z</time>
      </trkpt>
      <trkpt lat="42.81347" lon="0.28226">
        <ele>1831</ele>
        <time>2020-07-27T15:26:02.000Z</time>
      </trkpt>
      <trkpt lat="42.81348" lon="0.28223">
        <ele>1831</ele>
        <time>2020-07-27T15:26:03.000Z</time>
      </trkpt>
      <trkpt lat="42.81348" lon="0.2822">
        <ele>1831</ele>
        <time>2020-07-27T15:26:04.000Z</time>
      </trkpt>
      <trkpt lat="42.81348" lon="0.28217">
        <ele>1831</ele>
        <time>2020-07-27T15:26:05.000Z</time>
      </trkpt>
      <trkpt lat="42.81349" lon="0.28213">
        <ele>1831</ele>
        <time>2020-07-27T15:26:06.000Z</time>
      </trkpt>
      <trkpt lat="42.81349" lon="0.2821">
        <ele>1832</ele>
        <time>2020-07-27T15:26:07.000Z</time>
      </trkpt>
      <trkpt lat="42.8135" lon="0.28207">
        <ele>1831</ele>
        <time>2020-07-27T15:26:08.000Z</time>
      </trkpt>
      <trkpt lat="42.8135" lon="0.28204">
        <ele>1832</ele>
        <time>2020-07-27T15:26:09.000Z</time>
      </trkpt>
      <trkpt lat="42.8135" lon="0.28201">
        <ele>1832</ele>
        <time>2020-07-27T15:26:10.000Z</time>
      </trkpt>
      <trkpt lat="42.81351" lon="0.28198">
        <ele>1832</ele>
        <time>2020-07-27T15:26:11.000Z</time>
      </trkpt>
      <trkpt lat="42.81351" lon="0.28194">
        <ele>1832</ele>
        <time>2020-07-27T15:26:12.000Z</time>
      </trkpt>
      <trkpt lat="42.81352" lon="0.28191">
        <ele>1832</ele>
        <time>2020-07-27T15:26:13.000Z</time>
      </trkpt>
      <trkpt lat="42.81352" lon="0.28187">
        <ele>1832</ele>
        <time>2020-07-27T15:26:14.000Z</time>
      </trkpt>
      <trkpt lat="42.81353" lon="0.28184">
        <ele>1833</ele>
        <time>2020-07-27T15:26:15.000Z</time>
      </trkpt>
      <trkpt lat="42.81354" lon="0.28181">
        <ele>1833</ele>
        <time>2020-07-27T15:26:16.000Z</time>
      </trkpt>
      <trkpt lat="42.81354" lon="0.28178">
        <ele>1833</ele>
        <time>2020-07-27T15:26:17.000Z</time>
      </trkpt>
      <trkpt lat="42.81355" lon="0.28175">
        <ele>1833</ele>
        <time>2020-07-27T15:26:18.000Z</time>
      </trkpt>
      <trkpt lat="42.81355" lon="0.28172">
        <ele>1834</ele>
        <time>2020-07-27T15:26:19.000Z</time>
      </trkpt>
      <trkpt lat="42.81356" lon="0.28168">
        <ele>1834</ele>
        <time>2020-07-27T15:26:20.000Z</time>
      </trkpt>
      <trkpt lat="42.81357" lon="0.28165">
        <ele>1834</ele>
        <time>2020-07-27T15:26:21.000Z</time>
      </trkpt>
      <trkpt lat="42.81357" lon="0.28161">
        <ele>1834</ele>
        <time>2020-07-27T15:26:22.000Z</time>
      </trkpt>
      <trkpt lat="42.81358" lon="0.28158">
        <ele>1835</ele>
        <time>2020-07-27T15:26:23.000Z</time>
      </trkpt>
      <trkpt lat="42.81359" lon="0.28155">
        <ele>1835</ele>
        <time>2020-07-27T15:26:24.000Z</time>
      </trkpt>
      <trkpt lat="42.8136" lon="0.28152">
        <ele>1836</ele>
        <time>2020-07-27T15:26:25.000Z</time>
      </trkpt>
      <trkpt lat="42.8136" lon="0.28149">
        <ele>1835</ele>
        <time>2020-07-27T15:26:26.000Z</time>
      </trkpt>
      <trkpt lat="42.81361" lon="0.28146">
        <ele>1836</ele>
        <time>2020-07-27T15:26:27.000Z</time>
      </trkpt>
      <trkpt lat="42.81362" lon="0.28142">
        <ele>1836</ele>
        <time>2020-07-27T15:26:28.000Z</time>
      </trkpt>
      <trkpt lat="42.81363" lon="0.28139">
        <ele>1835</ele>
        <time>2020-07-27T15:26:29.000Z</time>
      </trkpt>
      <trkpt lat="42.81364" lon="0.28136">
        <ele>1837</ele>
        <time>2020-07-27T15:26:30.000Z</time>
      </trkpt>
      <trkpt lat="42.81365" lon="0.28133">
        <ele>1838</ele>
        <time>2020-07-27T15:26:31.000Z</time>
      </trkpt>
      <trkpt lat="42.81366" lon="0.2813">
        <ele>1837</ele>
        <time>2020-07-27T15:26:32.000Z</time>
      </trkpt>
      <trkpt lat="42.81367" lon="0.28127">
        <ele>1837</ele>
        <time>2020-07-27T15:26:33.000Z</time>
      </trkpt>
      <trkpt lat="42.81369" lon="0.28124">
        <ele>1837</ele>
        <time>2020-07-27T15:26:34.000Z</time>
      </trkpt>
      <trkpt lat="42.8137" lon="0.28122">
        <ele>1838</ele>
        <time>2020-07-27T15:26:35.000Z</time>
      </trkpt>
      <trkpt lat="42.81371" lon="0.2812">
        <ele>1838</ele>
        <time>2020-07-27T15:26:36.000Z</time>
      </trkpt>
      <trkpt lat="42.81373" lon="0.28118">
        <ele>1838</ele>
        <time>2020-07-27T15:26:37.000Z</time>
      </trkpt>
      <trkpt lat="42.81375" lon="0.28116">
        <ele>1838</ele>
        <time>2020-07-27T15:26:38.000Z</time>
      </trkpt>
      <trkpt lat="42.81377" lon="0.28114">
        <ele>1838</ele>
        <time>2020-07-27T15:26:39.000Z</time>
      </trkpt>
      <trkpt lat="42.81378" lon="0.28113">
        <ele>1838</ele>
        <time>2020-07-27T15:26:40.000Z</time>
      </trkpt>
      <trkpt lat="42.8138" lon="0.28111">
        <ele>1838</ele>
        <time>2020-07-27T15:26:41.000Z</time>
      </trkpt>
      <trkpt lat="42.81381" lon="0.28109">
        <ele>1838</ele>
        <time>2020-07-27T15:26:42.000Z</time>
      </trkpt>
      <trkpt lat="42.81383" lon="0.28107">
        <ele>1838</ele>
        <time>2020-07-27T15:26:43.000Z</time>
      </trkpt>
      <trkpt lat="42.81385" lon="0.28106">
        <ele>1837</ele>
        <time>2020-07-27T15:26:44.000Z</time>
      </trkpt>
      <trkpt lat="42.81388" lon="0.28104">
        <ele>1837</ele>
        <time>2020-07-27T15:26:45.000Z</time>
      </trkpt>
      <trkpt lat="42.8139" lon="0.28103">
        <ele>1837</ele>
        <time>2020-07-27T15:26:46.000Z</time>
      </trkpt>
      <trkpt lat="42.81392" lon="0.28102">
        <ele>1837</ele>
        <time>2020-07-27T15:26:47.000Z</time>
      </trkpt>
      <trkpt lat="42.81394" lon="0.281">
        <ele>1837</ele>
        <time>2020-07-27T15:26:48.000Z</time>
      </trkpt>
      <trkpt lat="42.81396" lon="0.28098">
        <ele>1838</ele>
        <time>2020-07-27T15:26:49.000Z</time>
      </trkpt>
      <trkpt lat="42.81398" lon="0.28097">
        <ele>1839</ele>
        <time>2020-07-27T15:26:50.000Z</time>
      </trkpt>
      <trkpt lat="42.814" lon="0.28095">
        <ele>1839</ele>
        <time>2020-07-27T15:26:51.000Z</time>
      </trkpt>
      <trkpt lat="42.81401" lon="0.28093">
        <ele>1838</ele>
        <time>2020-07-27T15:26:52.000Z</time>
      </trkpt>
      <trkpt lat="42.81404" lon="0.28091">
        <ele>1839</ele>
        <time>2020-07-27T15:26:53.000Z</time>
      </trkpt>
      <trkpt lat="42.81406" lon="0.28089">
        <ele>1840</ele>
        <time>2020-07-27T15:26:54.000Z</time>
      </trkpt>
      <trkpt lat="42.81408" lon="0.28087">
        <ele>1840</ele>
        <time>2020-07-27T15:26:55.000Z</time>
      </trkpt>
      <trkpt lat="42.8141" lon="0.28086">
        <ele>1842</ele>
        <time>2020-07-27T15:26:56.000Z</time>
      </trkpt>
      <trkpt lat="42.81412" lon="0.28084">
        <ele>1842</ele>
        <time>2020-07-27T15:26:57.000Z</time>
      </trkpt>
      <trkpt lat="42.81414" lon="0.28082">
        <ele>1842</ele>
        <time>2020-07-27T15:26:58.000Z</time>
      </trkpt>
      <trkpt lat="42.81416" lon="0.28081">
        <ele>1843</ele>
        <time>2020-07-27T15:26:59.000Z</time>
      </trkpt>
      <trkpt lat="42.81417" lon="0.28079">
        <ele>1843</ele>
        <time>2020-07-27T15:27:00.000Z</time>
      </trkpt>
      <trkpt lat="42.81419" lon="0.28078">
        <ele>1844</ele>
        <time>2020-07-27T15:27:01.000Z</time>
      </trkpt>
      <trkpt lat="42.8142" lon="0.28076">
        <ele>1843</ele>
        <time>2020-07-27T15:27:02.000Z</time>
      </trkpt>
      <trkpt lat="42.81422" lon="0.28074">
        <ele>1843</ele>
        <time>2020-07-27T15:27:03.000Z</time>
      </trkpt>
      <trkpt lat="42.81423" lon="0.28072">
        <ele>1843</ele>
        <time>2020-07-27T15:27:04.000Z</time>
      </trkpt>
      <trkpt lat="42.81425" lon="0.2807">
        <ele>1844</ele>
        <time>2020-07-27T15:27:05.000Z</time>
      </trkpt>
      <trkpt lat="42.81427" lon="0.28069">
        <ele>1844</ele>
        <time>2020-07-27T15:27:06.000Z</time>
      </trkpt>
      <trkpt lat="42.81428" lon="0.28067">
        <ele>1844</ele>
        <time>2020-07-27T15:27:07.000Z</time>
      </trkpt>
      <trkpt lat="42.81429" lon="0.28065">
        <ele>1844</ele>
        <time>2020-07-27T15:27:08.000Z</time>
      </trkpt>
      <trkpt lat="42.81431" lon="0.28063">
        <ele>1845</ele>
        <time>2020-07-27T15:27:09.000Z</time>
      </trkpt>
      <trkpt lat="42.81433" lon="0.28062">
        <ele>1845</ele>
        <time>2020-07-27T15:27:10.000Z</time>
      </trkpt>
      <trkpt lat="42.81434" lon="0.28061">
        <ele>1848</ele>
        <time>2020-07-27T15:27:11.000Z</time>
      </trkpt>
      <trkpt lat="42.81436" lon="0.28061">
        <ele>1847</ele>
        <time>2020-07-27T15:27:12.000Z</time>
      </trkpt>
      <trkpt lat="42.81437" lon="0.28061">
        <ele>1848</ele>
        <time>2020-07-27T15:27:13.000Z</time>
      </trkpt>
      <trkpt lat="42.81439" lon="0.2806">
        <ele>1849</ele>
        <time>2020-07-27T15:27:14.000Z</time>
      </trkpt>
      <trkpt lat="42.81441" lon="0.2806">
        <ele>1850</ele>
        <time>2020-07-27T15:27:15.000Z</time>
      </trkpt>
      <trkpt lat="42.81443" lon="0.2806">
        <ele>1849</ele>
        <time>2020-07-27T15:27:16.000Z</time>
      </trkpt>
      <trkpt lat="42.81445" lon="0.2806">
        <ele>1850</ele>
        <time>2020-07-27T15:27:17.000Z</time>
      </trkpt>
      <trkpt lat="42.81447" lon="0.28059">
        <ele>1850</ele>
        <time>2020-07-27T15:27:18.000Z</time>
      </trkpt>
      <trkpt lat="42.81448" lon="0.28059">
        <ele>1850</ele>
        <time>2020-07-27T15:27:19.000Z</time>
      </trkpt>
      <trkpt lat="42.8145" lon="0.28059">
        <ele>1851</ele>
        <time>2020-07-27T15:27:20.000Z</time>
      </trkpt>
      <trkpt lat="42.81451" lon="0.28058">
        <ele>1852</ele>
        <time>2020-07-27T15:27:21.000Z</time>
      </trkpt>
      <trkpt lat="42.81452" lon="0.28058">
        <ele>1852</ele>
        <time>2020-07-27T15:27:22.000Z</time>
      </trkpt>
      <trkpt lat="42.81453" lon="0.28058">
        <ele>1853</ele>
        <time>2020-07-27T15:27:23.000Z</time>
      </trkpt>
      <trkpt lat="42.81455" lon="0.28057">
        <ele>1854</ele>
        <time>2020-07-27T15:27:24.000Z</time>
      </trkpt>
      <trkpt lat="42.81456" lon="0.28057">
        <ele>1855</ele>
        <time>2020-07-27T15:27:25.000Z</time>
      </trkpt>
      <trkpt lat="42.81457" lon="0.28056">
        <ele>1854</ele>
        <time>2020-07-27T15:27:26.000Z</time>
      </trkpt>
      <trkpt lat="42.81458" lon="0.28056">
        <ele>1855</ele>
        <time>2020-07-27T15:27:27.000Z</time>
      </trkpt>
      <trkpt lat="42.81459" lon="0.28055">
        <ele>1855</ele>
        <time>2020-07-27T15:27:28.000Z</time>
      </trkpt>
      <trkpt lat="42.8146" lon="0.28055">
        <ele>1856</ele>
        <time>2020-07-27T15:27:29.000Z</time>
      </trkpt>
      <trkpt lat="42.8146" lon="0.28054">
        <ele>1857</ele>
        <time>2020-07-27T15:27:30.000Z</time>
      </trkpt>
      <trkpt lat="42.81461" lon="0.28054">
        <ele>1857</ele>
        <time>2020-07-27T15:27:31.000Z</time>
      </trkpt>
      <trkpt lat="42.81462" lon="0.28054">
        <ele>1857</ele>
        <time>2020-07-27T15:27:32.000Z</time>
      </trkpt>
      <trkpt lat="42.81463" lon="0.28053">
        <ele>1857</ele>
        <time>2020-07-27T15:27:33.000Z</time>
      </trkpt>
      <trkpt lat="42.81464" lon="0.28052">
        <ele>1858</ele>
        <time>2020-07-27T15:27:34.000Z</time>
      </trkpt>
      <trkpt lat="42.81465" lon="0.28052">
        <ele>1858</ele>
        <time>2020-07-27T15:27:35.000Z</time>
      </trkpt>
      <trkpt lat="42.81466" lon="0.28051">
        <ele>1859</ele>
        <time>2020-07-27T15:27:36.000Z</time>
      </trkpt>
      <trkpt lat="42.81467" lon="0.2805">
        <ele>1859</ele>
        <time>2020-07-27T15:27:37.000Z</time>
      </trkpt>
      <trkpt lat="42.81468" lon="0.28049">
        <ele>1860</ele>
        <time>2020-07-27T15:27:38.000Z</time>
      </trkpt>
      <trkpt lat="42.81469" lon="0.28048">
        <ele>1860</ele>
        <time>2020-07-27T15:27:39.000Z</time>
      </trkpt>
      <trkpt lat="42.8147" lon="0.28048">
        <ele>1861</ele>
        <time>2020-07-27T15:27:40.000Z</time>
      </trkpt>
      <trkpt lat="42.81472" lon="0.28047">
        <ele>1860</ele>
        <time>2020-07-27T15:27:41.000Z</time>
      </trkpt>
      <trkpt lat="42.81473" lon="0.28046">
        <ele>1861</ele>
        <time>2020-07-27T15:27:42.000Z</time>
      </trkpt>
      <trkpt lat="42.81474" lon="0.28045">
        <ele>1860</ele>
        <time>2020-07-27T15:27:43.000Z</time>
      </trkpt>
      <trkpt lat="42.81475" lon="0.28044">
        <ele>1860</ele>
        <time>2020-07-27T15:27:44.000Z</time>
      </trkpt>
      <trkpt lat="42.81476" lon="0.28043">
        <ele>1860</ele>
        <time>2020-07-27T15:27:45.000Z</time>
      </trkpt>
      <trkpt lat="42.81477" lon="0.28042">
        <ele>1860</ele>
        <time>2020-07-27T15:27:46.000Z</time>
      </trkpt>
      <trkpt lat="42.81479" lon="0.28041">
        <ele>1860</ele>
        <time>2020-07-27T15:27:47.000Z</time>
      </trkpt>
      <trkpt lat="42.8148" lon="0.2804">
        <ele>1860</ele>
        <time>2020-07-27T15:27:48.000Z</time>
      </trkpt>
      <trkpt lat="42.81482" lon="0.28039">
        <ele>1861</ele>
        <time>2020-07-27T15:27:49.000Z</time>
      </trkpt>
      <trkpt lat="42.81484" lon="0.28039">
        <ele>1861</ele>
        <time>2020-07-27T15:27:50.000Z</time>
      </trkpt>
      <trkpt lat="42.81485" lon="0.28038">
        <ele>1862</ele>
        <time>2020-07-27T15:27:51.000Z</time>
      </trkpt>
      <trkpt lat="42.81487" lon="0.28038">
        <ele>1861</ele>
        <time>2020-07-27T15:27:52.000Z</time>
      </trkpt>
      <trkpt lat="42.81489" lon="0.28037">
        <ele>1862</ele>
        <time>2020-07-27T15:27:53.000Z</time>
      </trkpt>
      <trkpt lat="42.81491" lon="0.28037">
        <ele>1862</ele>
        <time>2020-07-27T15:27:54.000Z</time>
      </trkpt>
      <trkpt lat="42.81493" lon="0.28036">
        <ele>1862</ele>
        <time>2020-07-27T15:27:55.000Z</time>
      </trkpt>
      <trkpt lat="42.81495" lon="0.28036">
        <ele>1863</ele>
        <time>2020-07-27T15:27:56.000Z</time>
      </trkpt>
      <trkpt lat="42.81496" lon="0.28035">
        <ele>1863</ele>
        <time>2020-07-27T15:27:57.000Z</time>
      </trkpt>
      <trkpt lat="42.81498" lon="0.28034">
        <ele>1863</ele>
        <time>2020-07-27T15:27:58.000Z</time>
      </trkpt>
      <trkpt lat="42.815" lon="0.28033">
        <ele>1863</ele>
        <time>2020-07-27T15:27:59.000Z</time>
      </trkpt>
      <trkpt lat="42.81502" lon="0.28032">
        <ele>1865</ele>
        <time>2020-07-27T15:28:00.000Z</time>
      </trkpt>
      <trkpt lat="42.81503" lon="0.28031">
        <ele>1865</ele>
        <time>2020-07-27T15:28:01.000Z</time>
      </trkpt>
      <trkpt lat="42.81505" lon="0.2803">
        <ele>1866</ele>
        <time>2020-07-27T15:28:02.000Z</time>
      </trkpt>
      <trkpt lat="42.81507" lon="0.28029">
        <ele>1867</ele>
        <time>2020-07-27T15:28:03.000Z</time>
      </trkpt>
      <trkpt lat="42.81508" lon="0.28029">
        <ele>1868</ele>
        <time>2020-07-27T15:28:04.000Z</time>
      </trkpt>
      <trkpt lat="42.8151" lon="0.28029">
        <ele>1869</ele>
        <time>2020-07-27T15:28:05.000Z</time>
      </trkpt>
      <trkpt lat="42.81511" lon="0.28029">
        <ele>1870</ele>
        <time>2020-07-27T15:28:06.000Z</time>
      </trkpt>
      <trkpt lat="42.81512" lon="0.28029">
        <ele>1870</ele>
        <time>2020-07-27T15:28:07.000Z</time>
      </trkpt>
      <trkpt lat="42.81514" lon="0.28029">
        <ele>1871</ele>
        <time>2020-07-27T15:28:08.000Z</time>
      </trkpt>
      <trkpt lat="42.81516" lon="0.28029">
        <ele>1872</ele>
        <time>2020-07-27T15:28:09.000Z</time>
      </trkpt>
      <trkpt lat="42.81518" lon="0.28029">
        <ele>1873</ele>
        <time>2020-07-27T15:28:10.000Z</time>
      </trkpt>
      <trkpt lat="42.81519" lon="0.28029">
        <ele>1873</ele>
        <time>2020-07-27T15:28:11.000Z</time>
      </trkpt>
      <trkpt lat="42.81521" lon="0.28029">
        <ele>1873</ele>
        <time>2020-07-27T15:28:12.000Z</time>
      </trkpt>
      <trkpt lat="42.81522" lon="0.28029">
        <ele>1874</ele>
        <time>2020-07-27T15:28:13.000Z</time>
      </trkpt>
      <trkpt lat="42.81524" lon="0.28028">
        <ele>1874</ele>
        <time>2020-07-27T15:28:14.000Z</time>
      </trkpt>
      <trkpt lat="42.81525" lon="0.28028">
        <ele>1875</ele>
        <time>2020-07-27T15:28:15.000Z</time>
      </trkpt>
      <trkpt lat="42.81527" lon="0.28027">
        <ele>1875</ele>
        <time>2020-07-27T15:28:16.000Z</time>
      </trkpt>
      <trkpt lat="42.81528" lon="0.28027">
        <ele>1875</ele>
        <time>2020-07-27T15:28:17.000Z</time>
      </trkpt>
      <trkpt lat="42.81529" lon="0.28027">
        <ele>1876</ele>
        <time>2020-07-27T15:28:18.000Z</time>
      </trkpt>
      <trkpt lat="42.8153" lon="0.28027">
        <ele>1876</ele>
        <time>2020-07-27T15:28:19.000Z</time>
      </trkpt>
      <trkpt lat="42.81531" lon="0.28027">
        <ele>1876</ele>
        <time>2020-07-27T15:28:20.000Z</time>
      </trkpt>
      <trkpt lat="42.81533" lon="0.28027">
        <ele>1877</ele>
        <time>2020-07-27T15:28:21.000Z</time>
      </trkpt>
      <trkpt lat="42.81534" lon="0.28027">
        <ele>1877</ele>
        <time>2020-07-27T15:28:22.000Z</time>
      </trkpt>
      <trkpt lat="42.81536" lon="0.28027">
        <ele>1877</ele>
        <time>2020-07-27T15:28:23.000Z</time>
      </trkpt>
      <trkpt lat="42.81537" lon="0.28027">
        <ele>1878</ele>
        <time>2020-07-27T15:28:24.000Z</time>
      </trkpt>
      <trkpt lat="42.81538" lon="0.28028">
        <ele>1878</ele>
        <time>2020-07-27T15:28:25.000Z</time>
      </trkpt>
      <trkpt lat="42.81539" lon="0.28028">
        <ele>1879</ele>
        <time>2020-07-27T15:28:26.000Z</time>
      </trkpt>
      <trkpt lat="42.8154" lon="0.28028">
        <ele>1879</ele>
        <time>2020-07-27T15:28:27.000Z</time>
      </trkpt>
      <trkpt lat="42.81541" lon="0.28028">
        <ele>1878</ele>
        <time>2020-07-27T15:28:28.000Z</time>
      </trkpt>
      <trkpt lat="42.81543" lon="0.28028">
        <ele>1878</ele>
        <time>2020-07-27T15:28:29.000Z</time>
      </trkpt>
      <trkpt lat="42.81544" lon="0.28027">
        <ele>1878</ele>
        <time>2020-07-27T15:28:30.000Z</time>
      </trkpt>
      <trkpt lat="42.81545" lon="0.28026">
        <ele>1878</ele>
        <time>2020-07-27T15:28:31.000Z</time>
      </trkpt>
      <trkpt lat="42.81547" lon="0.28026">
        <ele>1879</ele>
        <time>2020-07-27T15:28:32.000Z</time>
      </trkpt>
      <trkpt lat="42.81548" lon="0.28025">
        <ele>1878</ele>
        <time>2020-07-27T15:28:33.000Z</time>
      </trkpt>
      <trkpt lat="42.81549" lon="0.28025">
        <ele>1879</ele>
        <time>2020-07-27T15:28:34.000Z</time>
      </trkpt>
      <trkpt lat="42.8155" lon="0.28025">
        <ele>1879</ele>
        <time>2020-07-27T15:28:35.000Z</time>
      </trkpt>
      <trkpt lat="42.81551" lon="0.28024">
        <ele>1879</ele>
        <time>2020-07-27T15:28:36.000Z</time>
      </trkpt>
      <trkpt lat="42.81553" lon="0.28024">
        <ele>1879</ele>
        <time>2020-07-27T15:28:37.000Z</time>
      </trkpt>
      <trkpt lat="42.81555" lon="0.28024">
        <ele>1879</ele>
        <time>2020-07-27T15:28:38.000Z</time>
      </trkpt>
      <trkpt lat="42.81556" lon="0.28024">
        <ele>1880</ele>
        <time>2020-07-27T15:28:39.000Z</time>
      </trkpt>
      <trkpt lat="42.81558" lon="0.28024">
        <ele>1880</ele>
        <time>2020-07-27T15:28:40.000Z</time>
      </trkpt>
      <trkpt lat="42.8156" lon="0.28024">
        <ele>1881</ele>
        <time>2020-07-27T15:28:41.000Z</time>
      </trkpt>
      <trkpt lat="42.81562" lon="0.28025">
        <ele>1881</ele>
        <time>2020-07-27T15:28:42.000Z</time>
      </trkpt>
      <trkpt lat="42.81564" lon="0.28025">
        <ele>1881</ele>
        <time>2020-07-27T15:28:43.000Z</time>
      </trkpt>
      <trkpt lat="42.81566" lon="0.28026">
        <ele>1882</ele>
        <time>2020-07-27T15:28:44.000Z</time>
      </trkpt>
      <trkpt lat="42.81568" lon="0.28026">
        <ele>1882</ele>
        <time>2020-07-27T15:28:45.000Z</time>
      </trkpt>
      <trkpt lat="42.81569" lon="0.28026">
        <ele>1882</ele>
        <time>2020-07-27T15:28:46.000Z</time>
      </trkpt>
      <trkpt lat="42.81571" lon="0.28026">
        <ele>1882</ele>
        <time>2020-07-27T15:28:47.000Z</time>
      </trkpt>
      <trkpt lat="42.81573" lon="0.28027">
        <ele>1882</ele>
        <time>2020-07-27T15:28:48.000Z</time>
      </trkpt>
      <trkpt lat="42.81575" lon="0.28028">
        <ele>1883</ele>
        <time>2020-07-27T15:28:49.000Z</time>
      </trkpt>
      <trkpt lat="42.81577" lon="0.28029">
        <ele>1883</ele>
        <time>2020-07-27T15:28:50.000Z</time>
      </trkpt>
      <trkpt lat="42.81579" lon="0.28029">
        <ele>1883</ele>
        <time>2020-07-27T15:28:51.000Z</time>
      </trkpt>
      <trkpt lat="42.8158" lon="0.2803">
        <ele>1885</ele>
        <time>2020-07-27T15:28:52.000Z</time>
      </trkpt>
      <trkpt lat="42.81581" lon="0.2803">
        <ele>1883</ele>
        <time>2020-07-27T15:28:53.000Z</time>
      </trkpt>
      <trkpt lat="42.81582" lon="0.28031">
        <ele>1883</ele>
        <time>2020-07-27T15:28:54.000Z</time>
      </trkpt>
      <trkpt lat="42.81584" lon="0.28032">
        <ele>1884</ele>
        <time>2020-07-27T15:28:55.000Z</time>
      </trkpt>
      <trkpt lat="42.81584" lon="0.28032">
        <ele>1884</ele>
        <time>2020-07-27T15:28:56.000Z</time>
      </trkpt>
      <trkpt lat="42.81586" lon="0.28033">
        <ele>1885</ele>
        <time>2020-07-27T15:28:57.000Z</time>
      </trkpt>
      <trkpt lat="42.81587" lon="0.28034">
        <ele>1885</ele>
        <time>2020-07-27T15:28:58.000Z</time>
      </trkpt>
      <trkpt lat="42.81589" lon="0.28035">
        <ele>1885</ele>
        <time>2020-07-27T15:28:59.000Z</time>
      </trkpt>
      <trkpt lat="42.8159" lon="0.28036">
        <ele>1885</ele>
        <time>2020-07-27T15:29:00.000Z</time>
      </trkpt>
      <trkpt lat="42.81591" lon="0.28037">
        <ele>1886</ele>
        <time>2020-07-27T15:29:01.000Z</time>
      </trkpt>
      <trkpt lat="42.81593" lon="0.28038">
        <ele>1887</ele>
        <time>2020-07-27T15:29:02.000Z</time>
      </trkpt>
      <trkpt lat="42.81594" lon="0.28039">
        <ele>1887</ele>
        <time>2020-07-27T15:29:03.000Z</time>
      </trkpt>
      <trkpt lat="42.81595" lon="0.2804">
        <ele>1888</ele>
        <time>2020-07-27T15:29:04.000Z</time>
      </trkpt>
      <trkpt lat="42.81596" lon="0.2804">
        <ele>1888</ele>
        <time>2020-07-27T15:29:05.000Z</time>
      </trkpt>
      <trkpt lat="42.81597" lon="0.28041">
        <ele>1889</ele>
        <time>2020-07-27T15:29:06.000Z</time>
      </trkpt>
      <trkpt lat="42.81599" lon="0.28042">
        <ele>1889</ele>
        <time>2020-07-27T15:29:07.000Z</time>
      </trkpt>
      <trkpt lat="42.816" lon="0.28043">
        <ele>1890</ele>
        <time>2020-07-27T15:29:08.000Z</time>
      </trkpt>
      <trkpt lat="42.81601" lon="0.28044">
        <ele>1890</ele>
        <time>2020-07-27T15:29:09.000Z</time>
      </trkpt>
      <trkpt lat="42.81602" lon="0.28044">
        <ele>1891</ele>
        <time>2020-07-27T15:29:10.000Z</time>
      </trkpt>
      <trkpt lat="42.81603" lon="0.28045">
        <ele>1891</ele>
        <time>2020-07-27T15:29:11.000Z</time>
      </trkpt>
      <trkpt lat="42.81604" lon="0.28046">
        <ele>1891</ele>
        <time>2020-07-27T15:29:12.000Z</time>
      </trkpt>
      <trkpt lat="42.81605" lon="0.28047">
        <ele>1892</ele>
        <time>2020-07-27T15:29:13.000Z</time>
      </trkpt>
      <trkpt lat="42.81606" lon="0.28047">
        <ele>1892</ele>
        <time>2020-07-27T15:29:14.000Z</time>
      </trkpt>
      <trkpt lat="42.81607" lon="0.28048">
        <ele>1892</ele>
        <time>2020-07-27T15:29:15.000Z</time>
      </trkpt>
      <trkpt lat="42.81608" lon="0.28049">
        <ele>1893</ele>
        <time>2020-07-27T15:29:16.000Z</time>
      </trkpt>
      <trkpt lat="42.8161" lon="0.2805">
        <ele>1893</ele>
        <time>2020-07-27T15:29:17.000Z</time>
      </trkpt>
      <trkpt lat="42.81611" lon="0.28051">
        <ele>1893</ele>
        <time>2020-07-27T15:29:18.000Z</time>
      </trkpt>
      <trkpt lat="42.81613" lon="0.28051">
        <ele>1894</ele>
        <time>2020-07-27T15:29:19.000Z</time>
      </trkpt>
      <trkpt lat="42.81614" lon="0.28052">
        <ele>1894</ele>
        <time>2020-07-27T15:29:20.000Z</time>
      </trkpt>
      <trkpt lat="42.81616" lon="0.28052">
        <ele>1894</ele>
        <time>2020-07-27T15:29:21.000Z</time>
      </trkpt>
      <trkpt lat="42.81618" lon="0.28053">
        <ele>1895</ele>
        <time>2020-07-27T15:29:22.000Z</time>
      </trkpt>
      <trkpt lat="42.8162" lon="0.28054">
        <ele>1896</ele>
        <time>2020-07-27T15:29:23.000Z</time>
      </trkpt>
      <trkpt lat="42.81622" lon="0.28055">
        <ele>1896</ele>
        <time>2020-07-27T15:29:24.000Z</time>
      </trkpt>
      <trkpt lat="42.81624" lon="0.28055">
        <ele>1896</ele>
        <time>2020-07-27T15:29:25.000Z</time>
      </trkpt>
      <trkpt lat="42.81626" lon="0.28055">
        <ele>1895</ele>
        <time>2020-07-27T15:29:26.000Z</time>
      </trkpt>
      <trkpt lat="42.81628" lon="0.28055">
        <ele>1894</ele>
        <time>2020-07-27T15:29:27.000Z</time>
      </trkpt>
      <trkpt lat="42.8163" lon="0.28055">
        <ele>1895</ele>
        <time>2020-07-27T15:29:28.000Z</time>
      </trkpt>
      <trkpt lat="42.81633" lon="0.28055">
        <ele>1894</ele>
        <time>2020-07-27T15:29:29.000Z</time>
      </trkpt>
      <trkpt lat="42.81635" lon="0.28056">
        <ele>1894</ele>
        <time>2020-07-27T15:29:30.000Z</time>
      </trkpt>
      <trkpt lat="42.81636" lon="0.28056">
        <ele>1893</ele>
        <time>2020-07-27T15:29:31.000Z</time>
      </trkpt>
      <trkpt lat="42.81637" lon="0.28056">
        <ele>1892</ele>
        <time>2020-07-27T15:29:32.000Z</time>
      </trkpt>
      <trkpt lat="42.81637" lon="0.28056">
        <ele>1891</ele>
        <time>2020-07-27T15:29:33.000Z</time>
      </trkpt>
      <trkpt lat="42.81637" lon="0.28056">
        <ele>1891</ele>
        <time>2020-07-27T15:29:34.000Z</time>
      </trkpt>
      <trkpt lat="42.81638" lon="0.28055">
        <ele>1892</ele>
        <time>2020-07-27T15:29:35.000Z</time>
      </trkpt>
      <trkpt lat="42.81639" lon="0.28054">
        <ele>1891</ele>
        <time>2020-07-27T15:29:36.000Z</time>
      </trkpt>
      <trkpt lat="42.8164" lon="0.28053">
        <ele>1892</ele>
        <time>2020-07-27T15:29:37.000Z</time>
      </trkpt>
      <trkpt lat="42.81641" lon="0.28052">
        <ele>1892</ele>
        <time>2020-07-27T15:29:38.000Z</time>
      </trkpt>
      <trkpt lat="42.81642" lon="0.28051">
        <ele>1892</ele>
        <time>2020-07-27T15:29:39.000Z</time>
      </trkpt>
      <trkpt lat="42.81643" lon="0.2805">
        <ele>1892</ele>
        <time>2020-07-27T15:29:40.000Z</time>
      </trkpt>
      <trkpt lat="42.81644" lon="0.28049">
        <ele>1892</ele>
        <time>2020-07-27T15:29:41.000Z</time>
      </trkpt>
      <trkpt lat="42.81645" lon="0.28049">
        <ele>1892</ele>
        <time>2020-07-27T15:29:42.000Z</time>
      </trkpt>
      <trkpt lat="42.81646" lon="0.28048">
        <ele>1893</ele>
        <time>2020-07-27T15:29:43.000Z</time>
      </trkpt>
      <trkpt lat="42.81648" lon="0.28049">
        <ele>1892</ele>
        <time>2020-07-27T15:29:44.000Z</time>
      </trkpt>
      <trkpt lat="42.81653" lon="0.28054">
        <ele>1891</ele>
        <time>2020-07-27T15:29:45.003Z</time>
      </trkpt>
      <trkpt lat="42.81653" lon="0.28053">
        <ele>1890</ele>
        <time>2020-07-27T15:29:46.003Z</time>
      </trkpt>
      <trkpt lat="42.81654" lon="0.28051">
        <ele>1889</ele>
        <time>2020-07-27T15:29:47.003Z</time>
      </trkpt>
      <trkpt lat="42.81655" lon="0.28049">
        <ele>1889</ele>
        <time>2020-07-27T15:29:48.003Z</time>
      </trkpt>
      <trkpt lat="42.81655" lon="0.28047">
        <ele>1888</ele>
        <time>2020-07-27T15:29:49.003Z</time>
      </trkpt>
      <trkpt lat="42.81656" lon="0.28045">
        <ele>1888</ele>
        <time>2020-07-27T15:29:50.003Z</time>
      </trkpt>
      <trkpt lat="42.81657" lon="0.28042">
        <ele>1888</ele>
        <time>2020-07-27T15:29:51.003Z</time>
      </trkpt>
      <trkpt lat="42.81658" lon="0.2804">
        <ele>1887</ele>
        <time>2020-07-27T15:29:52.003Z</time>
      </trkpt>
      <trkpt lat="42.81659" lon="0.28037">
        <ele>1887</ele>
        <time>2020-07-27T15:29:53.003Z</time>
      </trkpt>
      <trkpt lat="42.8166" lon="0.28035">
        <ele>1887</ele>
        <time>2020-07-27T15:29:54.003Z</time>
      </trkpt>
      <trkpt lat="42.8166" lon="0.28032">
        <ele>1886</ele>
        <time>2020-07-27T15:29:55.003Z</time>
      </trkpt>
      <trkpt lat="42.81661" lon="0.28029">
        <ele>1886</ele>
        <time>2020-07-27T15:29:56.003Z</time>
      </trkpt>
      <trkpt lat="42.81661" lon="0.28026">
        <ele>1886</ele>
        <time>2020-07-27T15:29:57.003Z</time>
      </trkpt>
      <trkpt lat="42.81662" lon="0.28023">
        <ele>1887</ele>
        <time>2020-07-27T15:29:58.003Z</time>
      </trkpt>
      <trkpt lat="42.81662" lon="0.28021">
        <ele>1887</ele>
        <time>2020-07-27T15:29:59.003Z</time>
      </trkpt>
      <trkpt lat="42.81662" lon="0.28018">
        <ele>1886</ele>
        <time>2020-07-27T15:30:00.003Z</time>
      </trkpt>
      <trkpt lat="42.81663" lon="0.28015">
        <ele>1885</ele>
        <time>2020-07-27T15:30:01.003Z</time>
      </trkpt>
      <trkpt lat="42.81663" lon="0.28012">
        <ele>1885</ele>
        <time>2020-07-27T15:30:02.003Z</time>
      </trkpt>
      <trkpt lat="42.81664" lon="0.28009">
        <ele>1885</ele>
        <time>2020-07-27T15:30:03.003Z</time>
      </trkpt>
      <trkpt lat="42.81664" lon="0.28006">
        <ele>1885</ele>
        <time>2020-07-27T15:30:04.003Z</time>
      </trkpt>
      <trkpt lat="42.81665" lon="0.28003">
        <ele>1884</ele>
        <time>2020-07-27T15:30:05.003Z</time>
      </trkpt>
      <trkpt lat="42.81665" lon="0.28">
        <ele>1884</ele>
        <time>2020-07-27T15:30:06.003Z</time>
      </trkpt>
      <trkpt lat="42.81665" lon="0.27998">
        <ele>1884</ele>
        <time>2020-07-27T15:30:07.003Z</time>
      </trkpt>
      <trkpt lat="42.81666" lon="0.27995">
        <ele>1884</ele>
        <time>2020-07-27T15:30:08.003Z</time>
      </trkpt>
      <trkpt lat="42.81667" lon="0.27993">
        <ele>1885</ele>
        <time>2020-07-27T15:30:09.003Z</time>
      </trkpt>
      <trkpt lat="42.81667" lon="0.2799">
        <ele>1885</ele>
        <time>2020-07-27T15:30:10.003Z</time>
      </trkpt>
      <trkpt lat="42.81668" lon="0.27988">
        <ele>1885</ele>
        <time>2020-07-27T15:30:11.003Z</time>
      </trkpt>
      <trkpt lat="42.81668" lon="0.27985">
        <ele>1885</ele>
        <time>2020-07-27T15:30:12.003Z</time>
      </trkpt>
      <trkpt lat="42.81668" lon="0.27983">
        <ele>1886</ele>
        <time>2020-07-27T15:30:13.003Z</time>
      </trkpt>
      <trkpt lat="42.81668" lon="0.2798">
        <ele>1887</ele>
        <time>2020-07-27T15:30:14.003Z</time>
      </trkpt>
      <trkpt lat="42.81669" lon="0.27978">
        <ele>1886</ele>
        <time>2020-07-27T15:30:15.003Z</time>
      </trkpt>
      <trkpt lat="42.81669" lon="0.27975">
        <ele>1886</ele>
        <time>2020-07-27T15:30:16.003Z</time>
      </trkpt>
      <trkpt lat="42.81669" lon="0.27973">
        <ele>1887</ele>
        <time>2020-07-27T15:30:17.003Z</time>
      </trkpt>
      <trkpt lat="42.81669" lon="0.27971">
        <ele>1887</ele>
        <time>2020-07-27T15:30:18.003Z</time>
      </trkpt>
      <trkpt lat="42.81669" lon="0.27968">
        <ele>1888</ele>
        <time>2020-07-27T15:30:19.003Z</time>
      </trkpt>
      <trkpt lat="42.81669" lon="0.27966">
        <ele>1888</ele>
        <time>2020-07-27T15:30:20.003Z</time>
      </trkpt>
      <trkpt lat="42.81669" lon="0.27963">
        <ele>1888</ele>
        <time>2020-07-27T15:30:21.003Z</time>
      </trkpt>
      <trkpt lat="42.81669" lon="0.27961">
        <ele>1889</ele>
        <time>2020-07-27T15:30:22.003Z</time>
      </trkpt>
      <trkpt lat="42.8167" lon="0.27958">
        <ele>1889</ele>
        <time>2020-07-27T15:30:23.003Z</time>
      </trkpt>
      <trkpt lat="42.8167" lon="0.27956">
        <ele>1890</ele>
        <time>2020-07-27T15:30:24.003Z</time>
      </trkpt>
      <trkpt lat="42.8167" lon="0.27954">
        <ele>1891</ele>
        <time>2020-07-27T15:30:25.003Z</time>
      </trkpt>
      <trkpt lat="42.8167" lon="0.27952">
        <ele>1891</ele>
        <time>2020-07-27T15:30:26.003Z</time>
      </trkpt>
      <trkpt lat="42.8167" lon="0.27949">
        <ele>1892</ele>
        <time>2020-07-27T15:30:27.003Z</time>
      </trkpt>
      <trkpt lat="42.81671" lon="0.27947">
        <ele>1893</ele>
        <time>2020-07-27T15:30:28.003Z</time>
      </trkpt>
      <trkpt lat="42.81671" lon="0.27945">
        <ele>1894</ele>
        <time>2020-07-27T15:30:29.003Z</time>
      </trkpt>
      <trkpt lat="42.81672" lon="0.27943">
        <ele>1895</ele>
        <time>2020-07-27T15:30:30.003Z</time>
      </trkpt>
      <trkpt lat="42.81672" lon="0.27941">
        <ele>1895</ele>
        <time>2020-07-27T15:30:31.003Z</time>
      </trkpt>
      <trkpt lat="42.81672" lon="0.27939">
        <ele>1896</ele>
        <time>2020-07-27T15:30:32.003Z</time>
      </trkpt>
      <trkpt lat="42.81672" lon="0.27937">
        <ele>1896</ele>
        <time>2020-07-27T15:30:33.003Z</time>
      </trkpt>
      <trkpt lat="42.81672" lon="0.27936">
        <ele>1897</ele>
        <time>2020-07-27T15:30:34.003Z</time>
      </trkpt>
      <trkpt lat="42.81672" lon="0.27934">
        <ele>1896</ele>
        <time>2020-07-27T15:30:35.003Z</time>
      </trkpt>
      <trkpt lat="42.81672" lon="0.27933">
        <ele>1897</ele>
        <time>2020-07-27T15:30:36.003Z</time>
      </trkpt>
      <trkpt lat="42.81672" lon="0.27931">
        <ele>1898</ele>
        <time>2020-07-27T15:30:37.003Z</time>
      </trkpt>
      <trkpt lat="42.81671" lon="0.27929">
        <ele>1898</ele>
        <time>2020-07-27T15:30:38.003Z</time>
      </trkpt>
      <trkpt lat="42.81671" lon="0.27927">
        <ele>1898</ele>
        <time>2020-07-27T15:30:39.003Z</time>
      </trkpt>
      <trkpt lat="42.81671" lon="0.27926">
        <ele>1899</ele>
        <time>2020-07-27T15:30:40.003Z</time>
      </trkpt>
      <trkpt lat="42.81672" lon="0.27924">
        <ele>1899</ele>
        <time>2020-07-27T15:30:41.003Z</time>
      </trkpt>
      <trkpt lat="42.81672" lon="0.27923">
        <ele>1900</ele>
        <time>2020-07-27T15:30:42.003Z</time>
      </trkpt>
      <trkpt lat="42.81672" lon="0.27921">
        <ele>1901</ele>
        <time>2020-07-27T15:30:43.003Z</time>
      </trkpt>
      <trkpt lat="42.81672" lon="0.2792">
        <ele>1900</ele>
        <time>2020-07-27T15:30:44.003Z</time>
      </trkpt>
      <trkpt lat="42.81672" lon="0.27919">
        <ele>1901</ele>
        <time>2020-07-27T15:30:45.003Z</time>
      </trkpt>
      <trkpt lat="42.81672" lon="0.27918">
        <ele>1901</ele>
        <time>2020-07-27T15:30:46.003Z</time>
      </trkpt>
      <trkpt lat="42.81672" lon="0.27917">
        <ele>1901</ele>
        <time>2020-07-27T15:30:47.003Z</time>
      </trkpt>
      <trkpt lat="42.81671" lon="0.27916">
        <ele>1902</ele>
        <time>2020-07-27T15:30:48.003Z</time>
      </trkpt>
      <trkpt lat="42.81671" lon="0.27914">
        <ele>1903</ele>
        <time>2020-07-27T15:30:49.003Z</time>
      </trkpt>
      <trkpt lat="42.81671" lon="0.27913">
        <ele>1903</ele>
        <time>2020-07-27T15:30:50.003Z</time>
      </trkpt>
      <trkpt lat="42.81671" lon="0.27911">
        <ele>1902</ele>
        <time>2020-07-27T15:30:51.003Z</time>
      </trkpt>
      <trkpt lat="42.81671" lon="0.27909">
        <ele>1902</ele>
        <time>2020-07-27T15:30:52.003Z</time>
      </trkpt>
      <trkpt lat="42.81671" lon="0.27908">
        <ele>1902</ele>
        <time>2020-07-27T15:30:53.003Z</time>
      </trkpt>
      <trkpt lat="42.81671" lon="0.27907">
        <ele>1904</ele>
        <time>2020-07-27T15:30:54.003Z</time>
      </trkpt>
      <trkpt lat="42.81671" lon="0.27905">
        <ele>1904</ele>
        <time>2020-07-27T15:30:55.003Z</time>
      </trkpt>
      <trkpt lat="42.81671" lon="0.27903">
        <ele>1905</ele>
        <time>2020-07-27T15:30:56.003Z</time>
      </trkpt>
      <trkpt lat="42.81671" lon="0.27902">
        <ele>1907</ele>
        <time>2020-07-27T15:30:57.003Z</time>
      </trkpt>
      <trkpt lat="42.81671" lon="0.279">
        <ele>1907</ele>
        <time>2020-07-27T15:30:58.003Z</time>
      </trkpt>
      <trkpt lat="42.81671" lon="0.27899">
        <ele>1908</ele>
        <time>2020-07-27T15:30:59.003Z</time>
      </trkpt>
      <trkpt lat="42.81671" lon="0.27897">
        <ele>1908</ele>
        <time>2020-07-27T15:31:00.003Z</time>
      </trkpt>
      <trkpt lat="42.81671" lon="0.27896">
        <ele>1907</ele>
        <time>2020-07-27T15:31:01.003Z</time>
      </trkpt>
      <trkpt lat="42.81671" lon="0.27895">
        <ele>1908</ele>
        <time>2020-07-27T15:31:02.003Z</time>
      </trkpt>
      <trkpt lat="42.81671" lon="0.27893">
        <ele>1909</ele>
        <time>2020-07-27T15:31:03.003Z</time>
      </trkpt>
      <trkpt lat="42.81671" lon="0.27891">
        <ele>1908</ele>
        <time>2020-07-27T15:31:04.003Z</time>
      </trkpt>
      <trkpt lat="42.8167" lon="0.2789">
        <ele>1909</ele>
        <time>2020-07-27T15:31:05.003Z</time>
      </trkpt>
      <trkpt lat="42.8167" lon="0.27888">
        <ele>1909</ele>
        <time>2020-07-27T15:31:06.003Z</time>
      </trkpt>
      <trkpt lat="42.81671" lon="0.27886">
        <ele>1909</ele>
        <time>2020-07-27T15:31:07.003Z</time>
      </trkpt>
      <trkpt lat="42.81671" lon="0.27884">
        <ele>1911</ele>
        <time>2020-07-27T15:31:08.003Z</time>
      </trkpt>
      <trkpt lat="42.81671" lon="0.27883">
        <ele>1911</ele>
        <time>2020-07-27T15:31:09.003Z</time>
      </trkpt>
      <trkpt lat="42.81671" lon="0.27881">
        <ele>1912</ele>
        <time>2020-07-27T15:31:10.003Z</time>
      </trkpt>
      <trkpt lat="42.8167" lon="0.2788">
        <ele>1912</ele>
        <time>2020-07-27T15:31:11.003Z</time>
      </trkpt>
      <trkpt lat="42.8167" lon="0.27878">
        <ele>1913</ele>
        <time>2020-07-27T15:31:12.003Z</time>
      </trkpt>
      <trkpt lat="42.8167" lon="0.27876">
        <ele>1913</ele>
        <time>2020-07-27T15:31:13.003Z</time>
      </trkpt>
      <trkpt lat="42.8167" lon="0.27875">
        <ele>1914</ele>
        <time>2020-07-27T15:31:14.003Z</time>
      </trkpt>
      <trkpt lat="42.81671" lon="0.27874">
        <ele>1913</ele>
        <time>2020-07-27T15:31:15.003Z</time>
      </trkpt>
      <trkpt lat="42.81671" lon="0.27872">
        <ele>1912</ele>
        <time>2020-07-27T15:31:16.003Z</time>
      </trkpt>
      <trkpt lat="42.81671" lon="0.27871">
        <ele>1913</ele>
        <time>2020-07-27T15:31:17.003Z</time>
      </trkpt>
      <trkpt lat="42.8167" lon="0.2787">
        <ele>1913</ele>
        <time>2020-07-27T15:31:18.003Z</time>
      </trkpt>
      <trkpt lat="42.8167" lon="0.27868">
        <ele>1913</ele>
        <time>2020-07-27T15:31:19.003Z</time>
      </trkpt>
      <trkpt lat="42.8167" lon="0.27866">
        <ele>1913</ele>
        <time>2020-07-27T15:31:20.003Z</time>
      </trkpt>
      <trkpt lat="42.81669" lon="0.27864">
        <ele>1915</ele>
        <time>2020-07-27T15:31:21.003Z</time>
      </trkpt>
      <trkpt lat="42.81669" lon="0.27862">
        <ele>1915</ele>
        <time>2020-07-27T15:31:22.003Z</time>
      </trkpt>
      <trkpt lat="42.81669" lon="0.2786">
        <ele>1914</ele>
        <time>2020-07-27T15:31:23.003Z</time>
      </trkpt>
      <trkpt lat="42.81669" lon="0.27859">
        <ele>1915</ele>
        <time>2020-07-27T15:31:24.003Z</time>
      </trkpt>
      <trkpt lat="42.81669" lon="0.27858">
        <ele>1915</ele>
        <time>2020-07-27T15:31:25.003Z</time>
      </trkpt>
      <trkpt lat="42.81669" lon="0.27857">
        <ele>1916</ele>
        <time>2020-07-27T15:31:26.003Z</time>
      </trkpt>
      <trkpt lat="42.81669" lon="0.27856">
        <ele>1916</ele>
        <time>2020-07-27T15:31:27.003Z</time>
      </trkpt>
      <trkpt lat="42.81668" lon="0.27855">
        <ele>1917</ele>
        <time>2020-07-27T15:31:28.003Z</time>
      </trkpt>
      <trkpt lat="42.81668" lon="0.27854">
        <ele>1918</ele>
        <time>2020-07-27T15:31:29.003Z</time>
      </trkpt>
      <trkpt lat="42.81668" lon="0.27853">
        <ele>1919</ele>
        <time>2020-07-27T15:31:30.003Z</time>
      </trkpt>
      <trkpt lat="42.81668" lon="0.27851">
        <ele>1919</ele>
        <time>2020-07-27T15:31:31.003Z</time>
      </trkpt>
      <trkpt lat="42.81667" lon="0.27849">
        <ele>1919</ele>
        <time>2020-07-27T15:31:32.003Z</time>
      </trkpt>
      <trkpt lat="42.81667" lon="0.27847">
        <ele>1920</ele>
        <time>2020-07-27T15:31:33.003Z</time>
      </trkpt>
      <trkpt lat="42.81667" lon="0.27845">
        <ele>1921</ele>
        <time>2020-07-27T15:31:34.003Z</time>
      </trkpt>
      <trkpt lat="42.81666" lon="0.27844">
        <ele>1920</ele>
        <time>2020-07-27T15:31:35.003Z</time>
      </trkpt>
      <trkpt lat="42.81666" lon="0.27842">
        <ele>1921</ele>
        <time>2020-07-27T15:31:36.003Z</time>
      </trkpt>
      <trkpt lat="42.81666" lon="0.2784">
        <ele>1922</ele>
        <time>2020-07-27T15:31:37.003Z</time>
      </trkpt>
      <trkpt lat="42.81665" lon="0.27838">
        <ele>1922</ele>
        <time>2020-07-27T15:31:38.003Z</time>
      </trkpt>
      <trkpt lat="42.81665" lon="0.27837">
        <ele>1921</ele>
        <time>2020-07-27T15:31:39.003Z</time>
      </trkpt>
      <trkpt lat="42.81664" lon="0.27835">
        <ele>1922</ele>
        <time>2020-07-27T15:31:40.003Z</time>
      </trkpt>
      <trkpt lat="42.81664" lon="0.27833">
        <ele>1923</ele>
        <time>2020-07-27T15:31:41.003Z</time>
      </trkpt>
      <trkpt lat="42.81663" lon="0.2783">
        <ele>1923</ele>
        <time>2020-07-27T15:31:42.003Z</time>
      </trkpt>
      <trkpt lat="42.81663" lon="0.27828">
        <ele>1924</ele>
        <time>2020-07-27T15:31:43.003Z</time>
      </trkpt>
      <trkpt lat="42.81662" lon="0.27826">
        <ele>1924</ele>
        <time>2020-07-27T15:31:44.003Z</time>
      </trkpt>
      <trkpt lat="42.81662" lon="0.27824">
        <ele>1924</ele>
        <time>2020-07-27T15:31:45.003Z</time>
      </trkpt>
      <trkpt lat="42.81662" lon="0.27823">
        <ele>1925</ele>
        <time>2020-07-27T15:31:46.003Z</time>
      </trkpt>
      <trkpt lat="42.81661" lon="0.27822">
        <ele>1926</ele>
        <time>2020-07-27T15:31:47.003Z</time>
      </trkpt>
      <trkpt lat="42.81661" lon="0.27821">
        <ele>1926</ele>
        <time>2020-07-27T15:31:48.003Z</time>
      </trkpt>
      <trkpt lat="42.81661" lon="0.27819">
        <ele>1927</ele>
        <time>2020-07-27T15:31:49.003Z</time>
      </trkpt>
      <trkpt lat="42.81661" lon="0.27818">
        <ele>1927</ele>
        <time>2020-07-27T15:31:50.003Z</time>
      </trkpt>
      <trkpt lat="42.81661" lon="0.27816">
        <ele>1928</ele>
        <time>2020-07-27T15:31:51.003Z</time>
      </trkpt>
      <trkpt lat="42.8166" lon="0.27815">
        <ele>1927</ele>
        <time>2020-07-27T15:31:52.003Z</time>
      </trkpt>
      <trkpt lat="42.8166" lon="0.27814">
        <ele>1927</ele>
        <time>2020-07-27T15:31:53.003Z</time>
      </trkpt>
      <trkpt lat="42.8166" lon="0.27813">
        <ele>1926</ele>
        <time>2020-07-27T15:31:54.003Z</time>
      </trkpt>
      <trkpt lat="42.8166" lon="0.27811">
        <ele>1927</ele>
        <time>2020-07-27T15:31:55.003Z</time>
      </trkpt>
      <trkpt lat="42.81661" lon="0.2781">
        <ele>1927</ele>
        <time>2020-07-27T15:31:56.003Z</time>
      </trkpt>
      <trkpt lat="42.81661" lon="0.27809">
        <ele>1928</ele>
        <time>2020-07-27T15:31:57.003Z</time>
      </trkpt>
      <trkpt lat="42.81661" lon="0.27808">
        <ele>1928</ele>
        <time>2020-07-27T15:31:58.003Z</time>
      </trkpt>
      <trkpt lat="42.81661" lon="0.27807">
        <ele>1928</ele>
        <time>2020-07-27T15:31:59.003Z</time>
      </trkpt>
      <trkpt lat="42.8166" lon="0.27806">
        <ele>1929</ele>
        <time>2020-07-27T15:32:00.003Z</time>
      </trkpt>
      <trkpt lat="42.8166" lon="0.27805">
        <ele>1929</ele>
        <time>2020-07-27T15:32:01.003Z</time>
      </trkpt>
      <trkpt lat="42.81659" lon="0.27804">
        <ele>1929</ele>
        <time>2020-07-27T15:32:02.003Z</time>
      </trkpt>
      <trkpt lat="42.81659" lon="0.27803">
        <ele>1929</ele>
        <time>2020-07-27T15:32:03.003Z</time>
      </trkpt>
      <trkpt lat="42.81659" lon="0.27802">
        <ele>1930</ele>
        <time>2020-07-27T15:32:04.003Z</time>
      </trkpt>
      <trkpt lat="42.81659" lon="0.27801">
        <ele>1930</ele>
        <time>2020-07-27T15:32:05.003Z</time>
      </trkpt>
      <trkpt lat="42.81658" lon="0.278">
        <ele>1930</ele>
        <time>2020-07-27T15:32:06.003Z</time>
      </trkpt>
      <trkpt lat="42.81658" lon="0.278">
        <ele>1929</ele>
        <time>2020-07-27T15:32:07.003Z</time>
      </trkpt>
      <trkpt lat="42.81657" lon="0.27799">
        <ele>1929</ele>
        <time>2020-07-27T15:32:08.003Z</time>
      </trkpt>
      <trkpt lat="42.81656" lon="0.27798">
        <ele>1929</ele>
        <time>2020-07-27T15:32:09.003Z</time>
      </trkpt>
      <trkpt lat="42.81655" lon="0.27798">
        <ele>1929</ele>
        <time>2020-07-27T15:32:10.003Z</time>
      </trkpt>
      <trkpt lat="42.81654" lon="0.27798">
        <ele>1929</ele>
        <time>2020-07-27T15:32:11.003Z</time>
      </trkpt>
      <trkpt lat="42.81653" lon="0.27799">
        <ele>1928</ele>
        <time>2020-07-27T15:32:12.003Z</time>
      </trkpt>
      <trkpt lat="42.81652" lon="0.27799">
        <ele>1928</ele>
        <time>2020-07-27T15:32:13.003Z</time>
      </trkpt>
      <trkpt lat="42.81651" lon="0.27799">
        <ele>1929</ele>
        <time>2020-07-27T15:32:14.003Z</time>
      </trkpt>
      <trkpt lat="42.81649" lon="0.278">
        <ele>1930</ele>
        <time>2020-07-27T15:32:15.003Z</time>
      </trkpt>
      <trkpt lat="42.81648" lon="0.27801">
        <ele>1930</ele>
        <time>2020-07-27T15:32:16.003Z</time>
      </trkpt>
      <trkpt lat="42.81646" lon="0.27803">
        <ele>1931</ele>
        <time>2020-07-27T15:32:17.003Z</time>
      </trkpt>
      <trkpt lat="42.81645" lon="0.27804">
        <ele>1932</ele>
        <time>2020-07-27T15:32:18.003Z</time>
      </trkpt>
      <trkpt lat="42.81644" lon="0.27806">
        <ele>1932</ele>
        <time>2020-07-27T15:32:19.003Z</time>
      </trkpt>
      <trkpt lat="42.81642" lon="0.27808">
        <ele>1932</ele>
        <time>2020-07-27T15:32:20.003Z</time>
      </trkpt>
      <trkpt lat="42.81641" lon="0.27809">
        <ele>1933</ele>
        <time>2020-07-27T15:32:21.003Z</time>
      </trkpt>
      <trkpt lat="42.8164" lon="0.27811">
        <ele>1933</ele>
        <time>2020-07-27T15:32:22.003Z</time>
      </trkpt>
      <trkpt lat="42.81639" lon="0.27813">
        <ele>1934</ele>
        <time>2020-07-27T15:32:23.003Z</time>
      </trkpt>
      <trkpt lat="42.81638" lon="0.27815">
        <ele>1934</ele>
        <time>2020-07-27T15:32:24.003Z</time>
      </trkpt>
      <trkpt lat="42.81637" lon="0.27816">
        <ele>1934</ele>
        <time>2020-07-27T15:32:25.003Z</time>
      </trkpt>
      <trkpt lat="42.81636" lon="0.27818">
        <ele>1935</ele>
        <time>2020-07-27T15:32:26.003Z</time>
      </trkpt>
      <trkpt lat="42.81636" lon="0.2782">
        <ele>1935</ele>
        <time>2020-07-27T15:32:27.003Z</time>
      </trkpt>
      <trkpt lat="42.81635" lon="0.27822">
        <ele>1936</ele>
        <time>2020-07-27T15:32:28.003Z</time>
      </trkpt>
      <trkpt lat="42.81634" lon="0.27824">
        <ele>1937</ele>
        <time>2020-07-27T15:32:29.003Z</time>
      </trkpt>
      <trkpt lat="42.81633" lon="0.27826">
        <ele>1937</ele>
        <time>2020-07-27T15:32:30.003Z</time>
      </trkpt>
      <trkpt lat="42.81632" lon="0.27827">
        <ele>1938</ele>
        <time>2020-07-27T15:32:31.003Z</time>
      </trkpt>
      <trkpt lat="42.81631" lon="0.27829">
        <ele>1938</ele>
        <time>2020-07-27T15:32:32.003Z</time>
      </trkpt>
      <trkpt lat="42.8163" lon="0.27831">
        <ele>1939</ele>
        <time>2020-07-27T15:32:33.003Z</time>
      </trkpt>
      <trkpt lat="42.81629" lon="0.27833">
        <ele>1939</ele>
        <time>2020-07-27T15:32:34.003Z</time>
      </trkpt>
      <trkpt lat="42.81629" lon="0.27835">
        <ele>1940</ele>
        <time>2020-07-27T15:32:35.003Z</time>
      </trkpt>
      <trkpt lat="42.81627" lon="0.27837">
        <ele>1941</ele>
        <time>2020-07-27T15:32:36.003Z</time>
      </trkpt>
      <trkpt lat="42.81626" lon="0.27838">
        <ele>1941</ele>
        <time>2020-07-27T15:32:37.003Z</time>
      </trkpt>
      <trkpt lat="42.81625" lon="0.2784">
        <ele>1941</ele>
        <time>2020-07-27T15:32:38.003Z</time>
      </trkpt>
      <trkpt lat="42.81624" lon="0.27841">
        <ele>1941</ele>
        <time>2020-07-27T15:32:39.003Z</time>
      </trkpt>
      <trkpt lat="42.81623" lon="0.27842">
        <ele>1941</ele>
        <time>2020-07-27T15:32:40.003Z</time>
      </trkpt>
      <trkpt lat="42.81622" lon="0.27844">
        <ele>1942</ele>
        <time>2020-07-27T15:32:41.003Z</time>
      </trkpt>
      <trkpt lat="42.81622" lon="0.27845">
        <ele>1942</ele>
        <time>2020-07-27T15:32:42.003Z</time>
      </trkpt>
      <trkpt lat="42.81621" lon="0.27847">
        <ele>1942</ele>
        <time>2020-07-27T15:32:43.003Z</time>
      </trkpt>
      <trkpt lat="42.8162" lon="0.27848">
        <ele>1943</ele>
        <time>2020-07-27T15:32:44.003Z</time>
      </trkpt>
      <trkpt lat="42.81619" lon="0.27849">
        <ele>1943</ele>
        <time>2020-07-27T15:32:45.003Z</time>
      </trkpt>
      <trkpt lat="42.81619" lon="0.27851">
        <ele>1943</ele>
        <time>2020-07-27T15:32:46.003Z</time>
      </trkpt>
      <trkpt lat="42.81618" lon="0.27852">
        <ele>1943</ele>
        <time>2020-07-27T15:32:47.003Z</time>
      </trkpt>
      <trkpt lat="42.81617" lon="0.27854">
        <ele>1943</ele>
        <time>2020-07-27T15:32:48.003Z</time>
      </trkpt>
      <trkpt lat="42.81616" lon="0.27855">
        <ele>1944</ele>
        <time>2020-07-27T15:32:49.003Z</time>
      </trkpt>
      <trkpt lat="42.81615" lon="0.27856">
        <ele>1944</ele>
        <time>2020-07-27T15:32:50.003Z</time>
      </trkpt>
      <trkpt lat="42.81614" lon="0.27857">
        <ele>1943</ele>
        <time>2020-07-27T15:32:51.003Z</time>
      </trkpt>
      <trkpt lat="42.81613" lon="0.27858">
        <ele>1944</ele>
        <time>2020-07-27T15:32:52.003Z</time>
      </trkpt>
      <trkpt lat="42.81612" lon="0.2786">
        <ele>1944</ele>
        <time>2020-07-27T15:32:53.003Z</time>
      </trkpt>
      <trkpt lat="42.81611" lon="0.27861">
        <ele>1944</ele>
        <time>2020-07-27T15:32:54.003Z</time>
      </trkpt>
      <trkpt lat="42.8161" lon="0.27863">
        <ele>1944</ele>
        <time>2020-07-27T15:32:55.003Z</time>
      </trkpt>
      <trkpt lat="42.8161" lon="0.27864">
        <ele>1944</ele>
        <time>2020-07-27T15:32:56.003Z</time>
      </trkpt>
      <trkpt lat="42.81609" lon="0.27866">
        <ele>1944</ele>
        <time>2020-07-27T15:32:57.003Z</time>
      </trkpt>
      <trkpt lat="42.81608" lon="0.27867">
        <ele>1945</ele>
        <time>2020-07-27T15:32:58.003Z</time>
      </trkpt>
      <trkpt lat="42.81598" lon="0.27875">
        <ele>1941</ele>
        <time>2020-07-27T15:32:59.081Z</time>
      </trkpt>
      <trkpt lat="42.81598" lon="0.27874">
        <ele>1941</ele>
        <time>2020-07-27T15:33:00.081Z</time>
      </trkpt>
      <trkpt lat="42.81598" lon="0.27873">
        <ele>1941</ele>
        <time>2020-07-27T15:33:01.081Z</time>
      </trkpt>
      <trkpt lat="42.81598" lon="0.27871">
        <ele>1942</ele>
        <time>2020-07-27T15:33:02.081Z</time>
      </trkpt>
      <trkpt lat="42.81598" lon="0.27869">
        <ele>1943</ele>
        <time>2020-07-27T15:33:03.081Z</time>
      </trkpt>
      <trkpt lat="42.81599" lon="0.27866">
        <ele>1945</ele>
        <time>2020-07-27T15:33:04.081Z</time>
      </trkpt>
      <trkpt lat="42.81599" lon="0.27863">
        <ele>1945</ele>
        <time>2020-07-27T15:33:05.081Z</time>
      </trkpt>
      <trkpt lat="42.81599" lon="0.27859">
        <ele>1946</ele>
        <time>2020-07-27T15:33:06.081Z</time>
      </trkpt>
      <trkpt lat="42.81599" lon="0.27856">
        <ele>1947</ele>
        <time>2020-07-27T15:33:07.081Z</time>
      </trkpt>
      <trkpt lat="42.81599" lon="0.27852">
        <ele>1947</ele>
        <time>2020-07-27T15:33:08.081Z</time>
      </trkpt>
      <trkpt lat="42.81599" lon="0.27849">
        <ele>1948</ele>
        <time>2020-07-27T15:33:09.081Z</time>
      </trkpt>
      <trkpt lat="42.816" lon="0.27845">
        <ele>1948</ele>
        <time>2020-07-27T15:33:10.081Z</time>
      </trkpt>
      <trkpt lat="42.816" lon="0.27842">
        <ele>1949</ele>
        <time>2020-07-27T15:33:11.081Z</time>
      </trkpt>
      <trkpt lat="42.816" lon="0.27839">
        <ele>1950</ele>
        <time>2020-07-27T15:33:12.081Z</time>
      </trkpt>
      <trkpt lat="42.81601" lon="0.27836">
        <ele>1950</ele>
        <time>2020-07-27T15:33:13.081Z</time>
      </trkpt>
      <trkpt lat="42.81601" lon="0.27833">
        <ele>1951</ele>
        <time>2020-07-27T15:33:14.081Z</time>
      </trkpt>
      <trkpt lat="42.81601" lon="0.2783">
        <ele>1951</ele>
        <time>2020-07-27T15:33:15.081Z</time>
      </trkpt>
      <trkpt lat="42.81601" lon="0.27827">
        <ele>1951</ele>
        <time>2020-07-27T15:33:16.081Z</time>
      </trkpt>
      <trkpt lat="42.81601" lon="0.27824">
        <ele>1952</ele>
        <time>2020-07-27T15:33:17.081Z</time>
      </trkpt>
      <trkpt lat="42.81602" lon="0.27821">
        <ele>1952</ele>
        <time>2020-07-27T15:33:18.081Z</time>
      </trkpt>
      <trkpt lat="42.81602" lon="0.27818">
        <ele>1952</ele>
        <time>2020-07-27T15:33:19.081Z</time>
      </trkpt>
      <trkpt lat="42.81602" lon="0.27815">
        <ele>1953</ele>
        <time>2020-07-27T15:33:20.081Z</time>
      </trkpt>
      <trkpt lat="42.81603" lon="0.27812">
        <ele>1952</ele>
        <time>2020-07-27T15:33:21.081Z</time>
      </trkpt>
      <trkpt lat="42.81603" lon="0.27809">
        <ele>1953</ele>
        <time>2020-07-27T15:33:22.081Z</time>
      </trkpt>
      <trkpt lat="42.81603" lon="0.27806">
        <ele>1952</ele>
        <time>2020-07-27T15:33:23.081Z</time>
      </trkpt>
      <trkpt lat="42.81603" lon="0.27803">
        <ele>1953</ele>
        <time>2020-07-27T15:33:24.081Z</time>
      </trkpt>
      <trkpt lat="42.81603" lon="0.278">
        <ele>1954</ele>
        <time>2020-07-27T15:33:25.081Z</time>
      </trkpt>
      <trkpt lat="42.81604" lon="0.27797">
        <ele>1954</ele>
        <time>2020-07-27T15:33:26.081Z</time>
      </trkpt>
      <trkpt lat="42.81604" lon="0.27794">
        <ele>1954</ele>
        <time>2020-07-27T15:33:27.081Z</time>
      </trkpt>
      <trkpt lat="42.81604" lon="0.27792">
        <ele>1955</ele>
        <time>2020-07-27T15:33:28.081Z</time>
      </trkpt>
      <trkpt lat="42.81604" lon="0.27789">
        <ele>1956</ele>
        <time>2020-07-27T15:33:29.081Z</time>
      </trkpt>
      <trkpt lat="42.81604" lon="0.27786">
        <ele>1956</ele>
        <time>2020-07-27T15:33:30.081Z</time>
      </trkpt>
      <trkpt lat="42.81605" lon="0.27783">
        <ele>1956</ele>
        <time>2020-07-27T15:33:31.081Z</time>
      </trkpt>
      <trkpt lat="42.81605" lon="0.2778">
        <ele>1957</ele>
        <time>2020-07-27T15:33:32.081Z</time>
      </trkpt>
      <trkpt lat="42.81605" lon="0.27777">
        <ele>1957</ele>
        <time>2020-07-27T15:33:33.081Z</time>
      </trkpt>
      <trkpt lat="42.81605" lon="0.27775">
        <ele>1958</ele>
        <time>2020-07-27T15:33:34.081Z</time>
      </trkpt>
      <trkpt lat="42.81605" lon="0.27772">
        <ele>1956</ele>
        <time>2020-07-27T15:33:35.081Z</time>
      </trkpt>
      <trkpt lat="42.81605" lon="0.27768">
        <ele>1957</ele>
        <time>2020-07-27T15:33:36.081Z</time>
      </trkpt>
      <trkpt lat="42.81605" lon="0.27765">
        <ele>1956</ele>
        <time>2020-07-27T15:33:37.081Z</time>
      </trkpt>
      <trkpt lat="42.81605" lon="0.27762">
        <ele>1956</ele>
        <time>2020-07-27T15:33:38.081Z</time>
      </trkpt>
      <trkpt lat="42.81605" lon="0.27759">
        <ele>1956</ele>
        <time>2020-07-27T15:33:39.081Z</time>
      </trkpt>
      <trkpt lat="42.81604" lon="0.27756">
        <ele>1956</ele>
        <time>2020-07-27T15:33:40.081Z</time>
      </trkpt>
      <trkpt lat="42.81605" lon="0.27752">
        <ele>1956</ele>
        <time>2020-07-27T15:33:41.081Z</time>
      </trkpt>
      <trkpt lat="42.81605" lon="0.27749">
        <ele>1955</ele>
        <time>2020-07-27T15:33:42.081Z</time>
      </trkpt>
      <trkpt lat="42.81604" lon="0.27746">
        <ele>1956</ele>
        <time>2020-07-27T15:33:43.081Z</time>
      </trkpt>
      <trkpt lat="42.81604" lon="0.27743">
        <ele>1957</ele>
        <time>2020-07-27T15:33:44.081Z</time>
      </trkpt>
      <trkpt lat="42.81604" lon="0.2774">
        <ele>1958</ele>
        <time>2020-07-27T15:33:45.081Z</time>
      </trkpt>
      <trkpt lat="42.81604" lon="0.27737">
        <ele>1959</ele>
        <time>2020-07-27T15:33:46.081Z</time>
      </trkpt>
      <trkpt lat="42.81604" lon="0.27734">
        <ele>1960</ele>
        <time>2020-07-27T15:33:47.081Z</time>
      </trkpt>
      <trkpt lat="42.81603" lon="0.27732">
        <ele>1960</ele>
        <time>2020-07-27T15:33:48.081Z</time>
      </trkpt>
      <trkpt lat="42.81602" lon="0.27729">
        <ele>1961</ele>
        <time>2020-07-27T15:33:49.081Z</time>
      </trkpt>
      <trkpt lat="42.81602" lon="0.27726">
        <ele>1962</ele>
        <time>2020-07-27T15:33:50.081Z</time>
      </trkpt>
      <trkpt lat="42.81601" lon="0.27723">
        <ele>1963</ele>
        <time>2020-07-27T15:33:51.081Z</time>
      </trkpt>
      <trkpt lat="42.816" lon="0.2772">
        <ele>1963</ele>
        <time>2020-07-27T15:33:52.081Z</time>
      </trkpt>
      <trkpt lat="42.81599" lon="0.27717">
        <ele>1964</ele>
        <time>2020-07-27T15:33:53.081Z</time>
      </trkpt>
      <trkpt lat="42.81598" lon="0.27714">
        <ele>1965</ele>
        <time>2020-07-27T15:33:54.081Z</time>
      </trkpt>
      <trkpt lat="42.81598" lon="0.27711">
        <ele>1966</ele>
        <time>2020-07-27T15:33:55.081Z</time>
      </trkpt>
      <trkpt lat="42.81597" lon="0.27708">
        <ele>1966</ele>
        <time>2020-07-27T15:33:56.081Z</time>
      </trkpt>
      <trkpt lat="42.81596" lon="0.27706">
        <ele>1967</ele>
        <time>2020-07-27T15:33:57.081Z</time>
      </trkpt>
      <trkpt lat="42.81595" lon="0.27703">
        <ele>1968</ele>
        <time>2020-07-27T15:33:58.081Z</time>
      </trkpt>
      <trkpt lat="42.81595" lon="0.277">
        <ele>1968</ele>
        <time>2020-07-27T15:33:59.081Z</time>
      </trkpt>
      <trkpt lat="42.81594" lon="0.27697">
        <ele>1969</ele>
        <time>2020-07-27T15:34:00.081Z</time>
      </trkpt>
      <trkpt lat="42.81593" lon="0.27694">
        <ele>1970</ele>
        <time>2020-07-27T15:34:01.081Z</time>
      </trkpt>
      <trkpt lat="42.81592" lon="0.27691">
        <ele>1971</ele>
        <time>2020-07-27T15:34:02.081Z</time>
      </trkpt>
      <trkpt lat="42.81591" lon="0.27688">
        <ele>1971</ele>
        <time>2020-07-27T15:34:03.081Z</time>
      </trkpt>
      <trkpt lat="42.81591" lon="0.27685">
        <ele>1971</ele>
        <time>2020-07-27T15:34:04.081Z</time>
      </trkpt>
      <trkpt lat="42.8159" lon="0.27682">
        <ele>1972</ele>
        <time>2020-07-27T15:34:05.081Z</time>
      </trkpt>
      <trkpt lat="42.81589" lon="0.27679">
        <ele>1973</ele>
        <time>2020-07-27T15:34:06.081Z</time>
      </trkpt>
      <trkpt lat="42.81588" lon="0.27676">
        <ele>1973</ele>
        <time>2020-07-27T15:34:07.081Z</time>
      </trkpt>
      <trkpt lat="42.81587" lon="0.27673">
        <ele>1973</ele>
        <time>2020-07-27T15:34:08.081Z</time>
      </trkpt>
      <trkpt lat="42.81587" lon="0.2767">
        <ele>1973</ele>
        <time>2020-07-27T15:34:09.081Z</time>
      </trkpt>
      <trkpt lat="42.81587" lon="0.27666">
        <ele>1973</ele>
        <time>2020-07-27T15:34:10.081Z</time>
      </trkpt>
      <trkpt lat="42.81586" lon="0.27663">
        <ele>1973</ele>
        <time>2020-07-27T15:34:11.081Z</time>
      </trkpt>
      <trkpt lat="42.81586" lon="0.2766">
        <ele>1973</ele>
        <time>2020-07-27T15:34:12.081Z</time>
      </trkpt>
      <trkpt lat="42.81585" lon="0.27657">
        <ele>1974</ele>
        <time>2020-07-27T15:34:13.081Z</time>
      </trkpt>
      <trkpt lat="42.81585" lon="0.27655">
        <ele>1974</ele>
        <time>2020-07-27T15:34:14.081Z</time>
      </trkpt>
      <trkpt lat="42.81584" lon="0.27651">
        <ele>1974</ele>
        <time>2020-07-27T15:34:15.081Z</time>
      </trkpt>
      <trkpt lat="42.81583" lon="0.27648">
        <ele>1974</ele>
        <time>2020-07-27T15:34:16.081Z</time>
      </trkpt>
      <trkpt lat="42.81583" lon="0.27645">
        <ele>1974</ele>
        <time>2020-07-27T15:34:17.081Z</time>
      </trkpt>
      <trkpt lat="42.81582" lon="0.27642">
        <ele>1975</ele>
        <time>2020-07-27T15:34:18.081Z</time>
      </trkpt>
      <trkpt lat="42.81582" lon="0.27639">
        <ele>1975</ele>
        <time>2020-07-27T15:34:19.081Z</time>
      </trkpt>
      <trkpt lat="42.81581" lon="0.27636">
        <ele>1976</ele>
        <time>2020-07-27T15:34:20.081Z</time>
      </trkpt>
      <trkpt lat="42.81581" lon="0.27633">
        <ele>1976</ele>
        <time>2020-07-27T15:34:21.081Z</time>
      </trkpt>
      <trkpt lat="42.81581" lon="0.27629">
        <ele>1978</ele>
        <time>2020-07-27T15:34:22.081Z</time>
      </trkpt>
      <trkpt lat="42.8158" lon="0.27626">
        <ele>1978</ele>
        <time>2020-07-27T15:34:23.081Z</time>
      </trkpt>
      <trkpt lat="42.8158" lon="0.27623">
        <ele>1978</ele>
        <time>2020-07-27T15:34:24.081Z</time>
      </trkpt>
      <trkpt lat="42.8158" lon="0.27619">
        <ele>1978</ele>
        <time>2020-07-27T15:34:25.081Z</time>
      </trkpt>
      <trkpt lat="42.81579" lon="0.27616">
        <ele>1978</ele>
        <time>2020-07-27T15:34:26.081Z</time>
      </trkpt>
      <trkpt lat="42.81579" lon="0.27613">
        <ele>1978</ele>
        <time>2020-07-27T15:34:27.081Z</time>
      </trkpt>
      <trkpt lat="42.81578" lon="0.2761">
        <ele>1977</ele>
        <time>2020-07-27T15:34:28.081Z</time>
      </trkpt>
      <trkpt lat="42.81578" lon="0.27607">
        <ele>1978</ele>
        <time>2020-07-27T15:34:29.081Z</time>
      </trkpt>
      <trkpt lat="42.81578" lon="0.27603">
        <ele>1977</ele>
        <time>2020-07-27T15:34:30.081Z</time>
      </trkpt>
      <trkpt lat="42.81578" lon="0.276">
        <ele>1977</ele>
        <time>2020-07-27T15:34:31.081Z</time>
      </trkpt>
      <trkpt lat="42.81577" lon="0.27596">
        <ele>1978</ele>
        <time>2020-07-27T15:34:32.081Z</time>
      </trkpt>
      <trkpt lat="42.81577" lon="0.27593">
        <ele>1978</ele>
        <time>2020-07-27T15:34:33.081Z</time>
      </trkpt>
      <trkpt lat="42.81577" lon="0.2759">
        <ele>1979</ele>
        <time>2020-07-27T15:34:34.081Z</time>
      </trkpt>
      <trkpt lat="42.81577" lon="0.27587">
        <ele>1978</ele>
        <time>2020-07-27T15:34:35.081Z</time>
      </trkpt>
      <trkpt lat="42.81577" lon="0.27584">
        <ele>1978</ele>
        <time>2020-07-27T15:34:36.081Z</time>
      </trkpt>
      <trkpt lat="42.81577" lon="0.27581">
        <ele>1978</ele>
        <time>2020-07-27T15:34:37.081Z</time>
      </trkpt>
      <trkpt lat="42.81577" lon="0.27577">
        <ele>1977</ele>
        <time>2020-07-27T15:34:38.081Z</time>
      </trkpt>
      <trkpt lat="42.81578" lon="0.27574">
        <ele>1978</ele>
        <time>2020-07-27T15:34:39.081Z</time>
      </trkpt>
      <trkpt lat="42.81578" lon="0.2757">
        <ele>1977</ele>
        <time>2020-07-27T15:34:40.081Z</time>
      </trkpt>
      <trkpt lat="42.81578" lon="0.27567">
        <ele>1976</ele>
        <time>2020-07-27T15:34:41.081Z</time>
      </trkpt>
      <trkpt lat="42.81578" lon="0.27564">
        <ele>1976</ele>
        <time>2020-07-27T15:34:42.081Z</time>
      </trkpt>
      <trkpt lat="42.81579" lon="0.27561">
        <ele>1976</ele>
        <time>2020-07-27T15:34:43.081Z</time>
      </trkpt>
      <trkpt lat="42.81579" lon="0.27558">
        <ele>1977</ele>
        <time>2020-07-27T15:34:44.081Z</time>
      </trkpt>
      <trkpt lat="42.81579" lon="0.27556">
        <ele>1977</ele>
        <time>2020-07-27T15:34:45.081Z</time>
      </trkpt>
      <trkpt lat="42.8158" lon="0.27553">
        <ele>1977</ele>
        <time>2020-07-27T15:34:46.081Z</time>
      </trkpt>
      <trkpt lat="42.8158" lon="0.27549">
        <ele>1977</ele>
        <time>2020-07-27T15:34:47.081Z</time>
      </trkpt>
      <trkpt lat="42.8158" lon="0.27546">
        <ele>1977</ele>
        <time>2020-07-27T15:34:48.081Z</time>
      </trkpt>
      <trkpt lat="42.8158" lon="0.27542">
        <ele>1978</ele>
        <time>2020-07-27T15:34:49.081Z</time>
      </trkpt>
      <trkpt lat="42.8158" lon="0.27539">
        <ele>1976</ele>
        <time>2020-07-27T15:34:50.081Z</time>
      </trkpt>
      <trkpt lat="42.81581" lon="0.27535">
        <ele>1977</ele>
        <time>2020-07-27T15:34:51.081Z</time>
      </trkpt>
      <trkpt lat="42.81582" lon="0.27532">
        <ele>1978</ele>
        <time>2020-07-27T15:34:52.081Z</time>
      </trkpt>
      <trkpt lat="42.81582" lon="0.27529">
        <ele>1978</ele>
        <time>2020-07-27T15:34:53.081Z</time>
      </trkpt>
      <trkpt lat="42.81582" lon="0.27526">
        <ele>1979</ele>
        <time>2020-07-27T15:34:54.081Z</time>
      </trkpt>
      <trkpt lat="42.81583" lon="0.27523">
        <ele>1980</ele>
        <time>2020-07-27T15:34:55.081Z</time>
      </trkpt>
      <trkpt lat="42.81583" lon="0.2752">
        <ele>1982</ele>
        <time>2020-07-27T15:34:56.081Z</time>
      </trkpt>
      <trkpt lat="42.81583" lon="0.27518">
        <ele>1985</ele>
        <time>2020-07-27T15:34:57.081Z</time>
      </trkpt>
      <trkpt lat="42.81583" lon="0.27517">
        <ele>1986</ele>
        <time>2020-07-27T15:34:58.081Z</time>
      </trkpt>
      <trkpt lat="42.81582" lon="0.27515">
        <ele>1986</ele>
        <time>2020-07-27T15:34:59.081Z</time>
      </trkpt>
      <trkpt lat="42.81582" lon="0.27512">
        <ele>1986</ele>
        <time>2020-07-27T15:35:00.081Z</time>
      </trkpt>
      <trkpt lat="42.81581" lon="0.2751">
        <ele>1986</ele>
        <time>2020-07-27T15:35:01.081Z</time>
      </trkpt>
      <trkpt lat="42.81581" lon="0.27508">
        <ele>1986</ele>
        <time>2020-07-27T15:35:02.081Z</time>
      </trkpt>
      <trkpt lat="42.81581" lon="0.27505">
        <ele>1986</ele>
        <time>2020-07-27T15:35:03.081Z</time>
      </trkpt>
      <trkpt lat="42.8158" lon="0.27503">
        <ele>1986</ele>
        <time>2020-07-27T15:35:04.081Z</time>
      </trkpt>
      <trkpt lat="42.8158" lon="0.27502">
        <ele>1987</ele>
        <time>2020-07-27T15:35:05.081Z</time>
      </trkpt>
      <trkpt lat="42.8158" lon="0.275">
        <ele>1987</ele>
        <time>2020-07-27T15:35:06.081Z</time>
      </trkpt>
      <trkpt lat="42.81579" lon="0.27498">
        <ele>1988</ele>
        <time>2020-07-27T15:35:07.081Z</time>
      </trkpt>
      <trkpt lat="42.81578" lon="0.27495">
        <ele>1989</ele>
        <time>2020-07-27T15:35:08.081Z</time>
      </trkpt>
      <trkpt lat="42.81578" lon="0.27494">
        <ele>1989</ele>
        <time>2020-07-27T15:35:09.081Z</time>
      </trkpt>
      <trkpt lat="42.81578" lon="0.27492">
        <ele>1989</ele>
        <time>2020-07-27T15:35:10.081Z</time>
      </trkpt>
      <trkpt lat="42.81578" lon="0.27491">
        <ele>1988</ele>
        <time>2020-07-27T15:35:11.081Z</time>
      </trkpt>
      <trkpt lat="42.81578" lon="0.27489">
        <ele>1988</ele>
        <time>2020-07-27T15:35:12.081Z</time>
      </trkpt>
      <trkpt lat="42.81578" lon="0.27488">
        <ele>1988</ele>
        <time>2020-07-27T15:35:13.081Z</time>
      </trkpt>
      <trkpt lat="42.81578" lon="0.27487">
        <ele>1988</ele>
        <time>2020-07-27T15:35:14.081Z</time>
      </trkpt>
      <trkpt lat="42.81578" lon="0.27487">
        <ele>1990</ele>
        <time>2020-07-27T15:35:15.081Z</time>
      </trkpt>
      <trkpt lat="42.81577" lon="0.27486">
        <ele>1991</ele>
        <time>2020-07-27T15:35:16.081Z</time>
      </trkpt>
      <trkpt lat="42.81577" lon="0.27485">
        <ele>1991</ele>
        <time>2020-07-27T15:35:17.081Z</time>
      </trkpt>
      <trkpt lat="42.81576" lon="0.27484">
        <ele>1991</ele>
        <time>2020-07-27T15:35:18.081Z</time>
      </trkpt>
      <trkpt lat="42.81576" lon="0.27483">
        <ele>1992</ele>
        <time>2020-07-27T15:35:19.081Z</time>
      </trkpt>
      <trkpt lat="42.81575" lon="0.27482">
        <ele>1992</ele>
        <time>2020-07-27T15:35:20.081Z</time>
      </trkpt>
      <trkpt lat="42.81574" lon="0.27481">
        <ele>1993</ele>
        <time>2020-07-27T15:35:21.081Z</time>
      </trkpt>
      <trkpt lat="42.81573" lon="0.2748">
        <ele>1993</ele>
        <time>2020-07-27T15:35:22.081Z</time>
      </trkpt>
      <trkpt lat="42.81572" lon="0.2748">
        <ele>1994</ele>
        <time>2020-07-27T15:35:23.081Z</time>
      </trkpt>
      <trkpt lat="42.81572" lon="0.27478">
        <ele>1994</ele>
        <time>2020-07-27T15:35:24.081Z</time>
      </trkpt>
      <trkpt lat="42.81571" lon="0.27477">
        <ele>1994</ele>
        <time>2020-07-27T15:35:25.081Z</time>
      </trkpt>
      <trkpt lat="42.8157" lon="0.27476">
        <ele>1994</ele>
        <time>2020-07-27T15:35:26.081Z</time>
      </trkpt>
      <trkpt lat="42.8157" lon="0.27476">
        <ele>1994</ele>
        <time>2020-07-27T15:35:27.081Z</time>
      </trkpt>
      <trkpt lat="42.81569" lon="0.27475">
        <ele>1995</ele>
        <time>2020-07-27T15:35:28.081Z</time>
      </trkpt>
      <trkpt lat="42.81568" lon="0.27474">
        <ele>1996</ele>
        <time>2020-07-27T15:35:29.081Z</time>
      </trkpt>
      <trkpt lat="42.81568" lon="0.27473">
        <ele>1996</ele>
        <time>2020-07-27T15:35:30.081Z</time>
      </trkpt>
      <trkpt lat="42.81567" lon="0.27471">
        <ele>1996</ele>
        <time>2020-07-27T15:35:31.081Z</time>
      </trkpt>
      <trkpt lat="42.81567" lon="0.2747">
        <ele>1995</ele>
        <time>2020-07-27T15:35:32.081Z</time>
      </trkpt>
      <trkpt lat="42.81566" lon="0.27469">
        <ele>1996</ele>
        <time>2020-07-27T15:35:33.081Z</time>
      </trkpt>
      <trkpt lat="42.81566" lon="0.27468">
        <ele>1996</ele>
        <time>2020-07-27T15:35:34.081Z</time>
      </trkpt>
      <trkpt lat="42.81566" lon="0.27467">
        <ele>1996</ele>
        <time>2020-07-27T15:35:35.081Z</time>
      </trkpt>
      <trkpt lat="42.81565" lon="0.27466">
        <ele>1996</ele>
        <time>2020-07-27T15:35:36.081Z</time>
      </trkpt>
      <trkpt lat="42.81564" lon="0.27465">
        <ele>1996</ele>
        <time>2020-07-27T15:35:37.081Z</time>
      </trkpt>
      <trkpt lat="42.81564" lon="0.27464">
        <ele>1998</ele>
        <time>2020-07-27T15:35:38.081Z</time>
      </trkpt>
      <trkpt lat="42.81563" lon="0.27464">
        <ele>1998</ele>
        <time>2020-07-27T15:35:39.081Z</time>
      </trkpt>
      <trkpt lat="42.81562" lon="0.27464">
        <ele>1999</ele>
        <time>2020-07-27T15:35:40.081Z</time>
      </trkpt>
      <trkpt lat="42.81561" lon="0.27464">
        <ele>2001</ele>
        <time>2020-07-27T15:35:41.081Z</time>
      </trkpt>
      <trkpt lat="42.8156" lon="0.27463">
        <ele>2001</ele>
        <time>2020-07-27T15:35:42.081Z</time>
      </trkpt>
      <trkpt lat="42.8156" lon="0.27463">
        <ele>2001</ele>
        <time>2020-07-27T15:35:43.081Z</time>
      </trkpt>
      <trkpt lat="42.81559" lon="0.27462">
        <ele>2001</ele>
        <time>2020-07-27T15:35:44.081Z</time>
      </trkpt>
      <trkpt lat="42.81558" lon="0.27462">
        <ele>2001</ele>
        <time>2020-07-27T15:35:45.081Z</time>
      </trkpt>
      <trkpt lat="42.81557" lon="0.27462">
        <ele>2002</ele>
        <time>2020-07-27T15:35:46.081Z</time>
      </trkpt>
      <trkpt lat="42.81557" lon="0.27462">
        <ele>2002</ele>
        <time>2020-07-27T15:35:47.081Z</time>
      </trkpt>
      <trkpt lat="42.81556" lon="0.27462">
        <ele>2003</ele>
        <time>2020-07-27T15:35:48.081Z</time>
      </trkpt>
      <trkpt lat="42.81555" lon="0.27461">
        <ele>2004</ele>
        <time>2020-07-27T15:35:49.081Z</time>
      </trkpt>
      <trkpt lat="42.81554" lon="0.27461">
        <ele>2004</ele>
        <time>2020-07-27T15:35:50.081Z</time>
      </trkpt>
      <trkpt lat="42.81553" lon="0.27461">
        <ele>2004</ele>
        <time>2020-07-27T15:35:51.081Z</time>
      </trkpt>
      <trkpt lat="42.81552" lon="0.2746">
        <ele>2004</ele>
        <time>2020-07-27T15:35:52.081Z</time>
      </trkpt>
      <trkpt lat="42.81552" lon="0.27459">
        <ele>2005</ele>
        <time>2020-07-27T15:35:53.081Z</time>
      </trkpt>
      <trkpt lat="42.8155" lon="0.27458">
        <ele>2005</ele>
        <time>2020-07-27T15:35:54.081Z</time>
      </trkpt>
      <trkpt lat="42.81549" lon="0.27458">
        <ele>2006</ele>
        <time>2020-07-27T15:35:55.081Z</time>
      </trkpt>
      <trkpt lat="42.81548" lon="0.27457">
        <ele>2006</ele>
        <time>2020-07-27T15:35:56.081Z</time>
      </trkpt>
      <trkpt lat="42.81547" lon="0.27456">
        <ele>2007</ele>
        <time>2020-07-27T15:35:57.081Z</time>
      </trkpt>
      <trkpt lat="42.81546" lon="0.27455">
        <ele>2007</ele>
        <time>2020-07-27T15:35:58.081Z</time>
      </trkpt>
      <trkpt lat="42.81546" lon="0.27455">
        <ele>2007</ele>
        <time>2020-07-27T15:35:59.081Z</time>
      </trkpt>
      <trkpt lat="42.81545" lon="0.27455">
        <ele>2007</ele>
        <time>2020-07-27T15:36:00.081Z</time>
      </trkpt>
      <trkpt lat="42.81544" lon="0.27455">
        <ele>2008</ele>
        <time>2020-07-27T15:36:01.081Z</time>
      </trkpt>
      <trkpt lat="42.81544" lon="0.27455">
        <ele>2007</ele>
        <time>2020-07-27T15:36:02.081Z</time>
      </trkpt>
      <trkpt lat="42.81543" lon="0.27455">
        <ele>2007</ele>
        <time>2020-07-27T15:36:03.081Z</time>
      </trkpt>
      <trkpt lat="42.81542" lon="0.27455">
        <ele>2007</ele>
        <time>2020-07-27T15:36:04.081Z</time>
      </trkpt>
      <trkpt lat="42.81542" lon="0.27454">
        <ele>2008</ele>
        <time>2020-07-27T15:36:05.081Z</time>
      </trkpt>
      <trkpt lat="42.81541" lon="0.27454">
        <ele>2009</ele>
        <time>2020-07-27T15:36:06.081Z</time>
      </trkpt>
      <trkpt lat="42.8154" lon="0.27454">
        <ele>2009</ele>
        <time>2020-07-27T15:36:07.081Z</time>
      </trkpt>
      <trkpt lat="42.81539" lon="0.27454">
        <ele>2009</ele>
        <time>2020-07-27T15:36:08.081Z</time>
      </trkpt>
      <trkpt lat="42.81539" lon="0.27454">
        <ele>2010</ele>
        <time>2020-07-27T15:36:09.081Z</time>
      </trkpt>
      <trkpt lat="42.81538" lon="0.27453">
        <ele>2010</ele>
        <time>2020-07-27T15:36:10.081Z</time>
      </trkpt>
      <trkpt lat="42.81537" lon="0.27453">
        <ele>2010</ele>
        <time>2020-07-27T15:36:11.081Z</time>
      </trkpt>
      <trkpt lat="42.81537" lon="0.27451">
        <ele>2010</ele>
        <time>2020-07-27T15:36:12.081Z</time>
      </trkpt>
      <trkpt lat="42.81536" lon="0.2745">
        <ele>2010</ele>
        <time>2020-07-27T15:36:13.081Z</time>
      </trkpt>
      <trkpt lat="42.81535" lon="0.27448">
        <ele>2011</ele>
        <time>2020-07-27T15:36:14.081Z</time>
      </trkpt>
      <trkpt lat="42.81535" lon="0.27446">
        <ele>2010</ele>
        <time>2020-07-27T15:36:15.081Z</time>
      </trkpt>
      <trkpt lat="42.81534" lon="0.27445">
        <ele>2010</ele>
        <time>2020-07-27T15:36:16.081Z</time>
      </trkpt>
      <trkpt lat="42.81534" lon="0.27443">
        <ele>2010</ele>
        <time>2020-07-27T15:36:17.081Z</time>
      </trkpt>
      <trkpt lat="42.81534" lon="0.27442">
        <ele>2010</ele>
        <time>2020-07-27T15:36:18.081Z</time>
      </trkpt>
      <trkpt lat="42.81533" lon="0.2744">
        <ele>2010</ele>
        <time>2020-07-27T15:36:19.081Z</time>
      </trkpt>
      <trkpt lat="42.81533" lon="0.27439">
        <ele>2011</ele>
        <time>2020-07-27T15:36:20.081Z</time>
      </trkpt>
      <trkpt lat="42.81533" lon="0.27438">
        <ele>2011</ele>
        <time>2020-07-27T15:36:21.081Z</time>
      </trkpt>
      <trkpt lat="42.81533" lon="0.27436">
        <ele>2012</ele>
        <time>2020-07-27T15:36:22.081Z</time>
      </trkpt>
      <trkpt lat="42.81532" lon="0.27435">
        <ele>2012</ele>
        <time>2020-07-27T15:36:23.081Z</time>
      </trkpt>
      <trkpt lat="42.81531" lon="0.27434">
        <ele>2012</ele>
        <time>2020-07-27T15:36:24.081Z</time>
      </trkpt>
      <trkpt lat="42.81531" lon="0.27433">
        <ele>2013</ele>
        <time>2020-07-27T15:36:25.081Z</time>
      </trkpt>
      <trkpt lat="42.8153" lon="0.27432">
        <ele>2014</ele>
        <time>2020-07-27T15:36:26.081Z</time>
      </trkpt>
      <trkpt lat="42.8153" lon="0.27431">
        <ele>2014</ele>
        <time>2020-07-27T15:36:27.081Z</time>
      </trkpt>
      <trkpt lat="42.81529" lon="0.2743">
        <ele>2014</ele>
        <time>2020-07-27T15:36:28.081Z</time>
      </trkpt>
      <trkpt lat="42.81529" lon="0.27428">
        <ele>2014</ele>
        <time>2020-07-27T15:36:29.081Z</time>
      </trkpt>
      <trkpt lat="42.81528" lon="0.27427">
        <ele>2015</ele>
        <time>2020-07-27T15:36:30.081Z</time>
      </trkpt>
      <trkpt lat="42.81528" lon="0.27425">
        <ele>2016</ele>
        <time>2020-07-27T15:36:31.081Z</time>
      </trkpt>
      <trkpt lat="42.81528" lon="0.27424">
        <ele>2015</ele>
        <time>2020-07-27T15:36:32.081Z</time>
      </trkpt>
      <trkpt lat="42.81528" lon="0.27422">
        <ele>2016</ele>
        <time>2020-07-27T15:36:33.081Z</time>
      </trkpt>
      <trkpt lat="42.81528" lon="0.27421">
        <ele>2016</ele>
        <time>2020-07-27T15:36:34.081Z</time>
      </trkpt>
      <trkpt lat="42.81528" lon="0.2742">
        <ele>2017</ele>
        <time>2020-07-27T15:36:35.081Z</time>
      </trkpt>
      <trkpt lat="42.81528" lon="0.27419">
        <ele>2017</ele>
        <time>2020-07-27T15:36:36.081Z</time>
      </trkpt>
      <trkpt lat="42.81528" lon="0.27417">
        <ele>2018</ele>
        <time>2020-07-27T15:36:37.081Z</time>
      </trkpt>
      <trkpt lat="42.81527" lon="0.27416">
        <ele>2018</ele>
        <time>2020-07-27T15:36:38.081Z</time>
      </trkpt>
      <trkpt lat="42.81527" lon="0.27415">
        <ele>2017</ele>
        <time>2020-07-27T15:36:39.081Z</time>
      </trkpt>
      <trkpt lat="42.81527" lon="0.27414">
        <ele>2018</ele>
        <time>2020-07-27T15:36:40.081Z</time>
      </trkpt>
      <trkpt lat="42.81527" lon="0.27413">
        <ele>2019</ele>
        <time>2020-07-27T15:36:41.081Z</time>
      </trkpt>
      <trkpt lat="42.81526" lon="0.27412">
        <ele>2019</ele>
        <time>2020-07-27T15:36:42.081Z</time>
      </trkpt>
      <trkpt lat="42.81526" lon="0.27412">
        <ele>2020</ele>
        <time>2020-07-27T15:36:43.081Z</time>
      </trkpt>
      <trkpt lat="42.81526" lon="0.27411">
        <ele>2020</ele>
        <time>2020-07-27T15:36:44.081Z</time>
      </trkpt>
      <trkpt lat="42.81525" lon="0.2741">
        <ele>2020</ele>
        <time>2020-07-27T15:36:45.081Z</time>
      </trkpt>
      <trkpt lat="42.81525" lon="0.27409">
        <ele>2020</ele>
        <time>2020-07-27T15:36:46.081Z</time>
      </trkpt>
      <trkpt lat="42.81524" lon="0.27408">
        <ele>2020</ele>
        <time>2020-07-27T15:36:47.081Z</time>
      </trkpt>
      <trkpt lat="42.81524" lon="0.27407">
        <ele>2021</ele>
        <time>2020-07-27T15:36:48.081Z</time>
      </trkpt>
      <trkpt lat="42.81524" lon="0.27406">
        <ele>2021</ele>
        <time>2020-07-27T15:36:49.081Z</time>
      </trkpt>
      <trkpt lat="42.81523" lon="0.27405">
        <ele>2021</ele>
        <time>2020-07-27T15:36:50.081Z</time>
      </trkpt>
      <trkpt lat="42.81523" lon="0.27404">
        <ele>2022</ele>
        <time>2020-07-27T15:36:51.081Z</time>
      </trkpt>
      <trkpt lat="42.81522" lon="0.27403">
        <ele>2023</ele>
        <time>2020-07-27T15:36:52.081Z</time>
      </trkpt>
      <trkpt lat="42.81522" lon="0.27402">
        <ele>2024</ele>
        <time>2020-07-27T15:36:53.081Z</time>
      </trkpt>
      <trkpt lat="42.81521" lon="0.274">
        <ele>2023</ele>
        <time>2020-07-27T15:36:54.081Z</time>
      </trkpt>
      <trkpt lat="42.81521" lon="0.27399">
        <ele>2023</ele>
        <time>2020-07-27T15:36:55.081Z</time>
      </trkpt>
      <trkpt lat="42.81521" lon="0.27398">
        <ele>2024</ele>
        <time>2020-07-27T15:36:56.081Z</time>
      </trkpt>
      <trkpt lat="42.81522" lon="0.27397">
        <ele>2023</ele>
        <time>2020-07-27T15:36:57.081Z</time>
      </trkpt>
      <trkpt lat="42.81522" lon="0.27396">
        <ele>2023</ele>
        <time>2020-07-27T15:36:58.081Z</time>
      </trkpt>
      <trkpt lat="42.81524" lon="0.27394">
        <ele>2023</ele>
        <time>2020-07-27T15:36:59.081Z</time>
      </trkpt>
      <trkpt lat="42.81525" lon="0.27393">
        <ele>2023</ele>
        <time>2020-07-27T15:37:00.081Z</time>
      </trkpt>
      <trkpt lat="42.81526" lon="0.27392">
        <ele>2023</ele>
        <time>2020-07-27T15:37:01.081Z</time>
      </trkpt>
      <trkpt lat="42.81528" lon="0.2739">
        <ele>2023</ele>
        <time>2020-07-27T15:37:02.081Z</time>
      </trkpt>
      <trkpt lat="42.8153" lon="0.27389">
        <ele>2023</ele>
        <time>2020-07-27T15:37:03.081Z</time>
      </trkpt>
      <trkpt lat="42.81532" lon="0.27387">
        <ele>2023</ele>
        <time>2020-07-27T15:37:04.081Z</time>
      </trkpt>
      <trkpt lat="42.81535" lon="0.27386">
        <ele>2022</ele>
        <time>2020-07-27T15:37:05.081Z</time>
      </trkpt>
      <trkpt lat="42.81537" lon="0.27384">
        <ele>2021</ele>
        <time>2020-07-27T15:37:06.081Z</time>
      </trkpt>
      <trkpt lat="42.81539" lon="0.27383">
        <ele>2021</ele>
        <time>2020-07-27T15:37:07.081Z</time>
      </trkpt>
      <trkpt lat="42.81542" lon="0.27382">
        <ele>2021</ele>
        <time>2020-07-27T15:37:08.081Z</time>
      </trkpt>
      <trkpt lat="42.81545" lon="0.27382">
        <ele>2020</ele>
        <time>2020-07-27T15:37:09.081Z</time>
      </trkpt>
      <trkpt lat="42.81548" lon="0.27381">
        <ele>2020</ele>
        <time>2020-07-27T15:37:10.081Z</time>
      </trkpt>
      <trkpt lat="42.81551" lon="0.2738">
        <ele>2020</ele>
        <time>2020-07-27T15:37:11.081Z</time>
      </trkpt>
      <trkpt lat="42.81553" lon="0.27379">
        <ele>2020</ele>
        <time>2020-07-27T15:37:12.081Z</time>
      </trkpt>
      <trkpt lat="42.81556" lon="0.27378">
        <ele>2019</ele>
        <time>2020-07-27T15:37:13.081Z</time>
      </trkpt>
      <trkpt lat="42.81558" lon="0.27377">
        <ele>2018</ele>
        <time>2020-07-27T15:37:14.081Z</time>
      </trkpt>
      <trkpt lat="42.81561" lon="0.27376">
        <ele>2018</ele>
        <time>2020-07-27T15:37:15.081Z</time>
      </trkpt>
      <trkpt lat="42.81564" lon="0.27376">
        <ele>2018</ele>
        <time>2020-07-27T15:37:16.081Z</time>
      </trkpt>
      <trkpt lat="42.81567" lon="0.27375">
        <ele>2017</ele>
        <time>2020-07-27T15:37:17.081Z</time>
      </trkpt>
      <trkpt lat="42.8157" lon="0.27374">
        <ele>2016</ele>
        <time>2020-07-27T15:37:18.081Z</time>
      </trkpt>
      <trkpt lat="42.81573" lon="0.27373">
        <ele>2015</ele>
        <time>2020-07-27T15:37:19.081Z</time>
      </trkpt>
      <trkpt lat="42.81575" lon="0.27372">
        <ele>2015</ele>
        <time>2020-07-27T15:37:20.081Z</time>
      </trkpt>
      <trkpt lat="42.81578" lon="0.27371">
        <ele>2015</ele>
        <time>2020-07-27T15:37:21.081Z</time>
      </trkpt>
      <trkpt lat="42.81581" lon="0.27371">
        <ele>2015</ele>
        <time>2020-07-27T15:37:22.081Z</time>
      </trkpt>
      <trkpt lat="42.81583" lon="0.27369">
        <ele>2014</ele>
        <time>2020-07-27T15:37:23.081Z</time>
      </trkpt>
      <trkpt lat="42.81585" lon="0.27367">
        <ele>2013</ele>
        <time>2020-07-27T15:37:24.081Z</time>
      </trkpt>
      <trkpt lat="42.81586" lon="0.27365">
        <ele>2012</ele>
        <time>2020-07-27T15:37:25.081Z</time>
      </trkpt>
      <trkpt lat="42.81586" lon="0.27363">
        <ele>2011</ele>
        <time>2020-07-27T15:37:26.081Z</time>
      </trkpt>
      <trkpt lat="42.81585" lon="0.27361">
        <ele>2011</ele>
        <time>2020-07-27T15:37:27.081Z</time>
      </trkpt>
      <trkpt lat="42.81584" lon="0.27359">
        <ele>2011</ele>
        <time>2020-07-27T15:37:28.081Z</time>
      </trkpt>
      <trkpt lat="42.81582" lon="0.27358">
        <ele>2012</ele>
        <time>2020-07-27T15:37:29.081Z</time>
      </trkpt>
      <trkpt lat="42.81581" lon="0.27357">
        <ele>2013</ele>
        <time>2020-07-27T15:37:30.081Z</time>
      </trkpt>
      <trkpt lat="42.81579" lon="0.27356">
        <ele>2013</ele>
        <time>2020-07-27T15:37:31.081Z</time>
      </trkpt>
      <trkpt lat="42.81577" lon="0.27355">
        <ele>2013</ele>
        <time>2020-07-27T15:37:32.081Z</time>
      </trkpt>
      <trkpt lat="42.81575" lon="0.27355">
        <ele>2014</ele>
        <time>2020-07-27T15:37:33.081Z</time>
      </trkpt>
      <trkpt lat="42.81573" lon="0.27354">
        <ele>2015</ele>
        <time>2020-07-27T15:37:34.081Z</time>
      </trkpt>
      <trkpt lat="42.81571" lon="0.27354">
        <ele>2015</ele>
        <time>2020-07-27T15:37:35.081Z</time>
      </trkpt>
      <trkpt lat="42.81569" lon="0.27353">
        <ele>2016</ele>
        <time>2020-07-27T15:37:36.081Z</time>
      </trkpt>
      <trkpt lat="42.81567" lon="0.27353">
        <ele>2017</ele>
        <time>2020-07-27T15:37:37.081Z</time>
      </trkpt>
      <trkpt lat="42.81565" lon="0.27354">
        <ele>2018</ele>
        <time>2020-07-27T15:37:38.081Z</time>
      </trkpt>
      <trkpt lat="42.81563" lon="0.27354">
        <ele>2018</ele>
        <time>2020-07-27T15:37:39.081Z</time>
      </trkpt>
      <trkpt lat="42.81561" lon="0.27354">
        <ele>2019</ele>
        <time>2020-07-27T15:37:40.081Z</time>
      </trkpt>
      <trkpt lat="42.81559" lon="0.27355">
        <ele>2019</ele>
        <time>2020-07-27T15:37:41.081Z</time>
      </trkpt>
      <trkpt lat="42.81557" lon="0.27355">
        <ele>2019</ele>
        <time>2020-07-27T15:37:42.081Z</time>
      </trkpt>
      <trkpt lat="42.81556" lon="0.27355">
        <ele>2019</ele>
        <time>2020-07-27T15:37:43.081Z</time>
      </trkpt>
      <trkpt lat="42.81554" lon="0.27355">
        <ele>2020</ele>
        <time>2020-07-27T15:37:44.081Z</time>
      </trkpt>
      <trkpt lat="42.81552" lon="0.27354">
        <ele>2020</ele>
        <time>2020-07-27T15:37:45.081Z</time>
      </trkpt>
      <trkpt lat="42.8155" lon="0.27354">
        <ele>2021</ele>
        <time>2020-07-27T15:37:46.081Z</time>
      </trkpt>
      <trkpt lat="42.81548" lon="0.27354">
        <ele>2021</ele>
        <time>2020-07-27T15:37:47.081Z</time>
      </trkpt>
      <trkpt lat="42.81546" lon="0.27353">
        <ele>2022</ele>
        <time>2020-07-27T15:37:48.081Z</time>
      </trkpt>
      <trkpt lat="42.81544" lon="0.27353">
        <ele>2023</ele>
        <time>2020-07-27T15:37:49.081Z</time>
      </trkpt>
      <trkpt lat="42.81542" lon="0.27353">
        <ele>2023</ele>
        <time>2020-07-27T15:37:50.081Z</time>
      </trkpt>
      <trkpt lat="42.8154" lon="0.27352">
        <ele>2023</ele>
        <time>2020-07-27T15:37:51.081Z</time>
      </trkpt>
      <trkpt lat="42.81539" lon="0.27351">
        <ele>2023</ele>
        <time>2020-07-27T15:37:52.081Z</time>
      </trkpt>
      <trkpt lat="42.81538" lon="0.27349">
        <ele>2024</ele>
        <time>2020-07-27T15:37:53.081Z</time>
      </trkpt>
      <trkpt lat="42.81537" lon="0.27347">
        <ele>2024</ele>
        <time>2020-07-27T15:37:54.081Z</time>
      </trkpt>
      <trkpt lat="42.81537" lon="0.27345">
        <ele>2024</ele>
        <time>2020-07-27T15:37:55.081Z</time>
      </trkpt>
      <trkpt lat="42.81537" lon="0.27342">
        <ele>2024</ele>
        <time>2020-07-27T15:37:56.081Z</time>
      </trkpt>
      <trkpt lat="42.81538" lon="0.2734">
        <ele>2024</ele>
        <time>2020-07-27T15:37:57.081Z</time>
      </trkpt>
      <trkpt lat="42.81539" lon="0.27337">
        <ele>2024</ele>
        <time>2020-07-27T15:37:58.081Z</time>
      </trkpt>
      <trkpt lat="42.81539" lon="0.27335">
        <ele>2023</ele>
        <time>2020-07-27T15:37:59.081Z</time>
      </trkpt>
      <trkpt lat="42.81539" lon="0.27332">
        <ele>2023</ele>
        <time>2020-07-27T15:38:00.081Z</time>
      </trkpt>
      <trkpt lat="42.81539" lon="0.27329">
        <ele>2022</ele>
        <time>2020-07-27T15:38:01.081Z</time>
      </trkpt>
      <trkpt lat="42.81538" lon="0.27328">
        <ele>2021</ele>
        <time>2020-07-27T15:38:02.081Z</time>
      </trkpt>
      <trkpt lat="42.81536" lon="0.27327">
        <ele>2022</ele>
        <time>2020-07-27T15:38:03.081Z</time>
      </trkpt>
      <trkpt lat="42.81534" lon="0.27326">
        <ele>2022</ele>
        <time>2020-07-27T15:38:04.081Z</time>
      </trkpt>
      <trkpt lat="42.81531" lon="0.27326">
        <ele>2022</ele>
        <time>2020-07-27T15:38:05.081Z</time>
      </trkpt>
      <trkpt lat="42.81529" lon="0.27327">
        <ele>2022</ele>
        <time>2020-07-27T15:38:06.081Z</time>
      </trkpt>
      <trkpt lat="42.81527" lon="0.27327">
        <ele>2023</ele>
        <time>2020-07-27T15:38:07.081Z</time>
      </trkpt>
      <trkpt lat="42.81526" lon="0.27327">
        <ele>2024</ele>
        <time>2020-07-27T15:38:08.081Z</time>
      </trkpt>
      <trkpt lat="42.81524" lon="0.27328">
        <ele>2026</ele>
        <time>2020-07-27T15:38:09.081Z</time>
      </trkpt>
      <trkpt lat="42.81521" lon="0.27328">
        <ele>2029</ele>
        <time>2020-07-27T15:38:10.081Z</time>
      </trkpt>
      <trkpt lat="42.81519" lon="0.27328">
        <ele>2029</ele>
        <time>2020-07-27T15:38:11.081Z</time>
      </trkpt>
      <trkpt lat="42.81517" lon="0.27327">
        <ele>2029</ele>
        <time>2020-07-27T15:38:12.081Z</time>
      </trkpt>
      <trkpt lat="42.81514" lon="0.27327">
        <ele>2030</ele>
        <time>2020-07-27T15:38:13.081Z</time>
      </trkpt>
      <trkpt lat="42.81512" lon="0.27327">
        <ele>2031</ele>
        <time>2020-07-27T15:38:14.081Z</time>
      </trkpt>
      <trkpt lat="42.8151" lon="0.27328">
        <ele>2031</ele>
        <time>2020-07-27T15:38:15.081Z</time>
      </trkpt>
      <trkpt lat="42.81507" lon="0.27328">
        <ele>2032</ele>
        <time>2020-07-27T15:38:16.081Z</time>
      </trkpt>
      <trkpt lat="42.81505" lon="0.27329">
        <ele>2032</ele>
        <time>2020-07-27T15:38:17.081Z</time>
      </trkpt>
      <trkpt lat="42.81503" lon="0.27329">
        <ele>2032</ele>
        <time>2020-07-27T15:38:18.081Z</time>
      </trkpt>
      <trkpt lat="42.815" lon="0.2733">
        <ele>2033</ele>
        <time>2020-07-27T15:38:19.081Z</time>
      </trkpt>
      <trkpt lat="42.81498" lon="0.27331">
        <ele>2034</ele>
        <time>2020-07-27T15:38:20.081Z</time>
      </trkpt>
      <trkpt lat="42.81496" lon="0.27331">
        <ele>2034</ele>
        <time>2020-07-27T15:38:21.081Z</time>
      </trkpt>
      <trkpt lat="42.81494" lon="0.27332">
        <ele>2035</ele>
        <time>2020-07-27T15:38:22.081Z</time>
      </trkpt>
      <trkpt lat="42.81492" lon="0.27333">
        <ele>2035</ele>
        <time>2020-07-27T15:38:23.081Z</time>
      </trkpt>
      <trkpt lat="42.8149" lon="0.27333">
        <ele>2036</ele>
        <time>2020-07-27T15:38:24.081Z</time>
      </trkpt>
      <trkpt lat="42.81488" lon="0.27334">
        <ele>2037</ele>
        <time>2020-07-27T15:38:25.081Z</time>
      </trkpt>
      <trkpt lat="42.81486" lon="0.27335">
        <ele>2037</ele>
        <time>2020-07-27T15:38:26.081Z</time>
      </trkpt>
      <trkpt lat="42.81483" lon="0.27336">
        <ele>2038</ele>
        <time>2020-07-27T15:38:27.081Z</time>
      </trkpt>
      <trkpt lat="42.81481" lon="0.27336">
        <ele>2039</ele>
        <time>2020-07-27T15:38:28.081Z</time>
      </trkpt>
      <trkpt lat="42.81479" lon="0.27337">
        <ele>2040</ele>
        <time>2020-07-27T15:38:29.081Z</time>
      </trkpt>
      <trkpt lat="42.81477" lon="0.27338">
        <ele>2040</ele>
        <time>2020-07-27T15:38:30.081Z</time>
      </trkpt>
      <trkpt lat="42.81475" lon="0.27339">
        <ele>2040</ele>
        <time>2020-07-27T15:38:31.081Z</time>
      </trkpt>
      <trkpt lat="42.81473" lon="0.27339">
        <ele>2040</ele>
        <time>2020-07-27T15:38:32.081Z</time>
      </trkpt>
      <trkpt lat="42.81472" lon="0.27339">
        <ele>2041</ele>
        <time>2020-07-27T15:38:33.081Z</time>
      </trkpt>
      <trkpt lat="42.8147" lon="0.27339">
        <ele>2041</ele>
        <time>2020-07-27T15:38:34.081Z</time>
      </trkpt>
      <trkpt lat="42.81469" lon="0.27339">
        <ele>2042</ele>
        <time>2020-07-27T15:38:35.081Z</time>
      </trkpt>
      <trkpt lat="42.81468" lon="0.2734">
        <ele>2042</ele>
        <time>2020-07-27T15:38:36.081Z</time>
      </trkpt>
      <trkpt lat="42.81466" lon="0.2734">
        <ele>2042</ele>
        <time>2020-07-27T15:38:37.081Z</time>
      </trkpt>
      <trkpt lat="42.81465" lon="0.27341">
        <ele>2043</ele>
        <time>2020-07-27T15:38:38.081Z</time>
      </trkpt>
      <trkpt lat="42.81464" lon="0.27341">
        <ele>2043</ele>
        <time>2020-07-27T15:38:39.081Z</time>
      </trkpt>
      <trkpt lat="42.81463" lon="0.27342">
        <ele>2043</ele>
        <time>2020-07-27T15:38:40.081Z</time>
      </trkpt>
      <trkpt lat="42.81462" lon="0.27341">
        <ele>2041</ele>
        <time>2020-07-27T15:38:41.081Z</time>
      </trkpt>
      <trkpt lat="42.81461" lon="0.27341">
        <ele>2041</ele>
        <time>2020-07-27T15:38:42.081Z</time>
      </trkpt>
      <trkpt lat="42.81461" lon="0.27341">
        <ele>2041</ele>
        <time>2020-07-27T15:38:43.081Z</time>
      </trkpt>
      <trkpt lat="42.8146" lon="0.27341">
        <ele>2041</ele>
        <time>2020-07-27T15:38:44.081Z</time>
      </trkpt>
      <trkpt lat="42.81459" lon="0.27342">
        <ele>2041</ele>
        <time>2020-07-27T15:38:45.081Z</time>
      </trkpt>
      <trkpt lat="42.81457" lon="0.27342">
        <ele>2042</ele>
        <time>2020-07-27T15:38:46.081Z</time>
      </trkpt>
      <trkpt lat="42.81455" lon="0.27343">
        <ele>2042</ele>
        <time>2020-07-27T15:38:47.081Z</time>
      </trkpt>
      <trkpt lat="42.81453" lon="0.27344">
        <ele>2042</ele>
        <time>2020-07-27T15:38:48.081Z</time>
      </trkpt>
      <trkpt lat="42.8145" lon="0.27344">
        <ele>2042</ele>
        <time>2020-07-27T15:38:49.081Z</time>
      </trkpt>
      <trkpt lat="42.81447" lon="0.27344">
        <ele>2042</ele>
        <time>2020-07-27T15:38:50.081Z</time>
      </trkpt>
      <trkpt lat="42.81445" lon="0.27344">
        <ele>2043</ele>
        <time>2020-07-27T15:38:51.081Z</time>
      </trkpt>
      <trkpt lat="42.81442" lon="0.27344">
        <ele>2044</ele>
        <time>2020-07-27T15:38:52.081Z</time>
      </trkpt>
      <trkpt lat="42.81439" lon="0.27344">
        <ele>2044</ele>
        <time>2020-07-27T15:38:53.081Z</time>
      </trkpt>
      <trkpt lat="42.81437" lon="0.27343">
        <ele>2044</ele>
        <time>2020-07-27T15:38:54.081Z</time>
      </trkpt>
      <trkpt lat="42.81435" lon="0.27343">
        <ele>2045</ele>
        <time>2020-07-27T15:38:55.081Z</time>
      </trkpt>
      <trkpt lat="42.81432" lon="0.27343">
        <ele>2045</ele>
        <time>2020-07-27T15:38:56.081Z</time>
      </trkpt>
      <trkpt lat="42.8143" lon="0.27343">
        <ele>2045</ele>
        <time>2020-07-27T15:38:57.081Z</time>
      </trkpt>
      <trkpt lat="42.81427" lon="0.27342">
        <ele>2045</ele>
        <time>2020-07-27T15:38:58.081Z</time>
      </trkpt>
      <trkpt lat="42.81425" lon="0.27342">
        <ele>2045</ele>
        <time>2020-07-27T15:38:59.081Z</time>
      </trkpt>
      <trkpt lat="42.81423" lon="0.27342">
        <ele>2045</ele>
        <time>2020-07-27T15:39:00.081Z</time>
      </trkpt>
      <trkpt lat="42.8142" lon="0.27342">
        <ele>2045</ele>
        <time>2020-07-27T15:39:01.081Z</time>
      </trkpt>
      <trkpt lat="42.81418" lon="0.27342">
        <ele>2046</ele>
        <time>2020-07-27T15:39:02.081Z</time>
      </trkpt>
      <trkpt lat="42.81415" lon="0.27342">
        <ele>2046</ele>
        <time>2020-07-27T15:39:03.081Z</time>
      </trkpt>
      <trkpt lat="42.81413" lon="0.27342">
        <ele>2046</ele>
        <time>2020-07-27T15:39:04.081Z</time>
      </trkpt>
      <trkpt lat="42.81411" lon="0.27342">
        <ele>2047</ele>
        <time>2020-07-27T15:39:05.081Z</time>
      </trkpt>
      <trkpt lat="42.81409" lon="0.27342">
        <ele>2047</ele>
        <time>2020-07-27T15:39:06.081Z</time>
      </trkpt>
      <trkpt lat="42.81406" lon="0.27343">
        <ele>2048</ele>
        <time>2020-07-27T15:39:07.081Z</time>
      </trkpt>
      <trkpt lat="42.81404" lon="0.27343">
        <ele>2048</ele>
        <time>2020-07-27T15:39:08.081Z</time>
      </trkpt>
      <trkpt lat="42.81402" lon="0.27343">
        <ele>2049</ele>
        <time>2020-07-27T15:39:09.081Z</time>
      </trkpt>
      <trkpt lat="42.81399" lon="0.27343">
        <ele>2049</ele>
        <time>2020-07-27T15:39:10.081Z</time>
      </trkpt>
      <trkpt lat="42.81397" lon="0.27344">
        <ele>2049</ele>
        <time>2020-07-27T15:39:11.081Z</time>
      </trkpt>
      <trkpt lat="42.81394" lon="0.27344">
        <ele>2050</ele>
        <time>2020-07-27T15:39:12.081Z</time>
      </trkpt>
      <trkpt lat="42.81392" lon="0.27345">
        <ele>2050</ele>
        <time>2020-07-27T15:39:13.081Z</time>
      </trkpt>
      <trkpt lat="42.81389" lon="0.27346">
        <ele>2050</ele>
        <time>2020-07-27T15:39:14.081Z</time>
      </trkpt>
      <trkpt lat="42.81387" lon="0.27346">
        <ele>2050</ele>
        <time>2020-07-27T15:39:15.081Z</time>
      </trkpt>
      <trkpt lat="42.81385" lon="0.27347">
        <ele>2051</ele>
        <time>2020-07-27T15:39:16.081Z</time>
      </trkpt>
      <trkpt lat="42.81383" lon="0.27348">
        <ele>2051</ele>
        <time>2020-07-27T15:39:17.081Z</time>
      </trkpt>
      <trkpt lat="42.8138" lon="0.27349">
        <ele>2052</ele>
        <time>2020-07-27T15:39:18.081Z</time>
      </trkpt>
      <trkpt lat="42.81379" lon="0.2735">
        <ele>2052</ele>
        <time>2020-07-27T15:39:19.081Z</time>
      </trkpt>
      <trkpt lat="42.81377" lon="0.27351">
        <ele>2052</ele>
        <time>2020-07-27T15:39:20.081Z</time>
      </trkpt>
      <trkpt lat="42.81375" lon="0.27352">
        <ele>2052</ele>
        <time>2020-07-27T15:39:21.081Z</time>
      </trkpt>
      <trkpt lat="42.81374" lon="0.27353">
        <ele>2053</ele>
        <time>2020-07-27T15:39:22.081Z</time>
      </trkpt>
      <trkpt lat="42.81373" lon="0.27355">
        <ele>2052</ele>
        <time>2020-07-27T15:39:23.081Z</time>
      </trkpt>
      <trkpt lat="42.81372" lon="0.27356">
        <ele>2053</ele>
        <time>2020-07-27T15:39:24.081Z</time>
      </trkpt>
      <trkpt lat="42.8137" lon="0.27358">
        <ele>2054</ele>
        <time>2020-07-27T15:39:25.081Z</time>
      </trkpt>
      <trkpt lat="42.8137" lon="0.27359">
        <ele>2053</ele>
        <time>2020-07-27T15:39:26.081Z</time>
      </trkpt>
      <trkpt lat="42.81369" lon="0.27362">
        <ele>2053</ele>
        <time>2020-07-27T15:39:27.081Z</time>
      </trkpt>
      <trkpt lat="42.81367" lon="0.27365">
        <ele>2055</ele>
        <time>2020-07-27T15:39:28.081Z</time>
      </trkpt>
      <trkpt lat="42.81366" lon="0.27369">
        <ele>2055</ele>
        <time>2020-07-27T15:39:29.081Z</time>
      </trkpt>
      <trkpt lat="42.81365" lon="0.27373">
        <ele>2055</ele>
        <time>2020-07-27T15:39:30.081Z</time>
      </trkpt>
      <trkpt lat="42.81363" lon="0.27376">
        <ele>2055</ele>
        <time>2020-07-27T15:39:31.081Z</time>
      </trkpt>
      <trkpt lat="42.81362" lon="0.27379">
        <ele>2055</ele>
        <time>2020-07-27T15:39:32.081Z</time>
      </trkpt>
      <trkpt lat="42.81362" lon="0.27382">
        <ele>2055</ele>
        <time>2020-07-27T15:39:33.081Z</time>
      </trkpt>
      <trkpt lat="42.81361" lon="0.27385">
        <ele>2055</ele>
        <time>2020-07-27T15:39:34.081Z</time>
      </trkpt>
      <trkpt lat="42.8136" lon="0.27388">
        <ele>2055</ele>
        <time>2020-07-27T15:39:35.081Z</time>
      </trkpt>
      <trkpt lat="42.81359" lon="0.27391">
        <ele>2056</ele>
        <time>2020-07-27T15:39:36.081Z</time>
      </trkpt>
      <trkpt lat="42.81358" lon="0.27394">
        <ele>2056</ele>
        <time>2020-07-27T15:39:37.081Z</time>
      </trkpt>
      <trkpt lat="42.81357" lon="0.27397">
        <ele>2056</ele>
        <time>2020-07-27T15:39:38.081Z</time>
      </trkpt>
      <trkpt lat="42.81356" lon="0.274">
        <ele>2056</ele>
        <time>2020-07-27T15:39:39.081Z</time>
      </trkpt>
      <trkpt lat="42.81356" lon="0.27404">
        <ele>2057</ele>
        <time>2020-07-27T15:39:40.081Z</time>
      </trkpt>
      <trkpt lat="42.81355" lon="0.27407">
        <ele>2056</ele>
        <time>2020-07-27T15:39:41.081Z</time>
      </trkpt>
      <trkpt lat="42.81354" lon="0.2741">
        <ele>2056</ele>
        <time>2020-07-27T15:39:42.081Z</time>
      </trkpt>
      <trkpt lat="42.81354" lon="0.27414">
        <ele>2056</ele>
        <time>2020-07-27T15:39:43.081Z</time>
      </trkpt>
      <trkpt lat="42.81353" lon="0.27417">
        <ele>2057</ele>
        <time>2020-07-27T15:39:44.081Z</time>
      </trkpt>
      <trkpt lat="42.81353" lon="0.27421">
        <ele>2057</ele>
        <time>2020-07-27T15:39:45.081Z</time>
      </trkpt>
      <trkpt lat="42.81352" lon="0.27425">
        <ele>2057</ele>
        <time>2020-07-27T15:39:46.081Z</time>
      </trkpt>
      <trkpt lat="42.81352" lon="0.27428">
        <ele>2057</ele>
        <time>2020-07-27T15:39:47.081Z</time>
      </trkpt>
      <trkpt lat="42.81351" lon="0.2743">
        <ele>2058</ele>
        <time>2020-07-27T15:39:48.081Z</time>
      </trkpt>
      <trkpt lat="42.8135" lon="0.27432">
        <ele>2059</ele>
        <time>2020-07-27T15:39:49.081Z</time>
      </trkpt>
      <trkpt lat="42.81349" lon="0.27433">
        <ele>2059</ele>
        <time>2020-07-27T15:39:50.081Z</time>
      </trkpt>
      <trkpt lat="42.81348" lon="0.27434">
        <ele>2057</ele>
        <time>2020-07-27T15:39:51.081Z</time>
      </trkpt>
      <trkpt lat="42.81347" lon="0.27434">
        <ele>2057</ele>
        <time>2020-07-27T15:39:52.081Z</time>
      </trkpt>
      <trkpt lat="42.81345" lon="0.27435">
        <ele>2057</ele>
        <time>2020-07-27T15:39:53.081Z</time>
      </trkpt>
      <trkpt lat="42.81344" lon="0.27436">
        <ele>2057</ele>
        <time>2020-07-27T15:39:54.081Z</time>
      </trkpt>
      <trkpt lat="42.81344" lon="0.27437">
        <ele>2057</ele>
        <time>2020-07-27T15:39:55.081Z</time>
      </trkpt>
      <trkpt lat="42.81344" lon="0.27438">
        <ele>2058</ele>
        <time>2020-07-27T15:39:56.081Z</time>
      </trkpt>
      <trkpt lat="42.81344" lon="0.27439">
        <ele>2058</ele>
        <time>2020-07-27T15:39:57.081Z</time>
      </trkpt>
      <trkpt lat="42.81343" lon="0.2744">
        <ele>2058</ele>
        <time>2020-07-27T15:39:58.081Z</time>
      </trkpt>
      <trkpt lat="42.81343" lon="0.27442">
        <ele>2058</ele>
        <time>2020-07-27T15:39:59.081Z</time>
      </trkpt>
      <trkpt lat="42.81342" lon="0.27443">
        <ele>2058</ele>
        <time>2020-07-27T15:40:00.081Z</time>
      </trkpt>
      <trkpt lat="42.81341" lon="0.27444">
        <ele>2057</ele>
        <time>2020-07-27T15:40:01.081Z</time>
      </trkpt>
      <trkpt lat="42.81341" lon="0.27445">
        <ele>2057</ele>
        <time>2020-07-27T15:40:02.081Z</time>
      </trkpt>
      <trkpt lat="42.8134" lon="0.27445">
        <ele>2058</ele>
        <time>2020-07-27T15:40:03.081Z</time>
      </trkpt>
      <trkpt lat="42.8134" lon="0.27446">
        <ele>2058</ele>
        <time>2020-07-27T15:40:04.081Z</time>
      </trkpt>
      <trkpt lat="42.81339" lon="0.27447">
        <ele>2058</ele>
        <time>2020-07-27T15:40:05.081Z</time>
      </trkpt>
      <trkpt lat="42.81327" lon="0.27507">
        <ele>2061</ele>
        <time>2020-07-27T15:40:06.034Z</time>
      </trkpt>
      <trkpt lat="42.81326" lon="0.27506">
        <ele>2061</ele>
        <time>2020-07-27T15:40:07.034Z</time>
      </trkpt>
      <trkpt lat="42.81325" lon="0.27505">
        <ele>2060</ele>
        <time>2020-07-27T15:40:08.034Z</time>
      </trkpt>
      <trkpt lat="42.81324" lon="0.27503">
        <ele>2060</ele>
        <time>2020-07-27T15:40:09.034Z</time>
      </trkpt>
      <trkpt lat="42.81322" lon="0.27501">
        <ele>2060</ele>
        <time>2020-07-27T15:40:10.034Z</time>
      </trkpt>
      <trkpt lat="42.8132" lon="0.27498">
        <ele>2061</ele>
        <time>2020-07-27T15:40:11.034Z</time>
      </trkpt>
      <trkpt lat="42.81317" lon="0.27496">
        <ele>2061</ele>
        <time>2020-07-27T15:40:12.034Z</time>
      </trkpt>
      <trkpt lat="42.81315" lon="0.27493">
        <ele>2060</ele>
        <time>2020-07-27T15:40:13.034Z</time>
      </trkpt>
      <trkpt lat="42.81312" lon="0.27491">
        <ele>2060</ele>
        <time>2020-07-27T15:40:14.034Z</time>
      </trkpt>
      <trkpt lat="42.81311" lon="0.27488">
        <ele>2061</ele>
        <time>2020-07-27T15:40:15.034Z</time>
      </trkpt>
      <trkpt lat="42.8131" lon="0.27485">
        <ele>2061</ele>
        <time>2020-07-27T15:40:16.034Z</time>
      </trkpt>
      <trkpt lat="42.81309" lon="0.27481">
        <ele>2061</ele>
        <time>2020-07-27T15:40:17.034Z</time>
      </trkpt>
      <trkpt lat="42.81309" lon="0.27478">
        <ele>2061</ele>
        <time>2020-07-27T15:40:18.034Z</time>
      </trkpt>
      <trkpt lat="42.8131" lon="0.27474">
        <ele>2060</ele>
        <time>2020-07-27T15:40:19.034Z</time>
      </trkpt>
      <trkpt lat="42.81311" lon="0.2747">
        <ele>2060</ele>
        <time>2020-07-27T15:40:20.034Z</time>
      </trkpt>
      <trkpt lat="42.81312" lon="0.27466">
        <ele>2060</ele>
        <time>2020-07-27T15:40:21.034Z</time>
      </trkpt>
      <trkpt lat="42.81312" lon="0.27462">
        <ele>2060</ele>
        <time>2020-07-27T15:40:22.034Z</time>
      </trkpt>
      <trkpt lat="42.81313" lon="0.27459">
        <ele>2060</ele>
        <time>2020-07-27T15:40:23.034Z</time>
      </trkpt>
      <trkpt lat="42.81314" lon="0.27455">
        <ele>2060</ele>
        <time>2020-07-27T15:40:24.034Z</time>
      </trkpt>
      <trkpt lat="42.81315" lon="0.27452">
        <ele>2060</ele>
        <time>2020-07-27T15:40:25.034Z</time>
      </trkpt>
      <trkpt lat="42.81316" lon="0.27448">
        <ele>2060</ele>
        <time>2020-07-27T15:40:26.034Z</time>
      </trkpt>
      <trkpt lat="42.81317" lon="0.27445">
        <ele>2060</ele>
        <time>2020-07-27T15:40:27.034Z</time>
      </trkpt>
      <trkpt lat="42.81318" lon="0.27442">
        <ele>2061</ele>
        <time>2020-07-27T15:40:28.034Z</time>
      </trkpt>
      <trkpt lat="42.81319" lon="0.27439">
        <ele>2061</ele>
        <time>2020-07-27T15:40:29.034Z</time>
      </trkpt>
      <trkpt lat="42.81319" lon="0.27435">
        <ele>2061</ele>
        <time>2020-07-27T15:40:30.034Z</time>
      </trkpt>
      <trkpt lat="42.81319" lon="0.27432">
        <ele>2061</ele>
        <time>2020-07-27T15:40:31.034Z</time>
      </trkpt>
      <trkpt lat="42.81319" lon="0.27428">
        <ele>2060</ele>
        <time>2020-07-27T15:40:32.034Z</time>
      </trkpt>
      <trkpt lat="42.81319" lon="0.27425">
        <ele>2060</ele>
        <time>2020-07-27T15:40:33.034Z</time>
      </trkpt>
      <trkpt lat="42.81319" lon="0.27422">
        <ele>2061</ele>
        <time>2020-07-27T15:40:34.034Z</time>
      </trkpt>
      <trkpt lat="42.81319" lon="0.27419">
        <ele>2061</ele>
        <time>2020-07-27T15:40:35.034Z</time>
      </trkpt>
      <trkpt lat="42.81318" lon="0.27416">
        <ele>2061</ele>
        <time>2020-07-27T15:40:36.034Z</time>
      </trkpt>
      <trkpt lat="42.81318" lon="0.27413">
        <ele>2061</ele>
        <time>2020-07-27T15:40:37.034Z</time>
      </trkpt>
      <trkpt lat="42.81317" lon="0.2741">
        <ele>2062</ele>
        <time>2020-07-27T15:40:38.034Z</time>
      </trkpt>
      <trkpt lat="42.81316" lon="0.27407">
        <ele>2063</ele>
        <time>2020-07-27T15:40:39.034Z</time>
      </trkpt>
      <trkpt lat="42.81315" lon="0.27404">
        <ele>2063</ele>
        <time>2020-07-27T15:40:40.034Z</time>
      </trkpt>
      <trkpt lat="42.81314" lon="0.27401">
        <ele>2064</ele>
        <time>2020-07-27T15:40:41.034Z</time>
      </trkpt>
      <trkpt lat="42.81313" lon="0.27398">
        <ele>2065</ele>
        <time>2020-07-27T15:40:42.034Z</time>
      </trkpt>
      <trkpt lat="42.81312" lon="0.27395">
        <ele>2065</ele>
        <time>2020-07-27T15:40:43.034Z</time>
      </trkpt>
      <trkpt lat="42.81311" lon="0.27392">
        <ele>2066</ele>
        <time>2020-07-27T15:40:44.034Z</time>
      </trkpt>
      <trkpt lat="42.81309" lon="0.27389">
        <ele>2067</ele>
        <time>2020-07-27T15:40:45.034Z</time>
      </trkpt>
      <trkpt lat="42.81308" lon="0.27387">
        <ele>2067</ele>
        <time>2020-07-27T15:40:46.034Z</time>
      </trkpt>
      <trkpt lat="42.81307" lon="0.27384">
        <ele>2067</ele>
        <time>2020-07-27T15:40:47.034Z</time>
      </trkpt>
      <trkpt lat="42.81306" lon="0.27382">
        <ele>2068</ele>
        <time>2020-07-27T15:40:48.034Z</time>
      </trkpt>
      <trkpt lat="42.81305" lon="0.27379">
        <ele>2068</ele>
        <time>2020-07-27T15:40:49.034Z</time>
      </trkpt>
      <trkpt lat="42.81304" lon="0.27376">
        <ele>2069</ele>
        <time>2020-07-27T15:40:50.034Z</time>
      </trkpt>
      <trkpt lat="42.81304" lon="0.27373">
        <ele>2069</ele>
        <time>2020-07-27T15:40:51.034Z</time>
      </trkpt>
      <trkpt lat="42.81303" lon="0.2737">
        <ele>2070</ele>
        <time>2020-07-27T15:40:52.034Z</time>
      </trkpt>
      <trkpt lat="42.81302" lon="0.27368">
        <ele>2070</ele>
        <time>2020-07-27T15:40:53.034Z</time>
      </trkpt>
      <trkpt lat="42.81301" lon="0.27365">
        <ele>2070</ele>
        <time>2020-07-27T15:40:54.034Z</time>
      </trkpt>
      <trkpt lat="42.81301" lon="0.27363">
        <ele>2071</ele>
        <time>2020-07-27T15:40:55.034Z</time>
      </trkpt>
      <trkpt lat="42.813" lon="0.2736">
        <ele>2071</ele>
        <time>2020-07-27T15:40:56.034Z</time>
      </trkpt>
      <trkpt lat="42.813" lon="0.27357">
        <ele>2072</ele>
        <time>2020-07-27T15:40:57.034Z</time>
      </trkpt>
      <trkpt lat="42.813" lon="0.27355">
        <ele>2072</ele>
        <time>2020-07-27T15:40:58.034Z</time>
      </trkpt>
      <trkpt lat="42.813" lon="0.27352">
        <ele>2072</ele>
        <time>2020-07-27T15:40:59.034Z</time>
      </trkpt>
      <trkpt lat="42.81299" lon="0.27349">
        <ele>2072</ele>
        <time>2020-07-27T15:41:00.034Z</time>
      </trkpt>
      <trkpt lat="42.81299" lon="0.27347">
        <ele>2073</ele>
        <time>2020-07-27T15:41:01.034Z</time>
      </trkpt>
      <trkpt lat="42.81299" lon="0.27344">
        <ele>2073</ele>
        <time>2020-07-27T15:41:02.034Z</time>
      </trkpt>
      <trkpt lat="42.81299" lon="0.27341">
        <ele>2074</ele>
        <time>2020-07-27T15:41:03.034Z</time>
      </trkpt>
      <trkpt lat="42.81299" lon="0.27338">
        <ele>2074</ele>
        <time>2020-07-27T15:41:04.034Z</time>
      </trkpt>
      <trkpt lat="42.81298" lon="0.27335">
        <ele>2074</ele>
        <time>2020-07-27T15:41:05.034Z</time>
      </trkpt>
      <trkpt lat="42.81298" lon="0.27332">
        <ele>2074</ele>
        <time>2020-07-27T15:41:06.034Z</time>
      </trkpt>
      <trkpt lat="42.81298" lon="0.27329">
        <ele>2074</ele>
        <time>2020-07-27T15:41:07.034Z</time>
      </trkpt>
      <trkpt lat="42.81297" lon="0.27326">
        <ele>2075</ele>
        <time>2020-07-27T15:41:08.034Z</time>
      </trkpt>
      <trkpt lat="42.81296" lon="0.27323">
        <ele>2075</ele>
        <time>2020-07-27T15:41:09.034Z</time>
      </trkpt>
      <trkpt lat="42.81296" lon="0.2732">
        <ele>2076</ele>
        <time>2020-07-27T15:41:10.034Z</time>
      </trkpt>
      <trkpt lat="42.81295" lon="0.27317">
        <ele>2076</ele>
        <time>2020-07-27T15:41:11.034Z</time>
      </trkpt>
      <trkpt lat="42.81295" lon="0.27314">
        <ele>2076</ele>
        <time>2020-07-27T15:41:12.034Z</time>
      </trkpt>
      <trkpt lat="42.81294" lon="0.27311">
        <ele>2075</ele>
        <time>2020-07-27T15:41:13.034Z</time>
      </trkpt>
      <trkpt lat="42.81293" lon="0.27308">
        <ele>2075</ele>
        <time>2020-07-27T15:41:14.034Z</time>
      </trkpt>
      <trkpt lat="42.81293" lon="0.27305">
        <ele>2076</ele>
        <time>2020-07-27T15:41:15.034Z</time>
      </trkpt>
      <trkpt lat="42.81292" lon="0.27302">
        <ele>2076</ele>
        <time>2020-07-27T15:41:16.034Z</time>
      </trkpt>
      <trkpt lat="42.81291" lon="0.27299">
        <ele>2076</ele>
        <time>2020-07-27T15:41:17.034Z</time>
      </trkpt>
      <trkpt lat="42.81291" lon="0.27296">
        <ele>2077</ele>
        <time>2020-07-27T15:41:18.034Z</time>
      </trkpt>
      <trkpt lat="42.8129" lon="0.27293">
        <ele>2078</ele>
        <time>2020-07-27T15:41:19.034Z</time>
      </trkpt>
      <trkpt lat="42.81289" lon="0.27291">
        <ele>2078</ele>
        <time>2020-07-27T15:41:20.034Z</time>
      </trkpt>
      <trkpt lat="42.81289" lon="0.27288">
        <ele>2079</ele>
        <time>2020-07-27T15:41:21.034Z</time>
      </trkpt>
      <trkpt lat="42.81288" lon="0.27285">
        <ele>2079</ele>
        <time>2020-07-27T15:41:22.034Z</time>
      </trkpt>
      <trkpt lat="42.81287" lon="0.27283">
        <ele>2079</ele>
        <time>2020-07-27T15:41:23.034Z</time>
      </trkpt>
      <trkpt lat="42.81287" lon="0.2728">
        <ele>2079</ele>
        <time>2020-07-27T15:41:24.034Z</time>
      </trkpt>
      <trkpt lat="42.81286" lon="0.27278">
        <ele>2080</ele>
        <time>2020-07-27T15:41:25.034Z</time>
      </trkpt>
      <trkpt lat="42.81286" lon="0.27276">
        <ele>2080</ele>
        <time>2020-07-27T15:41:26.034Z</time>
      </trkpt>
      <trkpt lat="42.81286" lon="0.27274">
        <ele>2081</ele>
        <time>2020-07-27T15:41:27.034Z</time>
      </trkpt>
      <trkpt lat="42.81285" lon="0.27272">
        <ele>2081</ele>
        <time>2020-07-27T15:41:28.034Z</time>
      </trkpt>
      <trkpt lat="42.81285" lon="0.2727">
        <ele>2082</ele>
        <time>2020-07-27T15:41:29.034Z</time>
      </trkpt>
      <trkpt lat="42.81285" lon="0.27268">
        <ele>2082</ele>
        <time>2020-07-27T15:41:30.034Z</time>
      </trkpt>
      <trkpt lat="42.81285" lon="0.27265">
        <ele>2083</ele>
        <time>2020-07-27T15:41:31.034Z</time>
      </trkpt>
      <trkpt lat="42.81285" lon="0.27263">
        <ele>2082</ele>
        <time>2020-07-27T15:41:32.034Z</time>
      </trkpt>
      <trkpt lat="42.81285" lon="0.27261">
        <ele>2083</ele>
        <time>2020-07-27T15:41:33.034Z</time>
      </trkpt>
      <trkpt lat="42.81284" lon="0.27259">
        <ele>2083</ele>
        <time>2020-07-27T15:41:34.034Z</time>
      </trkpt>
      <trkpt lat="42.81284" lon="0.27257">
        <ele>2084</ele>
        <time>2020-07-27T15:41:35.034Z</time>
      </trkpt>
      <trkpt lat="42.81284" lon="0.27256">
        <ele>2085</ele>
        <time>2020-07-27T15:41:36.034Z</time>
      </trkpt>
      <trkpt lat="42.81284" lon="0.27254">
        <ele>2085</ele>
        <time>2020-07-27T15:41:37.034Z</time>
      </trkpt>
      <trkpt lat="42.81283" lon="0.27253">
        <ele>2084</ele>
        <time>2020-07-27T15:41:38.034Z</time>
      </trkpt>
      <trkpt lat="42.81284" lon="0.27251">
        <ele>2084</ele>
        <time>2020-07-27T15:41:39.034Z</time>
      </trkpt>
      <trkpt lat="42.81284" lon="0.2725">
        <ele>2083</ele>
        <time>2020-07-27T15:41:40.034Z</time>
      </trkpt>
      <trkpt lat="42.81284" lon="0.27248">
        <ele>2083</ele>
        <time>2020-07-27T15:41:41.034Z</time>
      </trkpt>
      <trkpt lat="42.81284" lon="0.27247">
        <ele>2083</ele>
        <time>2020-07-27T15:41:42.034Z</time>
      </trkpt>
      <trkpt lat="42.81283" lon="0.27245">
        <ele>2083</ele>
        <time>2020-07-27T15:41:43.034Z</time>
      </trkpt>
      <trkpt lat="42.81283" lon="0.27244">
        <ele>2083</ele>
        <time>2020-07-27T15:41:44.034Z</time>
      </trkpt>
      <trkpt lat="42.81283" lon="0.27243">
        <ele>2083</ele>
        <time>2020-07-27T15:41:45.034Z</time>
      </trkpt>
      <trkpt lat="42.81282" lon="0.27241">
        <ele>2084</ele>
        <time>2020-07-27T15:41:46.034Z</time>
      </trkpt>
      <trkpt lat="42.81282" lon="0.2724">
        <ele>2084</ele>
        <time>2020-07-27T15:41:47.034Z</time>
      </trkpt>
      <trkpt lat="42.81281" lon="0.27238">
        <ele>2084</ele>
        <time>2020-07-27T15:41:48.034Z</time>
      </trkpt>
      <trkpt lat="42.81281" lon="0.27237">
        <ele>2083</ele>
        <time>2020-07-27T15:41:49.034Z</time>
      </trkpt>
      <trkpt lat="42.81281" lon="0.27235">
        <ele>2084</ele>
        <time>2020-07-27T15:41:50.034Z</time>
      </trkpt>
      <trkpt lat="42.8128" lon="0.27234">
        <ele>2084</ele>
        <time>2020-07-27T15:41:51.034Z</time>
      </trkpt>
      <trkpt lat="42.8128" lon="0.27232">
        <ele>2084</ele>
        <time>2020-07-27T15:41:52.034Z</time>
      </trkpt>
      <trkpt lat="42.8128" lon="0.27231">
        <ele>2084</ele>
        <time>2020-07-27T15:41:53.034Z</time>
      </trkpt>
      <trkpt lat="42.81279" lon="0.2723">
        <ele>2084</ele>
        <time>2020-07-27T15:41:54.034Z</time>
      </trkpt>
      <trkpt lat="42.81279" lon="0.27229">
        <ele>2084</ele>
        <time>2020-07-27T15:41:55.034Z</time>
      </trkpt>
      <trkpt lat="42.81279" lon="0.27227">
        <ele>2084</ele>
        <time>2020-07-27T15:41:56.034Z</time>
      </trkpt>
      <trkpt lat="42.81279" lon="0.27225">
        <ele>2084</ele>
        <time>2020-07-27T15:41:57.034Z</time>
      </trkpt>
      <trkpt lat="42.81278" lon="0.27224">
        <ele>2084</ele>
        <time>2020-07-27T15:41:58.034Z</time>
      </trkpt>
      <trkpt lat="42.81278" lon="0.27222">
        <ele>2084</ele>
        <time>2020-07-27T15:41:59.034Z</time>
      </trkpt>
      <trkpt lat="42.81278" lon="0.27221">
        <ele>2084</ele>
        <time>2020-07-27T15:42:00.034Z</time>
      </trkpt>
      <trkpt lat="42.81278" lon="0.2722">
        <ele>2085</ele>
        <time>2020-07-27T15:42:01.034Z</time>
      </trkpt>
      <trkpt lat="42.81277" lon="0.27218">
        <ele>2085</ele>
        <time>2020-07-27T15:42:02.034Z</time>
      </trkpt>
      <trkpt lat="42.81277" lon="0.27217">
        <ele>2086</ele>
        <time>2020-07-27T15:42:03.034Z</time>
      </trkpt>
      <trkpt lat="42.81276" lon="0.27216">
        <ele>2086</ele>
        <time>2020-07-27T15:42:04.034Z</time>
      </trkpt>
      <trkpt lat="42.81276" lon="0.27215">
        <ele>2086</ele>
        <time>2020-07-27T15:42:05.034Z</time>
      </trkpt>
      <trkpt lat="42.81276" lon="0.27213">
        <ele>2086</ele>
        <time>2020-07-27T15:42:06.034Z</time>
      </trkpt>
      <trkpt lat="42.81275" lon="0.27212">
        <ele>2086</ele>
        <time>2020-07-27T15:42:07.034Z</time>
      </trkpt>
      <trkpt lat="42.81275" lon="0.2721">
        <ele>2087</ele>
        <time>2020-07-27T15:42:08.034Z</time>
      </trkpt>
      <trkpt lat="42.81275" lon="0.27208">
        <ele>2087</ele>
        <time>2020-07-27T15:42:09.034Z</time>
      </trkpt>
      <trkpt lat="42.81274" lon="0.27206">
        <ele>2088</ele>
        <time>2020-07-27T15:42:10.034Z</time>
      </trkpt>
      <trkpt lat="42.81274" lon="0.27204">
        <ele>2088</ele>
        <time>2020-07-27T15:42:11.034Z</time>
      </trkpt>
      <trkpt lat="42.81274" lon="0.27202">
        <ele>2088</ele>
        <time>2020-07-27T15:42:12.034Z</time>
      </trkpt>
      <trkpt lat="42.81274" lon="0.272">
        <ele>2090</ele>
        <time>2020-07-27T15:42:13.034Z</time>
      </trkpt>
      <trkpt lat="42.81274" lon="0.27198">
        <ele>2090</ele>
        <time>2020-07-27T15:42:14.034Z</time>
      </trkpt>
      <trkpt lat="42.81274" lon="0.27196">
        <ele>2091</ele>
        <time>2020-07-27T15:42:15.034Z</time>
      </trkpt>
      <trkpt lat="42.81274" lon="0.27193">
        <ele>2092</ele>
        <time>2020-07-27T15:42:16.034Z</time>
      </trkpt>
      <trkpt lat="42.81274" lon="0.27191">
        <ele>2092</ele>
        <time>2020-07-27T15:42:17.034Z</time>
      </trkpt>
      <trkpt lat="42.81274" lon="0.27188">
        <ele>2093</ele>
        <time>2020-07-27T15:42:18.034Z</time>
      </trkpt>
      <trkpt lat="42.81274" lon="0.27185">
        <ele>2093</ele>
        <time>2020-07-27T15:42:19.034Z</time>
      </trkpt>
      <trkpt lat="42.81275" lon="0.27182">
        <ele>2093</ele>
        <time>2020-07-27T15:42:20.034Z</time>
      </trkpt>
      <trkpt lat="42.81276" lon="0.2718">
        <ele>2094</ele>
        <time>2020-07-27T15:42:21.034Z</time>
      </trkpt>
      <trkpt lat="42.81276" lon="0.27177">
        <ele>2095</ele>
        <time>2020-07-27T15:42:22.034Z</time>
      </trkpt>
      <trkpt lat="42.81277" lon="0.27175">
        <ele>2095</ele>
        <time>2020-07-27T15:42:23.034Z</time>
      </trkpt>
      <trkpt lat="42.81278" lon="0.27173">
        <ele>2095</ele>
        <time>2020-07-27T15:42:24.034Z</time>
      </trkpt>
      <trkpt lat="42.81279" lon="0.27171">
        <ele>2096</ele>
        <time>2020-07-27T15:42:25.034Z</time>
      </trkpt>
      <trkpt lat="42.81281" lon="0.27168">
        <ele>2096</ele>
        <time>2020-07-27T15:42:26.034Z</time>
      </trkpt>
      <trkpt lat="42.81282" lon="0.27166">
        <ele>2096</ele>
        <time>2020-07-27T15:42:27.034Z</time>
      </trkpt>
      <trkpt lat="42.81283" lon="0.27164">
        <ele>2096</ele>
        <time>2020-07-27T15:42:28.034Z</time>
      </trkpt>
      <trkpt lat="42.81285" lon="0.27161">
        <ele>2096</ele>
        <time>2020-07-27T15:42:29.034Z</time>
      </trkpt>
      <trkpt lat="42.81286" lon="0.27159">
        <ele>2096</ele>
        <time>2020-07-27T15:42:30.034Z</time>
      </trkpt>
      <trkpt lat="42.81288" lon="0.27158">
        <ele>2096</ele>
        <time>2020-07-27T15:42:31.034Z</time>
      </trkpt>
      <trkpt lat="42.81289" lon="0.27157">
        <ele>2096</ele>
        <time>2020-07-27T15:42:32.034Z</time>
      </trkpt>
      <trkpt lat="42.8129" lon="0.27156">
        <ele>2096</ele>
        <time>2020-07-27T15:42:33.034Z</time>
      </trkpt>
      <trkpt lat="42.81291" lon="0.27155">
        <ele>2097</ele>
        <time>2020-07-27T15:42:34.034Z</time>
      </trkpt>
      <trkpt lat="42.81292" lon="0.27154">
        <ele>2098</ele>
        <time>2020-07-27T15:42:35.034Z</time>
      </trkpt>
      <trkpt lat="42.81293" lon="0.27154">
        <ele>2099</ele>
        <time>2020-07-27T15:42:36.034Z</time>
      </trkpt>
      <trkpt lat="42.81294" lon="0.27153">
        <ele>2099</ele>
        <time>2020-07-27T15:42:37.034Z</time>
      </trkpt>
      <trkpt lat="42.81295" lon="0.27153">
        <ele>2100</ele>
        <time>2020-07-27T15:42:38.034Z</time>
      </trkpt>
      <trkpt lat="42.81296" lon="0.27152">
        <ele>2099</ele>
        <time>2020-07-27T15:42:39.034Z</time>
      </trkpt>
      <trkpt lat="42.81297" lon="0.27151">
        <ele>2100</ele>
        <time>2020-07-27T15:42:40.034Z</time>
      </trkpt>
      <trkpt lat="42.81298" lon="0.2715">
        <ele>2101</ele>
        <time>2020-07-27T15:42:41.034Z</time>
      </trkpt>
      <trkpt lat="42.81299" lon="0.27149">
        <ele>2101</ele>
        <time>2020-07-27T15:42:42.034Z</time>
      </trkpt>
      <trkpt lat="42.813" lon="0.27149">
        <ele>2103</ele>
        <time>2020-07-27T15:42:43.034Z</time>
      </trkpt>
      <trkpt lat="42.81301" lon="0.27148">
        <ele>2102</ele>
        <time>2020-07-27T15:42:44.034Z</time>
      </trkpt>
      <trkpt lat="42.81302" lon="0.27147">
        <ele>2103</ele>
        <time>2020-07-27T15:42:45.034Z</time>
      </trkpt>
      <trkpt lat="42.81303" lon="0.27147">
        <ele>2103</ele>
        <time>2020-07-27T15:42:46.034Z</time>
      </trkpt>
      <trkpt lat="42.81303" lon="0.27146">
        <ele>2104</ele>
        <time>2020-07-27T15:42:47.034Z</time>
      </trkpt>
      <trkpt lat="42.81304" lon="0.27144">
        <ele>2104</ele>
        <time>2020-07-27T15:42:48.034Z</time>
      </trkpt>
      <trkpt lat="42.81305" lon="0.27143">
        <ele>2104</ele>
        <time>2020-07-27T15:42:49.034Z</time>
      </trkpt>
      <trkpt lat="42.81306" lon="0.27143">
        <ele>2105</ele>
        <time>2020-07-27T15:42:50.034Z</time>
      </trkpt>
      <trkpt lat="42.81307" lon="0.27141">
        <ele>2105</ele>
        <time>2020-07-27T15:42:51.034Z</time>
      </trkpt>
      <trkpt lat="42.81308" lon="0.2714">
        <ele>2105</ele>
        <time>2020-07-27T15:42:52.034Z</time>
      </trkpt>
      <trkpt lat="42.81308" lon="0.27139">
        <ele>2105</ele>
        <time>2020-07-27T15:42:53.034Z</time>
      </trkpt>
      <trkpt lat="42.81309" lon="0.27139">
        <ele>2106</ele>
        <time>2020-07-27T15:42:54.034Z</time>
      </trkpt>
      <trkpt lat="42.8131" lon="0.27138">
        <ele>2106</ele>
        <time>2020-07-27T15:42:55.034Z</time>
      </trkpt>
      <trkpt lat="42.81311" lon="0.27137">
        <ele>2107</ele>
        <time>2020-07-27T15:42:56.034Z</time>
      </trkpt>
      <trkpt lat="42.81312" lon="0.27136">
        <ele>2108</ele>
        <time>2020-07-27T15:42:57.034Z</time>
      </trkpt>
      <trkpt lat="42.81312" lon="0.27135">
        <ele>2108</ele>
        <time>2020-07-27T15:42:58.034Z</time>
      </trkpt>
      <trkpt lat="42.81313" lon="0.27134">
        <ele>2107</ele>
        <time>2020-07-27T15:42:59.034Z</time>
      </trkpt>
      <trkpt lat="42.81314" lon="0.27133">
        <ele>2108</ele>
        <time>2020-07-27T15:43:00.034Z</time>
      </trkpt>
      <trkpt lat="42.81314" lon="0.27132">
        <ele>2108</ele>
        <time>2020-07-27T15:43:01.034Z</time>
      </trkpt>
      <trkpt lat="42.81315" lon="0.27131">
        <ele>2109</ele>
        <time>2020-07-27T15:43:02.034Z</time>
      </trkpt>
      <trkpt lat="42.81316" lon="0.27129">
        <ele>2109</ele>
        <time>2020-07-27T15:43:03.034Z</time>
      </trkpt>
      <trkpt lat="42.81317" lon="0.27127">
        <ele>2110</ele>
        <time>2020-07-27T15:43:04.034Z</time>
      </trkpt>
      <trkpt lat="42.81318" lon="0.27126">
        <ele>2110</ele>
        <time>2020-07-27T15:43:05.034Z</time>
      </trkpt>
      <trkpt lat="42.81318" lon="0.27125">
        <ele>2110</ele>
        <time>2020-07-27T15:43:06.034Z</time>
      </trkpt>
      <trkpt lat="42.81319" lon="0.27124">
        <ele>2111</ele>
        <time>2020-07-27T15:43:07.034Z</time>
      </trkpt>
      <trkpt lat="42.8132" lon="0.27122">
        <ele>2111</ele>
        <time>2020-07-27T15:43:08.034Z</time>
      </trkpt>
      <trkpt lat="42.81321" lon="0.27121">
        <ele>2112</ele>
        <time>2020-07-27T15:43:09.034Z</time>
      </trkpt>
      <trkpt lat="42.81322" lon="0.27119">
        <ele>2112</ele>
        <time>2020-07-27T15:43:10.034Z</time>
      </trkpt>
      <trkpt lat="42.81323" lon="0.27118">
        <ele>2113</ele>
        <time>2020-07-27T15:43:11.034Z</time>
      </trkpt>
      <trkpt lat="42.81324" lon="0.27117">
        <ele>2113</ele>
        <time>2020-07-27T15:43:12.034Z</time>
      </trkpt>
      <trkpt lat="42.81324" lon="0.27116">
        <ele>2113</ele>
        <time>2020-07-27T15:43:13.034Z</time>
      </trkpt>
      <trkpt lat="42.81325" lon="0.27115">
        <ele>2113</ele>
        <time>2020-07-27T15:43:14.034Z</time>
      </trkpt>
      <trkpt lat="42.81326" lon="0.27114">
        <ele>2113</ele>
        <time>2020-07-27T15:43:15.034Z</time>
      </trkpt>
      <trkpt lat="42.81327" lon="0.27113">
        <ele>2113</ele>
        <time>2020-07-27T15:43:16.034Z</time>
      </trkpt>
      <trkpt lat="42.81328" lon="0.27113">
        <ele>2113</ele>
        <time>2020-07-27T15:43:17.034Z</time>
      </trkpt>
      <trkpt lat="42.81329" lon="0.27112">
        <ele>2113</ele>
        <time>2020-07-27T15:43:18.034Z</time>
      </trkpt>
      <trkpt lat="42.8133" lon="0.2711">
        <ele>2114</ele>
        <time>2020-07-27T15:43:19.034Z</time>
      </trkpt>
      <trkpt lat="42.8133" lon="0.2711">
        <ele>2113</ele>
        <time>2020-07-27T15:43:20.034Z</time>
      </trkpt>
      <trkpt lat="42.81331" lon="0.27109">
        <ele>2113</ele>
        <time>2020-07-27T15:43:21.034Z</time>
      </trkpt>
      <trkpt lat="42.81332" lon="0.27108">
        <ele>2113</ele>
        <time>2020-07-27T15:43:22.034Z</time>
      </trkpt>
      <trkpt lat="42.81332" lon="0.27107">
        <ele>2113</ele>
        <time>2020-07-27T15:43:23.034Z</time>
      </trkpt>
      <trkpt lat="42.81333" lon="0.27106">
        <ele>2114</ele>
        <time>2020-07-27T15:43:24.034Z</time>
      </trkpt>
      <trkpt lat="42.81334" lon="0.27105">
        <ele>2114</ele>
        <time>2020-07-27T15:43:25.034Z</time>
      </trkpt>
      <trkpt lat="42.81335" lon="0.27104">
        <ele>2114</ele>
        <time>2020-07-27T15:43:26.034Z</time>
      </trkpt>
      <trkpt lat="42.81336" lon="0.27103">
        <ele>2114</ele>
        <time>2020-07-27T15:43:27.034Z</time>
      </trkpt>
      <trkpt lat="42.81337" lon="0.27103">
        <ele>2115</ele>
        <time>2020-07-27T15:43:28.034Z</time>
      </trkpt>
      <trkpt lat="42.81337" lon="0.27102">
        <ele>2115</ele>
        <time>2020-07-27T15:43:29.034Z</time>
      </trkpt>
      <trkpt lat="42.81338" lon="0.27102">
        <ele>2116</ele>
        <time>2020-07-27T15:43:30.034Z</time>
      </trkpt>
      <trkpt lat="42.81338" lon="0.27101">
        <ele>2116</ele>
        <time>2020-07-27T15:43:31.034Z</time>
      </trkpt>
      <trkpt lat="42.81339" lon="0.271">
        <ele>2116</ele>
        <time>2020-07-27T15:43:32.034Z</time>
      </trkpt>
      <trkpt lat="42.8134" lon="0.27099">
        <ele>2116</ele>
        <time>2020-07-27T15:43:33.034Z</time>
      </trkpt>
      <trkpt lat="42.81341" lon="0.27098">
        <ele>2117</ele>
        <time>2020-07-27T15:43:34.034Z</time>
      </trkpt>
      <trkpt lat="42.81342" lon="0.27097">
        <ele>2117</ele>
        <time>2020-07-27T15:43:35.034Z</time>
      </trkpt>
      <trkpt lat="42.81343" lon="0.27096">
        <ele>2117</ele>
        <time>2020-07-27T15:43:36.034Z</time>
      </trkpt>
      <trkpt lat="42.81344" lon="0.27096">
        <ele>2117</ele>
        <time>2020-07-27T15:43:37.034Z</time>
      </trkpt>
      <trkpt lat="42.81344" lon="0.27095">
        <ele>2118</ele>
        <time>2020-07-27T15:43:38.034Z</time>
      </trkpt>
      <trkpt lat="42.81345" lon="0.27094">
        <ele>2119</ele>
        <time>2020-07-27T15:43:39.034Z</time>
      </trkpt>
      <trkpt lat="42.81346" lon="0.27093">
        <ele>2118</ele>
        <time>2020-07-27T15:43:40.034Z</time>
      </trkpt>
      <trkpt lat="42.81348" lon="0.27092">
        <ele>2118</ele>
        <time>2020-07-27T15:43:41.034Z</time>
      </trkpt>
      <trkpt lat="42.81349" lon="0.27091">
        <ele>2118</ele>
        <time>2020-07-27T15:43:42.034Z</time>
      </trkpt>
      <trkpt lat="42.8135" lon="0.2709">
        <ele>2118</ele>
        <time>2020-07-27T15:43:43.034Z</time>
      </trkpt>
      <trkpt lat="42.81351" lon="0.27088">
        <ele>2119</ele>
        <time>2020-07-27T15:43:44.034Z</time>
      </trkpt>
      <trkpt lat="42.81352" lon="0.27087">
        <ele>2120</ele>
        <time>2020-07-27T15:43:45.034Z</time>
      </trkpt>
      <trkpt lat="42.81353" lon="0.27086">
        <ele>2120</ele>
        <time>2020-07-27T15:43:46.034Z</time>
      </trkpt>
      <trkpt lat="42.81353" lon="0.27085">
        <ele>2121</ele>
        <time>2020-07-27T15:43:47.034Z</time>
      </trkpt>
      <trkpt lat="42.81354" lon="0.27084">
        <ele>2121</ele>
        <time>2020-07-27T15:43:48.034Z</time>
      </trkpt>
      <trkpt lat="42.81355" lon="0.27083">
        <ele>2122</ele>
        <time>2020-07-27T15:43:49.034Z</time>
      </trkpt>
      <trkpt lat="42.81355" lon="0.27082">
        <ele>2122</ele>
        <time>2020-07-27T15:43:50.034Z</time>
      </trkpt>
      <trkpt lat="42.81356" lon="0.27081">
        <ele>2122</ele>
        <time>2020-07-27T15:43:51.034Z</time>
      </trkpt>
      <trkpt lat="42.81356" lon="0.2708">
        <ele>2123</ele>
        <time>2020-07-27T15:43:52.034Z</time>
      </trkpt>
      <trkpt lat="42.81357" lon="0.27079">
        <ele>2123</ele>
        <time>2020-07-27T15:43:53.034Z</time>
      </trkpt>
      <trkpt lat="42.81357" lon="0.27078">
        <ele>2124</ele>
        <time>2020-07-27T15:43:54.034Z</time>
      </trkpt>
      <trkpt lat="42.81358" lon="0.27077">
        <ele>2125</ele>
        <time>2020-07-27T15:43:55.034Z</time>
      </trkpt>
      <trkpt lat="42.81359" lon="0.27076">
        <ele>2125</ele>
        <time>2020-07-27T15:43:56.034Z</time>
      </trkpt>
      <trkpt lat="42.8136" lon="0.27075">
        <ele>2125</ele>
        <time>2020-07-27T15:43:57.034Z</time>
      </trkpt>
      <trkpt lat="42.8136" lon="0.27074">
        <ele>2124</ele>
        <time>2020-07-27T15:43:58.034Z</time>
      </trkpt>
      <trkpt lat="42.8136" lon="0.27073">
        <ele>2125</ele>
        <time>2020-07-27T15:43:59.034Z</time>
      </trkpt>
      <trkpt lat="42.81361" lon="0.27072">
        <ele>2125</ele>
        <time>2020-07-27T15:44:00.034Z</time>
      </trkpt>
      <trkpt lat="42.81361" lon="0.27071">
        <ele>2126</ele>
        <time>2020-07-27T15:44:01.034Z</time>
      </trkpt>
      <trkpt lat="42.81362" lon="0.2707">
        <ele>2126</ele>
        <time>2020-07-27T15:44:02.034Z</time>
      </trkpt>
      <trkpt lat="42.81363" lon="0.27069">
        <ele>2128</ele>
        <time>2020-07-27T15:44:03.034Z</time>
      </trkpt>
      <trkpt lat="42.81364" lon="0.27068">
        <ele>2128</ele>
        <time>2020-07-27T15:44:04.034Z</time>
      </trkpt>
      <trkpt lat="42.81365" lon="0.27067">
        <ele>2128</ele>
        <time>2020-07-27T15:44:05.034Z</time>
      </trkpt>
      <trkpt lat="42.81366" lon="0.27066">
        <ele>2128</ele>
        <time>2020-07-27T15:44:06.034Z</time>
      </trkpt>
      <trkpt lat="42.81367" lon="0.27065">
        <ele>2128</ele>
        <time>2020-07-27T15:44:07.034Z</time>
      </trkpt>
      <trkpt lat="42.81368" lon="0.27064">
        <ele>2129</ele>
        <time>2020-07-27T15:44:08.034Z</time>
      </trkpt>
      <trkpt lat="42.81369" lon="0.27063">
        <ele>2129</ele>
        <time>2020-07-27T15:44:09.034Z</time>
      </trkpt>
      <trkpt lat="42.81369" lon="0.27062">
        <ele>2129</ele>
        <time>2020-07-27T15:44:10.034Z</time>
      </trkpt>
      <trkpt lat="42.8137" lon="0.27061">
        <ele>2129</ele>
        <time>2020-07-27T15:44:11.034Z</time>
      </trkpt>
      <trkpt lat="42.81371" lon="0.27059">
        <ele>2130</ele>
        <time>2020-07-27T15:44:12.034Z</time>
      </trkpt>
      <trkpt lat="42.81372" lon="0.27058">
        <ele>2130</ele>
        <time>2020-07-27T15:44:13.034Z</time>
      </trkpt>
      <trkpt lat="42.81373" lon="0.27058">
        <ele>2131</ele>
        <time>2020-07-27T15:44:14.034Z</time>
      </trkpt>
      <trkpt lat="42.81374" lon="0.27057">
        <ele>2131</ele>
        <time>2020-07-27T15:44:15.034Z</time>
      </trkpt>
      <trkpt lat="42.81374" lon="0.27056">
        <ele>2130</ele>
        <time>2020-07-27T15:44:16.034Z</time>
      </trkpt>
      <trkpt lat="42.81375" lon="0.27055">
        <ele>2131</ele>
        <time>2020-07-27T15:44:17.034Z</time>
      </trkpt>
      <trkpt lat="42.81376" lon="0.27054">
        <ele>2131</ele>
        <time>2020-07-27T15:44:18.034Z</time>
      </trkpt>
      <trkpt lat="42.81377" lon="0.27052">
        <ele>2132</ele>
        <time>2020-07-27T15:44:19.034Z</time>
      </trkpt>
      <trkpt lat="42.81378" lon="0.27051">
        <ele>2132</ele>
        <time>2020-07-27T15:44:20.034Z</time>
      </trkpt>
      <trkpt lat="42.81379" lon="0.2705">
        <ele>2132</ele>
        <time>2020-07-27T15:44:21.034Z</time>
      </trkpt>
      <trkpt lat="42.8138" lon="0.27048">
        <ele>2132</ele>
        <time>2020-07-27T15:44:22.034Z</time>
      </trkpt>
      <trkpt lat="42.81381" lon="0.27047">
        <ele>2133</ele>
        <time>2020-07-27T15:44:23.034Z</time>
      </trkpt>
      <trkpt lat="42.81382" lon="0.27047">
        <ele>2133</ele>
        <time>2020-07-27T15:44:24.034Z</time>
      </trkpt>
      <trkpt lat="42.81383" lon="0.27046">
        <ele>2134</ele>
        <time>2020-07-27T15:44:25.034Z</time>
      </trkpt>
      <trkpt lat="42.81384" lon="0.27045">
        <ele>2134</ele>
        <time>2020-07-27T15:44:26.034Z</time>
      </trkpt>
      <trkpt lat="42.81385" lon="0.27043">
        <ele>2133</ele>
        <time>2020-07-27T15:44:27.034Z</time>
      </trkpt>
      <trkpt lat="42.81385" lon="0.27042">
        <ele>2134</ele>
        <time>2020-07-27T15:44:28.034Z</time>
      </trkpt>
      <trkpt lat="42.81385" lon="0.27041">
        <ele>2134</ele>
        <time>2020-07-27T15:44:29.034Z</time>
      </trkpt>
      <trkpt lat="42.81386" lon="0.27039">
        <ele>2134</ele>
        <time>2020-07-27T15:44:30.034Z</time>
      </trkpt>
      <trkpt lat="42.81387" lon="0.27038">
        <ele>2134</ele>
        <time>2020-07-27T15:44:31.034Z</time>
      </trkpt>
      <trkpt lat="42.81387" lon="0.27037">
        <ele>2135</ele>
        <time>2020-07-27T15:44:32.034Z</time>
      </trkpt>
      <trkpt lat="42.81388" lon="0.27035">
        <ele>2135</ele>
        <time>2020-07-27T15:44:33.034Z</time>
      </trkpt>
      <trkpt lat="42.81389" lon="0.27034">
        <ele>2136</ele>
        <time>2020-07-27T15:44:34.034Z</time>
      </trkpt>
      <trkpt lat="42.8139" lon="0.27033">
        <ele>2135</ele>
        <time>2020-07-27T15:44:35.034Z</time>
      </trkpt>
      <trkpt lat="42.81391" lon="0.27032">
        <ele>2135</ele>
        <time>2020-07-27T15:44:36.034Z</time>
      </trkpt>
      <trkpt lat="42.81392" lon="0.27031">
        <ele>2136</ele>
        <time>2020-07-27T15:44:37.034Z</time>
      </trkpt>
      <trkpt lat="42.81393" lon="0.27029">
        <ele>2135</ele>
        <time>2020-07-27T15:44:38.034Z</time>
      </trkpt>
      <trkpt lat="42.81393" lon="0.27028">
        <ele>2136</ele>
        <time>2020-07-27T15:44:39.034Z</time>
      </trkpt>
      <trkpt lat="42.81394" lon="0.27026">
        <ele>2136</ele>
        <time>2020-07-27T15:44:40.034Z</time>
      </trkpt>
      <trkpt lat="42.81394" lon="0.27023">
        <ele>2137</ele>
        <time>2020-07-27T15:44:41.034Z</time>
      </trkpt>
      <trkpt lat="42.81394" lon="0.27021">
        <ele>2137</ele>
        <time>2020-07-27T15:44:42.034Z</time>
      </trkpt>
      <trkpt lat="42.81394" lon="0.27018">
        <ele>2138</ele>
        <time>2020-07-27T15:44:43.034Z</time>
      </trkpt>
      <trkpt lat="42.81393" lon="0.27015">
        <ele>2139</ele>
        <time>2020-07-27T15:44:44.034Z</time>
      </trkpt>
      <trkpt lat="42.81392" lon="0.27012">
        <ele>2139</ele>
        <time>2020-07-27T15:44:45.034Z</time>
      </trkpt>
      <trkpt lat="42.81391" lon="0.27009">
        <ele>2140</ele>
        <time>2020-07-27T15:44:46.034Z</time>
      </trkpt>
      <trkpt lat="42.8139" lon="0.27007">
        <ele>2141</ele>
        <time>2020-07-27T15:44:47.034Z</time>
      </trkpt>
      <trkpt lat="42.81389" lon="0.27005">
        <ele>2142</ele>
        <time>2020-07-27T15:44:48.034Z</time>
      </trkpt>
      <trkpt lat="42.81387" lon="0.27003">
        <ele>2142</ele>
        <time>2020-07-27T15:44:49.034Z</time>
      </trkpt>
      <trkpt lat="42.81386" lon="0.27002">
        <ele>2142</ele>
        <time>2020-07-27T15:44:50.034Z</time>
      </trkpt>
      <trkpt lat="42.81385" lon="0.27">
        <ele>2143</ele>
        <time>2020-07-27T15:44:51.034Z</time>
      </trkpt>
      <trkpt lat="42.81383" lon="0.26999">
        <ele>2144</ele>
        <time>2020-07-27T15:44:52.034Z</time>
      </trkpt>
      <trkpt lat="42.81382" lon="0.26998">
        <ele>2144</ele>
        <time>2020-07-27T15:44:53.034Z</time>
      </trkpt>
      <trkpt lat="42.81381" lon="0.26997">
        <ele>2145</ele>
        <time>2020-07-27T15:44:54.034Z</time>
      </trkpt>
      <trkpt lat="42.81379" lon="0.26995">
        <ele>2144</ele>
        <time>2020-07-27T15:44:55.034Z</time>
      </trkpt>
      <trkpt lat="42.81378" lon="0.26994">
        <ele>2145</ele>
        <time>2020-07-27T15:44:56.034Z</time>
      </trkpt>
      <trkpt lat="42.81378" lon="0.26993">
        <ele>2145</ele>
        <time>2020-07-27T15:44:57.034Z</time>
      </trkpt>
      <trkpt lat="42.81377" lon="0.26991">
        <ele>2145</ele>
        <time>2020-07-27T15:44:58.034Z</time>
      </trkpt>
      <trkpt lat="42.81376" lon="0.2699">
        <ele>2146</ele>
        <time>2020-07-27T15:44:59.034Z</time>
      </trkpt>
      <trkpt lat="42.81375" lon="0.26988">
        <ele>2147</ele>
        <time>2020-07-27T15:45:00.034Z</time>
      </trkpt>
      <trkpt lat="42.81374" lon="0.26987">
        <ele>2146</ele>
        <time>2020-07-27T15:45:01.034Z</time>
      </trkpt>
      <trkpt lat="42.81374" lon="0.26985">
        <ele>2146</ele>
        <time>2020-07-27T15:45:02.034Z</time>
      </trkpt>
      <trkpt lat="42.81373" lon="0.26983">
        <ele>2146</ele>
        <time>2020-07-27T15:45:03.034Z</time>
      </trkpt>
      <trkpt lat="42.81373" lon="0.26981">
        <ele>2147</ele>
        <time>2020-07-27T15:45:04.034Z</time>
      </trkpt>
      <trkpt lat="42.81372" lon="0.2698">
        <ele>2147</ele>
        <time>2020-07-27T15:45:05.034Z</time>
      </trkpt>
      <trkpt lat="42.81371" lon="0.26978">
        <ele>2147</ele>
        <time>2020-07-27T15:45:06.034Z</time>
      </trkpt>
      <trkpt lat="42.81371" lon="0.26976">
        <ele>2147</ele>
        <time>2020-07-27T15:45:07.034Z</time>
      </trkpt>
      <trkpt lat="42.8137" lon="0.26975">
        <ele>2149</ele>
        <time>2020-07-27T15:45:08.034Z</time>
      </trkpt>
      <trkpt lat="42.8137" lon="0.26973">
        <ele>2149</ele>
        <time>2020-07-27T15:45:09.034Z</time>
      </trkpt>
      <trkpt lat="42.81369" lon="0.26971">
        <ele>2150</ele>
        <time>2020-07-27T15:45:10.034Z</time>
      </trkpt>
      <trkpt lat="42.81369" lon="0.26969">
        <ele>2150</ele>
        <time>2020-07-27T15:45:11.034Z</time>
      </trkpt>
      <trkpt lat="42.81369" lon="0.26966">
        <ele>2151</ele>
        <time>2020-07-27T15:45:12.034Z</time>
      </trkpt>
      <trkpt lat="42.81368" lon="0.26963">
        <ele>2151</ele>
        <time>2020-07-27T15:45:13.034Z</time>
      </trkpt>
      <trkpt lat="42.81368" lon="0.26961">
        <ele>2152</ele>
        <time>2020-07-27T15:45:14.034Z</time>
      </trkpt>
      <trkpt lat="42.81368" lon="0.26958">
        <ele>2152</ele>
        <time>2020-07-27T15:45:15.034Z</time>
      </trkpt>
      <trkpt lat="42.81367" lon="0.26955">
        <ele>2153</ele>
        <time>2020-07-27T15:45:16.034Z</time>
      </trkpt>
      <trkpt lat="42.81367" lon="0.26952">
        <ele>2153</ele>
        <time>2020-07-27T15:45:17.034Z</time>
      </trkpt>
      <trkpt lat="42.81367" lon="0.2695">
        <ele>2154</ele>
        <time>2020-07-27T15:45:18.034Z</time>
      </trkpt>
      <trkpt lat="42.81367" lon="0.26947">
        <ele>2153</ele>
        <time>2020-07-27T15:45:19.034Z</time>
      </trkpt>
      <trkpt lat="42.81367" lon="0.26944">
        <ele>2154</ele>
        <time>2020-07-27T15:45:20.034Z</time>
      </trkpt>
      <trkpt lat="42.81366" lon="0.26941">
        <ele>2154</ele>
        <time>2020-07-27T15:45:21.034Z</time>
      </trkpt>
      <trkpt lat="42.81366" lon="0.26939">
        <ele>2154</ele>
        <time>2020-07-27T15:45:22.034Z</time>
      </trkpt>
      <trkpt lat="42.81366" lon="0.26936">
        <ele>2155</ele>
        <time>2020-07-27T15:45:23.034Z</time>
      </trkpt>
      <trkpt lat="42.81366" lon="0.26933">
        <ele>2155</ele>
        <time>2020-07-27T15:45:24.034Z</time>
      </trkpt>
      <trkpt lat="42.81366" lon="0.2693">
        <ele>2156</ele>
        <time>2020-07-27T15:45:25.034Z</time>
      </trkpt>
      <trkpt lat="42.81365" lon="0.26927">
        <ele>2157</ele>
        <time>2020-07-27T15:45:26.034Z</time>
      </trkpt>
      <trkpt lat="42.81365" lon="0.26925">
        <ele>2157</ele>
        <time>2020-07-27T15:45:27.034Z</time>
      </trkpt>
      <trkpt lat="42.81365" lon="0.26922">
        <ele>2157</ele>
        <time>2020-07-27T15:45:28.034Z</time>
      </trkpt>
      <trkpt lat="42.81364" lon="0.26919">
        <ele>2157</ele>
        <time>2020-07-27T15:45:29.034Z</time>
      </trkpt>
      <trkpt lat="42.81364" lon="0.26916">
        <ele>2157</ele>
        <time>2020-07-27T15:45:30.034Z</time>
      </trkpt>
      <trkpt lat="42.81364" lon="0.26913">
        <ele>2157</ele>
        <time>2020-07-27T15:45:31.034Z</time>
      </trkpt>
      <trkpt lat="42.81363" lon="0.2691">
        <ele>2158</ele>
        <time>2020-07-27T15:45:32.034Z</time>
      </trkpt>
      <trkpt lat="42.81363" lon="0.26906">
        <ele>2158</ele>
        <time>2020-07-27T15:45:33.034Z</time>
      </trkpt>
      <trkpt lat="42.81363" lon="0.26904">
        <ele>2159</ele>
        <time>2020-07-27T15:45:34.034Z</time>
      </trkpt>
      <trkpt lat="42.81363" lon="0.269">
        <ele>2159</ele>
        <time>2020-07-27T15:45:35.034Z</time>
      </trkpt>
      <trkpt lat="42.81362" lon="0.26897">
        <ele>2160</ele>
        <time>2020-07-27T15:45:36.034Z</time>
      </trkpt>
      <trkpt lat="42.81362" lon="0.26894">
        <ele>2160</ele>
        <time>2020-07-27T15:45:37.034Z</time>
      </trkpt>
      <trkpt lat="42.81362" lon="0.26891">
        <ele>2161</ele>
        <time>2020-07-27T15:45:38.034Z</time>
      </trkpt>
      <trkpt lat="42.81363" lon="0.26888">
        <ele>2160</ele>
        <time>2020-07-27T15:45:39.034Z</time>
      </trkpt>
      <trkpt lat="42.81363" lon="0.26885">
        <ele>2161</ele>
        <time>2020-07-27T15:45:40.034Z</time>
      </trkpt>
      <trkpt lat="42.81363" lon="0.26882">
        <ele>2162</ele>
        <time>2020-07-27T15:45:41.034Z</time>
      </trkpt>
      <trkpt lat="42.81363" lon="0.26879">
        <ele>2162</ele>
        <time>2020-07-27T15:45:42.034Z</time>
      </trkpt>
      <trkpt lat="42.81364" lon="0.26876">
        <ele>2162</ele>
        <time>2020-07-27T15:45:43.034Z</time>
      </trkpt>
      <trkpt lat="42.81364" lon="0.26873">
        <ele>2162</ele>
        <time>2020-07-27T15:45:44.034Z</time>
      </trkpt>
      <trkpt lat="42.81364" lon="0.2687">
        <ele>2163</ele>
        <time>2020-07-27T15:45:45.034Z</time>
      </trkpt>
      <trkpt lat="42.81364" lon="0.26867">
        <ele>2163</ele>
        <time>2020-07-27T15:45:46.034Z</time>
      </trkpt>
      <trkpt lat="42.81364" lon="0.26864">
        <ele>2164</ele>
        <time>2020-07-27T15:45:47.034Z</time>
      </trkpt>
      <trkpt lat="42.81365" lon="0.26861">
        <ele>2164</ele>
        <time>2020-07-27T15:45:48.034Z</time>
      </trkpt>
      <trkpt lat="42.81365" lon="0.26858">
        <ele>2165</ele>
        <time>2020-07-27T15:45:49.034Z</time>
      </trkpt>
      <trkpt lat="42.81365" lon="0.26854">
        <ele>2165</ele>
        <time>2020-07-27T15:45:50.034Z</time>
      </trkpt>
      <trkpt lat="42.81365" lon="0.26851">
        <ele>2165</ele>
        <time>2020-07-27T15:45:51.034Z</time>
      </trkpt>
      <trkpt lat="42.81365" lon="0.26848">
        <ele>2165</ele>
        <time>2020-07-27T15:45:52.034Z</time>
      </trkpt>
      <trkpt lat="42.81365" lon="0.26845">
        <ele>2166</ele>
        <time>2020-07-27T15:45:53.034Z</time>
      </trkpt>
      <trkpt lat="42.81365" lon="0.26842">
        <ele>2167</ele>
        <time>2020-07-27T15:45:54.034Z</time>
      </trkpt>
      <trkpt lat="42.81366" lon="0.26839">
        <ele>2167</ele>
        <time>2020-07-27T15:45:55.034Z</time>
      </trkpt>
      <trkpt lat="42.81366" lon="0.26836">
        <ele>2166</ele>
        <time>2020-07-27T15:45:56.034Z</time>
      </trkpt>
      <trkpt lat="42.81366" lon="0.26834">
        <ele>2166</ele>
        <time>2020-07-27T15:45:57.034Z</time>
      </trkpt>
      <trkpt lat="42.81366" lon="0.26831">
        <ele>2167</ele>
        <time>2020-07-27T15:45:58.034Z</time>
      </trkpt>
      <trkpt lat="42.81366" lon="0.26829">
        <ele>2167</ele>
        <time>2020-07-27T15:45:59.034Z</time>
      </trkpt>
      <trkpt lat="42.81366" lon="0.26826">
        <ele>2168</ele>
        <time>2020-07-27T15:46:00.034Z</time>
      </trkpt>
      <trkpt lat="42.81366" lon="0.26824">
        <ele>2169</ele>
        <time>2020-07-27T15:46:01.034Z</time>
      </trkpt>
      <trkpt lat="42.81367" lon="0.26822">
        <ele>2169</ele>
        <time>2020-07-27T15:46:02.034Z</time>
      </trkpt>
      <trkpt lat="42.81367" lon="0.2682">
        <ele>2169</ele>
        <time>2020-07-27T15:46:03.034Z</time>
      </trkpt>
      <trkpt lat="42.81367" lon="0.26818">
        <ele>2170</ele>
        <time>2020-07-27T15:46:04.034Z</time>
      </trkpt>
      <trkpt lat="42.81368" lon="0.26817">
        <ele>2170</ele>
        <time>2020-07-27T15:46:05.034Z</time>
      </trkpt>
      <trkpt lat="42.81368" lon="0.26814">
        <ele>2170</ele>
        <time>2020-07-27T15:46:06.034Z</time>
      </trkpt>
      <trkpt lat="42.81368" lon="0.26812">
        <ele>2170</ele>
        <time>2020-07-27T15:46:07.034Z</time>
      </trkpt>
      <trkpt lat="42.81368" lon="0.2681">
        <ele>2171</ele>
        <time>2020-07-27T15:46:08.034Z</time>
      </trkpt>
      <trkpt lat="42.81369" lon="0.26808">
        <ele>2171</ele>
        <time>2020-07-27T15:46:09.034Z</time>
      </trkpt>
      <trkpt lat="42.81369" lon="0.26806">
        <ele>2172</ele>
        <time>2020-07-27T15:46:10.034Z</time>
      </trkpt>
      <trkpt lat="42.81369" lon="0.26804">
        <ele>2172</ele>
        <time>2020-07-27T15:46:11.034Z</time>
      </trkpt>
      <trkpt lat="42.81369" lon="0.26802">
        <ele>2172</ele>
        <time>2020-07-27T15:46:12.034Z</time>
      </trkpt>
      <trkpt lat="42.81369" lon="0.268">
        <ele>2172</ele>
        <time>2020-07-27T15:46:13.034Z</time>
      </trkpt>
      <trkpt lat="42.81369" lon="0.26798">
        <ele>2172</ele>
        <time>2020-07-27T15:46:14.034Z</time>
      </trkpt>
      <trkpt lat="42.81369" lon="0.26796">
        <ele>2172</ele>
        <time>2020-07-27T15:46:15.034Z</time>
      </trkpt>
      <trkpt lat="42.81369" lon="0.26794">
        <ele>2172</ele>
        <time>2020-07-27T15:46:16.034Z</time>
      </trkpt>
      <trkpt lat="42.8137" lon="0.26792">
        <ele>2173</ele>
        <time>2020-07-27T15:46:17.034Z</time>
      </trkpt>
      <trkpt lat="42.8137" lon="0.2679">
        <ele>2173</ele>
        <time>2020-07-27T15:46:18.034Z</time>
      </trkpt>
      <trkpt lat="42.8137" lon="0.26789">
        <ele>2173</ele>
        <time>2020-07-27T15:46:19.034Z</time>
      </trkpt>
      <trkpt lat="42.81371" lon="0.26787">
        <ele>2173</ele>
        <time>2020-07-27T15:46:20.034Z</time>
      </trkpt>
      <trkpt lat="42.81371" lon="0.26785">
        <ele>2174</ele>
        <time>2020-07-27T15:46:21.034Z</time>
      </trkpt>
      <trkpt lat="42.81371" lon="0.26783">
        <ele>2174</ele>
        <time>2020-07-27T15:46:22.034Z</time>
      </trkpt>
      <trkpt lat="42.81371" lon="0.26781">
        <ele>2174</ele>
        <time>2020-07-27T15:46:23.034Z</time>
      </trkpt>
      <trkpt lat="42.81371" lon="0.26779">
        <ele>2174</ele>
        <time>2020-07-27T15:46:24.034Z</time>
      </trkpt>
      <trkpt lat="42.81371" lon="0.26777">
        <ele>2175</ele>
        <time>2020-07-27T15:46:25.034Z</time>
      </trkpt>
      <trkpt lat="42.81371" lon="0.26775">
        <ele>2175</ele>
        <time>2020-07-27T15:46:26.034Z</time>
      </trkpt>
      <trkpt lat="42.81371" lon="0.26772">
        <ele>2176</ele>
        <time>2020-07-27T15:46:27.034Z</time>
      </trkpt>
      <trkpt lat="42.81371" lon="0.26769">
        <ele>2176</ele>
        <time>2020-07-27T15:46:28.034Z</time>
      </trkpt>
      <trkpt lat="42.81371" lon="0.26767">
        <ele>2176</ele>
        <time>2020-07-27T15:46:29.034Z</time>
      </trkpt>
      <trkpt lat="42.81371" lon="0.26764">
        <ele>2177</ele>
        <time>2020-07-27T15:46:30.034Z</time>
      </trkpt>
      <trkpt lat="42.81371" lon="0.26761">
        <ele>2177</ele>
        <time>2020-07-27T15:46:31.034Z</time>
      </trkpt>
      <trkpt lat="42.81371" lon="0.26758">
        <ele>2178</ele>
        <time>2020-07-27T15:46:32.034Z</time>
      </trkpt>
      <trkpt lat="42.81371" lon="0.26755">
        <ele>2178</ele>
        <time>2020-07-27T15:46:33.034Z</time>
      </trkpt>
      <trkpt lat="42.81371" lon="0.26753">
        <ele>2178</ele>
        <time>2020-07-27T15:46:34.034Z</time>
      </trkpt>
      <trkpt lat="42.81371" lon="0.2675">
        <ele>2179</ele>
        <time>2020-07-27T15:46:35.034Z</time>
      </trkpt>
      <trkpt lat="42.81371" lon="0.26748">
        <ele>2179</ele>
        <time>2020-07-27T15:46:36.034Z</time>
      </trkpt>
      <trkpt lat="42.81371" lon="0.26746">
        <ele>2179</ele>
        <time>2020-07-27T15:46:37.034Z</time>
      </trkpt>
      <trkpt lat="42.81371" lon="0.26744">
        <ele>2180</ele>
        <time>2020-07-27T15:46:38.034Z</time>
      </trkpt>
      <trkpt lat="42.81371" lon="0.26742">
        <ele>2179</ele>
        <time>2020-07-27T15:46:39.034Z</time>
      </trkpt>
      <trkpt lat="42.81371" lon="0.2674">
        <ele>2179</ele>
        <time>2020-07-27T15:46:40.034Z</time>
      </trkpt>
      <trkpt lat="42.81371" lon="0.26738">
        <ele>2180</ele>
        <time>2020-07-27T15:46:41.034Z</time>
      </trkpt>
      <trkpt lat="42.81371" lon="0.26736">
        <ele>2180</ele>
        <time>2020-07-27T15:46:42.034Z</time>
      </trkpt>
      <trkpt lat="42.81371" lon="0.26735">
        <ele>2180</ele>
        <time>2020-07-27T15:46:43.034Z</time>
      </trkpt>
      <trkpt lat="42.81371" lon="0.26733">
        <ele>2180</ele>
        <time>2020-07-27T15:46:44.034Z</time>
      </trkpt>
      <trkpt lat="42.81371" lon="0.26731">
        <ele>2180</ele>
        <time>2020-07-27T15:46:45.034Z</time>
      </trkpt>
      <trkpt lat="42.81371" lon="0.26729">
        <ele>2180</ele>
        <time>2020-07-27T15:46:46.034Z</time>
      </trkpt>
      <trkpt lat="42.81371" lon="0.26727">
        <ele>2180</ele>
        <time>2020-07-27T15:46:47.034Z</time>
      </trkpt>
      <trkpt lat="42.81371" lon="0.26725">
        <ele>2181</ele>
        <time>2020-07-27T15:46:48.034Z</time>
      </trkpt>
      <trkpt lat="42.8137" lon="0.26723">
        <ele>2182</ele>
        <time>2020-07-27T15:46:49.034Z</time>
      </trkpt>
      <trkpt lat="42.8137" lon="0.26721">
        <ele>2182</ele>
        <time>2020-07-27T15:46:50.034Z</time>
      </trkpt>
      <trkpt lat="42.8137" lon="0.26718">
        <ele>2182</ele>
        <time>2020-07-27T15:46:51.034Z</time>
      </trkpt>
      <trkpt lat="42.8137" lon="0.26716">
        <ele>2183</ele>
        <time>2020-07-27T15:46:52.034Z</time>
      </trkpt>
      <trkpt lat="42.8137" lon="0.26714">
        <ele>2182</ele>
        <time>2020-07-27T15:46:53.034Z</time>
      </trkpt>
      <trkpt lat="42.8137" lon="0.26713">
        <ele>2182</ele>
        <time>2020-07-27T15:46:54.034Z</time>
      </trkpt>
      <trkpt lat="42.81369" lon="0.26711">
        <ele>2182</ele>
        <time>2020-07-27T15:46:55.034Z</time>
      </trkpt>
      <trkpt lat="42.81369" lon="0.26709">
        <ele>2182</ele>
        <time>2020-07-27T15:46:56.034Z</time>
      </trkpt>
      <trkpt lat="42.81369" lon="0.26708">
        <ele>2182</ele>
        <time>2020-07-27T15:46:57.034Z</time>
      </trkpt>
      <trkpt lat="42.81369" lon="0.26706">
        <ele>2183</ele>
        <time>2020-07-27T15:46:58.034Z</time>
      </trkpt>
      <trkpt lat="42.81369" lon="0.26704">
        <ele>2183</ele>
        <time>2020-07-27T15:46:59.034Z</time>
      </trkpt>
      <trkpt lat="42.81368" lon="0.26702">
        <ele>2183</ele>
        <time>2020-07-27T15:47:00.034Z</time>
      </trkpt>
      <trkpt lat="42.81368" lon="0.267">
        <ele>2183</ele>
        <time>2020-07-27T15:47:01.034Z</time>
      </trkpt>
      <trkpt lat="42.81368" lon="0.26698">
        <ele>2183</ele>
        <time>2020-07-27T15:47:02.034Z</time>
      </trkpt>
      <trkpt lat="42.81368" lon="0.26697">
        <ele>2183</ele>
        <time>2020-07-27T15:47:03.034Z</time>
      </trkpt>
      <trkpt lat="42.81368" lon="0.26695">
        <ele>2184</ele>
        <time>2020-07-27T15:47:04.034Z</time>
      </trkpt>
      <trkpt lat="42.81368" lon="0.26694">
        <ele>2184</ele>
        <time>2020-07-27T15:47:05.034Z</time>
      </trkpt>
      <trkpt lat="42.81368" lon="0.26692">
        <ele>2185</ele>
        <time>2020-07-27T15:47:06.034Z</time>
      </trkpt>
      <trkpt lat="42.81368" lon="0.26691">
        <ele>2185</ele>
        <time>2020-07-27T15:47:07.034Z</time>
      </trkpt>
      <trkpt lat="42.81368" lon="0.26689">
        <ele>2185</ele>
        <time>2020-07-27T15:47:08.034Z</time>
      </trkpt>
      <trkpt lat="42.81368" lon="0.26688">
        <ele>2185</ele>
        <time>2020-07-27T15:47:09.034Z</time>
      </trkpt>
      <trkpt lat="42.81368" lon="0.26686">
        <ele>2185</ele>
        <time>2020-07-27T15:47:10.034Z</time>
      </trkpt>
      <trkpt lat="42.81367" lon="0.26685">
        <ele>2186</ele>
        <time>2020-07-27T15:47:11.034Z</time>
      </trkpt>
      <trkpt lat="42.81367" lon="0.26683">
        <ele>2186</ele>
        <time>2020-07-27T15:47:12.034Z</time>
      </trkpt>
      <trkpt lat="42.81367" lon="0.26681">
        <ele>2186</ele>
        <time>2020-07-27T15:47:13.034Z</time>
      </trkpt>
      <trkpt lat="42.81367" lon="0.2668">
        <ele>2187</ele>
        <time>2020-07-27T15:47:14.034Z</time>
      </trkpt>
      <trkpt lat="42.81367" lon="0.26678">
        <ele>2187</ele>
        <time>2020-07-27T15:47:15.034Z</time>
      </trkpt>
      <trkpt lat="42.81367" lon="0.26677">
        <ele>2187</ele>
        <time>2020-07-27T15:47:16.034Z</time>
      </trkpt>
      <trkpt lat="42.81367" lon="0.26675">
        <ele>2187</ele>
        <time>2020-07-27T15:47:17.034Z</time>
      </trkpt>
      <trkpt lat="42.81367" lon="0.26674">
        <ele>2187</ele>
        <time>2020-07-27T15:47:18.034Z</time>
      </trkpt>
      <trkpt lat="42.81367" lon="0.26672">
        <ele>2188</ele>
        <time>2020-07-27T15:47:19.034Z</time>
      </trkpt>
      <trkpt lat="42.81366" lon="0.26671">
        <ele>2188</ele>
        <time>2020-07-27T15:47:20.034Z</time>
      </trkpt>
      <trkpt lat="42.81366" lon="0.26669">
        <ele>2188</ele>
        <time>2020-07-27T15:47:21.034Z</time>
      </trkpt>
      <trkpt lat="42.81366" lon="0.26668">
        <ele>2189</ele>
        <time>2020-07-27T15:47:22.034Z</time>
      </trkpt>
      <trkpt lat="42.81366" lon="0.26666">
        <ele>2190</ele>
        <time>2020-07-27T15:47:23.034Z</time>
      </trkpt>
      <trkpt lat="42.81365" lon="0.26664">
        <ele>2190</ele>
        <time>2020-07-27T15:47:24.034Z</time>
      </trkpt>
      <trkpt lat="42.81365" lon="0.26663">
        <ele>2191</ele>
        <time>2020-07-27T15:47:25.034Z</time>
      </trkpt>
      <trkpt lat="42.81365" lon="0.26661">
        <ele>2191</ele>
        <time>2020-07-27T15:47:26.034Z</time>
      </trkpt>
      <trkpt lat="42.81365" lon="0.26659">
        <ele>2191</ele>
        <time>2020-07-27T15:47:27.034Z</time>
      </trkpt>
      <trkpt lat="42.81364" lon="0.26658">
        <ele>2191</ele>
        <time>2020-07-27T15:47:28.034Z</time>
      </trkpt>
      <trkpt lat="42.81364" lon="0.26657">
        <ele>2191</ele>
        <time>2020-07-27T15:47:29.034Z</time>
      </trkpt>
      <trkpt lat="42.81363" lon="0.26655">
        <ele>2192</ele>
        <time>2020-07-27T15:47:30.034Z</time>
      </trkpt>
      <trkpt lat="42.81363" lon="0.26653">
        <ele>2193</ele>
        <time>2020-07-27T15:47:31.034Z</time>
      </trkpt>
      <trkpt lat="42.81363" lon="0.26652">
        <ele>2193</ele>
        <time>2020-07-27T15:47:32.034Z</time>
      </trkpt>
      <trkpt lat="42.81363" lon="0.2665">
        <ele>2194</ele>
        <time>2020-07-27T15:47:33.034Z</time>
      </trkpt>
      <trkpt lat="42.81363" lon="0.26648">
        <ele>2195</ele>
        <time>2020-07-27T15:47:34.034Z</time>
      </trkpt>
      <trkpt lat="42.81363" lon="0.26646">
        <ele>2195</ele>
        <time>2020-07-27T15:47:35.034Z</time>
      </trkpt>
      <trkpt lat="42.81363" lon="0.26645">
        <ele>2195</ele>
        <time>2020-07-27T15:47:36.034Z</time>
      </trkpt>
      <trkpt lat="42.81363" lon="0.26644">
        <ele>2194</ele>
        <time>2020-07-27T15:47:37.034Z</time>
      </trkpt>
      <trkpt lat="42.81363" lon="0.26642">
        <ele>2195</ele>
        <time>2020-07-27T15:47:38.034Z</time>
      </trkpt>
      <trkpt lat="42.81362" lon="0.26641">
        <ele>2195</ele>
        <time>2020-07-27T15:47:39.034Z</time>
      </trkpt>
      <trkpt lat="42.81362" lon="0.2664">
        <ele>2195</ele>
        <time>2020-07-27T15:47:40.034Z</time>
      </trkpt>
      <trkpt lat="42.81362" lon="0.26638">
        <ele>2196</ele>
        <time>2020-07-27T15:47:41.034Z</time>
      </trkpt>
      <trkpt lat="42.81362" lon="0.26637">
        <ele>2196</ele>
        <time>2020-07-27T15:47:42.034Z</time>
      </trkpt>
      <trkpt lat="42.81362" lon="0.26635">
        <ele>2196</ele>
        <time>2020-07-27T15:47:43.034Z</time>
      </trkpt>
      <trkpt lat="42.81362" lon="0.26634">
        <ele>2196</ele>
        <time>2020-07-27T15:47:44.034Z</time>
      </trkpt>
      <trkpt lat="42.81362" lon="0.26632">
        <ele>2196</ele>
        <time>2020-07-27T15:47:45.034Z</time>
      </trkpt>
      <trkpt lat="42.81362" lon="0.2663">
        <ele>2197</ele>
        <time>2020-07-27T15:47:46.034Z</time>
      </trkpt>
      <trkpt lat="42.81362" lon="0.26629">
        <ele>2197</ele>
        <time>2020-07-27T15:47:47.034Z</time>
      </trkpt>
      <trkpt lat="42.81361" lon="0.26627">
        <ele>2197</ele>
        <time>2020-07-27T15:47:48.034Z</time>
      </trkpt>
      <trkpt lat="42.81361" lon="0.26625">
        <ele>2198</ele>
        <time>2020-07-27T15:47:49.034Z</time>
      </trkpt>
      <trkpt lat="42.81361" lon="0.26624">
        <ele>2198</ele>
        <time>2020-07-27T15:47:50.034Z</time>
      </trkpt>
      <trkpt lat="42.8136" lon="0.26623">
        <ele>2199</ele>
        <time>2020-07-27T15:47:51.034Z</time>
      </trkpt>
      <trkpt lat="42.8136" lon="0.26621">
        <ele>2199</ele>
        <time>2020-07-27T15:47:52.034Z</time>
      </trkpt>
      <trkpt lat="42.8136" lon="0.26619">
        <ele>2200</ele>
        <time>2020-07-27T15:47:53.034Z</time>
      </trkpt>
      <trkpt lat="42.8136" lon="0.26617">
        <ele>2200</ele>
        <time>2020-07-27T15:47:54.034Z</time>
      </trkpt>
      <trkpt lat="42.8136" lon="0.26615">
        <ele>2201</ele>
        <time>2020-07-27T15:47:55.034Z</time>
      </trkpt>
      <trkpt lat="42.8136" lon="0.26614">
        <ele>2201</ele>
        <time>2020-07-27T15:47:56.034Z</time>
      </trkpt>
      <trkpt lat="42.8136" lon="0.26612">
        <ele>2202</ele>
        <time>2020-07-27T15:47:57.034Z</time>
      </trkpt>
      <trkpt lat="42.8136" lon="0.26611">
        <ele>2202</ele>
        <time>2020-07-27T15:47:58.034Z</time>
      </trkpt>
      <trkpt lat="42.8136" lon="0.26609">
        <ele>2202</ele>
        <time>2020-07-27T15:47:59.034Z</time>
      </trkpt>
      <trkpt lat="42.8136" lon="0.26608">
        <ele>2203</ele>
        <time>2020-07-27T15:48:00.034Z</time>
      </trkpt>
      <trkpt lat="42.8136" lon="0.26606">
        <ele>2203</ele>
        <time>2020-07-27T15:48:01.034Z</time>
      </trkpt>
      <trkpt lat="42.81359" lon="0.26604">
        <ele>2203</ele>
        <time>2020-07-27T15:48:02.034Z</time>
      </trkpt>
      <trkpt lat="42.81359" lon="0.26603">
        <ele>2203</ele>
        <time>2020-07-27T15:48:03.034Z</time>
      </trkpt>
      <trkpt lat="42.81359" lon="0.26601">
        <ele>2204</ele>
        <time>2020-07-27T15:48:04.034Z</time>
      </trkpt>
      <trkpt lat="42.81359" lon="0.26599">
        <ele>2204</ele>
        <time>2020-07-27T15:48:05.034Z</time>
      </trkpt>
      <trkpt lat="42.8136" lon="0.26597">
        <ele>2204</ele>
        <time>2020-07-27T15:48:06.034Z</time>
      </trkpt>
      <trkpt lat="42.8136" lon="0.26595">
        <ele>2205</ele>
        <time>2020-07-27T15:48:07.034Z</time>
      </trkpt>
      <trkpt lat="42.8136" lon="0.26593">
        <ele>2205</ele>
        <time>2020-07-27T15:48:08.034Z</time>
      </trkpt>
      <trkpt lat="42.8136" lon="0.2659">
        <ele>2205</ele>
        <time>2020-07-27T15:48:09.034Z</time>
      </trkpt>
      <trkpt lat="42.8136" lon="0.26588">
        <ele>2206</ele>
        <time>2020-07-27T15:48:10.034Z</time>
      </trkpt>
      <trkpt lat="42.81361" lon="0.26586">
        <ele>2206</ele>
        <time>2020-07-27T15:48:11.034Z</time>
      </trkpt>
      <trkpt lat="42.81361" lon="0.26583">
        <ele>2206</ele>
        <time>2020-07-27T15:48:12.034Z</time>
      </trkpt>
      <trkpt lat="42.81361" lon="0.26581">
        <ele>2206</ele>
        <time>2020-07-27T15:48:13.034Z</time>
      </trkpt>
      <trkpt lat="42.81361" lon="0.26579">
        <ele>2207</ele>
        <time>2020-07-27T15:48:14.034Z</time>
      </trkpt>
      <trkpt lat="42.81361" lon="0.26577">
        <ele>2208</ele>
        <time>2020-07-27T15:48:15.034Z</time>
      </trkpt>
      <trkpt lat="42.81361" lon="0.26575">
        <ele>2208</ele>
        <time>2020-07-27T15:48:16.034Z</time>
      </trkpt>
      <trkpt lat="42.81361" lon="0.26573">
        <ele>2208</ele>
        <time>2020-07-27T15:48:17.034Z</time>
      </trkpt>
      <trkpt lat="42.81361" lon="0.26571">
        <ele>2209</ele>
        <time>2020-07-27T15:48:18.034Z</time>
      </trkpt>
      <trkpt lat="42.81362" lon="0.26569">
        <ele>2209</ele>
        <time>2020-07-27T15:48:19.034Z</time>
      </trkpt>
      <trkpt lat="42.81362" lon="0.26567">
        <ele>2209</ele>
        <time>2020-07-27T15:48:20.034Z</time>
      </trkpt>
      <trkpt lat="42.81362" lon="0.26566">
        <ele>2210</ele>
        <time>2020-07-27T15:48:21.034Z</time>
      </trkpt>
      <trkpt lat="42.81362" lon="0.26564">
        <ele>2210</ele>
        <time>2020-07-27T15:48:22.034Z</time>
      </trkpt>
      <trkpt lat="42.81361" lon="0.26563">
        <ele>2210</ele>
        <time>2020-07-27T15:48:23.034Z</time>
      </trkpt>
      <trkpt lat="42.81361" lon="0.26561">
        <ele>2211</ele>
        <time>2020-07-27T15:48:24.034Z</time>
      </trkpt>
      <trkpt lat="42.81361" lon="0.2656">
        <ele>2211</ele>
        <time>2020-07-27T15:48:25.034Z</time>
      </trkpt>
      <trkpt lat="42.81361" lon="0.26558">
        <ele>2211</ele>
        <time>2020-07-27T15:48:26.034Z</time>
      </trkpt>
      <trkpt lat="42.81361" lon="0.26557">
        <ele>2212</ele>
        <time>2020-07-27T15:48:27.034Z</time>
      </trkpt>
      <trkpt lat="42.8136" lon="0.26556">
        <ele>2211</ele>
        <time>2020-07-27T15:48:28.034Z</time>
      </trkpt>
      <trkpt lat="42.8136" lon="0.26554">
        <ele>2212</ele>
        <time>2020-07-27T15:48:29.034Z</time>
      </trkpt>
      <trkpt lat="42.8136" lon="0.26553">
        <ele>2212</ele>
        <time>2020-07-27T15:48:30.034Z</time>
      </trkpt>
      <trkpt lat="42.81359" lon="0.26552">
        <ele>2213</ele>
        <time>2020-07-27T15:48:31.034Z</time>
      </trkpt>
      <trkpt lat="42.81358" lon="0.2655">
        <ele>2213</ele>
        <time>2020-07-27T15:48:32.034Z</time>
      </trkpt>
      <trkpt lat="42.81358" lon="0.26549">
        <ele>2213</ele>
        <time>2020-07-27T15:48:33.034Z</time>
      </trkpt>
      <trkpt lat="42.81357" lon="0.26548">
        <ele>2213</ele>
        <time>2020-07-27T15:48:34.034Z</time>
      </trkpt>
      <trkpt lat="42.81356" lon="0.26547">
        <ele>2214</ele>
        <time>2020-07-27T15:48:35.034Z</time>
      </trkpt>
      <trkpt lat="42.81356" lon="0.26546">
        <ele>2214</ele>
        <time>2020-07-27T15:48:36.034Z</time>
      </trkpt>
      <trkpt lat="42.81355" lon="0.26545">
        <ele>2214</ele>
        <time>2020-07-27T15:48:37.034Z</time>
      </trkpt>
      <trkpt lat="42.81354" lon="0.26544">
        <ele>2214</ele>
        <time>2020-07-27T15:48:38.034Z</time>
      </trkpt>
      <trkpt lat="42.81353" lon="0.26544">
        <ele>2215</ele>
        <time>2020-07-27T15:48:39.034Z</time>
      </trkpt>
      <trkpt lat="42.81352" lon="0.26543">
        <ele>2215</ele>
        <time>2020-07-27T15:48:40.034Z</time>
      </trkpt>
      <trkpt lat="42.81352" lon="0.26542">
        <ele>2215</ele>
        <time>2020-07-27T15:48:41.034Z</time>
      </trkpt>
      <trkpt lat="42.81351" lon="0.26541">
        <ele>2215</ele>
        <time>2020-07-27T15:48:42.034Z</time>
      </trkpt>
      <trkpt lat="42.8135" lon="0.26541">
        <ele>2216</ele>
        <time>2020-07-27T15:48:43.034Z</time>
      </trkpt>
      <trkpt lat="42.81348" lon="0.2654">
        <ele>2217</ele>
        <time>2020-07-27T15:48:44.034Z</time>
      </trkpt>
      <trkpt lat="42.81347" lon="0.26538">
        <ele>2217</ele>
        <time>2020-07-27T15:48:45.034Z</time>
      </trkpt>
      <trkpt lat="42.81346" lon="0.26537">
        <ele>2217</ele>
        <time>2020-07-27T15:48:46.034Z</time>
      </trkpt>
      <trkpt lat="42.81329" lon="0.26491">
        <ele>2220</ele>
        <time>2020-07-27T15:48:47.112Z</time>
      </trkpt>
      <trkpt lat="42.81334" lon="0.2649">
        <ele>2219</ele>
        <time>2020-07-27T15:48:48.112Z</time>
      </trkpt>
      <trkpt lat="42.8134" lon="0.26489">
        <ele>2218</ele>
        <time>2020-07-27T15:48:49.112Z</time>
      </trkpt>
      <trkpt lat="42.81342" lon="0.26489">
        <ele>2218</ele>
        <time>2020-07-27T15:48:50.112Z</time>
      </trkpt>
      <trkpt lat="42.81345" lon="0.26489">
        <ele>2218</ele>
        <time>2020-07-27T15:48:51.112Z</time>
      </trkpt>
      <trkpt lat="42.81347" lon="0.26488">
        <ele>2218</ele>
        <time>2020-07-27T15:48:52.112Z</time>
      </trkpt>
      <trkpt lat="42.8135" lon="0.26488">
        <ele>2218</ele>
        <time>2020-07-27T15:48:53.112Z</time>
      </trkpt>
      <trkpt lat="42.81353" lon="0.26487">
        <ele>2218</ele>
        <time>2020-07-27T15:48:54.112Z</time>
      </trkpt>
      <trkpt lat="42.81356" lon="0.26487">
        <ele>2218</ele>
        <time>2020-07-27T15:48:55.112Z</time>
      </trkpt>
      <trkpt lat="42.81358" lon="0.26486">
        <ele>2217</ele>
        <time>2020-07-27T15:48:56.112Z</time>
      </trkpt>
      <trkpt lat="42.81361" lon="0.26485">
        <ele>2216</ele>
        <time>2020-07-27T15:48:57.112Z</time>
      </trkpt>
      <trkpt lat="42.81364" lon="0.26484">
        <ele>2216</ele>
        <time>2020-07-27T15:48:58.112Z</time>
      </trkpt>
      <trkpt lat="42.81367" lon="0.26482">
        <ele>2216</ele>
        <time>2020-07-27T15:48:59.112Z</time>
      </trkpt>
      <trkpt lat="42.8137" lon="0.26481">
        <ele>2215</ele>
        <time>2020-07-27T15:49:00.112Z</time>
      </trkpt>
      <trkpt lat="42.81372" lon="0.2648">
        <ele>2215</ele>
        <time>2020-07-27T15:49:01.112Z</time>
      </trkpt>
      <trkpt lat="42.81375" lon="0.2648">
        <ele>2215</ele>
        <time>2020-07-27T15:49:02.112Z</time>
      </trkpt>
      <trkpt lat="42.81378" lon="0.26479">
        <ele>2215</ele>
        <time>2020-07-27T15:49:03.112Z</time>
      </trkpt>
      <trkpt lat="42.81381" lon="0.26478">
        <ele>2215</ele>
        <time>2020-07-27T15:49:04.112Z</time>
      </trkpt>
      <trkpt lat="42.81383" lon="0.26478">
        <ele>2214</ele>
        <time>2020-07-27T15:49:05.112Z</time>
      </trkpt>
      <trkpt lat="42.81386" lon="0.26477">
        <ele>2214</ele>
        <time>2020-07-27T15:49:06.112Z</time>
      </trkpt>
      <trkpt lat="42.81389" lon="0.26477">
        <ele>2214</ele>
        <time>2020-07-27T15:49:07.112Z</time>
      </trkpt>
      <trkpt lat="42.81391" lon="0.26476">
        <ele>2215</ele>
        <time>2020-07-27T15:49:08.112Z</time>
      </trkpt>
      <trkpt lat="42.81393" lon="0.26476">
        <ele>2214</ele>
        <time>2020-07-27T15:49:09.112Z</time>
      </trkpt>
      <trkpt lat="42.81395" lon="0.26476">
        <ele>2214</ele>
        <time>2020-07-27T15:49:10.112Z</time>
      </trkpt>
      <trkpt lat="42.81397" lon="0.26476">
        <ele>2213</ele>
        <time>2020-07-27T15:49:11.112Z</time>
      </trkpt>
      <trkpt lat="42.814" lon="0.26477">
        <ele>2217</ele>
        <time>2020-07-27T15:49:12.049Z</time>
      </trkpt>
      <trkpt lat="42.81398" lon="0.26478">
        <ele>2217</ele>
        <time>2020-07-27T15:49:13.049Z</time>
      </trkpt>
      <trkpt lat="42.81397" lon="0.26479">
        <ele>2217</ele>
        <time>2020-07-27T15:49:14.049Z</time>
      </trkpt>
      <trkpt lat="42.81395" lon="0.26479">
        <ele>2217</ele>
        <time>2020-07-27T15:49:15.049Z</time>
      </trkpt>
      <trkpt lat="42.81394" lon="0.26479">
        <ele>2217</ele>
        <time>2020-07-27T15:49:16.049Z</time>
      </trkpt>
      <trkpt lat="42.81391" lon="0.26479">
        <ele>2216</ele>
        <time>2020-07-27T15:49:17.049Z</time>
      </trkpt>
      <trkpt lat="42.81388" lon="0.26479">
        <ele>2215</ele>
        <time>2020-07-27T15:49:18.049Z</time>
      </trkpt>
      <trkpt lat="42.81385" lon="0.2648">
        <ele>2215</ele>
        <time>2020-07-27T15:49:19.049Z</time>
      </trkpt>
      <trkpt lat="42.81383" lon="0.2648">
        <ele>2215</ele>
        <time>2020-07-27T15:49:20.049Z</time>
      </trkpt>
      <trkpt lat="42.8138" lon="0.2648">
        <ele>2214</ele>
        <time>2020-07-27T15:49:21.049Z</time>
      </trkpt>
      <trkpt lat="42.81377" lon="0.2648">
        <ele>2214</ele>
        <time>2020-07-27T15:49:22.049Z</time>
      </trkpt>
      <trkpt lat="42.81374" lon="0.26481">
        <ele>2214</ele>
        <time>2020-07-27T15:49:23.049Z</time>
      </trkpt>
      <trkpt lat="42.81371" lon="0.26481">
        <ele>2214</ele>
        <time>2020-07-27T15:49:24.049Z</time>
      </trkpt>
      <trkpt lat="42.81368" lon="0.26481">
        <ele>2214</ele>
        <time>2020-07-27T15:49:25.049Z</time>
      </trkpt>
      <trkpt lat="42.81366" lon="0.26482">
        <ele>2215</ele>
        <time>2020-07-27T15:49:26.049Z</time>
      </trkpt>
      <trkpt lat="42.81363" lon="0.26483">
        <ele>2216</ele>
        <time>2020-07-27T15:49:27.049Z</time>
      </trkpt>
      <trkpt lat="42.81361" lon="0.26484">
        <ele>2216</ele>
        <time>2020-07-27T15:49:28.049Z</time>
      </trkpt>
      <trkpt lat="42.81358" lon="0.26484">
        <ele>2216</ele>
        <time>2020-07-27T15:49:29.049Z</time>
      </trkpt>
      <trkpt lat="42.81356" lon="0.26485">
        <ele>2217</ele>
        <time>2020-07-27T15:49:30.049Z</time>
      </trkpt>
      <trkpt lat="42.81353" lon="0.26486">
        <ele>2218</ele>
        <time>2020-07-27T15:49:31.049Z</time>
      </trkpt>
      <trkpt lat="42.81351" lon="0.26487">
        <ele>2218</ele>
        <time>2020-07-27T15:49:32.049Z</time>
      </trkpt>
      <trkpt lat="42.81348" lon="0.26487">
        <ele>2218</ele>
        <time>2020-07-27T15:49:33.049Z</time>
      </trkpt>
      <trkpt lat="42.81346" lon="0.26488">
        <ele>2219</ele>
        <time>2020-07-27T15:49:34.049Z</time>
      </trkpt>
      <trkpt lat="42.81343" lon="0.26487">
        <ele>2219</ele>
        <time>2020-07-27T15:49:35.049Z</time>
      </trkpt>
      <trkpt lat="42.81341" lon="0.26485">
        <ele>2220</ele>
        <time>2020-07-27T15:49:36.049Z</time>
      </trkpt>
      <trkpt lat="42.8134" lon="0.26483">
        <ele>2220</ele>
        <time>2020-07-27T15:49:37.049Z</time>
      </trkpt>
      <trkpt lat="42.81339" lon="0.26481">
        <ele>2218</ele>
        <time>2020-07-27T15:49:38.049Z</time>
      </trkpt>
      <trkpt lat="42.8134" lon="0.26478">
        <ele>2218</ele>
        <time>2020-07-27T15:49:39.049Z</time>
      </trkpt>
      <trkpt lat="42.81342" lon="0.26475">
        <ele>2218</ele>
        <time>2020-07-27T15:49:40.049Z</time>
      </trkpt>
      <trkpt lat="42.81344" lon="0.26472">
        <ele>2218</ele>
        <time>2020-07-27T15:49:41.049Z</time>
      </trkpt>
      <trkpt lat="42.81346" lon="0.26469">
        <ele>2218</ele>
        <time>2020-07-27T15:49:42.049Z</time>
      </trkpt>
      <trkpt lat="42.81347" lon="0.26467">
        <ele>2218</ele>
        <time>2020-07-27T15:49:43.049Z</time>
      </trkpt>
      <trkpt lat="42.81349" lon="0.26464">
        <ele>2218</ele>
        <time>2020-07-27T15:49:44.049Z</time>
      </trkpt>
      <trkpt lat="42.8135" lon="0.26461">
        <ele>2218</ele>
        <time>2020-07-27T15:49:45.049Z</time>
      </trkpt>
      <trkpt lat="42.81351" lon="0.26458">
        <ele>2219</ele>
        <time>2020-07-27T15:49:46.049Z</time>
      </trkpt>
      <trkpt lat="42.81352" lon="0.26454">
        <ele>2219</ele>
        <time>2020-07-27T15:49:47.049Z</time>
      </trkpt>
      <trkpt lat="42.81353" lon="0.26451">
        <ele>2220</ele>
        <time>2020-07-27T15:49:48.049Z</time>
      </trkpt>
      <trkpt lat="42.81354" lon="0.26447">
        <ele>2220</ele>
        <time>2020-07-27T15:49:49.049Z</time>
      </trkpt>
      <trkpt lat="42.81354" lon="0.26444">
        <ele>2221</ele>
        <time>2020-07-27T15:49:50.049Z</time>
      </trkpt>
      <trkpt lat="42.81355" lon="0.26441">
        <ele>2221</ele>
        <time>2020-07-27T15:49:51.049Z</time>
      </trkpt>
      <trkpt lat="42.81356" lon="0.26438">
        <ele>2221</ele>
        <time>2020-07-27T15:49:52.049Z</time>
      </trkpt>
      <trkpt lat="42.81357" lon="0.26435">
        <ele>2222</ele>
        <time>2020-07-27T15:49:53.049Z</time>
      </trkpt>
      <trkpt lat="42.81357" lon="0.26433">
        <ele>2223</ele>
        <time>2020-07-27T15:49:54.049Z</time>
      </trkpt>
      <trkpt lat="42.81359" lon="0.2643">
        <ele>2223</ele>
        <time>2020-07-27T15:49:55.049Z</time>
      </trkpt>
      <trkpt lat="42.8136" lon="0.26427">
        <ele>2224</ele>
        <time>2020-07-27T15:49:56.049Z</time>
      </trkpt>
      <trkpt lat="42.81361" lon="0.26425">
        <ele>2224</ele>
        <time>2020-07-27T15:49:57.049Z</time>
      </trkpt>
      <trkpt lat="42.81363" lon="0.26422">
        <ele>2225</ele>
        <time>2020-07-27T15:49:58.049Z</time>
      </trkpt>
      <trkpt lat="42.81364" lon="0.26419">
        <ele>2227</ele>
        <time>2020-07-27T15:49:59.049Z</time>
      </trkpt>
      <trkpt lat="42.81365" lon="0.26416">
        <ele>2227</ele>
        <time>2020-07-27T15:50:00.049Z</time>
      </trkpt>
      <trkpt lat="42.81366" lon="0.26414">
        <ele>2228</ele>
        <time>2020-07-27T15:50:01.049Z</time>
      </trkpt>
      <trkpt lat="42.81367" lon="0.26411">
        <ele>2228</ele>
        <time>2020-07-27T15:50:02.049Z</time>
      </trkpt>
      <trkpt lat="42.81367" lon="0.26408">
        <ele>2228</ele>
        <time>2020-07-27T15:50:03.049Z</time>
      </trkpt>
      <trkpt lat="42.81368" lon="0.26405">
        <ele>2228</ele>
        <time>2020-07-27T15:50:04.049Z</time>
      </trkpt>
      <trkpt lat="42.81368" lon="0.26402">
        <ele>2228</ele>
        <time>2020-07-27T15:50:05.049Z</time>
      </trkpt>
      <trkpt lat="42.81368" lon="0.264">
        <ele>2229</ele>
        <time>2020-07-27T15:50:06.049Z</time>
      </trkpt>
      <trkpt lat="42.81368" lon="0.26397">
        <ele>2229</ele>
        <time>2020-07-27T15:50:07.049Z</time>
      </trkpt>
      <trkpt lat="42.81369" lon="0.26394">
        <ele>2229</ele>
        <time>2020-07-27T15:50:08.049Z</time>
      </trkpt>
      <trkpt lat="42.8137" lon="0.26391">
        <ele>2229</ele>
        <time>2020-07-27T15:50:09.049Z</time>
      </trkpt>
      <trkpt lat="42.8137" lon="0.26388">
        <ele>2229</ele>
        <time>2020-07-27T15:50:10.049Z</time>
      </trkpt>
      <trkpt lat="42.8137" lon="0.26385">
        <ele>2230</ele>
        <time>2020-07-27T15:50:11.049Z</time>
      </trkpt>
      <trkpt lat="42.8137" lon="0.26382">
        <ele>2230</ele>
        <time>2020-07-27T15:50:12.049Z</time>
      </trkpt>
      <trkpt lat="42.8137" lon="0.26378">
        <ele>2230</ele>
        <time>2020-07-27T15:50:13.049Z</time>
      </trkpt>
      <trkpt lat="42.8137" lon="0.26376">
        <ele>2230</ele>
        <time>2020-07-27T15:50:14.049Z</time>
      </trkpt>
      <trkpt lat="42.8137" lon="0.26374">
        <ele>2231</ele>
        <time>2020-07-27T15:50:15.049Z</time>
      </trkpt>
      <trkpt lat="42.8137" lon="0.26373">
        <ele>2232</ele>
        <time>2020-07-27T15:50:16.049Z</time>
      </trkpt>
      <trkpt lat="42.81371" lon="0.26371">
        <ele>2232</ele>
        <time>2020-07-27T15:50:17.049Z</time>
      </trkpt>
      <trkpt lat="42.81371" lon="0.26369">
        <ele>2233</ele>
        <time>2020-07-27T15:50:18.049Z</time>
      </trkpt>
      <trkpt lat="42.81371" lon="0.26367">
        <ele>2233</ele>
        <time>2020-07-27T15:50:19.049Z</time>
      </trkpt>
      <trkpt lat="42.81372" lon="0.26366">
        <ele>2234</ele>
        <time>2020-07-27T15:50:20.049Z</time>
      </trkpt>
      <trkpt lat="42.81372" lon="0.26364">
        <ele>2235</ele>
        <time>2020-07-27T15:50:21.049Z</time>
      </trkpt>
      <trkpt lat="42.81372" lon="0.26363">
        <ele>2234</ele>
        <time>2020-07-27T15:50:22.049Z</time>
      </trkpt>
      <trkpt lat="42.81372" lon="0.26362">
        <ele>2234</ele>
        <time>2020-07-27T15:50:23.049Z</time>
      </trkpt>
      <trkpt lat="42.81372" lon="0.2636">
        <ele>2235</ele>
        <time>2020-07-27T15:50:24.049Z</time>
      </trkpt>
      <trkpt lat="42.81372" lon="0.26359">
        <ele>2235</ele>
        <time>2020-07-27T15:50:25.049Z</time>
      </trkpt>
      <trkpt lat="42.81371" lon="0.26357">
        <ele>2235</ele>
        <time>2020-07-27T15:50:26.049Z</time>
      </trkpt>
      <trkpt lat="42.81371" lon="0.26355">
        <ele>2236</ele>
        <time>2020-07-27T15:50:27.049Z</time>
      </trkpt>
      <trkpt lat="42.8137" lon="0.26353">
        <ele>2236</ele>
        <time>2020-07-27T15:50:28.049Z</time>
      </trkpt>
      <trkpt lat="42.8137" lon="0.26351">
        <ele>2236</ele>
        <time>2020-07-27T15:50:29.049Z</time>
      </trkpt>
      <trkpt lat="42.8137" lon="0.26349">
        <ele>2237</ele>
        <time>2020-07-27T15:50:30.049Z</time>
      </trkpt>
      <trkpt lat="42.8137" lon="0.26348">
        <ele>2238</ele>
        <time>2020-07-27T15:50:31.049Z</time>
      </trkpt>
      <trkpt lat="42.8137" lon="0.26346">
        <ele>2238</ele>
        <time>2020-07-27T15:50:32.049Z</time>
      </trkpt>
      <trkpt lat="42.8137" lon="0.26345">
        <ele>2238</ele>
        <time>2020-07-27T15:50:33.049Z</time>
      </trkpt>
      <trkpt lat="42.8137" lon="0.26344">
        <ele>2238</ele>
        <time>2020-07-27T15:50:34.049Z</time>
      </trkpt>
      <trkpt lat="42.8137" lon="0.26342">
        <ele>2238</ele>
        <time>2020-07-27T15:50:35.049Z</time>
      </trkpt>
      <trkpt lat="42.8137" lon="0.26341">
        <ele>2238</ele>
        <time>2020-07-27T15:50:36.049Z</time>
      </trkpt>
      <trkpt lat="42.8137" lon="0.26339">
        <ele>2238</ele>
        <time>2020-07-27T15:50:37.049Z</time>
      </trkpt>
      <trkpt lat="42.81371" lon="0.26337">
        <ele>2239</ele>
        <time>2020-07-27T15:50:38.049Z</time>
      </trkpt>
      <trkpt lat="42.81371" lon="0.26335">
        <ele>2239</ele>
        <time>2020-07-27T15:50:39.049Z</time>
      </trkpt>
      <trkpt lat="42.81371" lon="0.26334">
        <ele>2239</ele>
        <time>2020-07-27T15:50:40.049Z</time>
      </trkpt>
      <trkpt lat="42.81371" lon="0.26332">
        <ele>2240</ele>
        <time>2020-07-27T15:50:41.049Z</time>
      </trkpt>
      <trkpt lat="42.81371" lon="0.2633">
        <ele>2241</ele>
        <time>2020-07-27T15:50:42.049Z</time>
      </trkpt>
      <trkpt lat="42.81371" lon="0.26328">
        <ele>2242</ele>
        <time>2020-07-27T15:50:43.049Z</time>
      </trkpt>
      <trkpt lat="42.81371" lon="0.26326">
        <ele>2242</ele>
        <time>2020-07-27T15:50:44.049Z</time>
      </trkpt>
      <trkpt lat="42.81371" lon="0.26325">
        <ele>2243</ele>
        <time>2020-07-27T15:50:45.049Z</time>
      </trkpt>
      <trkpt lat="42.8137" lon="0.26322">
        <ele>2243</ele>
        <time>2020-07-27T15:50:46.049Z</time>
      </trkpt>
      <trkpt lat="42.8137" lon="0.2632">
        <ele>2244</ele>
        <time>2020-07-27T15:50:47.049Z</time>
      </trkpt>
      <trkpt lat="42.81369" lon="0.26319">
        <ele>2244</ele>
        <time>2020-07-27T15:50:48.049Z</time>
      </trkpt>
      <trkpt lat="42.81369" lon="0.26317">
        <ele>2244</ele>
        <time>2020-07-27T15:50:49.049Z</time>
      </trkpt>
      <trkpt lat="42.81369" lon="0.26316">
        <ele>2244</ele>
        <time>2020-07-27T15:50:50.049Z</time>
      </trkpt>
      <trkpt lat="42.81368" lon="0.26314">
        <ele>2245</ele>
        <time>2020-07-27T15:50:51.049Z</time>
      </trkpt>
      <trkpt lat="42.81368" lon="0.26312">
        <ele>2245</ele>
        <time>2020-07-27T15:50:52.049Z</time>
      </trkpt>
      <trkpt lat="42.81368" lon="0.2631">
        <ele>2245</ele>
        <time>2020-07-27T15:50:53.049Z</time>
      </trkpt>
      <trkpt lat="42.81367" lon="0.26308">
        <ele>2245</ele>
        <time>2020-07-27T15:50:54.049Z</time>
      </trkpt>
      <trkpt lat="42.81367" lon="0.26306">
        <ele>2246</ele>
        <time>2020-07-27T15:50:55.049Z</time>
      </trkpt>
      <trkpt lat="42.81367" lon="0.26304">
        <ele>2247</ele>
        <time>2020-07-27T15:50:56.049Z</time>
      </trkpt>
      <trkpt lat="42.81367" lon="0.26302">
        <ele>2247</ele>
        <time>2020-07-27T15:50:57.049Z</time>
      </trkpt>
      <trkpt lat="42.81367" lon="0.263">
        <ele>2247</ele>
        <time>2020-07-27T15:50:58.049Z</time>
      </trkpt>
      <trkpt lat="42.81367" lon="0.26298">
        <ele>2248</ele>
        <time>2020-07-27T15:50:59.049Z</time>
      </trkpt>
      <trkpt lat="42.81367" lon="0.26296">
        <ele>2249</ele>
        <time>2020-07-27T15:51:00.049Z</time>
      </trkpt>
      <trkpt lat="42.81367" lon="0.26294">
        <ele>2249</ele>
        <time>2020-07-27T15:51:01.049Z</time>
      </trkpt>
      <trkpt lat="42.81367" lon="0.26293">
        <ele>2250</ele>
        <time>2020-07-27T15:51:02.049Z</time>
      </trkpt>
      <trkpt lat="42.81368" lon="0.26291">
        <ele>2250</ele>
        <time>2020-07-27T15:51:03.049Z</time>
      </trkpt>
      <trkpt lat="42.81368" lon="0.2629">
        <ele>2251</ele>
        <time>2020-07-27T15:51:04.049Z</time>
      </trkpt>
      <trkpt lat="42.81368" lon="0.26288">
        <ele>2251</ele>
        <time>2020-07-27T15:51:05.049Z</time>
      </trkpt>
      <trkpt lat="42.81368" lon="0.26286">
        <ele>2252</ele>
        <time>2020-07-27T15:51:06.049Z</time>
      </trkpt>
      <trkpt lat="42.81368" lon="0.26284">
        <ele>2253</ele>
        <time>2020-07-27T15:51:07.049Z</time>
      </trkpt>
      <trkpt lat="42.81368" lon="0.26283">
        <ele>2253</ele>
        <time>2020-07-27T15:51:08.049Z</time>
      </trkpt>
      <trkpt lat="42.81368" lon="0.26281">
        <ele>2254</ele>
        <time>2020-07-27T15:51:09.049Z</time>
      </trkpt>
      <trkpt lat="42.81368" lon="0.26279">
        <ele>2255</ele>
        <time>2020-07-27T15:51:10.049Z</time>
      </trkpt>
      <trkpt lat="42.81368" lon="0.26278">
        <ele>2254</ele>
        <time>2020-07-27T15:51:11.049Z</time>
      </trkpt>
      <trkpt lat="42.81368" lon="0.26277">
        <ele>2254</ele>
        <time>2020-07-27T15:51:12.049Z</time>
      </trkpt>
      <trkpt lat="42.81368" lon="0.26275">
        <ele>2255</ele>
        <time>2020-07-27T15:51:13.049Z</time>
      </trkpt>
      <trkpt lat="42.81368" lon="0.26273">
        <ele>2255</ele>
        <time>2020-07-27T15:51:14.049Z</time>
      </trkpt>
      <trkpt lat="42.81368" lon="0.26272">
        <ele>2256</ele>
        <time>2020-07-27T15:51:15.049Z</time>
      </trkpt>
      <trkpt lat="42.81369" lon="0.2627">
        <ele>2256</ele>
        <time>2020-07-27T15:51:16.049Z</time>
      </trkpt>
      <trkpt lat="42.81369" lon="0.26267">
        <ele>2258</ele>
        <time>2020-07-27T15:51:17.049Z</time>
      </trkpt>
      <trkpt lat="42.81369" lon="0.26265">
        <ele>2258</ele>
        <time>2020-07-27T15:51:18.049Z</time>
      </trkpt>
      <trkpt lat="42.8137" lon="0.26262">
        <ele>2258</ele>
        <time>2020-07-27T15:51:19.049Z</time>
      </trkpt>
      <trkpt lat="42.8137" lon="0.2626">
        <ele>2259</ele>
        <time>2020-07-27T15:51:20.049Z</time>
      </trkpt>
      <trkpt lat="42.8137" lon="0.26258">
        <ele>2258</ele>
        <time>2020-07-27T15:51:21.049Z</time>
      </trkpt>
      <trkpt lat="42.8137" lon="0.26256">
        <ele>2258</ele>
        <time>2020-07-27T15:51:22.049Z</time>
      </trkpt>
      <trkpt lat="42.8137" lon="0.26254">
        <ele>2259</ele>
        <time>2020-07-27T15:51:23.049Z</time>
      </trkpt>
      <trkpt lat="42.8137" lon="0.26252">
        <ele>2260</ele>
        <time>2020-07-27T15:51:24.049Z</time>
      </trkpt>
      <trkpt lat="42.8137" lon="0.2625">
        <ele>2260</ele>
        <time>2020-07-27T15:51:25.049Z</time>
      </trkpt>
      <trkpt lat="42.8137" lon="0.26248">
        <ele>2261</ele>
        <time>2020-07-27T15:51:26.049Z</time>
      </trkpt>
      <trkpt lat="42.8137" lon="0.26247">
        <ele>2261</ele>
        <time>2020-07-27T15:51:27.049Z</time>
      </trkpt>
      <trkpt lat="42.8137" lon="0.26245">
        <ele>2261</ele>
        <time>2020-07-27T15:51:28.049Z</time>
      </trkpt>
      <trkpt lat="42.8137" lon="0.26243">
        <ele>2262</ele>
        <time>2020-07-27T15:51:29.049Z</time>
      </trkpt>
      <trkpt lat="42.8137" lon="0.26242">
        <ele>2262</ele>
        <time>2020-07-27T15:51:30.049Z</time>
      </trkpt>
      <trkpt lat="42.81371" lon="0.2624">
        <ele>2261</ele>
        <time>2020-07-27T15:51:31.049Z</time>
      </trkpt>
      <trkpt lat="42.81371" lon="0.26238">
        <ele>2262</ele>
        <time>2020-07-27T15:51:32.049Z</time>
      </trkpt>
      <trkpt lat="42.81371" lon="0.26236">
        <ele>2262</ele>
        <time>2020-07-27T15:51:33.049Z</time>
      </trkpt>
      <trkpt lat="42.81372" lon="0.26234">
        <ele>2262</ele>
        <time>2020-07-27T15:51:34.049Z</time>
      </trkpt>
      <trkpt lat="42.81372" lon="0.26233">
        <ele>2262</ele>
        <time>2020-07-27T15:51:35.049Z</time>
      </trkpt>
      <trkpt lat="42.81373" lon="0.26231">
        <ele>2263</ele>
        <time>2020-07-27T15:51:36.049Z</time>
      </trkpt>
      <trkpt lat="42.81373" lon="0.26229">
        <ele>2262</ele>
        <time>2020-07-27T15:51:37.049Z</time>
      </trkpt>
      <trkpt lat="42.81373" lon="0.26227">
        <ele>2262</ele>
        <time>2020-07-27T15:51:38.049Z</time>
      </trkpt>
      <trkpt lat="42.81373" lon="0.26225">
        <ele>2262</ele>
        <time>2020-07-27T15:51:39.049Z</time>
      </trkpt>
      <trkpt lat="42.81373" lon="0.26223">
        <ele>2262</ele>
        <time>2020-07-27T15:51:40.049Z</time>
      </trkpt>
      <trkpt lat="42.81373" lon="0.26221">
        <ele>2262</ele>
        <time>2020-07-27T15:51:41.049Z</time>
      </trkpt>
      <trkpt lat="42.81373" lon="0.26219">
        <ele>2262</ele>
        <time>2020-07-27T15:51:42.049Z</time>
      </trkpt>
      <trkpt lat="42.81373" lon="0.26217">
        <ele>2263</ele>
        <time>2020-07-27T15:51:43.049Z</time>
      </trkpt>
      <trkpt lat="42.81372" lon="0.26215">
        <ele>2263</ele>
        <time>2020-07-27T15:51:44.049Z</time>
      </trkpt>
      <trkpt lat="42.81372" lon="0.26212">
        <ele>2262</ele>
        <time>2020-07-27T15:51:45.049Z</time>
      </trkpt>
      <trkpt lat="42.81372" lon="0.2621">
        <ele>2262</ele>
        <time>2020-07-27T15:51:46.049Z</time>
      </trkpt>
      <trkpt lat="42.81372" lon="0.26207">
        <ele>2262</ele>
        <time>2020-07-27T15:51:47.049Z</time>
      </trkpt>
      <trkpt lat="42.81372" lon="0.26205">
        <ele>2263</ele>
        <time>2020-07-27T15:51:48.049Z</time>
      </trkpt>
      <trkpt lat="42.81372" lon="0.26203">
        <ele>2264</ele>
        <time>2020-07-27T15:51:49.049Z</time>
      </trkpt>
      <trkpt lat="42.81372" lon="0.26202">
        <ele>2264</ele>
        <time>2020-07-27T15:51:50.049Z</time>
      </trkpt>
      <trkpt lat="42.81372" lon="0.262">
        <ele>2264</ele>
        <time>2020-07-27T15:51:51.049Z</time>
      </trkpt>
      <trkpt lat="42.81373" lon="0.26199">
        <ele>2265</ele>
        <time>2020-07-27T15:51:52.049Z</time>
      </trkpt>
      <trkpt lat="42.81374" lon="0.26197">
        <ele>2265</ele>
        <time>2020-07-27T15:51:53.049Z</time>
      </trkpt>
      <trkpt lat="42.81374" lon="0.26196">
        <ele>2266</ele>
        <time>2020-07-27T15:51:54.049Z</time>
      </trkpt>
      <trkpt lat="42.81374" lon="0.26195">
        <ele>2266</ele>
        <time>2020-07-27T15:51:55.049Z</time>
      </trkpt>
      <trkpt lat="42.81375" lon="0.26194">
        <ele>2266</ele>
        <time>2020-07-27T15:51:56.049Z</time>
      </trkpt>
      <trkpt lat="42.81374" lon="0.26193">
        <ele>2266</ele>
        <time>2020-07-27T15:51:57.049Z</time>
      </trkpt>
      <trkpt lat="42.81374" lon="0.26191">
        <ele>2266</ele>
        <time>2020-07-27T15:51:58.049Z</time>
      </trkpt>
      <trkpt lat="42.81373" lon="0.26188">
        <ele>2266</ele>
        <time>2020-07-27T15:51:59.049Z</time>
      </trkpt>
      <trkpt lat="42.81373" lon="0.26186">
        <ele>2266</ele>
        <time>2020-07-27T15:52:00.049Z</time>
      </trkpt>
      <trkpt lat="42.81372" lon="0.26185">
        <ele>2265</ele>
        <time>2020-07-27T15:52:01.049Z</time>
      </trkpt>
      <trkpt lat="42.81372" lon="0.26184">
        <ele>2265</ele>
        <time>2020-07-27T15:52:02.049Z</time>
      </trkpt>
      <trkpt lat="42.81371" lon="0.26182">
        <ele>2264</ele>
        <time>2020-07-27T15:52:03.049Z</time>
      </trkpt>
      <trkpt lat="42.81371" lon="0.2618">
        <ele>2264</ele>
        <time>2020-07-27T15:52:04.049Z</time>
      </trkpt>
      <trkpt lat="42.8137" lon="0.26178">
        <ele>2265</ele>
        <time>2020-07-27T15:52:05.049Z</time>
      </trkpt>
      <trkpt lat="42.8137" lon="0.26176">
        <ele>2265</ele>
        <time>2020-07-27T15:52:06.049Z</time>
      </trkpt>
      <trkpt lat="42.81369" lon="0.26174">
        <ele>2265</ele>
        <time>2020-07-27T15:52:07.049Z</time>
      </trkpt>
      <trkpt lat="42.81369" lon="0.26171">
        <ele>2265</ele>
        <time>2020-07-27T15:52:08.049Z</time>
      </trkpt>
      <trkpt lat="42.81369" lon="0.26169">
        <ele>2265</ele>
        <time>2020-07-27T15:52:09.049Z</time>
      </trkpt>
      <trkpt lat="42.81369" lon="0.26166">
        <ele>2265</ele>
        <time>2020-07-27T15:52:10.049Z</time>
      </trkpt>
      <trkpt lat="42.8137" lon="0.26164">
        <ele>2266</ele>
        <time>2020-07-27T15:52:11.049Z</time>
      </trkpt>
      <trkpt lat="42.8137" lon="0.26162">
        <ele>2266</ele>
        <time>2020-07-27T15:52:12.049Z</time>
      </trkpt>
      <trkpt lat="42.8137" lon="0.26159">
        <ele>2266</ele>
        <time>2020-07-27T15:52:13.049Z</time>
      </trkpt>
      <trkpt lat="42.8137" lon="0.26156">
        <ele>2268</ele>
        <time>2020-07-27T15:52:14.049Z</time>
      </trkpt>
      <trkpt lat="42.8137" lon="0.26153">
        <ele>2267</ele>
        <time>2020-07-27T15:52:15.049Z</time>
      </trkpt>
      <trkpt lat="42.8137" lon="0.2615">
        <ele>2268</ele>
        <time>2020-07-27T15:52:16.049Z</time>
      </trkpt>
      <trkpt lat="42.8137" lon="0.26147">
        <ele>2269</ele>
        <time>2020-07-27T15:52:17.049Z</time>
      </trkpt>
      <trkpt lat="42.8137" lon="0.26144">
        <ele>2269</ele>
        <time>2020-07-27T15:52:18.049Z</time>
      </trkpt>
      <trkpt lat="42.8137" lon="0.26142">
        <ele>2270</ele>
        <time>2020-07-27T15:52:19.049Z</time>
      </trkpt>
      <trkpt lat="42.8137" lon="0.26139">
        <ele>2270</ele>
        <time>2020-07-27T15:52:20.049Z</time>
      </trkpt>
      <trkpt lat="42.81369" lon="0.26137">
        <ele>2271</ele>
        <time>2020-07-27T15:52:21.049Z</time>
      </trkpt>
      <trkpt lat="42.81369" lon="0.26134">
        <ele>2270</ele>
        <time>2020-07-27T15:52:22.049Z</time>
      </trkpt>
      <trkpt lat="42.81369" lon="0.26132">
        <ele>2271</ele>
        <time>2020-07-27T15:52:23.049Z</time>
      </trkpt>
      <trkpt lat="42.81369" lon="0.2613">
        <ele>2271</ele>
        <time>2020-07-27T15:52:24.049Z</time>
      </trkpt>
      <trkpt lat="42.81369" lon="0.26128">
        <ele>2271</ele>
        <time>2020-07-27T15:52:25.049Z</time>
      </trkpt>
      <trkpt lat="42.81369" lon="0.26126">
        <ele>2272</ele>
        <time>2020-07-27T15:52:26.049Z</time>
      </trkpt>
      <trkpt lat="42.81369" lon="0.26125">
        <ele>2272</ele>
        <time>2020-07-27T15:52:27.049Z</time>
      </trkpt>
      <trkpt lat="42.81368" lon="0.26124">
        <ele>2273</ele>
        <time>2020-07-27T15:52:28.049Z</time>
      </trkpt>
      <trkpt lat="42.81368" lon="0.26123">
        <ele>2273</ele>
        <time>2020-07-27T15:52:29.049Z</time>
      </trkpt>
      <trkpt lat="42.81368" lon="0.26122">
        <ele>2273</ele>
        <time>2020-07-27T15:52:30.049Z</time>
      </trkpt>
      <trkpt lat="42.81368" lon="0.26121">
        <ele>2273</ele>
        <time>2020-07-27T15:52:31.049Z</time>
      </trkpt>
      <trkpt lat="42.81368" lon="0.2612">
        <ele>2274</ele>
        <time>2020-07-27T15:52:32.049Z</time>
      </trkpt>
      <trkpt lat="42.81368" lon="0.26118">
        <ele>2275</ele>
        <time>2020-07-27T15:52:33.049Z</time>
      </trkpt>
      <trkpt lat="42.81368" lon="0.26117">
        <ele>2275</ele>
        <time>2020-07-27T15:52:34.049Z</time>
      </trkpt>
      <trkpt lat="42.81368" lon="0.26115">
        <ele>2276</ele>
        <time>2020-07-27T15:52:35.049Z</time>
      </trkpt>
      <trkpt lat="42.81368" lon="0.26114">
        <ele>2276</ele>
        <time>2020-07-27T15:52:36.049Z</time>
      </trkpt>
      <trkpt lat="42.81368" lon="0.26112">
        <ele>2277</ele>
        <time>2020-07-27T15:52:37.049Z</time>
      </trkpt>
      <trkpt lat="42.81368" lon="0.2611">
        <ele>2277</ele>
        <time>2020-07-27T15:52:38.049Z</time>
      </trkpt>
      <trkpt lat="42.81368" lon="0.26109">
        <ele>2277</ele>
        <time>2020-07-27T15:52:39.049Z</time>
      </trkpt>
      <trkpt lat="42.81368" lon="0.26107">
        <ele>2277</ele>
        <time>2020-07-27T15:52:40.049Z</time>
      </trkpt>
      <trkpt lat="42.81368" lon="0.26106">
        <ele>2278</ele>
        <time>2020-07-27T15:52:41.049Z</time>
      </trkpt>
      <trkpt lat="42.81368" lon="0.26104">
        <ele>2279</ele>
        <time>2020-07-27T15:52:42.049Z</time>
      </trkpt>
      <trkpt lat="42.81368" lon="0.26102">
        <ele>2279</ele>
        <time>2020-07-27T15:52:43.049Z</time>
      </trkpt>
      <trkpt lat="42.81368" lon="0.261">
        <ele>2279</ele>
        <time>2020-07-27T15:52:44.049Z</time>
      </trkpt>
      <trkpt lat="42.81368" lon="0.26098">
        <ele>2280</ele>
        <time>2020-07-27T15:52:45.049Z</time>
      </trkpt>
      <trkpt lat="42.81368" lon="0.26097">
        <ele>2280</ele>
        <time>2020-07-27T15:52:46.049Z</time>
      </trkpt>
      <trkpt lat="42.81368" lon="0.26096">
        <ele>2280</ele>
        <time>2020-07-27T15:52:47.049Z</time>
      </trkpt>
      <trkpt lat="42.81367" lon="0.26095">
        <ele>2281</ele>
        <time>2020-07-27T15:52:48.049Z</time>
      </trkpt>
      <trkpt lat="42.81367" lon="0.26093">
        <ele>2282</ele>
        <time>2020-07-27T15:52:49.049Z</time>
      </trkpt>
      <trkpt lat="42.81367" lon="0.26092">
        <ele>2283</ele>
        <time>2020-07-27T15:52:50.049Z</time>
      </trkpt>
      <trkpt lat="42.81367" lon="0.2609">
        <ele>2283</ele>
        <time>2020-07-27T15:52:51.049Z</time>
      </trkpt>
      <trkpt lat="42.81367" lon="0.26089">
        <ele>2283</ele>
        <time>2020-07-27T15:52:52.049Z</time>
      </trkpt>
      <trkpt lat="42.81367" lon="0.26088">
        <ele>2283</ele>
        <time>2020-07-27T15:52:53.049Z</time>
      </trkpt>
      <trkpt lat="42.81366" lon="0.26087">
        <ele>2284</ele>
        <time>2020-07-27T15:52:54.049Z</time>
      </trkpt>
      <trkpt lat="42.81366" lon="0.26086">
        <ele>2284</ele>
        <time>2020-07-27T15:52:55.049Z</time>
      </trkpt>
      <trkpt lat="42.81366" lon="0.26085">
        <ele>2285</ele>
        <time>2020-07-27T15:52:56.049Z</time>
      </trkpt>
      <trkpt lat="42.81366" lon="0.26084">
        <ele>2285</ele>
        <time>2020-07-27T15:52:57.049Z</time>
      </trkpt>
      <trkpt lat="42.81366" lon="0.26083">
        <ele>2285</ele>
        <time>2020-07-27T15:52:58.049Z</time>
      </trkpt>
      <trkpt lat="42.81366" lon="0.26082">
        <ele>2285</ele>
        <time>2020-07-27T15:52:59.049Z</time>
      </trkpt>
      <trkpt lat="42.81366" lon="0.26081">
        <ele>2284</ele>
        <time>2020-07-27T15:53:00.049Z</time>
      </trkpt>
      <trkpt lat="42.81365" lon="0.2608">
        <ele>2284</ele>
        <time>2020-07-27T15:53:01.049Z</time>
      </trkpt>
      <trkpt lat="42.81366" lon="0.26079">
        <ele>2285</ele>
        <time>2020-07-27T15:53:02.049Z</time>
      </trkpt>
      <trkpt lat="42.81365" lon="0.26079">
        <ele>2285</ele>
        <time>2020-07-27T15:53:03.049Z</time>
      </trkpt>
      <trkpt lat="42.81365" lon="0.26078">
        <ele>2286</ele>
        <time>2020-07-27T15:53:04.049Z</time>
      </trkpt>
      <trkpt lat="42.81366" lon="0.26077">
        <ele>2286</ele>
        <time>2020-07-27T15:53:05.049Z</time>
      </trkpt>
      <trkpt lat="42.81366" lon="0.26076">
        <ele>2286</ele>
        <time>2020-07-27T15:53:06.049Z</time>
      </trkpt>
      <trkpt lat="42.81366" lon="0.26076">
        <ele>2287</ele>
        <time>2020-07-27T15:53:07.049Z</time>
      </trkpt>
      <trkpt lat="42.81367" lon="0.26075">
        <ele>2287</ele>
        <time>2020-07-27T15:53:08.049Z</time>
      </trkpt>
      <trkpt lat="42.81367" lon="0.26074">
        <ele>2288</ele>
        <time>2020-07-27T15:53:09.049Z</time>
      </trkpt>
      <trkpt lat="42.81368" lon="0.26072">
        <ele>2287</ele>
        <time>2020-07-27T15:53:10.049Z</time>
      </trkpt>
      <trkpt lat="42.81368" lon="0.26071">
        <ele>2287</ele>
        <time>2020-07-27T15:53:11.049Z</time>
      </trkpt>
      <trkpt lat="42.81368" lon="0.2607">
        <ele>2287</ele>
        <time>2020-07-27T15:53:12.049Z</time>
      </trkpt>
      <trkpt lat="42.81369" lon="0.26069">
        <ele>2287</ele>
        <time>2020-07-27T15:53:13.049Z</time>
      </trkpt>
      <trkpt lat="42.81369" lon="0.26068">
        <ele>2288</ele>
        <time>2020-07-27T15:53:14.049Z</time>
      </trkpt>
      <trkpt lat="42.81369" lon="0.26067">
        <ele>2288</ele>
        <time>2020-07-27T15:53:15.049Z</time>
      </trkpt>
      <trkpt lat="42.81369" lon="0.26066">
        <ele>2288</ele>
        <time>2020-07-27T15:53:16.049Z</time>
      </trkpt>
      <trkpt lat="42.81369" lon="0.26065">
        <ele>2289</ele>
        <time>2020-07-27T15:53:17.049Z</time>
      </trkpt>
      <trkpt lat="42.8137" lon="0.26064">
        <ele>2290</ele>
        <time>2020-07-27T15:53:18.049Z</time>
      </trkpt>
      <trkpt lat="42.81371" lon="0.26063">
        <ele>2290</ele>
        <time>2020-07-27T15:53:19.049Z</time>
      </trkpt>
      <trkpt lat="42.81372" lon="0.26063">
        <ele>2291</ele>
        <time>2020-07-27T15:53:20.049Z</time>
      </trkpt>
      <trkpt lat="42.81372" lon="0.26062">
        <ele>2291</ele>
        <time>2020-07-27T15:53:21.049Z</time>
      </trkpt>
      <trkpt lat="42.81373" lon="0.26061">
        <ele>2293</ele>
        <time>2020-07-27T15:53:22.049Z</time>
      </trkpt>
      <trkpt lat="42.81373" lon="0.2606">
        <ele>2293</ele>
        <time>2020-07-27T15:53:23.049Z</time>
      </trkpt>
      <trkpt lat="42.81374" lon="0.26059">
        <ele>2293</ele>
        <time>2020-07-27T15:53:24.049Z</time>
      </trkpt>
      <trkpt lat="42.81375" lon="0.26059">
        <ele>2293</ele>
        <time>2020-07-27T15:53:25.049Z</time>
      </trkpt>
      <trkpt lat="42.81375" lon="0.26058">
        <ele>2293</ele>
        <time>2020-07-27T15:53:26.049Z</time>
      </trkpt>
      <trkpt lat="42.81376" lon="0.26057">
        <ele>2294</ele>
        <time>2020-07-27T15:53:27.049Z</time>
      </trkpt>
      <trkpt lat="42.81376" lon="0.26056">
        <ele>2294</ele>
        <time>2020-07-27T15:53:28.049Z</time>
      </trkpt>
      <trkpt lat="42.81376" lon="0.26055">
        <ele>2294</ele>
        <time>2020-07-27T15:53:29.049Z</time>
      </trkpt>
      <trkpt lat="42.81376" lon="0.26054">
        <ele>2295</ele>
        <time>2020-07-27T15:53:30.049Z</time>
      </trkpt>
      <trkpt lat="42.81376" lon="0.26052">
        <ele>2295</ele>
        <time>2020-07-27T15:53:31.049Z</time>
      </trkpt>
      <trkpt lat="42.81376" lon="0.26051">
        <ele>2295</ele>
        <time>2020-07-27T15:53:32.049Z</time>
      </trkpt>
      <trkpt lat="42.81376" lon="0.26049">
        <ele>2296</ele>
        <time>2020-07-27T15:53:33.049Z</time>
      </trkpt>
      <trkpt lat="42.81376" lon="0.26047">
        <ele>2296</ele>
        <time>2020-07-27T15:53:34.049Z</time>
      </trkpt>
      <trkpt lat="42.81376" lon="0.26045">
        <ele>2297</ele>
        <time>2020-07-27T15:53:35.049Z</time>
      </trkpt>
      <trkpt lat="42.81376" lon="0.26043">
        <ele>2296</ele>
        <time>2020-07-27T15:53:36.049Z</time>
      </trkpt>
      <trkpt lat="42.81377" lon="0.2604">
        <ele>2297</ele>
        <time>2020-07-27T15:53:37.049Z</time>
      </trkpt>
      <trkpt lat="42.81377" lon="0.26038">
        <ele>2297</ele>
        <time>2020-07-27T15:53:38.049Z</time>
      </trkpt>
      <trkpt lat="42.81377" lon="0.26036">
        <ele>2297</ele>
        <time>2020-07-27T15:53:39.049Z</time>
      </trkpt>
      <trkpt lat="42.81376" lon="0.26033">
        <ele>2297</ele>
        <time>2020-07-27T15:53:40.049Z</time>
      </trkpt>
      <trkpt lat="42.81375" lon="0.2603">
        <ele>2296</ele>
        <time>2020-07-27T15:53:41.049Z</time>
      </trkpt>
      <trkpt lat="42.81374" lon="0.26027">
        <ele>2296</ele>
        <time>2020-07-27T15:53:42.049Z</time>
      </trkpt>
      <trkpt lat="42.81373" lon="0.26024">
        <ele>2296</ele>
        <time>2020-07-27T15:53:43.049Z</time>
      </trkpt>
      <trkpt lat="42.81372" lon="0.26021">
        <ele>2296</ele>
        <time>2020-07-27T15:53:44.049Z</time>
      </trkpt>
      <trkpt lat="42.81371" lon="0.26019">
        <ele>2296</ele>
        <time>2020-07-27T15:53:45.049Z</time>
      </trkpt>
      <trkpt lat="42.8137" lon="0.26016">
        <ele>2296</ele>
        <time>2020-07-27T15:53:46.049Z</time>
      </trkpt>
      <trkpt lat="42.81368" lon="0.26013">
        <ele>2296</ele>
        <time>2020-07-27T15:53:47.049Z</time>
      </trkpt>
      <trkpt lat="42.81367" lon="0.2601">
        <ele>2296</ele>
        <time>2020-07-27T15:53:48.049Z</time>
      </trkpt>
      <trkpt lat="42.81366" lon="0.26007">
        <ele>2296</ele>
        <time>2020-07-27T15:53:49.049Z</time>
      </trkpt>
      <trkpt lat="42.81365" lon="0.26004">
        <ele>2296</ele>
        <time>2020-07-27T15:53:50.049Z</time>
      </trkpt>
      <trkpt lat="42.81364" lon="0.26002">
        <ele>2296</ele>
        <time>2020-07-27T15:53:51.049Z</time>
      </trkpt>
      <trkpt lat="42.81363" lon="0.26">
        <ele>2296</ele>
        <time>2020-07-27T15:53:52.049Z</time>
      </trkpt>
      <trkpt lat="42.81363" lon="0.25998">
        <ele>2296</ele>
        <time>2020-07-27T15:53:53.049Z</time>
      </trkpt>
      <trkpt lat="42.81362" lon="0.25996">
        <ele>2295</ele>
        <time>2020-07-27T15:53:54.049Z</time>
      </trkpt>
      <trkpt lat="42.81362" lon="0.25995">
        <ele>2295</ele>
        <time>2020-07-27T15:53:55.049Z</time>
      </trkpt>
      <trkpt lat="42.81362" lon="0.25994">
        <ele>2295</ele>
        <time>2020-07-27T15:53:56.049Z</time>
      </trkpt>
      <trkpt lat="42.81362" lon="0.25993">
        <ele>2295</ele>
        <time>2020-07-27T15:53:57.049Z</time>
      </trkpt>
      <trkpt lat="42.81361" lon="0.25993">
        <ele>2295</ele>
        <time>2020-07-27T15:53:58.049Z</time>
      </trkpt>
      <trkpt lat="42.81361" lon="0.25992">
        <ele>2295</ele>
        <time>2020-07-27T15:53:59.049Z</time>
      </trkpt>
      <trkpt lat="42.8136" lon="0.25991">
        <ele>2295</ele>
        <time>2020-07-27T15:54:00.049Z</time>
      </trkpt>
      <trkpt lat="42.81359" lon="0.2599">
        <ele>2294</ele>
        <time>2020-07-27T15:54:01.049Z</time>
      </trkpt>
      <trkpt lat="42.81359" lon="0.25989">
        <ele>2294</ele>
        <time>2020-07-27T15:54:02.049Z</time>
      </trkpt>
      <trkpt lat="42.81358" lon="0.25988">
        <ele>2293</ele>
        <time>2020-07-27T15:54:03.049Z</time>
      </trkpt>
      <trkpt lat="42.81357" lon="0.25987">
        <ele>2294</ele>
        <time>2020-07-27T15:54:04.049Z</time>
      </trkpt>
      <trkpt lat="42.81356" lon="0.25986">
        <ele>2294</ele>
        <time>2020-07-27T15:54:05.049Z</time>
      </trkpt>
      <trkpt lat="42.81356" lon="0.25985">
        <ele>2294</ele>
        <time>2020-07-27T15:54:06.049Z</time>
      </trkpt>
      <trkpt lat="42.81356" lon="0.25984">
        <ele>2294</ele>
        <time>2020-07-27T15:54:07.049Z</time>
      </trkpt>
      <trkpt lat="42.81355" lon="0.25983">
        <ele>2295</ele>
        <time>2020-07-27T15:54:08.049Z</time>
      </trkpt>
      <trkpt lat="42.81355" lon="0.25982">
        <ele>2295</ele>
        <time>2020-07-27T15:54:09.049Z</time>
      </trkpt>
      <trkpt lat="42.81355" lon="0.25982">
        <ele>2291</ele>
        <time>2020-07-27T15:54:10.049Z</time>
      </trkpt>
      <trkpt lat="42.81356" lon="0.25983">
        <ele>2289</ele>
        <time>2020-07-27T15:54:11.049Z</time>
      </trkpt>
      <trkpt lat="42.81357" lon="0.25985">
        <ele>2289</ele>
        <time>2020-07-27T15:54:12.049Z</time>
      </trkpt>
      <trkpt lat="42.81358" lon="0.25987">
        <ele>2289</ele>
        <time>2020-07-27T15:54:13.049Z</time>
      </trkpt>
      <trkpt lat="42.81359" lon="0.25989">
        <ele>2289</ele>
        <time>2020-07-27T15:54:14.049Z</time>
      </trkpt>
      <trkpt lat="42.8136" lon="0.25991">
        <ele>2288</ele>
        <time>2020-07-27T15:54:15.049Z</time>
      </trkpt>
      <trkpt lat="42.81362" lon="0.25993">
        <ele>2288</ele>
        <time>2020-07-27T15:54:16.049Z</time>
      </trkpt>
      <trkpt lat="42.81363" lon="0.25996">
        <ele>2288</ele>
        <time>2020-07-27T15:54:17.049Z</time>
      </trkpt>
      <trkpt lat="42.81364" lon="0.25999">
        <ele>2288</ele>
        <time>2020-07-27T15:54:18.049Z</time>
      </trkpt>
      <trkpt lat="42.81365" lon="0.26002">
        <ele>2288</ele>
        <time>2020-07-27T15:54:19.049Z</time>
      </trkpt>
      <trkpt lat="42.81366" lon="0.26005">
        <ele>2288</ele>
        <time>2020-07-27T15:54:20.049Z</time>
      </trkpt>
      <trkpt lat="42.81367" lon="0.26009">
        <ele>2287</ele>
        <time>2020-07-27T15:54:21.049Z</time>
      </trkpt>
      <trkpt lat="42.81368" lon="0.26012">
        <ele>2287</ele>
        <time>2020-07-27T15:54:22.049Z</time>
      </trkpt>
      <trkpt lat="42.8137" lon="0.26014">
        <ele>2288</ele>
        <time>2020-07-27T15:54:23.049Z</time>
      </trkpt>
      <trkpt lat="42.81371" lon="0.26017">
        <ele>2288</ele>
        <time>2020-07-27T15:54:24.049Z</time>
      </trkpt>
      <trkpt lat="42.81373" lon="0.2602">
        <ele>2288</ele>
        <time>2020-07-27T15:54:25.049Z</time>
      </trkpt>
      <trkpt lat="42.81374" lon="0.26023">
        <ele>2289</ele>
        <time>2020-07-27T15:54:26.049Z</time>
      </trkpt>
      <trkpt lat="42.81375" lon="0.26026">
        <ele>2289</ele>
        <time>2020-07-27T15:54:27.049Z</time>
      </trkpt>
      <trkpt lat="42.81377" lon="0.26029">
        <ele>2289</ele>
        <time>2020-07-27T15:54:28.049Z</time>
      </trkpt>
      <trkpt lat="42.81378" lon="0.26032">
        <ele>2289</ele>
        <time>2020-07-27T15:54:29.049Z</time>
      </trkpt>
      <trkpt lat="42.81379" lon="0.26035">
        <ele>2289</ele>
        <time>2020-07-27T15:54:30.049Z</time>
      </trkpt>
      <trkpt lat="42.81381" lon="0.26038">
        <ele>2289</ele>
        <time>2020-07-27T15:54:31.049Z</time>
      </trkpt>
      <trkpt lat="42.81382" lon="0.2604">
        <ele>2291</ele>
        <time>2020-07-27T15:54:32.049Z</time>
      </trkpt>
      <trkpt lat="42.81382" lon="0.26041">
        <ele>2290</ele>
        <time>2020-07-27T15:54:33.049Z</time>
      </trkpt>
      <trkpt lat="42.81383" lon="0.26042">
        <ele>2290</ele>
        <time>2020-07-27T15:54:34.049Z</time>
      </trkpt>
      <trkpt lat="42.81383" lon="0.26043">
        <ele>2290</ele>
        <time>2020-07-27T15:54:35.049Z</time>
      </trkpt>
      <trkpt lat="42.81384" lon="0.26043">
        <ele>2290</ele>
        <time>2020-07-27T15:54:36.049Z</time>
      </trkpt>
      <trkpt lat="42.81384" lon="0.26044">
        <ele>2290</ele>
        <time>2020-07-27T15:54:37.049Z</time>
      </trkpt>
      <trkpt lat="42.81385" lon="0.26043">
        <ele>2290</ele>
        <time>2020-07-27T15:54:38.049Z</time>
      </trkpt>
      <trkpt lat="42.81386" lon="0.26043">
        <ele>2290</ele>
        <time>2020-07-27T15:54:39.049Z</time>
      </trkpt>
      <trkpt lat="42.81386" lon="0.26043">
        <ele>2291</ele>
        <time>2020-07-27T15:54:40.049Z</time>
      </trkpt>
      <trkpt lat="42.81387" lon="0.26043">
        <ele>2291</ele>
        <time>2020-07-27T15:54:41.049Z</time>
      </trkpt>
      <trkpt lat="42.81388" lon="0.26043">
        <ele>2291</ele>
        <time>2020-07-27T15:54:42.049Z</time>
      </trkpt>
      <trkpt lat="42.81388" lon="0.26042">
        <ele>2291</ele>
        <time>2020-07-27T15:54:43.049Z</time>
      </trkpt>
      <trkpt lat="42.81389" lon="0.26041">
        <ele>2291</ele>
        <time>2020-07-27T15:54:44.049Z</time>
      </trkpt>
      <trkpt lat="42.81389" lon="0.26039">
        <ele>2292</ele>
        <time>2020-07-27T15:54:45.049Z</time>
      </trkpt>
      <trkpt lat="42.81389" lon="0.26038">
        <ele>2292</ele>
        <time>2020-07-27T15:54:46.049Z</time>
      </trkpt>
      <trkpt lat="42.81389" lon="0.26036">
        <ele>2293</ele>
        <time>2020-07-27T15:54:47.049Z</time>
      </trkpt>
      <trkpt lat="42.81389" lon="0.26035">
        <ele>2293</ele>
        <time>2020-07-27T15:54:48.049Z</time>
      </trkpt>
      <trkpt lat="42.81389" lon="0.26034">
        <ele>2293</ele>
        <time>2020-07-27T15:54:49.049Z</time>
      </trkpt>
      <trkpt lat="42.81389" lon="0.26033">
        <ele>2294</ele>
        <time>2020-07-27T15:54:50.049Z</time>
      </trkpt>
      <trkpt lat="42.81389" lon="0.26031">
        <ele>2294</ele>
        <time>2020-07-27T15:54:51.049Z</time>
      </trkpt>
      <trkpt lat="42.81388" lon="0.2603">
        <ele>2295</ele>
        <time>2020-07-27T15:54:52.049Z</time>
      </trkpt>
      <trkpt lat="42.81388" lon="0.26029">
        <ele>2295</ele>
        <time>2020-07-27T15:54:53.049Z</time>
      </trkpt>
      <trkpt lat="42.81388" lon="0.26027">
        <ele>2296</ele>
        <time>2020-07-27T15:54:54.049Z</time>
      </trkpt>
      <trkpt lat="42.81388" lon="0.26026">
        <ele>2297</ele>
        <time>2020-07-27T15:54:55.049Z</time>
      </trkpt>
      <trkpt lat="42.81388" lon="0.26024">
        <ele>2297</ele>
        <time>2020-07-27T15:54:56.049Z</time>
      </trkpt>
      <trkpt lat="42.81388" lon="0.26023">
        <ele>2298</ele>
        <time>2020-07-27T15:54:57.049Z</time>
      </trkpt>
      <trkpt lat="42.81389" lon="0.26021">
        <ele>2298</ele>
        <time>2020-07-27T15:54:58.049Z</time>
      </trkpt>
      <trkpt lat="42.81389" lon="0.2602">
        <ele>2299</ele>
        <time>2020-07-27T15:54:59.049Z</time>
      </trkpt>
      <trkpt lat="42.8139" lon="0.26019">
        <ele>2299</ele>
        <time>2020-07-27T15:55:00.049Z</time>
      </trkpt>
      <trkpt lat="42.8139" lon="0.26018">
        <ele>2299</ele>
        <time>2020-07-27T15:55:01.049Z</time>
      </trkpt>
      <trkpt lat="42.81391" lon="0.26017">
        <ele>2299</ele>
        <time>2020-07-27T15:55:02.049Z</time>
      </trkpt>
      <trkpt lat="42.81392" lon="0.26015">
        <ele>2300</ele>
        <time>2020-07-27T15:55:03.049Z</time>
      </trkpt>
      <trkpt lat="42.81392" lon="0.26014">
        <ele>2300</ele>
        <time>2020-07-27T15:55:04.049Z</time>
      </trkpt>
      <trkpt lat="42.81393" lon="0.26012">
        <ele>2301</ele>
        <time>2020-07-27T15:55:05.049Z</time>
      </trkpt>
      <trkpt lat="42.81394" lon="0.26011">
        <ele>2301</ele>
        <time>2020-07-27T15:55:06.049Z</time>
      </trkpt>
      <trkpt lat="42.81394" lon="0.2601">
        <ele>2301</ele>
        <time>2020-07-27T15:55:07.049Z</time>
      </trkpt>
      <trkpt lat="42.81395" lon="0.26009">
        <ele>2301</ele>
        <time>2020-07-27T15:55:08.049Z</time>
      </trkpt>
      <trkpt lat="42.81395" lon="0.26009">
        <ele>2301</ele>
        <time>2020-07-27T15:55:09.049Z</time>
      </trkpt>
      <trkpt lat="42.81395" lon="0.26009">
        <ele>2301</ele>
        <time>2020-07-27T15:55:10.049Z</time>
      </trkpt>
      <trkpt lat="42.81396" lon="0.26009">
        <ele>2301</ele>
        <time>2020-07-27T15:55:11.049Z</time>
      </trkpt>
      <trkpt lat="42.81396" lon="0.26008">
        <ele>2302</ele>
        <time>2020-07-27T15:55:12.049Z</time>
      </trkpt>
      <trkpt lat="42.81396" lon="0.26008">
        <ele>2302</ele>
        <time>2020-07-27T15:55:13.049Z</time>
      </trkpt>
      <trkpt lat="42.81397" lon="0.26007">
        <ele>2302</ele>
        <time>2020-07-27T15:55:14.049Z</time>
      </trkpt>
      <trkpt lat="42.81397" lon="0.26006">
        <ele>2303</ele>
        <time>2020-07-27T15:55:15.049Z</time>
      </trkpt>
      <trkpt lat="42.81398" lon="0.26005">
        <ele>2303</ele>
        <time>2020-07-27T15:55:16.049Z</time>
      </trkpt>
      <trkpt lat="42.81398" lon="0.26004">
        <ele>2304</ele>
        <time>2020-07-27T15:55:17.049Z</time>
      </trkpt>
      <trkpt lat="42.81399" lon="0.26003">
        <ele>2304</ele>
        <time>2020-07-27T15:55:18.049Z</time>
      </trkpt>
      <trkpt lat="42.814" lon="0.26002">
        <ele>2304</ele>
        <time>2020-07-27T15:55:19.049Z</time>
      </trkpt>
      <trkpt lat="42.814" lon="0.26002">
        <ele>2305</ele>
        <time>2020-07-27T15:55:20.049Z</time>
      </trkpt>
      <trkpt lat="42.81401" lon="0.26001">
        <ele>2305</ele>
        <time>2020-07-27T15:55:21.049Z</time>
      </trkpt>
      <trkpt lat="42.81401" lon="0.26">
        <ele>2306</ele>
        <time>2020-07-27T15:55:22.049Z</time>
      </trkpt>
      <trkpt lat="42.81402" lon="0.26">
        <ele>2307</ele>
        <time>2020-07-27T15:55:23.049Z</time>
      </trkpt>
      <trkpt lat="42.81402" lon="0.25999">
        <ele>2307</ele>
        <time>2020-07-27T15:55:24.049Z</time>
      </trkpt>
      <trkpt lat="42.81402" lon="0.25998">
        <ele>2307</ele>
        <time>2020-07-27T15:55:25.049Z</time>
      </trkpt>
      <trkpt lat="42.81402" lon="0.25997">
        <ele>2308</ele>
        <time>2020-07-27T15:55:26.049Z</time>
      </trkpt>
      <trkpt lat="42.81403" lon="0.25997">
        <ele>2308</ele>
        <time>2020-07-27T15:55:27.049Z</time>
      </trkpt>
      <trkpt lat="42.81403" lon="0.25997">
        <ele>2309</ele>
        <time>2020-07-27T15:55:28.049Z</time>
      </trkpt>
      <trkpt lat="42.81404" lon="0.25996">
        <ele>2309</ele>
        <time>2020-07-27T15:55:29.049Z</time>
      </trkpt>
      <trkpt lat="42.81404" lon="0.25996">
        <ele>2309</ele>
        <time>2020-07-27T15:55:30.049Z</time>
      </trkpt>
      <trkpt lat="42.81405" lon="0.25997">
        <ele>2309</ele>
        <time>2020-07-27T15:55:31.049Z</time>
      </trkpt>
      <trkpt lat="42.81405" lon="0.25996">
        <ele>2310</ele>
        <time>2020-07-27T15:55:32.049Z</time>
      </trkpt>
      <trkpt lat="42.81406" lon="0.25996">
        <ele>2309</ele>
        <time>2020-07-27T15:55:33.049Z</time>
      </trkpt>
      <trkpt lat="42.81406" lon="0.25995">
        <ele>2310</ele>
        <time>2020-07-27T15:55:34.049Z</time>
      </trkpt>
      <trkpt lat="42.81406" lon="0.25995">
        <ele>2310</ele>
        <time>2020-07-27T15:55:35.049Z</time>
      </trkpt>
      <trkpt lat="42.81407" lon="0.25994">
        <ele>2311</ele>
        <time>2020-07-27T15:55:36.049Z</time>
      </trkpt>
      <trkpt lat="42.81407" lon="0.25993">
        <ele>2311</ele>
        <time>2020-07-27T15:55:37.049Z</time>
      </trkpt>
      <trkpt lat="42.81407" lon="0.25992">
        <ele>2311</ele>
        <time>2020-07-27T15:55:38.049Z</time>
      </trkpt>
      <trkpt lat="42.81408" lon="0.25991">
        <ele>2312</ele>
        <time>2020-07-27T15:55:39.049Z</time>
      </trkpt>
      <trkpt lat="42.81408" lon="0.2599">
        <ele>2312</ele>
        <time>2020-07-27T15:55:40.049Z</time>
      </trkpt>
      <trkpt lat="42.81408" lon="0.2599">
        <ele>2312</ele>
        <time>2020-07-27T15:55:41.049Z</time>
      </trkpt>
      <trkpt lat="42.81408" lon="0.25989">
        <ele>2313</ele>
        <time>2020-07-27T15:55:42.049Z</time>
      </trkpt>
      <trkpt lat="42.81408" lon="0.25988">
        <ele>2313</ele>
        <time>2020-07-27T15:55:43.049Z</time>
      </trkpt>
      <trkpt lat="42.81408" lon="0.25987">
        <ele>2312</ele>
        <time>2020-07-27T15:55:44.049Z</time>
      </trkpt>
      <trkpt lat="42.81408" lon="0.25986">
        <ele>2313</ele>
        <time>2020-07-27T15:55:45.049Z</time>
      </trkpt>
      <trkpt lat="42.81408" lon="0.25986">
        <ele>2313</ele>
        <time>2020-07-27T15:55:46.049Z</time>
      </trkpt>
      <trkpt lat="42.81408" lon="0.25985">
        <ele>2313</ele>
        <time>2020-07-27T15:55:47.049Z</time>
      </trkpt>
      <trkpt lat="42.81408" lon="0.25984">
        <ele>2314</ele>
        <time>2020-07-27T15:55:48.049Z</time>
      </trkpt>
      <trkpt lat="42.81408" lon="0.25983">
        <ele>2314</ele>
        <time>2020-07-27T15:55:49.049Z</time>
      </trkpt>
      <trkpt lat="42.81408" lon="0.25983">
        <ele>2315</ele>
        <time>2020-07-27T15:55:50.049Z</time>
      </trkpt>
      <trkpt lat="42.81409" lon="0.25982">
        <ele>2315</ele>
        <time>2020-07-27T15:55:51.049Z</time>
      </trkpt>
      <trkpt lat="42.81409" lon="0.25981">
        <ele>2315</ele>
        <time>2020-07-27T15:55:52.049Z</time>
      </trkpt>
      <trkpt lat="42.81409" lon="0.25981">
        <ele>2315</ele>
        <time>2020-07-27T15:55:53.049Z</time>
      </trkpt>
      <trkpt lat="42.81409" lon="0.2598">
        <ele>2316</ele>
        <time>2020-07-27T15:55:54.049Z</time>
      </trkpt>
      <trkpt lat="42.81409" lon="0.2598">
        <ele>2316</ele>
        <time>2020-07-27T15:55:55.049Z</time>
      </trkpt>
      <trkpt lat="42.81409" lon="0.25979">
        <ele>2316</ele>
        <time>2020-07-27T15:55:56.049Z</time>
      </trkpt>
      <trkpt lat="42.81409" lon="0.25979">
        <ele>2317</ele>
        <time>2020-07-27T15:55:57.049Z</time>
      </trkpt>
      <trkpt lat="42.81409" lon="0.25979">
        <ele>2317</ele>
        <time>2020-07-27T15:55:58.049Z</time>
      </trkpt>
      <trkpt lat="42.81409" lon="0.25979">
        <ele>2317</ele>
        <time>2020-07-27T15:55:59.049Z</time>
      </trkpt>
      <trkpt lat="42.81409" lon="0.25979">
        <ele>2318</ele>
        <time>2020-07-27T15:56:00.049Z</time>
      </trkpt>
      <trkpt lat="42.81408" lon="0.25978">
        <ele>2318</ele>
        <time>2020-07-27T15:56:01.049Z</time>
      </trkpt>
      <trkpt lat="42.81408" lon="0.25978">
        <ele>2318</ele>
        <time>2020-07-27T15:56:02.049Z</time>
      </trkpt>
      <trkpt lat="42.81408" lon="0.25977">
        <ele>2318</ele>
        <time>2020-07-27T15:56:03.049Z</time>
      </trkpt>
      <trkpt lat="42.81409" lon="0.25976">
        <ele>2319</ele>
        <time>2020-07-27T15:56:04.049Z</time>
      </trkpt>
      <trkpt lat="42.81409" lon="0.25976">
        <ele>2319</ele>
        <time>2020-07-27T15:56:05.049Z</time>
      </trkpt>
      <trkpt lat="42.81409" lon="0.25975">
        <ele>2320</ele>
        <time>2020-07-27T15:56:06.049Z</time>
      </trkpt>
      <trkpt lat="42.81409" lon="0.25974">
        <ele>2320</ele>
        <time>2020-07-27T15:56:07.049Z</time>
      </trkpt>
      <trkpt lat="42.81408" lon="0.25973">
        <ele>2320</ele>
        <time>2020-07-27T15:56:08.049Z</time>
      </trkpt>
      <trkpt lat="42.81408" lon="0.25973">
        <ele>2320</ele>
        <time>2020-07-27T15:56:09.049Z</time>
      </trkpt>
      <trkpt lat="42.81409" lon="0.25973">
        <ele>2320</ele>
        <time>2020-07-27T15:56:10.049Z</time>
      </trkpt>
      <trkpt lat="42.81409" lon="0.25973">
        <ele>2320</ele>
        <time>2020-07-27T15:56:11.049Z</time>
      </trkpt>
      <trkpt lat="42.81409" lon="0.25973">
        <ele>2320</ele>
        <time>2020-07-27T15:56:12.049Z</time>
      </trkpt>
      <trkpt lat="42.81409" lon="0.25973">
        <ele>2321</ele>
        <time>2020-07-27T15:56:13.049Z</time>
      </trkpt>
      <trkpt lat="42.81409" lon="0.25973">
        <ele>2321</ele>
        <time>2020-07-27T15:56:14.049Z</time>
      </trkpt>
      <trkpt lat="42.81409" lon="0.25973">
        <ele>2321</ele>
        <time>2020-07-27T15:56:15.049Z</time>
      </trkpt>
      <trkpt lat="42.81409" lon="0.25973">
        <ele>2321</ele>
        <time>2020-07-27T15:56:16.049Z</time>
      </trkpt>
      <trkpt lat="42.81409" lon="0.25973">
        <ele>2321</ele>
        <time>2020-07-27T15:56:17.049Z</time>
      </trkpt>
      <trkpt lat="42.81409" lon="0.25973">
        <ele>2321</ele>
        <time>2020-07-27T15:56:18.049Z</time>
      </trkpt>
      <trkpt lat="42.81409" lon="0.25973">
        <ele>2321</ele>
        <time>2020-07-27T15:56:19.049Z</time>
      </trkpt>
      <trkpt lat="42.81409" lon="0.25973">
        <ele>2321</ele>
        <time>2020-07-27T15:56:20.049Z</time>
      </trkpt>
      <trkpt lat="42.81409" lon="0.25973">
        <ele>2321</ele>
        <time>2020-07-27T15:56:21.049Z</time>
      </trkpt>
      <trkpt lat="42.81409" lon="0.25973">
        <ele>2321</ele>
        <time>2020-07-27T15:56:22.049Z</time>
      </trkpt>
      <trkpt lat="42.8141" lon="0.25976">
        <ele>2321</ele>
        <time>2020-07-27T15:56:23.065Z</time>
      </trkpt>
      <trkpt lat="42.81409" lon="0.25976">
        <ele>2320</ele>
        <time>2020-07-27T15:56:24.065Z</time>
      </trkpt>
      <trkpt lat="42.8141" lon="0.25976">
        <ele>2320</ele>
        <time>2020-07-27T15:56:25.065Z</time>
      </trkpt>
      <trkpt lat="42.8141" lon="0.25976">
        <ele>2320</ele>
        <time>2020-07-27T15:56:26.065Z</time>
      </trkpt>
      <trkpt lat="42.8141" lon="0.25976">
        <ele>2320</ele>
        <time>2020-07-27T15:56:27.065Z</time>
      </trkpt>
      <trkpt lat="42.8141" lon="0.25976">
        <ele>2320</ele>
        <time>2020-07-27T15:56:28.065Z</time>
      </trkpt>
      <trkpt lat="42.8141" lon="0.25976">
        <ele>2320</ele>
        <time>2020-07-27T15:56:29.065Z</time>
      </trkpt>
      <trkpt lat="42.8141" lon="0.25976">
        <ele>2320</ele>
        <time>2020-07-27T15:56:30.065Z</time>
      </trkpt>
      <trkpt lat="42.81409" lon="0.25976">
        <ele>2320</ele>
        <time>2020-07-27T15:56:31.065Z</time>
      </trkpt>
      <trkpt lat="42.81409" lon="0.25976">
        <ele>2320</ele>
        <time>2020-07-27T15:56:32.065Z</time>
      </trkpt>
      <trkpt lat="42.81409" lon="0.25976">
        <ele>2320</ele>
        <time>2020-07-27T15:56:33.065Z</time>
      </trkpt>
      <trkpt lat="42.81409" lon="0.25976">
        <ele>2320</ele>
        <time>2020-07-27T15:56:34.065Z</time>
      </trkpt>
      <trkpt lat="42.81409" lon="0.25977">
        <ele>2320</ele>
        <time>2020-07-27T15:56:35.065Z</time>
      </trkpt>
      <trkpt lat="42.81409" lon="0.25977">
        <ele>2320</ele>
        <time>2020-07-27T15:56:36.065Z</time>
      </trkpt>
      <trkpt lat="42.81409" lon="0.25977">
        <ele>2320</ele>
        <time>2020-07-27T15:56:37.065Z</time>
      </trkpt>
      <trkpt lat="42.81408" lon="0.25977">
        <ele>2319</ele>
        <time>2020-07-27T15:56:38.065Z</time>
      </trkpt>
      <trkpt lat="42.81408" lon="0.25977">
        <ele>2319</ele>
        <time>2020-07-27T15:56:39.065Z</time>
      </trkpt>
      <trkpt lat="42.81408" lon="0.25977">
        <ele>2319</ele>
        <time>2020-07-27T15:56:40.065Z</time>
      </trkpt>
      <trkpt lat="42.81408" lon="0.25978">
        <ele>2319</ele>
        <time>2020-07-27T15:56:41.065Z</time>
      </trkpt>
      <trkpt lat="42.81408" lon="0.25978">
        <ele>2319</ele>
        <time>2020-07-27T15:56:42.065Z</time>
      </trkpt>
      <trkpt lat="42.81408" lon="0.25978">
        <ele>2319</ele>
        <time>2020-07-27T15:56:43.065Z</time>
      </trkpt>
      <trkpt lat="42.81408" lon="0.25978">
        <ele>2319</ele>
        <time>2020-07-27T15:56:44.065Z</time>
      </trkpt>
      <trkpt lat="42.81408" lon="0.25979">
        <ele>2319</ele>
        <time>2020-07-27T15:56:45.065Z</time>
      </trkpt>
      <trkpt lat="42.81408" lon="0.25979">
        <ele>2319</ele>
        <time>2020-07-27T15:56:46.065Z</time>
      </trkpt>
      <trkpt lat="42.81408" lon="0.25979">
        <ele>2318</ele>
        <time>2020-07-27T15:56:47.065Z</time>
      </trkpt>
      <trkpt lat="42.81408" lon="0.25979">
        <ele>2318</ele>
        <time>2020-07-27T15:56:48.065Z</time>
      </trkpt>
      <trkpt lat="42.81408" lon="0.25979">
        <ele>2318</ele>
        <time>2020-07-27T15:56:49.065Z</time>
      </trkpt>
      <trkpt lat="42.81408" lon="0.25979">
        <ele>2318</ele>
        <time>2020-07-27T15:56:50.065Z</time>
      </trkpt>
      <trkpt lat="42.81408" lon="0.25979">
        <ele>2318</ele>
        <time>2020-07-27T15:56:51.065Z</time>
      </trkpt>
      <trkpt lat="42.81408" lon="0.2598">
        <ele>2318</ele>
        <time>2020-07-27T15:56:52.065Z</time>
      </trkpt>
      <trkpt lat="42.81408" lon="0.2598">
        <ele>2318</ele>
        <time>2020-07-27T15:56:53.065Z</time>
      </trkpt>
      <trkpt lat="42.81408" lon="0.2598">
        <ele>2318</ele>
        <time>2020-07-27T15:56:54.065Z</time>
      </trkpt>
      <trkpt lat="42.81408" lon="0.2598">
        <ele>2318</ele>
        <time>2020-07-27T15:56:55.065Z</time>
      </trkpt>
      <trkpt lat="42.81409" lon="0.2598">
        <ele>2318</ele>
        <time>2020-07-27T15:56:56.065Z</time>
      </trkpt>
      <trkpt lat="42.81409" lon="0.2598">
        <ele>2318</ele>
        <time>2020-07-27T15:56:57.065Z</time>
      </trkpt>
      <trkpt lat="42.81409" lon="0.2598">
        <ele>2318</ele>
        <time>2020-07-27T15:56:58.065Z</time>
      </trkpt>
      <trkpt lat="42.81409" lon="0.25981">
        <ele>2318</ele>
        <time>2020-07-27T15:56:59.065Z</time>
      </trkpt>
      <trkpt lat="42.81409" lon="0.25981">
        <ele>2318</ele>
        <time>2020-07-27T15:57:00.065Z</time>
      </trkpt>
      <trkpt lat="42.81409" lon="0.25981">
        <ele>2318</ele>
        <time>2020-07-27T15:57:01.065Z</time>
      </trkpt>
      <trkpt lat="42.81409" lon="0.25981">
        <ele>2318</ele>
        <time>2020-07-27T15:57:02.065Z</time>
      </trkpt>
      <trkpt lat="42.81409" lon="0.25981">
        <ele>2318</ele>
        <time>2020-07-27T15:57:03.065Z</time>
      </trkpt>
      <trkpt lat="42.81409" lon="0.25981">
        <ele>2317</ele>
        <time>2020-07-27T15:57:04.065Z</time>
      </trkpt>
      <trkpt lat="42.81409" lon="0.25981">
        <ele>2317</ele>
        <time>2020-07-27T15:57:05.065Z</time>
      </trkpt>
      <trkpt lat="42.81409" lon="0.25982">
        <ele>2317</ele>
        <time>2020-07-27T15:57:06.065Z</time>
      </trkpt>
      <trkpt lat="42.81409" lon="0.25982">
        <ele>2317</ele>
        <time>2020-07-27T15:57:07.065Z</time>
      </trkpt>
      <trkpt lat="42.81409" lon="0.25982">
        <ele>2316</ele>
        <time>2020-07-27T15:57:08.065Z</time>
      </trkpt>
      <trkpt lat="42.81409" lon="0.25982">
        <ele>2316</ele>
        <time>2020-07-27T15:57:09.065Z</time>
      </trkpt>
      <trkpt lat="42.81409" lon="0.25982">
        <ele>2317</ele>
        <time>2020-07-27T15:57:10.065Z</time>
      </trkpt>
      <trkpt lat="42.81409" lon="0.25983">
        <ele>2317</ele>
        <time>2020-07-27T15:57:11.065Z</time>
      </trkpt>
      <trkpt lat="42.81409" lon="0.25983">
        <ele>2317</ele>
        <time>2020-07-27T15:57:12.065Z</time>
      </trkpt>
      <trkpt lat="42.81409" lon="0.25983">
        <ele>2317</ele>
        <time>2020-07-27T15:57:13.065Z</time>
      </trkpt>
      <trkpt lat="42.81408" lon="0.25983">
        <ele>2317</ele>
        <time>2020-07-27T15:57:14.069Z</time>
      </trkpt>
      <trkpt lat="42.81408" lon="0.25983">
        <ele>2317</ele>
        <time>2020-07-27T15:57:15.069Z</time>
      </trkpt>
      <trkpt lat="42.81408" lon="0.25983">
        <ele>2317</ele>
        <time>2020-07-27T15:57:16.069Z</time>
      </trkpt>
      <trkpt lat="42.81408" lon="0.25983">
        <ele>2316</ele>
        <time>2020-07-27T15:57:17.069Z</time>
      </trkpt>
      <trkpt lat="42.81408" lon="0.25983">
        <ele>2316</ele>
        <time>2020-07-27T15:57:18.069Z</time>
      </trkpt>
      <trkpt lat="42.81408" lon="0.25984">
        <ele>2316</ele>
        <time>2020-07-27T15:57:19.069Z</time>
      </trkpt>
      <trkpt lat="42.81408" lon="0.25984">
        <ele>2316</ele>
        <time>2020-07-27T15:57:20.069Z</time>
      </trkpt>
      <trkpt lat="42.81408" lon="0.25984">
        <ele>2316</ele>
        <time>2020-07-27T15:57:21.069Z</time>
      </trkpt>
      <trkpt lat="42.81408" lon="0.25984">
        <ele>2316</ele>
        <time>2020-07-27T15:57:22.069Z</time>
      </trkpt>
      <trkpt lat="42.81408" lon="0.25984">
        <ele>2316</ele>
        <time>2020-07-27T15:57:23.069Z</time>
      </trkpt>
      <trkpt lat="42.81408" lon="0.25985">
        <ele>2315</ele>
        <time>2020-07-27T15:57:24.069Z</time>
      </trkpt>
      <trkpt lat="42.81408" lon="0.25985">
        <ele>2315</ele>
        <time>2020-07-27T15:57:25.069Z</time>
      </trkpt>
      <trkpt lat="42.81408" lon="0.25986">
        <ele>2315</ele>
        <time>2020-07-27T15:57:26.069Z</time>
      </trkpt>
      <trkpt lat="42.81408" lon="0.25986">
        <ele>2315</ele>
        <time>2020-07-27T15:57:27.069Z</time>
      </trkpt>
      <trkpt lat="42.81409" lon="0.25986">
        <ele>2315</ele>
        <time>2020-07-27T15:57:28.069Z</time>
      </trkpt>
      <trkpt lat="42.81409" lon="0.25987">
        <ele>2315</ele>
        <time>2020-07-27T15:57:29.069Z</time>
      </trkpt>
      <trkpt lat="42.81409" lon="0.25987">
        <ele>2315</ele>
        <time>2020-07-27T15:57:30.069Z</time>
      </trkpt>
      <trkpt lat="42.81409" lon="0.25988">
        <ele>2315</ele>
        <time>2020-07-27T15:57:31.069Z</time>
      </trkpt>
      <trkpt lat="42.81409" lon="0.25988">
        <ele>2315</ele>
        <time>2020-07-27T15:57:32.069Z</time>
      </trkpt>
      <trkpt lat="42.81409" lon="0.25989">
        <ele>2315</ele>
        <time>2020-07-27T15:57:33.069Z</time>
      </trkpt>
      <trkpt lat="42.81409" lon="0.25989">
        <ele>2315</ele>
        <time>2020-07-27T15:57:34.069Z</time>
      </trkpt>
      <trkpt lat="42.81409" lon="0.2599">
        <ele>2315</ele>
        <time>2020-07-27T15:57:35.069Z</time>
      </trkpt>
      <trkpt lat="42.81408" lon="0.2599">
        <ele>2315</ele>
        <time>2020-07-27T15:57:36.069Z</time>
      </trkpt>
      <trkpt lat="42.81408" lon="0.2599">
        <ele>2315</ele>
        <time>2020-07-27T15:57:37.069Z</time>
      </trkpt>
      <trkpt lat="42.81408" lon="0.25991">
        <ele>2315</ele>
        <time>2020-07-27T15:57:38.069Z</time>
      </trkpt>
      <trkpt lat="42.81408" lon="0.25991">
        <ele>2315</ele>
        <time>2020-07-27T15:57:39.069Z</time>
      </trkpt>
      <trkpt lat="42.81408" lon="0.25991">
        <ele>2315</ele>
        <time>2020-07-27T15:57:40.069Z</time>
      </trkpt>
      <trkpt lat="42.81408" lon="0.25991">
        <ele>2315</ele>
        <time>2020-07-27T15:57:41.069Z</time>
      </trkpt>
      <trkpt lat="42.81408" lon="0.25992">
        <ele>2315</ele>
        <time>2020-07-27T15:57:42.069Z</time>
      </trkpt>
      <trkpt lat="42.81408" lon="0.25992">
        <ele>2315</ele>
        <time>2020-07-27T15:57:43.069Z</time>
      </trkpt>
      <trkpt lat="42.81408" lon="0.25992">
        <ele>2315</ele>
        <time>2020-07-27T15:57:44.069Z</time>
      </trkpt>
      <trkpt lat="42.81408" lon="0.25992">
        <ele>2315</ele>
        <time>2020-07-27T15:57:45.069Z</time>
      </trkpt>
      <trkpt lat="42.81408" lon="0.25992">
        <ele>2315</ele>
        <time>2020-07-27T15:57:46.069Z</time>
      </trkpt>
      <trkpt lat="42.81408" lon="0.25992">
        <ele>2315</ele>
        <time>2020-07-27T15:57:47.069Z</time>
      </trkpt>
      <trkpt lat="42.81408" lon="0.25991">
        <ele>2315</ele>
        <time>2020-07-27T15:57:48.069Z</time>
      </trkpt>
      <trkpt lat="42.81408" lon="0.25991">
        <ele>2315</ele>
        <time>2020-07-27T15:57:49.069Z</time>
      </trkpt>
      <trkpt lat="42.81408" lon="0.25991">
        <ele>2315</ele>
        <time>2020-07-27T15:57:50.069Z</time>
      </trkpt>
      <trkpt lat="42.81408" lon="0.25991">
        <ele>2315</ele>
        <time>2020-07-27T15:57:51.069Z</time>
      </trkpt>
      <trkpt lat="42.81408" lon="0.25992">
        <ele>2315</ele>
        <time>2020-07-27T15:57:52.069Z</time>
      </trkpt>
      <trkpt lat="42.81408" lon="0.25992">
        <ele>2315</ele>
        <time>2020-07-27T15:57:53.069Z</time>
      </trkpt>
      <trkpt lat="42.81408" lon="0.25992">
        <ele>2315</ele>
        <time>2020-07-27T15:57:54.069Z</time>
      </trkpt>
      <trkpt lat="42.81408" lon="0.25991">
        <ele>2315</ele>
        <time>2020-07-27T15:57:55.069Z</time>
      </trkpt>
      <trkpt lat="42.81408" lon="0.25991">
        <ele>2315</ele>
        <time>2020-07-27T15:57:56.069Z</time>
      </trkpt>
      <trkpt lat="42.81408" lon="0.25991">
        <ele>2315</ele>
        <time>2020-07-27T15:57:57.069Z</time>
      </trkpt>
      <trkpt lat="42.81408" lon="0.25991">
        <ele>2315</ele>
        <time>2020-07-27T15:57:58.069Z</time>
      </trkpt>
      <trkpt lat="42.81408" lon="0.25992">
        <ele>2315</ele>
        <time>2020-07-27T15:57:59.069Z</time>
      </trkpt>
      <trkpt lat="42.81408" lon="0.25992">
        <ele>2315</ele>
        <time>2020-07-27T15:58:00.069Z</time>
      </trkpt>
      <trkpt lat="42.81408" lon="0.25992">
        <ele>2315</ele>
        <time>2020-07-27T15:58:01.069Z</time>
      </trkpt>
      <trkpt lat="42.81408" lon="0.25992">
        <ele>2315</ele>
        <time>2020-07-27T15:58:02.069Z</time>
      </trkpt>
      <trkpt lat="42.81408" lon="0.25992">
        <ele>2315</ele>
        <time>2020-07-27T15:58:03.069Z</time>
      </trkpt>
      <trkpt lat="42.81408" lon="0.25992">
        <ele>2315</ele>
        <time>2020-07-27T15:58:04.069Z</time>
      </trkpt>
      <trkpt lat="42.81408" lon="0.25992">
        <ele>2315</ele>
        <time>2020-07-27T15:58:05.069Z</time>
      </trkpt>
      <trkpt lat="42.81408" lon="0.25992">
        <ele>2315</ele>
        <time>2020-07-27T15:58:06.069Z</time>
      </trkpt>
      <trkpt lat="42.81408" lon="0.25992">
        <ele>2315</ele>
        <time>2020-07-27T15:58:07.069Z</time>
      </trkpt>
      <trkpt lat="42.81408" lon="0.25992">
        <ele>2315</ele>
        <time>2020-07-27T15:58:08.069Z</time>
      </trkpt>
      <trkpt lat="42.81408" lon="0.25992">
        <ele>2315</ele>
        <time>2020-07-27T15:58:09.069Z</time>
      </trkpt>
      <trkpt lat="42.81408" lon="0.25992">
        <ele>2315</ele>
        <time>2020-07-27T15:58:10.069Z</time>
      </trkpt>
      <trkpt lat="42.81408" lon="0.25992">
        <ele>2315</ele>
        <time>2020-07-27T15:58:11.069Z</time>
      </trkpt>
      <trkpt lat="42.81408" lon="0.25993">
        <ele>2314</ele>
        <time>2020-07-27T15:58:12.069Z</time>
      </trkpt>
      <trkpt lat="42.81408" lon="0.25993">
        <ele>2314</ele>
        <time>2020-07-27T15:58:13.069Z</time>
      </trkpt>
      <trkpt lat="42.81407" lon="0.25994">
        <ele>2314</ele>
        <time>2020-07-27T15:58:14.069Z</time>
      </trkpt>
      <trkpt lat="42.81407" lon="0.25994">
        <ele>2314</ele>
        <time>2020-07-27T15:58:15.069Z</time>
      </trkpt>
      <trkpt lat="42.81407" lon="0.25995">
        <ele>2313</ele>
        <time>2020-07-27T15:58:16.069Z</time>
      </trkpt>
      <trkpt lat="42.81407" lon="0.25995">
        <ele>2313</ele>
        <time>2020-07-27T15:58:17.069Z</time>
      </trkpt>
      <trkpt lat="42.81406" lon="0.25996">
        <ele>2313</ele>
        <time>2020-07-27T15:58:18.069Z</time>
      </trkpt>
      <trkpt lat="42.81406" lon="0.25996">
        <ele>2312</ele>
        <time>2020-07-27T15:58:19.069Z</time>
      </trkpt>
      <trkpt lat="42.81404" lon="0.25996">
        <ele>2312</ele>
        <time>2020-07-27T15:58:20.069Z</time>
      </trkpt>
      <trkpt lat="42.81402" lon="0.25996">
        <ele>2313</ele>
        <time>2020-07-27T15:58:21.069Z</time>
      </trkpt>
      <trkpt lat="42.81401" lon="0.25995">
        <ele>2313</ele>
        <time>2020-07-27T15:58:22.069Z</time>
      </trkpt>
      <trkpt lat="42.814" lon="0.25995">
        <ele>2313</ele>
        <time>2020-07-27T15:58:23.069Z</time>
      </trkpt>
      <trkpt lat="42.814" lon="0.25994">
        <ele>2313</ele>
        <time>2020-07-27T15:58:24.069Z</time>
      </trkpt>
      <trkpt lat="42.814" lon="0.25994">
        <ele>2313</ele>
        <time>2020-07-27T15:58:25.069Z</time>
      </trkpt>
      <trkpt lat="42.814" lon="0.25994">
        <ele>2313</ele>
        <time>2020-07-27T15:58:26.069Z</time>
      </trkpt>
      <trkpt lat="42.814" lon="0.25994">
        <ele>2313</ele>
        <time>2020-07-27T15:58:27.069Z</time>
      </trkpt>
      <trkpt lat="42.814" lon="0.25994">
        <ele>2313</ele>
        <time>2020-07-27T15:58:28.069Z</time>
      </trkpt>
      <trkpt lat="42.814" lon="0.25994">
        <ele>2313</ele>
        <time>2020-07-27T15:58:29.069Z</time>
      </trkpt>
      <trkpt lat="42.814" lon="0.25994">
        <ele>2313</ele>
        <time>2020-07-27T15:58:30.069Z</time>
      </trkpt>
      <trkpt lat="42.814" lon="0.25994">
        <ele>2312</ele>
        <time>2020-07-27T15:58:31.069Z</time>
      </trkpt>
      <trkpt lat="42.814" lon="0.25994">
        <ele>2312</ele>
        <time>2020-07-27T15:58:32.069Z</time>
      </trkpt>
      <trkpt lat="42.81401" lon="0.25994">
        <ele>2312</ele>
        <time>2020-07-27T15:58:33.069Z</time>
      </trkpt>
      <trkpt lat="42.81401" lon="0.25994">
        <ele>2312</ele>
        <time>2020-07-27T15:58:34.069Z</time>
      </trkpt>
      <trkpt lat="42.814" lon="0.25994">
        <ele>2313</ele>
        <time>2020-07-27T15:58:35.069Z</time>
      </trkpt>
      <trkpt lat="42.81398" lon="0.25992">
        <ele>2316</ele>
        <time>2020-07-27T15:58:36.100Z</time>
      </trkpt>
      <trkpt lat="42.81398" lon="0.25992">
        <ele>2316</ele>
        <time>2020-07-27T15:58:37.100Z</time>
      </trkpt>
      <trkpt lat="42.81398" lon="0.25993">
        <ele>2315</ele>
        <time>2020-07-27T15:58:38.100Z</time>
      </trkpt>
      <trkpt lat="42.81399" lon="0.25993">
        <ele>2315</ele>
        <time>2020-07-27T15:58:39.100Z</time>
      </trkpt>
      <trkpt lat="42.81399" lon="0.25994">
        <ele>2314</ele>
        <time>2020-07-27T15:58:40.100Z</time>
      </trkpt>
      <trkpt lat="42.814" lon="0.25994">
        <ele>2314</ele>
        <time>2020-07-27T15:58:41.100Z</time>
      </trkpt>
      <trkpt lat="42.81401" lon="0.25995">
        <ele>2314</ele>
        <time>2020-07-27T15:58:42.100Z</time>
      </trkpt>
      <trkpt lat="42.81402" lon="0.25995">
        <ele>2314</ele>
        <time>2020-07-27T15:58:43.100Z</time>
      </trkpt>
      <trkpt lat="42.81403" lon="0.25995">
        <ele>2314</ele>
        <time>2020-07-27T15:58:44.100Z</time>
      </trkpt>
      <trkpt lat="42.81404" lon="0.25996">
        <ele>2313</ele>
        <time>2020-07-27T15:58:45.100Z</time>
      </trkpt>
      <trkpt lat="42.81404" lon="0.25997">
        <ele>2313</ele>
        <time>2020-07-27T15:58:46.100Z</time>
      </trkpt>
      <trkpt lat="42.81403" lon="0.25998">
        <ele>2312</ele>
        <time>2020-07-27T15:58:47.100Z</time>
      </trkpt>
      <trkpt lat="42.81403" lon="0.25998">
        <ele>2312</ele>
        <time>2020-07-27T15:58:48.100Z</time>
      </trkpt>
      <trkpt lat="42.81402" lon="0.25998">
        <ele>2311</ele>
        <time>2020-07-27T15:58:49.100Z</time>
      </trkpt>
      <trkpt lat="42.81402" lon="0.25998">
        <ele>2311</ele>
        <time>2020-07-27T15:58:50.100Z</time>
      </trkpt>
      <trkpt lat="42.81402" lon="0.25998">
        <ele>2311</ele>
        <time>2020-07-27T15:58:51.100Z</time>
      </trkpt>
      <trkpt lat="42.81401" lon="0.25999">
        <ele>2310</ele>
        <time>2020-07-27T15:58:52.100Z</time>
      </trkpt>
      <trkpt lat="42.81401" lon="0.25999">
        <ele>2309</ele>
        <time>2020-07-27T15:58:53.100Z</time>
      </trkpt>
      <trkpt lat="42.81401" lon="0.26">
        <ele>2309</ele>
        <time>2020-07-27T15:58:54.100Z</time>
      </trkpt>
      <trkpt lat="42.814" lon="0.26001">
        <ele>2308</ele>
        <time>2020-07-27T15:58:55.100Z</time>
      </trkpt>
      <trkpt lat="42.81399" lon="0.26002">
        <ele>2307</ele>
        <time>2020-07-27T15:58:56.100Z</time>
      </trkpt>
      <trkpt lat="42.81398" lon="0.26003">
        <ele>2307</ele>
        <time>2020-07-27T15:58:57.100Z</time>
      </trkpt>
      <trkpt lat="42.81397" lon="0.26005">
        <ele>2306</ele>
        <time>2020-07-27T15:58:58.100Z</time>
      </trkpt>
      <trkpt lat="42.81396" lon="0.26006">
        <ele>2306</ele>
        <time>2020-07-27T15:58:59.100Z</time>
      </trkpt>
      <trkpt lat="42.81395" lon="0.26007">
        <ele>2306</ele>
        <time>2020-07-27T15:59:00.100Z</time>
      </trkpt>
      <trkpt lat="42.81395" lon="0.26008">
        <ele>2306</ele>
        <time>2020-07-27T15:59:01.100Z</time>
      </trkpt>
      <trkpt lat="42.81394" lon="0.26009">
        <ele>2305</ele>
        <time>2020-07-27T15:59:02.100Z</time>
      </trkpt>
      <trkpt lat="42.81393" lon="0.26009">
        <ele>2304</ele>
        <time>2020-07-27T15:59:03.100Z</time>
      </trkpt>
      <trkpt lat="42.81393" lon="0.26011">
        <ele>2304</ele>
        <time>2020-07-27T15:59:04.100Z</time>
      </trkpt>
      <trkpt lat="42.81392" lon="0.26012">
        <ele>2304</ele>
        <time>2020-07-27T15:59:05.100Z</time>
      </trkpt>
      <trkpt lat="42.81391" lon="0.26015">
        <ele>2303</ele>
        <time>2020-07-27T15:59:06.100Z</time>
      </trkpt>
      <trkpt lat="42.8139" lon="0.26017">
        <ele>2303</ele>
        <time>2020-07-27T15:59:07.100Z</time>
      </trkpt>
      <trkpt lat="42.8139" lon="0.26019">
        <ele>2302</ele>
        <time>2020-07-27T15:59:08.100Z</time>
      </trkpt>
      <trkpt lat="42.81389" lon="0.2602">
        <ele>2302</ele>
        <time>2020-07-27T15:59:09.100Z</time>
      </trkpt>
      <trkpt lat="42.81388" lon="0.26022">
        <ele>2301</ele>
        <time>2020-07-27T15:59:10.100Z</time>
      </trkpt>
      <trkpt lat="42.81388" lon="0.26023">
        <ele>2301</ele>
        <time>2020-07-27T15:59:11.100Z</time>
      </trkpt>
      <trkpt lat="42.81388" lon="0.26025">
        <ele>2300</ele>
        <time>2020-07-27T15:59:12.100Z</time>
      </trkpt>
      <trkpt lat="42.81387" lon="0.26028">
        <ele>2299</ele>
        <time>2020-07-27T15:59:13.100Z</time>
      </trkpt>
      <trkpt lat="42.81387" lon="0.2603">
        <ele>2299</ele>
        <time>2020-07-27T15:59:14.100Z</time>
      </trkpt>
      <trkpt lat="42.81387" lon="0.26032">
        <ele>2298</ele>
        <time>2020-07-27T15:59:15.100Z</time>
      </trkpt>
      <trkpt lat="42.81387" lon="0.26034">
        <ele>2298</ele>
        <time>2020-07-27T15:59:16.100Z</time>
      </trkpt>
      <trkpt lat="42.81387" lon="0.26036">
        <ele>2297</ele>
        <time>2020-07-27T15:59:17.100Z</time>
      </trkpt>
      <trkpt lat="42.81387" lon="0.26038">
        <ele>2297</ele>
        <time>2020-07-27T15:59:18.100Z</time>
      </trkpt>
      <trkpt lat="42.81387" lon="0.2604">
        <ele>2297</ele>
        <time>2020-07-27T15:59:19.100Z</time>
      </trkpt>
      <trkpt lat="42.81389" lon="0.26043">
        <ele>2296</ele>
        <time>2020-07-27T15:59:20.006Z</time>
      </trkpt>
      <trkpt lat="42.81389" lon="0.26043">
        <ele>2296</ele>
        <time>2020-07-27T15:59:21.006Z</time>
      </trkpt>
      <trkpt lat="42.81389" lon="0.26044">
        <ele>2295</ele>
        <time>2020-07-27T15:59:22.006Z</time>
      </trkpt>
      <trkpt lat="42.81389" lon="0.26044">
        <ele>2295</ele>
        <time>2020-07-27T15:59:23.006Z</time>
      </trkpt>
      <trkpt lat="42.81389" lon="0.26044">
        <ele>2295</ele>
        <time>2020-07-27T15:59:24.006Z</time>
      </trkpt>
      <trkpt lat="42.81389" lon="0.26044">
        <ele>2295</ele>
        <time>2020-07-27T15:59:25.006Z</time>
      </trkpt>
      <trkpt lat="42.81389" lon="0.26044">
        <ele>2295</ele>
        <time>2020-07-27T15:59:26.006Z</time>
      </trkpt>
      <trkpt lat="42.81389" lon="0.26044">
        <ele>2295</ele>
        <time>2020-07-27T15:59:27.006Z</time>
      </trkpt>
      <trkpt lat="42.81389" lon="0.26044">
        <ele>2295</ele>
        <time>2020-07-27T15:59:28.006Z</time>
      </trkpt>
      <trkpt lat="42.81389" lon="0.26044">
        <ele>2295</ele>
        <time>2020-07-27T15:59:29.006Z</time>
      </trkpt>
      <trkpt lat="42.81389" lon="0.26044">
        <ele>2295</ele>
        <time>2020-07-27T15:59:30.006Z</time>
      </trkpt>
      <trkpt lat="42.81389" lon="0.26045">
        <ele>2295</ele>
        <time>2020-07-27T15:59:31.006Z</time>
      </trkpt>
      <trkpt lat="42.81389" lon="0.26046">
        <ele>2294</ele>
        <time>2020-07-27T15:59:32.006Z</time>
      </trkpt>
      <trkpt lat="42.81389" lon="0.26047">
        <ele>2294</ele>
        <time>2020-07-27T15:59:33.006Z</time>
      </trkpt>
      <trkpt lat="42.81388" lon="0.26048">
        <ele>2294</ele>
        <time>2020-07-27T15:59:34.006Z</time>
      </trkpt>
      <trkpt lat="42.81388" lon="0.26053">
        <ele>2295</ele>
        <time>2020-07-27T15:59:35.053Z</time>
      </trkpt>
      <trkpt lat="42.81388" lon="0.26053">
        <ele>2295</ele>
        <time>2020-07-27T15:59:36.053Z</time>
      </trkpt>
      <trkpt lat="42.81387" lon="0.26053">
        <ele>2295</ele>
        <time>2020-07-27T15:59:37.053Z</time>
      </trkpt>
      <trkpt lat="42.81387" lon="0.26054">
        <ele>2294</ele>
        <time>2020-07-27T15:59:38.053Z</time>
      </trkpt>
      <trkpt lat="42.81387" lon="0.26057">
        <ele>2294</ele>
        <time>2020-07-27T15:59:39.053Z</time>
      </trkpt>
      <trkpt lat="42.81387" lon="0.2606">
        <ele>2294</ele>
        <time>2020-07-27T15:59:40.053Z</time>
      </trkpt>
      <trkpt lat="42.81386" lon="0.26063">
        <ele>2294</ele>
        <time>2020-07-27T15:59:41.053Z</time>
      </trkpt>
      <trkpt lat="42.81386" lon="0.26066">
        <ele>2293</ele>
        <time>2020-07-27T15:59:42.053Z</time>
      </trkpt>
      <trkpt lat="42.81385" lon="0.26068">
        <ele>2293</ele>
        <time>2020-07-27T15:59:43.053Z</time>
      </trkpt>
      <trkpt lat="42.81385" lon="0.26071">
        <ele>2293</ele>
        <time>2020-07-27T15:59:44.053Z</time>
      </trkpt>
      <trkpt lat="42.81384" lon="0.26073">
        <ele>2292</ele>
        <time>2020-07-27T15:59:45.053Z</time>
      </trkpt>
      <trkpt lat="42.81384" lon="0.26076">
        <ele>2291</ele>
        <time>2020-07-27T15:59:46.053Z</time>
      </trkpt>
      <trkpt lat="42.81383" lon="0.26078">
        <ele>2291</ele>
        <time>2020-07-27T15:59:47.053Z</time>
      </trkpt>
      <trkpt lat="42.81382" lon="0.26081">
        <ele>2290</ele>
        <time>2020-07-27T15:59:48.053Z</time>
      </trkpt>
      <trkpt lat="42.81382" lon="0.26083">
        <ele>2289</ele>
        <time>2020-07-27T15:59:49.053Z</time>
      </trkpt>
      <trkpt lat="42.81381" lon="0.26085">
        <ele>2288</ele>
        <time>2020-07-27T15:59:50.053Z</time>
      </trkpt>
      <trkpt lat="42.81381" lon="0.26087">
        <ele>2287</ele>
        <time>2020-07-27T15:59:51.053Z</time>
      </trkpt>
      <trkpt lat="42.8138" lon="0.26089">
        <ele>2286</ele>
        <time>2020-07-27T15:59:52.053Z</time>
      </trkpt>
      <trkpt lat="42.8138" lon="0.26091">
        <ele>2286</ele>
        <time>2020-07-27T15:59:53.053Z</time>
      </trkpt>
      <trkpt lat="42.81379" lon="0.26094">
        <ele>2284</ele>
        <time>2020-07-27T15:59:54.053Z</time>
      </trkpt>
      <trkpt lat="42.81379" lon="0.26096">
        <ele>2284</ele>
        <time>2020-07-27T15:59:55.053Z</time>
      </trkpt>
      <trkpt lat="42.81378" lon="0.26099">
        <ele>2283</ele>
        <time>2020-07-27T15:59:56.053Z</time>
      </trkpt>
      <trkpt lat="42.81379" lon="0.26101">
        <ele>2283</ele>
        <time>2020-07-27T15:59:57.053Z</time>
      </trkpt>
      <trkpt lat="42.81379" lon="0.26103">
        <ele>2282</ele>
        <time>2020-07-27T15:59:58.053Z</time>
      </trkpt>
      <trkpt lat="42.81379" lon="0.26105">
        <ele>2282</ele>
        <time>2020-07-27T15:59:59.053Z</time>
      </trkpt>
      <trkpt lat="42.81379" lon="0.26106">
        <ele>2281</ele>
        <time>2020-07-27T16:00:00.053Z</time>
      </trkpt>
      <trkpt lat="42.81379" lon="0.26107">
        <ele>2281</ele>
        <time>2020-07-27T16:00:01.053Z</time>
      </trkpt>
      <trkpt lat="42.81379" lon="0.26107">
        <ele>2282</ele>
        <time>2020-07-27T16:00:02.053Z</time>
      </trkpt>
      <trkpt lat="42.81379" lon="0.26109">
        <ele>2282</ele>
        <time>2020-07-27T16:00:03.053Z</time>
      </trkpt>
      <trkpt lat="42.81379" lon="0.2611">
        <ele>2282</ele>
        <time>2020-07-27T16:00:04.053Z</time>
      </trkpt>
      <trkpt lat="42.81379" lon="0.26111">
        <ele>2281</ele>
        <time>2020-07-27T16:00:05.053Z</time>
      </trkpt>
      <trkpt lat="42.81379" lon="0.26113">
        <ele>2280</ele>
        <time>2020-07-27T16:00:06.053Z</time>
      </trkpt>
      <trkpt lat="42.81379" lon="0.26114">
        <ele>2281</ele>
        <time>2020-07-27T16:00:07.053Z</time>
      </trkpt>
      <trkpt lat="42.81378" lon="0.26115">
        <ele>2280</ele>
        <time>2020-07-27T16:00:08.053Z</time>
      </trkpt>
      <trkpt lat="42.81378" lon="0.26116">
        <ele>2280</ele>
        <time>2020-07-27T16:00:09.053Z</time>
      </trkpt>
      <trkpt lat="42.81379" lon="0.26118">
        <ele>2279</ele>
        <time>2020-07-27T16:00:10.053Z</time>
      </trkpt>
      <trkpt lat="42.81379" lon="0.2612">
        <ele>2279</ele>
        <time>2020-07-27T16:00:11.053Z</time>
      </trkpt>
      <trkpt lat="42.81379" lon="0.26122">
        <ele>2278</ele>
        <time>2020-07-27T16:00:12.053Z</time>
      </trkpt>
      <trkpt lat="42.8138" lon="0.26123">
        <ele>2278</ele>
        <time>2020-07-27T16:00:13.053Z</time>
      </trkpt>
      <trkpt lat="42.8138" lon="0.26125">
        <ele>2277</ele>
        <time>2020-07-27T16:00:14.053Z</time>
      </trkpt>
      <trkpt lat="42.8138" lon="0.26126">
        <ele>2276</ele>
        <time>2020-07-27T16:00:15.053Z</time>
      </trkpt>
      <trkpt lat="42.8138" lon="0.26128">
        <ele>2275</ele>
        <time>2020-07-27T16:00:16.053Z</time>
      </trkpt>
      <trkpt lat="42.8138" lon="0.26131">
        <ele>2276</ele>
        <time>2020-07-27T16:00:17.053Z</time>
      </trkpt>
      <trkpt lat="42.8138" lon="0.26134">
        <ele>2275</ele>
        <time>2020-07-27T16:00:18.053Z</time>
      </trkpt>
      <trkpt lat="42.8138" lon="0.26138">
        <ele>2275</ele>
        <time>2020-07-27T16:00:19.053Z</time>
      </trkpt>
      <trkpt lat="42.8138" lon="0.26141">
        <ele>2274</ele>
        <time>2020-07-27T16:00:20.053Z</time>
      </trkpt>
      <trkpt lat="42.81381" lon="0.26144">
        <ele>2273</ele>
        <time>2020-07-27T16:00:21.053Z</time>
      </trkpt>
      <trkpt lat="42.81381" lon="0.26147">
        <ele>2272</ele>
        <time>2020-07-27T16:00:22.053Z</time>
      </trkpt>
      <trkpt lat="42.8138" lon="0.2615">
        <ele>2272</ele>
        <time>2020-07-27T16:00:23.053Z</time>
      </trkpt>
      <trkpt lat="42.8138" lon="0.26152">
        <ele>2271</ele>
        <time>2020-07-27T16:00:24.053Z</time>
      </trkpt>
      <trkpt lat="42.8138" lon="0.26154">
        <ele>2271</ele>
        <time>2020-07-27T16:00:25.053Z</time>
      </trkpt>
      <trkpt lat="42.81379" lon="0.26156">
        <ele>2271</ele>
        <time>2020-07-27T16:00:26.053Z</time>
      </trkpt>
      <trkpt lat="42.81379" lon="0.26158">
        <ele>2271</ele>
        <time>2020-07-27T16:00:27.053Z</time>
      </trkpt>
      <trkpt lat="42.81379" lon="0.26159">
        <ele>2271</ele>
        <time>2020-07-27T16:00:28.053Z</time>
      </trkpt>
      <trkpt lat="42.81379" lon="0.26161">
        <ele>2270</ele>
        <time>2020-07-27T16:00:29.053Z</time>
      </trkpt>
      <trkpt lat="42.81379" lon="0.26163">
        <ele>2270</ele>
        <time>2020-07-27T16:00:30.053Z</time>
      </trkpt>
      <trkpt lat="42.81379" lon="0.26165">
        <ele>2270</ele>
        <time>2020-07-27T16:00:31.053Z</time>
      </trkpt>
      <trkpt lat="42.81379" lon="0.26168">
        <ele>2270</ele>
        <time>2020-07-27T16:00:32.053Z</time>
      </trkpt>
      <trkpt lat="42.81378" lon="0.26171">
        <ele>2270</ele>
        <time>2020-07-27T16:00:33.053Z</time>
      </trkpt>
      <trkpt lat="42.81378" lon="0.26173">
        <ele>2270</ele>
        <time>2020-07-27T16:00:34.053Z</time>
      </trkpt>
      <trkpt lat="42.81377" lon="0.26176">
        <ele>2270</ele>
        <time>2020-07-27T16:00:35.053Z</time>
      </trkpt>
      <trkpt lat="42.81377" lon="0.26178">
        <ele>2269</ele>
        <time>2020-07-27T16:00:36.053Z</time>
      </trkpt>
      <trkpt lat="42.81377" lon="0.26179">
        <ele>2270</ele>
        <time>2020-07-27T16:00:37.053Z</time>
      </trkpt>
      <trkpt lat="42.81377" lon="0.26181">
        <ele>2269</ele>
        <time>2020-07-27T16:00:38.053Z</time>
      </trkpt>
      <trkpt lat="42.81377" lon="0.26182">
        <ele>2269</ele>
        <time>2020-07-27T16:00:39.053Z</time>
      </trkpt>
      <trkpt lat="42.81377" lon="0.26183">
        <ele>2269</ele>
        <time>2020-07-27T16:00:40.053Z</time>
      </trkpt>
      <trkpt lat="42.81378" lon="0.26184">
        <ele>2268</ele>
        <time>2020-07-27T16:00:41.053Z</time>
      </trkpt>
      <trkpt lat="42.81378" lon="0.26185">
        <ele>2267</ele>
        <time>2020-07-27T16:00:42.053Z</time>
      </trkpt>
      <trkpt lat="42.81377" lon="0.26187">
        <ele>2267</ele>
        <time>2020-07-27T16:00:43.053Z</time>
      </trkpt>
      <trkpt lat="42.81377" lon="0.26189">
        <ele>2267</ele>
        <time>2020-07-27T16:00:44.053Z</time>
      </trkpt>
      <trkpt lat="42.81376" lon="0.26192">
        <ele>2266</ele>
        <time>2020-07-27T16:00:45.053Z</time>
      </trkpt>
      <trkpt lat="42.81376" lon="0.26194">
        <ele>2265</ele>
        <time>2020-07-27T16:00:46.053Z</time>
      </trkpt>
      <trkpt lat="42.81375" lon="0.26197">
        <ele>2264</ele>
        <time>2020-07-27T16:00:47.053Z</time>
      </trkpt>
      <trkpt lat="42.81374" lon="0.262">
        <ele>2263</ele>
        <time>2020-07-27T16:00:48.053Z</time>
      </trkpt>
      <trkpt lat="42.81373" lon="0.26203">
        <ele>2263</ele>
        <time>2020-07-27T16:00:49.053Z</time>
      </trkpt>
      <trkpt lat="42.81373" lon="0.26207">
        <ele>2262</ele>
        <time>2020-07-27T16:00:50.053Z</time>
      </trkpt>
      <trkpt lat="42.81373" lon="0.26211">
        <ele>2262</ele>
        <time>2020-07-27T16:00:51.053Z</time>
      </trkpt>
      <trkpt lat="42.81373" lon="0.26214">
        <ele>2261</ele>
        <time>2020-07-27T16:00:52.053Z</time>
      </trkpt>
      <trkpt lat="42.81373" lon="0.26218">
        <ele>2260</ele>
        <time>2020-07-27T16:00:53.053Z</time>
      </trkpt>
      <trkpt lat="42.81373" lon="0.26222">
        <ele>2260</ele>
        <time>2020-07-27T16:00:54.053Z</time>
      </trkpt>
      <trkpt lat="42.81373" lon="0.26225">
        <ele>2260</ele>
        <time>2020-07-27T16:00:55.053Z</time>
      </trkpt>
      <trkpt lat="42.81373" lon="0.26229">
        <ele>2259</ele>
        <time>2020-07-27T16:00:56.053Z</time>
      </trkpt>
      <trkpt lat="42.81373" lon="0.26232">
        <ele>2258</ele>
        <time>2020-07-27T16:00:57.053Z</time>
      </trkpt>
      <trkpt lat="42.81372" lon="0.26235">
        <ele>2257</ele>
        <time>2020-07-27T16:00:58.053Z</time>
      </trkpt>
      <trkpt lat="42.81371" lon="0.26238">
        <ele>2256</ele>
        <time>2020-07-27T16:00:59.053Z</time>
      </trkpt>
      <trkpt lat="42.81371" lon="0.26241">
        <ele>2256</ele>
        <time>2020-07-27T16:01:00.053Z</time>
      </trkpt>
      <trkpt lat="42.8137" lon="0.26245">
        <ele>2256</ele>
        <time>2020-07-27T16:01:01.053Z</time>
      </trkpt>
      <trkpt lat="42.8137" lon="0.26249">
        <ele>2255</ele>
        <time>2020-07-27T16:01:02.053Z</time>
      </trkpt>
      <trkpt lat="42.8137" lon="0.26252">
        <ele>2254</ele>
        <time>2020-07-27T16:01:03.053Z</time>
      </trkpt>
      <trkpt lat="42.8137" lon="0.26256">
        <ele>2253</ele>
        <time>2020-07-27T16:01:04.053Z</time>
      </trkpt>
      <trkpt lat="42.8137" lon="0.26259">
        <ele>2253</ele>
        <time>2020-07-27T16:01:05.053Z</time>
      </trkpt>
      <trkpt lat="42.8137" lon="0.26261">
        <ele>2253</ele>
        <time>2020-07-27T16:01:06.053Z</time>
      </trkpt>
      <trkpt lat="42.8137" lon="0.26264">
        <ele>2252</ele>
        <time>2020-07-27T16:01:07.053Z</time>
      </trkpt>
      <trkpt lat="42.8137" lon="0.26267">
        <ele>2250</ele>
        <time>2020-07-27T16:01:08.053Z</time>
      </trkpt>
      <trkpt lat="42.8137" lon="0.2627">
        <ele>2250</ele>
        <time>2020-07-27T16:01:09.053Z</time>
      </trkpt>
      <trkpt lat="42.8137" lon="0.26274">
        <ele>2250</ele>
        <time>2020-07-27T16:01:10.053Z</time>
      </trkpt>
      <trkpt lat="42.8137" lon="0.26277">
        <ele>2249</ele>
        <time>2020-07-27T16:01:11.053Z</time>
      </trkpt>
      <trkpt lat="42.81369" lon="0.26281">
        <ele>2248</ele>
        <time>2020-07-27T16:01:12.053Z</time>
      </trkpt>
      <trkpt lat="42.81369" lon="0.26285">
        <ele>2248</ele>
        <time>2020-07-27T16:01:13.053Z</time>
      </trkpt>
      <trkpt lat="42.81369" lon="0.26288">
        <ele>2247</ele>
        <time>2020-07-27T16:01:14.053Z</time>
      </trkpt>
      <trkpt lat="42.81368" lon="0.26291">
        <ele>2246</ele>
        <time>2020-07-27T16:01:15.053Z</time>
      </trkpt>
      <trkpt lat="42.81368" lon="0.26294">
        <ele>2246</ele>
        <time>2020-07-27T16:01:16.053Z</time>
      </trkpt>
      <trkpt lat="42.81367" lon="0.26297">
        <ele>2245</ele>
        <time>2020-07-27T16:01:17.053Z</time>
      </trkpt>
      <trkpt lat="42.81367" lon="0.26301">
        <ele>2244</ele>
        <time>2020-07-27T16:01:18.053Z</time>
      </trkpt>
      <trkpt lat="42.81366" lon="0.26305">
        <ele>2244</ele>
        <time>2020-07-27T16:01:19.053Z</time>
      </trkpt>
      <trkpt lat="42.81367" lon="0.26309">
        <ele>2243</ele>
        <time>2020-07-27T16:01:20.053Z</time>
      </trkpt>
      <trkpt lat="42.81368" lon="0.26314">
        <ele>2243</ele>
        <time>2020-07-27T16:01:21.053Z</time>
      </trkpt>
      <trkpt lat="42.81369" lon="0.26318">
        <ele>2242</ele>
        <time>2020-07-27T16:01:22.053Z</time>
      </trkpt>
      <trkpt lat="42.81369" lon="0.26322">
        <ele>2242</ele>
        <time>2020-07-27T16:01:23.053Z</time>
      </trkpt>
      <trkpt lat="42.8137" lon="0.26326">
        <ele>2241</ele>
        <time>2020-07-27T16:01:24.053Z</time>
      </trkpt>
      <trkpt lat="42.8137" lon="0.2633">
        <ele>2241</ele>
        <time>2020-07-27T16:01:25.053Z</time>
      </trkpt>
      <trkpt lat="42.81369" lon="0.26334">
        <ele>2239</ele>
        <time>2020-07-27T16:01:26.053Z</time>
      </trkpt>
      <trkpt lat="42.81369" lon="0.26338">
        <ele>2238</ele>
        <time>2020-07-27T16:01:27.053Z</time>
      </trkpt>
      <trkpt lat="42.81368" lon="0.26342">
        <ele>2238</ele>
        <time>2020-07-27T16:01:28.053Z</time>
      </trkpt>
      <trkpt lat="42.81368" lon="0.26346">
        <ele>2237</ele>
        <time>2020-07-27T16:01:29.053Z</time>
      </trkpt>
      <trkpt lat="42.81368" lon="0.26349">
        <ele>2237</ele>
        <time>2020-07-27T16:01:30.053Z</time>
      </trkpt>
      <trkpt lat="42.81368" lon="0.26353">
        <ele>2236</ele>
        <time>2020-07-27T16:01:31.053Z</time>
      </trkpt>
      <trkpt lat="42.81369" lon="0.26357">
        <ele>2236</ele>
        <time>2020-07-27T16:01:32.053Z</time>
      </trkpt>
      <trkpt lat="42.8137" lon="0.26361">
        <ele>2236</ele>
        <time>2020-07-27T16:01:33.053Z</time>
      </trkpt>
      <trkpt lat="42.8137" lon="0.26365">
        <ele>2236</ele>
        <time>2020-07-27T16:01:34.053Z</time>
      </trkpt>
      <trkpt lat="42.81371" lon="0.26368">
        <ele>2235</ele>
        <time>2020-07-27T16:01:35.053Z</time>
      </trkpt>
      <trkpt lat="42.8137" lon="0.26371">
        <ele>2234</ele>
        <time>2020-07-27T16:01:36.053Z</time>
      </trkpt>
      <trkpt lat="42.8137" lon="0.26374">
        <ele>2234</ele>
        <time>2020-07-27T16:01:37.053Z</time>
      </trkpt>
      <trkpt lat="42.8137" lon="0.26378">
        <ele>2233</ele>
        <time>2020-07-27T16:01:38.053Z</time>
      </trkpt>
      <trkpt lat="42.81369" lon="0.26382">
        <ele>2232</ele>
        <time>2020-07-27T16:01:39.053Z</time>
      </trkpt>
      <trkpt lat="42.81369" lon="0.26386">
        <ele>2231</ele>
        <time>2020-07-27T16:01:40.053Z</time>
      </trkpt>
      <trkpt lat="42.81369" lon="0.2639">
        <ele>2231</ele>
        <time>2020-07-27T16:01:41.053Z</time>
      </trkpt>
      <trkpt lat="42.81369" lon="0.26395">
        <ele>2230</ele>
        <time>2020-07-27T16:01:42.053Z</time>
      </trkpt>
      <trkpt lat="42.81369" lon="0.26399">
        <ele>2229</ele>
        <time>2020-07-27T16:01:43.053Z</time>
      </trkpt>
      <trkpt lat="42.81369" lon="0.26403">
        <ele>2229</ele>
        <time>2020-07-27T16:01:44.053Z</time>
      </trkpt>
      <trkpt lat="42.81369" lon="0.26407">
        <ele>2228</ele>
        <time>2020-07-27T16:01:45.053Z</time>
      </trkpt>
      <trkpt lat="42.81369" lon="0.26412">
        <ele>2227</ele>
        <time>2020-07-27T16:01:46.053Z</time>
      </trkpt>
      <trkpt lat="42.8137" lon="0.26416">
        <ele>2227</ele>
        <time>2020-07-27T16:01:47.053Z</time>
      </trkpt>
      <trkpt lat="42.8137" lon="0.2642">
        <ele>2227</ele>
        <time>2020-07-27T16:01:48.053Z</time>
      </trkpt>
      <trkpt lat="42.8137" lon="0.26423">
        <ele>2227</ele>
        <time>2020-07-27T16:01:49.053Z</time>
      </trkpt>
      <trkpt lat="42.81371" lon="0.26427">
        <ele>2226</ele>
        <time>2020-07-27T16:01:50.053Z</time>
      </trkpt>
      <trkpt lat="42.81371" lon="0.26431">
        <ele>2226</ele>
        <time>2020-07-27T16:01:51.053Z</time>
      </trkpt>
      <trkpt lat="42.81371" lon="0.26435">
        <ele>2225</ele>
        <time>2020-07-27T16:01:52.053Z</time>
      </trkpt>
      <trkpt lat="42.8137" lon="0.26439">
        <ele>2225</ele>
        <time>2020-07-27T16:01:53.053Z</time>
      </trkpt>
      <trkpt lat="42.81369" lon="0.26443">
        <ele>2224</ele>
        <time>2020-07-27T16:01:54.053Z</time>
      </trkpt>
      <trkpt lat="42.81366" lon="0.26447">
        <ele>2224</ele>
        <time>2020-07-27T16:01:55.053Z</time>
      </trkpt>
      <trkpt lat="42.81364" lon="0.2645">
        <ele>2225</ele>
        <time>2020-07-27T16:01:56.053Z</time>
      </trkpt>
      <trkpt lat="42.81362" lon="0.26453">
        <ele>2225</ele>
        <time>2020-07-27T16:01:57.053Z</time>
      </trkpt>
      <trkpt lat="42.8136" lon="0.26456">
        <ele>2224</ele>
        <time>2020-07-27T16:01:58.053Z</time>
      </trkpt>
      <trkpt lat="42.81358" lon="0.26459">
        <ele>2223</ele>
        <time>2020-07-27T16:01:59.053Z</time>
      </trkpt>
      <trkpt lat="42.81356" lon="0.26462">
        <ele>2223</ele>
        <time>2020-07-27T16:02:00.053Z</time>
      </trkpt>
      <trkpt lat="42.81354" lon="0.26465">
        <ele>2223</ele>
        <time>2020-07-27T16:02:01.053Z</time>
      </trkpt>
      <trkpt lat="42.81351" lon="0.26468">
        <ele>2222</ele>
        <time>2020-07-27T16:02:02.053Z</time>
      </trkpt>
      <trkpt lat="42.81349" lon="0.26471">
        <ele>2222</ele>
        <time>2020-07-27T16:02:03.053Z</time>
      </trkpt>
      <trkpt lat="42.81346" lon="0.26473">
        <ele>2223</ele>
        <time>2020-07-27T16:02:04.053Z</time>
      </trkpt>
      <trkpt lat="42.81344" lon="0.26475">
        <ele>2222</ele>
        <time>2020-07-27T16:02:05.053Z</time>
      </trkpt>
      <trkpt lat="42.81342" lon="0.26478">
        <ele>2221</ele>
        <time>2020-07-27T16:02:06.053Z</time>
      </trkpt>
      <trkpt lat="42.81341" lon="0.26481">
        <ele>2220</ele>
        <time>2020-07-27T16:02:07.053Z</time>
      </trkpt>
      <trkpt lat="42.8134" lon="0.26484">
        <ele>2218</ele>
        <time>2020-07-27T16:02:08.053Z</time>
      </trkpt>
      <trkpt lat="42.81339" lon="0.26487">
        <ele>2217</ele>
        <time>2020-07-27T16:02:09.053Z</time>
      </trkpt>
      <trkpt lat="42.81341" lon="0.26488">
        <ele>2216</ele>
        <time>2020-07-27T16:02:10.053Z</time>
      </trkpt>
      <trkpt lat="42.81344" lon="0.26489">
        <ele>2216</ele>
        <time>2020-07-27T16:02:11.053Z</time>
      </trkpt>
      <trkpt lat="42.81349" lon="0.26489">
        <ele>2215</ele>
        <time>2020-07-27T16:02:12.053Z</time>
      </trkpt>
      <trkpt lat="42.81352" lon="0.26489">
        <ele>2214</ele>
        <time>2020-07-27T16:02:13.053Z</time>
      </trkpt>
      <trkpt lat="42.81356" lon="0.26489">
        <ele>2213</ele>
        <time>2020-07-27T16:02:14.053Z</time>
      </trkpt>
      <trkpt lat="42.81359" lon="0.26488">
        <ele>2213</ele>
        <time>2020-07-27T16:02:15.053Z</time>
      </trkpt>
      <trkpt lat="42.81362" lon="0.26487">
        <ele>2213</ele>
        <time>2020-07-27T16:02:16.053Z</time>
      </trkpt>
      <trkpt lat="42.81366" lon="0.26486">
        <ele>2213</ele>
        <time>2020-07-27T16:02:17.053Z</time>
      </trkpt>
      <trkpt lat="42.8137" lon="0.26485">
        <ele>2212</ele>
        <time>2020-07-27T16:02:18.053Z</time>
      </trkpt>
      <trkpt lat="42.81373" lon="0.26484">
        <ele>2212</ele>
        <time>2020-07-27T16:02:19.053Z</time>
      </trkpt>
      <trkpt lat="42.81377" lon="0.26483">
        <ele>2211</ele>
        <time>2020-07-27T16:02:20.053Z</time>
      </trkpt>
      <trkpt lat="42.8138" lon="0.26483">
        <ele>2211</ele>
        <time>2020-07-27T16:02:21.053Z</time>
      </trkpt>
      <trkpt lat="42.81383" lon="0.26482">
        <ele>2211</ele>
        <time>2020-07-27T16:02:22.053Z</time>
      </trkpt>
      <trkpt lat="42.81386" lon="0.26482">
        <ele>2212</ele>
        <time>2020-07-27T16:02:23.053Z</time>
      </trkpt>
      <trkpt lat="42.81389" lon="0.26481">
        <ele>2212</ele>
        <time>2020-07-27T16:02:24.053Z</time>
      </trkpt>
      <trkpt lat="42.81403" lon="0.2648">
        <ele>2219</ele>
        <time>2020-07-27T16:02:26.022Z</time>
      </trkpt>
      <trkpt lat="42.81402" lon="0.26481">
        <ele>2219</ele>
        <time>2020-07-27T16:02:27.022Z</time>
      </trkpt>
      <trkpt lat="42.81401" lon="0.26483">
        <ele>2219</ele>
        <time>2020-07-27T16:02:28.022Z</time>
      </trkpt>
      <trkpt lat="42.814" lon="0.26485">
        <ele>2219</ele>
        <time>2020-07-27T16:02:29.022Z</time>
      </trkpt>
      <trkpt lat="42.81399" lon="0.26488">
        <ele>2219</ele>
        <time>2020-07-27T16:02:30.022Z</time>
      </trkpt>
      <trkpt lat="42.81398" lon="0.26492">
        <ele>2219</ele>
        <time>2020-07-27T16:02:31.022Z</time>
      </trkpt>
      <trkpt lat="42.81397" lon="0.26497">
        <ele>2219</ele>
        <time>2020-07-27T16:02:32.022Z</time>
      </trkpt>
      <trkpt lat="42.81396" lon="0.26501">
        <ele>2219</ele>
        <time>2020-07-27T16:02:33.022Z</time>
      </trkpt>
      <trkpt lat="42.81395" lon="0.26505">
        <ele>2219</ele>
        <time>2020-07-27T16:02:34.022Z</time>
      </trkpt>
      <trkpt lat="42.81394" lon="0.26509">
        <ele>2218</ele>
        <time>2020-07-27T16:02:35.022Z</time>
      </trkpt>
      <trkpt lat="42.81393" lon="0.26513">
        <ele>2218</ele>
        <time>2020-07-27T16:02:36.022Z</time>
      </trkpt>
      <trkpt lat="42.81393" lon="0.26517">
        <ele>2218</ele>
        <time>2020-07-27T16:02:37.022Z</time>
      </trkpt>
      <trkpt lat="42.81392" lon="0.26521">
        <ele>2217</ele>
        <time>2020-07-27T16:02:38.022Z</time>
      </trkpt>
      <trkpt lat="42.81391" lon="0.26525">
        <ele>2217</ele>
        <time>2020-07-27T16:02:39.022Z</time>
      </trkpt>
      <trkpt lat="42.81389" lon="0.26529">
        <ele>2217</ele>
        <time>2020-07-27T16:02:40.022Z</time>
      </trkpt>
      <trkpt lat="42.81387" lon="0.26533">
        <ele>2215</ele>
        <time>2020-07-27T16:02:41.022Z</time>
      </trkpt>
      <trkpt lat="42.81385" lon="0.26537">
        <ele>2215</ele>
        <time>2020-07-27T16:02:42.022Z</time>
      </trkpt>
      <trkpt lat="42.81382" lon="0.2654">
        <ele>2214</ele>
        <time>2020-07-27T16:02:43.022Z</time>
      </trkpt>
      <trkpt lat="42.8138" lon="0.26544">
        <ele>2213</ele>
        <time>2020-07-27T16:02:44.022Z</time>
      </trkpt>
      <trkpt lat="42.81379" lon="0.26548">
        <ele>2213</ele>
        <time>2020-07-27T16:02:45.022Z</time>
      </trkpt>
      <trkpt lat="42.81377" lon="0.26552">
        <ele>2212</ele>
        <time>2020-07-27T16:02:46.022Z</time>
      </trkpt>
      <trkpt lat="42.81375" lon="0.26555">
        <ele>2211</ele>
        <time>2020-07-27T16:02:47.022Z</time>
      </trkpt>
      <trkpt lat="42.81373" lon="0.26559">
        <ele>2211</ele>
        <time>2020-07-27T16:02:48.022Z</time>
      </trkpt>
      <trkpt lat="42.81371" lon="0.26562">
        <ele>2211</ele>
        <time>2020-07-27T16:02:49.022Z</time>
      </trkpt>
      <trkpt lat="42.8137" lon="0.26566">
        <ele>2210</ele>
        <time>2020-07-27T16:02:50.022Z</time>
      </trkpt>
      <trkpt lat="42.81368" lon="0.2657">
        <ele>2210</ele>
        <time>2020-07-27T16:02:51.022Z</time>
      </trkpt>
      <trkpt lat="42.81366" lon="0.26574">
        <ele>2209</ele>
        <time>2020-07-27T16:02:52.022Z</time>
      </trkpt>
      <trkpt lat="42.81365" lon="0.26578">
        <ele>2209</ele>
        <time>2020-07-27T16:02:53.022Z</time>
      </trkpt>
      <trkpt lat="42.81363" lon="0.26581">
        <ele>2209</ele>
        <time>2020-07-27T16:02:54.022Z</time>
      </trkpt>
      <trkpt lat="42.81362" lon="0.26585">
        <ele>2208</ele>
        <time>2020-07-27T16:02:55.022Z</time>
      </trkpt>
      <trkpt lat="42.81361" lon="0.26588">
        <ele>2207</ele>
        <time>2020-07-27T16:02:56.022Z</time>
      </trkpt>
      <trkpt lat="42.8136" lon="0.26591">
        <ele>2206</ele>
        <time>2020-07-27T16:02:57.022Z</time>
      </trkpt>
      <trkpt lat="42.8136" lon="0.26595">
        <ele>2205</ele>
        <time>2020-07-27T16:02:58.022Z</time>
      </trkpt>
      <trkpt lat="42.81359" lon="0.26599">
        <ele>2204</ele>
        <time>2020-07-27T16:02:59.022Z</time>
      </trkpt>
      <trkpt lat="42.81359" lon="0.26603">
        <ele>2204</ele>
        <time>2020-07-27T16:03:00.022Z</time>
      </trkpt>
      <trkpt lat="42.8136" lon="0.26607">
        <ele>2203</ele>
        <time>2020-07-27T16:03:01.022Z</time>
      </trkpt>
      <trkpt lat="42.8136" lon="0.26611">
        <ele>2201</ele>
        <time>2020-07-27T16:03:02.022Z</time>
      </trkpt>
      <trkpt lat="42.8136" lon="0.26616">
        <ele>2200</ele>
        <time>2020-07-27T16:03:03.022Z</time>
      </trkpt>
      <trkpt lat="42.8136" lon="0.2662">
        <ele>2199</ele>
        <time>2020-07-27T16:03:04.022Z</time>
      </trkpt>
      <trkpt lat="42.81361" lon="0.26624">
        <ele>2199</ele>
        <time>2020-07-27T16:03:05.022Z</time>
      </trkpt>
      <trkpt lat="42.81361" lon="0.26628">
        <ele>2198</ele>
        <time>2020-07-27T16:03:06.022Z</time>
      </trkpt>
      <trkpt lat="42.81361" lon="0.26632">
        <ele>2197</ele>
        <time>2020-07-27T16:03:07.022Z</time>
      </trkpt>
      <trkpt lat="42.81362" lon="0.26636">
        <ele>2196</ele>
        <time>2020-07-27T16:03:08.022Z</time>
      </trkpt>
      <trkpt lat="42.81362" lon="0.2664">
        <ele>2195</ele>
        <time>2020-07-27T16:03:09.022Z</time>
      </trkpt>
      <trkpt lat="42.81363" lon="0.26644">
        <ele>2195</ele>
        <time>2020-07-27T16:03:10.022Z</time>
      </trkpt>
      <trkpt lat="42.81364" lon="0.26649">
        <ele>2194</ele>
        <time>2020-07-27T16:03:11.022Z</time>
      </trkpt>
      <trkpt lat="42.81364" lon="0.26653">
        <ele>2193</ele>
        <time>2020-07-27T16:03:12.022Z</time>
      </trkpt>
      <trkpt lat="42.81365" lon="0.26657">
        <ele>2192</ele>
        <time>2020-07-27T16:03:13.022Z</time>
      </trkpt>
      <trkpt lat="42.81366" lon="0.26662">
        <ele>2191</ele>
        <time>2020-07-27T16:03:14.022Z</time>
      </trkpt>
      <trkpt lat="42.81367" lon="0.26666">
        <ele>2190</ele>
        <time>2020-07-27T16:03:15.022Z</time>
      </trkpt>
      <trkpt lat="42.81367" lon="0.2667">
        <ele>2190</ele>
        <time>2020-07-27T16:03:16.022Z</time>
      </trkpt>
      <trkpt lat="42.81368" lon="0.26674">
        <ele>2189</ele>
        <time>2020-07-27T16:03:17.022Z</time>
      </trkpt>
      <trkpt lat="42.81368" lon="0.26679">
        <ele>2189</ele>
        <time>2020-07-27T16:03:18.022Z</time>
      </trkpt>
      <trkpt lat="42.81369" lon="0.26684">
        <ele>2188</ele>
        <time>2020-07-27T16:03:19.022Z</time>
      </trkpt>
      <trkpt lat="42.81369" lon="0.26688">
        <ele>2188</ele>
        <time>2020-07-27T16:03:20.022Z</time>
      </trkpt>
      <trkpt lat="42.81369" lon="0.26693">
        <ele>2188</ele>
        <time>2020-07-27T16:03:21.022Z</time>
      </trkpt>
      <trkpt lat="42.81369" lon="0.26698">
        <ele>2187</ele>
        <time>2020-07-27T16:03:22.022Z</time>
      </trkpt>
      <trkpt lat="42.81369" lon="0.26702">
        <ele>2186</ele>
        <time>2020-07-27T16:03:23.022Z</time>
      </trkpt>
      <trkpt lat="42.81369" lon="0.26707">
        <ele>2185</ele>
        <time>2020-07-27T16:03:24.022Z</time>
      </trkpt>
      <trkpt lat="42.8137" lon="0.26712">
        <ele>2184</ele>
        <time>2020-07-27T16:03:25.022Z</time>
      </trkpt>
      <trkpt lat="42.8137" lon="0.26716">
        <ele>2184</ele>
        <time>2020-07-27T16:03:26.022Z</time>
      </trkpt>
      <trkpt lat="42.8137" lon="0.26721">
        <ele>2183</ele>
        <time>2020-07-27T16:03:27.022Z</time>
      </trkpt>
      <trkpt lat="42.81371" lon="0.26726">
        <ele>2183</ele>
        <time>2020-07-27T16:03:28.022Z</time>
      </trkpt>
      <trkpt lat="42.81371" lon="0.26731">
        <ele>2182</ele>
        <time>2020-07-27T16:03:29.022Z</time>
      </trkpt>
      <trkpt lat="42.81371" lon="0.26736">
        <ele>2181</ele>
        <time>2020-07-27T16:03:30.022Z</time>
      </trkpt>
      <trkpt lat="42.81372" lon="0.26741">
        <ele>2180</ele>
        <time>2020-07-27T16:03:31.022Z</time>
      </trkpt>
      <trkpt lat="42.81372" lon="0.26746">
        <ele>2179</ele>
        <time>2020-07-27T16:03:32.022Z</time>
      </trkpt>
      <trkpt lat="42.81372" lon="0.2675">
        <ele>2179</ele>
        <time>2020-07-27T16:03:33.022Z</time>
      </trkpt>
      <trkpt lat="42.81373" lon="0.26755">
        <ele>2178</ele>
        <time>2020-07-27T16:03:34.022Z</time>
      </trkpt>
      <trkpt lat="42.81373" lon="0.26759">
        <ele>2178</ele>
        <time>2020-07-27T16:03:35.022Z</time>
      </trkpt>
      <trkpt lat="42.81373" lon="0.26764">
        <ele>2177</ele>
        <time>2020-07-27T16:03:36.022Z</time>
      </trkpt>
      <trkpt lat="42.81373" lon="0.26769">
        <ele>2176</ele>
        <time>2020-07-27T16:03:37.022Z</time>
      </trkpt>
      <trkpt lat="42.81374" lon="0.26774">
        <ele>2176</ele>
        <time>2020-07-27T16:03:38.022Z</time>
      </trkpt>
      <trkpt lat="42.81374" lon="0.26779">
        <ele>2175</ele>
        <time>2020-07-27T16:03:39.022Z</time>
      </trkpt>
      <trkpt lat="42.81374" lon="0.26784">
        <ele>2175</ele>
        <time>2020-07-27T16:03:40.022Z</time>
      </trkpt>
      <trkpt lat="42.81374" lon="0.26788">
        <ele>2174</ele>
        <time>2020-07-27T16:03:41.022Z</time>
      </trkpt>
      <trkpt lat="42.81374" lon="0.26793">
        <ele>2174</ele>
        <time>2020-07-27T16:03:42.022Z</time>
      </trkpt>
      <trkpt lat="42.81374" lon="0.26798">
        <ele>2173</ele>
        <time>2020-07-27T16:03:43.022Z</time>
      </trkpt>
      <trkpt lat="42.81374" lon="0.26803">
        <ele>2173</ele>
        <time>2020-07-27T16:03:44.022Z</time>
      </trkpt>
      <trkpt lat="42.81373" lon="0.26807">
        <ele>2172</ele>
        <time>2020-07-27T16:03:45.022Z</time>
      </trkpt>
      <trkpt lat="42.81372" lon="0.26812">
        <ele>2172</ele>
        <time>2020-07-27T16:03:46.022Z</time>
      </trkpt>
      <trkpt lat="42.81372" lon="0.26816">
        <ele>2171</ele>
        <time>2020-07-27T16:03:47.022Z</time>
      </trkpt>
      <trkpt lat="42.81371" lon="0.2682">
        <ele>2170</ele>
        <time>2020-07-27T16:03:48.022Z</time>
      </trkpt>
      <trkpt lat="42.81371" lon="0.26825">
        <ele>2170</ele>
        <time>2020-07-27T16:03:49.022Z</time>
      </trkpt>
      <trkpt lat="42.8137" lon="0.26829">
        <ele>2169</ele>
        <time>2020-07-27T16:03:50.022Z</time>
      </trkpt>
      <trkpt lat="42.8137" lon="0.26833">
        <ele>2169</ele>
        <time>2020-07-27T16:03:51.022Z</time>
      </trkpt>
      <trkpt lat="42.8137" lon="0.26838">
        <ele>2168</ele>
        <time>2020-07-27T16:03:52.022Z</time>
      </trkpt>
      <trkpt lat="42.8137" lon="0.26842">
        <ele>2168</ele>
        <time>2020-07-27T16:03:53.022Z</time>
      </trkpt>
      <trkpt lat="42.8137" lon="0.26847">
        <ele>2167</ele>
        <time>2020-07-27T16:03:54.022Z</time>
      </trkpt>
      <trkpt lat="42.8137" lon="0.26852">
        <ele>2167</ele>
        <time>2020-07-27T16:03:55.022Z</time>
      </trkpt>
      <trkpt lat="42.8137" lon="0.26857">
        <ele>2167</ele>
        <time>2020-07-27T16:03:56.022Z</time>
      </trkpt>
      <trkpt lat="42.8137" lon="0.26861">
        <ele>2168</ele>
        <time>2020-07-27T16:03:57.022Z</time>
      </trkpt>
      <trkpt lat="42.8137" lon="0.26866">
        <ele>2167</ele>
        <time>2020-07-27T16:03:58.022Z</time>
      </trkpt>
      <trkpt lat="42.8137" lon="0.2687">
        <ele>2166</ele>
        <time>2020-07-27T16:03:59.022Z</time>
      </trkpt>
      <trkpt lat="42.81369" lon="0.26875">
        <ele>2166</ele>
        <time>2020-07-27T16:04:00.022Z</time>
      </trkpt>
      <trkpt lat="42.81369" lon="0.2688">
        <ele>2165</ele>
        <time>2020-07-27T16:04:01.022Z</time>
      </trkpt>
      <trkpt lat="42.81369" lon="0.26884">
        <ele>2165</ele>
        <time>2020-07-27T16:04:02.022Z</time>
      </trkpt>
      <trkpt lat="42.81369" lon="0.26889">
        <ele>2164</ele>
        <time>2020-07-27T16:04:03.022Z</time>
      </trkpt>
      <trkpt lat="42.81369" lon="0.26893">
        <ele>2164</ele>
        <time>2020-07-27T16:04:04.022Z</time>
      </trkpt>
      <trkpt lat="42.81369" lon="0.26898">
        <ele>2163</ele>
        <time>2020-07-27T16:04:05.022Z</time>
      </trkpt>
      <trkpt lat="42.81369" lon="0.26903">
        <ele>2163</ele>
        <time>2020-07-27T16:04:06.022Z</time>
      </trkpt>
      <trkpt lat="42.81369" lon="0.26907">
        <ele>2162</ele>
        <time>2020-07-27T16:04:07.022Z</time>
      </trkpt>
      <trkpt lat="42.81369" lon="0.26912">
        <ele>2161</ele>
        <time>2020-07-27T16:04:08.022Z</time>
      </trkpt>
      <trkpt lat="42.81369" lon="0.26916">
        <ele>2161</ele>
        <time>2020-07-27T16:04:09.022Z</time>
      </trkpt>
      <trkpt lat="42.81369" lon="0.26921">
        <ele>2160</ele>
        <time>2020-07-27T16:04:10.022Z</time>
      </trkpt>
      <trkpt lat="42.81369" lon="0.26926">
        <ele>2159</ele>
        <time>2020-07-27T16:04:11.022Z</time>
      </trkpt>
      <trkpt lat="42.81369" lon="0.2693">
        <ele>2159</ele>
        <time>2020-07-27T16:04:12.022Z</time>
      </trkpt>
      <trkpt lat="42.8137" lon="0.26935">
        <ele>2157</ele>
        <time>2020-07-27T16:04:13.022Z</time>
      </trkpt>
      <trkpt lat="42.8137" lon="0.26939">
        <ele>2157</ele>
        <time>2020-07-27T16:04:14.022Z</time>
      </trkpt>
      <trkpt lat="42.8137" lon="0.26944">
        <ele>2157</ele>
        <time>2020-07-27T16:04:15.022Z</time>
      </trkpt>
      <trkpt lat="42.81371" lon="0.26949">
        <ele>2156</ele>
        <time>2020-07-27T16:04:16.022Z</time>
      </trkpt>
      <trkpt lat="42.81372" lon="0.26953">
        <ele>2155</ele>
        <time>2020-07-27T16:04:17.022Z</time>
      </trkpt>
      <trkpt lat="42.81372" lon="0.26958">
        <ele>2155</ele>
        <time>2020-07-27T16:04:18.022Z</time>
      </trkpt>
      <trkpt lat="42.81372" lon="0.26963">
        <ele>2154</ele>
        <time>2020-07-27T16:04:19.022Z</time>
      </trkpt>
      <trkpt lat="42.81372" lon="0.26968">
        <ele>2153</ele>
        <time>2020-07-27T16:04:20.022Z</time>
      </trkpt>
      <trkpt lat="42.81372" lon="0.26972">
        <ele>2153</ele>
        <time>2020-07-27T16:04:21.022Z</time>
      </trkpt>
      <trkpt lat="42.81372" lon="0.26977">
        <ele>2152</ele>
        <time>2020-07-27T16:04:22.022Z</time>
      </trkpt>
      <trkpt lat="42.81372" lon="0.26981">
        <ele>2151</ele>
        <time>2020-07-27T16:04:23.022Z</time>
      </trkpt>
      <trkpt lat="42.81373" lon="0.26986">
        <ele>2150</ele>
        <time>2020-07-27T16:04:24.022Z</time>
      </trkpt>
      <trkpt lat="42.81374" lon="0.2699">
        <ele>2149</ele>
        <time>2020-07-27T16:04:25.022Z</time>
      </trkpt>
      <trkpt lat="42.81376" lon="0.26994">
        <ele>2148</ele>
        <time>2020-07-27T16:04:26.022Z</time>
      </trkpt>
      <trkpt lat="42.81377" lon="0.26997">
        <ele>2146</ele>
        <time>2020-07-27T16:04:27.022Z</time>
      </trkpt>
      <trkpt lat="42.8138" lon="0.27">
        <ele>2147</ele>
        <time>2020-07-27T16:04:28.022Z</time>
      </trkpt>
      <trkpt lat="42.81383" lon="0.27002">
        <ele>2146</ele>
        <time>2020-07-27T16:04:29.022Z</time>
      </trkpt>
      <trkpt lat="42.81386" lon="0.27005">
        <ele>2145</ele>
        <time>2020-07-27T16:04:30.022Z</time>
      </trkpt>
      <trkpt lat="42.81388" lon="0.27007">
        <ele>2144</ele>
        <time>2020-07-27T16:04:31.022Z</time>
      </trkpt>
      <trkpt lat="42.81391" lon="0.2701">
        <ele>2144</ele>
        <time>2020-07-27T16:04:32.022Z</time>
      </trkpt>
      <trkpt lat="42.81393" lon="0.27013">
        <ele>2143</ele>
        <time>2020-07-27T16:04:33.022Z</time>
      </trkpt>
      <trkpt lat="42.81395" lon="0.27016">
        <ele>2142</ele>
        <time>2020-07-27T16:04:34.022Z</time>
      </trkpt>
      <trkpt lat="42.81396" lon="0.2702">
        <ele>2141</ele>
        <time>2020-07-27T16:04:35.022Z</time>
      </trkpt>
      <trkpt lat="42.81398" lon="0.27023">
        <ele>2140</ele>
        <time>2020-07-27T16:04:36.022Z</time>
      </trkpt>
      <trkpt lat="42.81399" lon="0.27027">
        <ele>2139</ele>
        <time>2020-07-27T16:04:37.022Z</time>
      </trkpt>
      <trkpt lat="42.81401" lon="0.2703">
        <ele>2139</ele>
        <time>2020-07-27T16:04:38.022Z</time>
      </trkpt>
      <trkpt lat="42.81401" lon="0.27033">
        <ele>2140</ele>
        <time>2020-07-27T16:04:39.022Z</time>
      </trkpt>
      <trkpt lat="42.814" lon="0.27034">
        <ele>2140</ele>
        <time>2020-07-27T16:04:40.022Z</time>
      </trkpt>
      <trkpt lat="42.814" lon="0.27035">
        <ele>2142</ele>
        <time>2020-07-27T16:04:41.022Z</time>
      </trkpt>
      <trkpt lat="42.81399" lon="0.27035">
        <ele>2141</ele>
        <time>2020-07-27T16:04:42.022Z</time>
      </trkpt>
      <trkpt lat="42.81397" lon="0.27035">
        <ele>2141</ele>
        <time>2020-07-27T16:04:43.022Z</time>
      </trkpt>
      <trkpt lat="42.81396" lon="0.27036">
        <ele>2141</ele>
        <time>2020-07-27T16:04:44.022Z</time>
      </trkpt>
      <trkpt lat="42.81396" lon="0.27036">
        <ele>2141</ele>
        <time>2020-07-27T16:04:45.022Z</time>
      </trkpt>
      <trkpt lat="42.81395" lon="0.27037">
        <ele>2140</ele>
        <time>2020-07-27T16:04:46.022Z</time>
      </trkpt>
      <trkpt lat="42.81394" lon="0.27038">
        <ele>2140</ele>
        <time>2020-07-27T16:04:47.022Z</time>
      </trkpt>
      <trkpt lat="42.81394" lon="0.2704">
        <ele>2140</ele>
        <time>2020-07-27T16:04:48.022Z</time>
      </trkpt>
      <trkpt lat="42.81392" lon="0.27042">
        <ele>2140</ele>
        <time>2020-07-27T16:04:49.022Z</time>
      </trkpt>
      <trkpt lat="42.81391" lon="0.27045">
        <ele>2140</ele>
        <time>2020-07-27T16:04:50.022Z</time>
      </trkpt>
      <trkpt lat="42.81389" lon="0.27048">
        <ele>2139</ele>
        <time>2020-07-27T16:04:51.022Z</time>
      </trkpt>
      <trkpt lat="42.81387" lon="0.27051">
        <ele>2139</ele>
        <time>2020-07-27T16:04:52.022Z</time>
      </trkpt>
      <trkpt lat="42.81385" lon="0.27054">
        <ele>2138</ele>
        <time>2020-07-27T16:04:53.022Z</time>
      </trkpt>
      <trkpt lat="42.81383" lon="0.27057">
        <ele>2138</ele>
        <time>2020-07-27T16:04:54.022Z</time>
      </trkpt>
      <trkpt lat="42.81381" lon="0.2706">
        <ele>2137</ele>
        <time>2020-07-27T16:04:55.022Z</time>
      </trkpt>
      <trkpt lat="42.81379" lon="0.27063">
        <ele>2137</ele>
        <time>2020-07-27T16:04:56.022Z</time>
      </trkpt>
      <trkpt lat="42.81377" lon="0.27066">
        <ele>2136</ele>
        <time>2020-07-27T16:04:57.022Z</time>
      </trkpt>
      <trkpt lat="42.81375" lon="0.27069">
        <ele>2135</ele>
        <time>2020-07-27T16:04:58.022Z</time>
      </trkpt>
      <trkpt lat="42.81373" lon="0.27072">
        <ele>2135</ele>
        <time>2020-07-27T16:04:59.022Z</time>
      </trkpt>
      <trkpt lat="42.8137" lon="0.27074">
        <ele>2134</ele>
        <time>2020-07-27T16:05:00.022Z</time>
      </trkpt>
      <trkpt lat="42.81368" lon="0.27076">
        <ele>2132</ele>
        <time>2020-07-27T16:05:01.022Z</time>
      </trkpt>
      <trkpt lat="42.81366" lon="0.27078">
        <ele>2131</ele>
        <time>2020-07-27T16:05:02.022Z</time>
      </trkpt>
      <trkpt lat="42.81363" lon="0.27081">
        <ele>2130</ele>
        <time>2020-07-27T16:05:03.022Z</time>
      </trkpt>
      <trkpt lat="42.81361" lon="0.27084">
        <ele>2130</ele>
        <time>2020-07-27T16:05:04.022Z</time>
      </trkpt>
      <trkpt lat="42.81359" lon="0.27087">
        <ele>2129</ele>
        <time>2020-07-27T16:05:05.022Z</time>
      </trkpt>
      <trkpt lat="42.81357" lon="0.2709">
        <ele>2128</ele>
        <time>2020-07-27T16:05:06.022Z</time>
      </trkpt>
      <trkpt lat="42.81355" lon="0.27092">
        <ele>2127</ele>
        <time>2020-07-27T16:05:07.022Z</time>
      </trkpt>
      <trkpt lat="42.81352" lon="0.27095">
        <ele>2127</ele>
        <time>2020-07-27T16:05:08.022Z</time>
      </trkpt>
      <trkpt lat="42.81351" lon="0.27098">
        <ele>2126</ele>
        <time>2020-07-27T16:05:09.022Z</time>
      </trkpt>
      <trkpt lat="42.81349" lon="0.27101">
        <ele>2125</ele>
        <time>2020-07-27T16:05:10.022Z</time>
      </trkpt>
      <trkpt lat="42.81347" lon="0.27104">
        <ele>2124</ele>
        <time>2020-07-27T16:05:11.022Z</time>
      </trkpt>
      <trkpt lat="42.81344" lon="0.27107">
        <ele>2123</ele>
        <time>2020-07-27T16:05:12.022Z</time>
      </trkpt>
      <trkpt lat="42.81342" lon="0.27109">
        <ele>2122</ele>
        <time>2020-07-27T16:05:13.022Z</time>
      </trkpt>
      <trkpt lat="42.8134" lon="0.27112">
        <ele>2121</ele>
        <time>2020-07-27T16:05:14.022Z</time>
      </trkpt>
      <trkpt lat="42.81338" lon="0.27115">
        <ele>2120</ele>
        <time>2020-07-27T16:05:15.022Z</time>
      </trkpt>
      <trkpt lat="42.81336" lon="0.27118">
        <ele>2120</ele>
        <time>2020-07-27T16:05:16.022Z</time>
      </trkpt>
      <trkpt lat="42.81334" lon="0.2712">
        <ele>2119</ele>
        <time>2020-07-27T16:05:17.022Z</time>
      </trkpt>
      <trkpt lat="42.81332" lon="0.27123">
        <ele>2118</ele>
        <time>2020-07-27T16:05:18.022Z</time>
      </trkpt>
      <trkpt lat="42.8133" lon="0.27125">
        <ele>2117</ele>
        <time>2020-07-27T16:05:19.022Z</time>
      </trkpt>
      <trkpt lat="42.81328" lon="0.27128">
        <ele>2117</ele>
        <time>2020-07-27T16:05:20.022Z</time>
      </trkpt>
      <trkpt lat="42.81326" lon="0.27131">
        <ele>2116</ele>
        <time>2020-07-27T16:05:21.022Z</time>
      </trkpt>
      <trkpt lat="42.81324" lon="0.27134">
        <ele>2115</ele>
        <time>2020-07-27T16:05:22.022Z</time>
      </trkpt>
      <trkpt lat="42.81322" lon="0.27137">
        <ele>2114</ele>
        <time>2020-07-27T16:05:23.022Z</time>
      </trkpt>
      <trkpt lat="42.81321" lon="0.2714">
        <ele>2113</ele>
        <time>2020-07-27T16:05:24.022Z</time>
      </trkpt>
      <trkpt lat="42.81319" lon="0.27143">
        <ele>2112</ele>
        <time>2020-07-27T16:05:25.022Z</time>
      </trkpt>
      <trkpt lat="42.81316" lon="0.27145">
        <ele>2111</ele>
        <time>2020-07-27T16:05:26.022Z</time>
      </trkpt>
      <trkpt lat="42.81314" lon="0.27148">
        <ele>2110</ele>
        <time>2020-07-27T16:05:27.022Z</time>
      </trkpt>
      <trkpt lat="42.81312" lon="0.27151">
        <ele>2108</ele>
        <time>2020-07-27T16:05:28.022Z</time>
      </trkpt>
      <trkpt lat="42.8131" lon="0.27153">
        <ele>2107</ele>
        <time>2020-07-27T16:05:29.022Z</time>
      </trkpt>
      <trkpt lat="42.81307" lon="0.27156">
        <ele>2106</ele>
        <time>2020-07-27T16:05:30.022Z</time>
      </trkpt>
      <trkpt lat="42.81305" lon="0.27158">
        <ele>2105</ele>
        <time>2020-07-27T16:05:31.022Z</time>
      </trkpt>
      <trkpt lat="42.81302" lon="0.27161">
        <ele>2104</ele>
        <time>2020-07-27T16:05:32.022Z</time>
      </trkpt>
      <trkpt lat="42.813" lon="0.27163">
        <ele>2103</ele>
        <time>2020-07-27T16:05:33.022Z</time>
      </trkpt>
      <trkpt lat="42.81298" lon="0.27165">
        <ele>2102</ele>
        <time>2020-07-27T16:05:34.022Z</time>
      </trkpt>
      <trkpt lat="42.81295" lon="0.27168">
        <ele>2101</ele>
        <time>2020-07-27T16:05:35.022Z</time>
      </trkpt>
      <trkpt lat="42.81293" lon="0.2717">
        <ele>2100</ele>
        <time>2020-07-27T16:05:36.022Z</time>
      </trkpt>
      <trkpt lat="42.8129" lon="0.27172">
        <ele>2099</ele>
        <time>2020-07-27T16:05:37.022Z</time>
      </trkpt>
      <trkpt lat="42.81286" lon="0.27175">
        <ele>2100</ele>
        <time>2020-07-27T16:05:38.022Z</time>
      </trkpt>
      <trkpt lat="42.81283" lon="0.27177">
        <ele>2099</ele>
        <time>2020-07-27T16:05:39.022Z</time>
      </trkpt>
      <trkpt lat="42.81279" lon="0.27179">
        <ele>2099</ele>
        <time>2020-07-27T16:05:40.022Z</time>
      </trkpt>
      <trkpt lat="42.81276" lon="0.27181">
        <ele>2098</ele>
        <time>2020-07-27T16:05:41.022Z</time>
      </trkpt>
      <trkpt lat="42.81272" lon="0.27182">
        <ele>2098</ele>
        <time>2020-07-27T16:05:42.022Z</time>
      </trkpt>
      <trkpt lat="42.81269" lon="0.27183">
        <ele>2099</ele>
        <time>2020-07-27T16:05:43.022Z</time>
      </trkpt>
      <trkpt lat="42.81267" lon="0.27183">
        <ele>2101</ele>
        <time>2020-07-27T16:05:44.022Z</time>
      </trkpt>
      <trkpt lat="42.81265" lon="0.27183">
        <ele>2103</ele>
        <time>2020-07-27T16:05:45.022Z</time>
      </trkpt>
      <trkpt lat="42.81265" lon="0.27182">
        <ele>2104</ele>
        <time>2020-07-27T16:05:46.022Z</time>
      </trkpt>
      <trkpt lat="42.81264" lon="0.27182">
        <ele>2104</ele>
        <time>2020-07-27T16:05:47.022Z</time>
      </trkpt>
      <trkpt lat="42.81264" lon="0.27181">
        <ele>2103</ele>
        <time>2020-07-27T16:05:48.022Z</time>
      </trkpt>
      <trkpt lat="42.81264" lon="0.27181">
        <ele>2102</ele>
        <time>2020-07-27T16:05:49.022Z</time>
      </trkpt>
      <trkpt lat="42.81264" lon="0.27181">
        <ele>2102</ele>
        <time>2020-07-27T16:05:50.022Z</time>
      </trkpt>
      <trkpt lat="42.81264" lon="0.27181">
        <ele>2102</ele>
        <time>2020-07-27T16:05:51.022Z</time>
      </trkpt>
      <trkpt lat="42.81264" lon="0.27182">
        <ele>2102</ele>
        <time>2020-07-27T16:05:52.022Z</time>
      </trkpt>
      <trkpt lat="42.81264" lon="0.27182">
        <ele>2102</ele>
        <time>2020-07-27T16:05:53.022Z</time>
      </trkpt>
      <trkpt lat="42.81264" lon="0.27183">
        <ele>2101</ele>
        <time>2020-07-27T16:05:54.022Z</time>
      </trkpt>
      <trkpt lat="42.81264" lon="0.27183">
        <ele>2101</ele>
        <time>2020-07-27T16:05:55.022Z</time>
      </trkpt>
      <trkpt lat="42.81264" lon="0.27184">
        <ele>2101</ele>
        <time>2020-07-27T16:05:56.022Z</time>
      </trkpt>
      <trkpt lat="42.81264" lon="0.27184">
        <ele>2101</ele>
        <time>2020-07-27T16:05:57.022Z</time>
      </trkpt>
      <trkpt lat="42.81265" lon="0.27184">
        <ele>2101</ele>
        <time>2020-07-27T16:05:58.022Z</time>
      </trkpt>
      <trkpt lat="42.81265" lon="0.27183">
        <ele>2100</ele>
        <time>2020-07-27T16:05:59.022Z</time>
      </trkpt>
      <trkpt lat="42.81266" lon="0.27183">
        <ele>2100</ele>
        <time>2020-07-27T16:06:00.022Z</time>
      </trkpt>
      <trkpt lat="42.81267" lon="0.27184">
        <ele>2099</ele>
        <time>2020-07-27T16:06:01.022Z</time>
      </trkpt>
      <trkpt lat="42.81268" lon="0.27185">
        <ele>2099</ele>
        <time>2020-07-27T16:06:02.022Z</time>
      </trkpt>
      <trkpt lat="42.8127" lon="0.27188">
        <ele>2098</ele>
        <time>2020-07-27T16:06:03.022Z</time>
      </trkpt>
      <trkpt lat="42.81271" lon="0.27191">
        <ele>2097</ele>
        <time>2020-07-27T16:06:04.022Z</time>
      </trkpt>
      <trkpt lat="42.81272" lon="0.27195">
        <ele>2096</ele>
        <time>2020-07-27T16:06:05.022Z</time>
      </trkpt>
      <trkpt lat="42.81273" lon="0.27199">
        <ele>2095</ele>
        <time>2020-07-27T16:06:06.022Z</time>
      </trkpt>
      <trkpt lat="42.81274" lon="0.27203">
        <ele>2095</ele>
        <time>2020-07-27T16:06:07.022Z</time>
      </trkpt>
      <trkpt lat="42.81274" lon="0.27207">
        <ele>2095</ele>
        <time>2020-07-27T16:06:08.022Z</time>
      </trkpt>
      <trkpt lat="42.81275" lon="0.27211">
        <ele>2094</ele>
        <time>2020-07-27T16:06:09.022Z</time>
      </trkpt>
      <trkpt lat="42.81276" lon="0.27215">
        <ele>2093</ele>
        <time>2020-07-27T16:06:10.022Z</time>
      </trkpt>
      <trkpt lat="42.81276" lon="0.2722">
        <ele>2093</ele>
        <time>2020-07-27T16:06:11.022Z</time>
      </trkpt>
      <trkpt lat="42.81278" lon="0.27224">
        <ele>2092</ele>
        <time>2020-07-27T16:06:12.022Z</time>
      </trkpt>
      <trkpt lat="42.81279" lon="0.27229">
        <ele>2091</ele>
        <time>2020-07-27T16:06:13.022Z</time>
      </trkpt>
      <trkpt lat="42.8128" lon="0.27233">
        <ele>2090</ele>
        <time>2020-07-27T16:06:14.022Z</time>
      </trkpt>
      <trkpt lat="42.81281" lon="0.27237">
        <ele>2089</ele>
        <time>2020-07-27T16:06:15.022Z</time>
      </trkpt>
      <trkpt lat="42.81282" lon="0.27242">
        <ele>2087</ele>
        <time>2020-07-27T16:06:16.022Z</time>
      </trkpt>
      <trkpt lat="42.81283" lon="0.27246">
        <ele>2087</ele>
        <time>2020-07-27T16:06:17.022Z</time>
      </trkpt>
      <trkpt lat="42.81285" lon="0.2725">
        <ele>2087</ele>
        <time>2020-07-27T16:06:18.022Z</time>
      </trkpt>
      <trkpt lat="42.81286" lon="0.27254">
        <ele>2086</ele>
        <time>2020-07-27T16:06:19.022Z</time>
      </trkpt>
      <trkpt lat="42.81287" lon="0.27258">
        <ele>2085</ele>
        <time>2020-07-27T16:06:20.022Z</time>
      </trkpt>
      <trkpt lat="42.81287" lon="0.27263">
        <ele>2084</ele>
        <time>2020-07-27T16:06:21.022Z</time>
      </trkpt>
      <trkpt lat="42.81288" lon="0.27267">
        <ele>2084</ele>
        <time>2020-07-27T16:06:22.022Z</time>
      </trkpt>
      <trkpt lat="42.81289" lon="0.27271">
        <ele>2084</ele>
        <time>2020-07-27T16:06:23.022Z</time>
      </trkpt>
      <trkpt lat="42.8129" lon="0.27276">
        <ele>2083</ele>
        <time>2020-07-27T16:06:24.022Z</time>
      </trkpt>
      <trkpt lat="42.81291" lon="0.2728">
        <ele>2082</ele>
        <time>2020-07-27T16:06:25.022Z</time>
      </trkpt>
      <trkpt lat="42.81292" lon="0.27285">
        <ele>2082</ele>
        <time>2020-07-27T16:06:26.022Z</time>
      </trkpt>
      <trkpt lat="42.81292" lon="0.2729">
        <ele>2082</ele>
        <time>2020-07-27T16:06:27.022Z</time>
      </trkpt>
      <trkpt lat="42.81293" lon="0.27294">
        <ele>2081</ele>
        <time>2020-07-27T16:06:28.022Z</time>
      </trkpt>
      <trkpt lat="42.81294" lon="0.27299">
        <ele>2081</ele>
        <time>2020-07-27T16:06:29.022Z</time>
      </trkpt>
      <trkpt lat="42.81295" lon="0.27304">
        <ele>2081</ele>
        <time>2020-07-27T16:06:30.022Z</time>
      </trkpt>
      <trkpt lat="42.81296" lon="0.27308">
        <ele>2081</ele>
        <time>2020-07-27T16:06:31.022Z</time>
      </trkpt>
      <trkpt lat="42.81298" lon="0.27313">
        <ele>2080</ele>
        <time>2020-07-27T16:06:32.022Z</time>
      </trkpt>
      <trkpt lat="42.81299" lon="0.27317">
        <ele>2080</ele>
        <time>2020-07-27T16:06:33.022Z</time>
      </trkpt>
      <trkpt lat="42.813" lon="0.27322">
        <ele>2080</ele>
        <time>2020-07-27T16:06:34.022Z</time>
      </trkpt>
      <trkpt lat="42.81301" lon="0.27326">
        <ele>2079</ele>
        <time>2020-07-27T16:06:35.022Z</time>
      </trkpt>
      <trkpt lat="42.81302" lon="0.27331">
        <ele>2079</ele>
        <time>2020-07-27T16:06:36.022Z</time>
      </trkpt>
      <trkpt lat="42.81303" lon="0.27335">
        <ele>2079</ele>
        <time>2020-07-27T16:06:37.022Z</time>
      </trkpt>
      <trkpt lat="42.81303" lon="0.2734">
        <ele>2079</ele>
        <time>2020-07-27T16:06:38.022Z</time>
      </trkpt>
      <trkpt lat="42.81304" lon="0.27344">
        <ele>2078</ele>
        <time>2020-07-27T16:06:39.022Z</time>
      </trkpt>
      <trkpt lat="42.81304" lon="0.27349">
        <ele>2077</ele>
        <time>2020-07-27T16:06:40.022Z</time>
      </trkpt>
      <trkpt lat="42.81305" lon="0.27354">
        <ele>2076</ele>
        <time>2020-07-27T16:06:41.022Z</time>
      </trkpt>
      <trkpt lat="42.81305" lon="0.27359">
        <ele>2076</ele>
        <time>2020-07-27T16:06:42.022Z</time>
      </trkpt>
      <trkpt lat="42.81306" lon="0.27363">
        <ele>2075</ele>
        <time>2020-07-27T16:06:43.022Z</time>
      </trkpt>
      <trkpt lat="42.81307" lon="0.27368">
        <ele>2074</ele>
        <time>2020-07-27T16:06:44.022Z</time>
      </trkpt>
      <trkpt lat="42.81308" lon="0.27372">
        <ele>2073</ele>
        <time>2020-07-27T16:06:45.022Z</time>
      </trkpt>
      <trkpt lat="42.8131" lon="0.27377">
        <ele>2073</ele>
        <time>2020-07-27T16:06:46.022Z</time>
      </trkpt>
      <trkpt lat="42.81311" lon="0.27381">
        <ele>2072</ele>
        <time>2020-07-27T16:06:47.022Z</time>
      </trkpt>
      <trkpt lat="42.81312" lon="0.27386">
        <ele>2072</ele>
        <time>2020-07-27T16:06:48.022Z</time>
      </trkpt>
      <trkpt lat="42.81313" lon="0.27391">
        <ele>2071</ele>
        <time>2020-07-27T16:06:49.022Z</time>
      </trkpt>
      <trkpt lat="42.81314" lon="0.27395">
        <ele>2071</ele>
        <time>2020-07-27T16:06:50.022Z</time>
      </trkpt>
      <trkpt lat="42.81316" lon="0.27399">
        <ele>2070</ele>
        <time>2020-07-27T16:06:51.022Z</time>
      </trkpt>
      <trkpt lat="42.81317" lon="0.27404">
        <ele>2070</ele>
        <time>2020-07-27T16:06:52.022Z</time>
      </trkpt>
      <trkpt lat="42.81319" lon="0.27408">
        <ele>2069</ele>
        <time>2020-07-27T16:06:53.022Z</time>
      </trkpt>
      <trkpt lat="42.8132" lon="0.27412">
        <ele>2069</ele>
        <time>2020-07-27T16:06:54.022Z</time>
      </trkpt>
      <trkpt lat="42.81321" lon="0.27417">
        <ele>2069</ele>
        <time>2020-07-27T16:06:55.022Z</time>
      </trkpt>
      <trkpt lat="42.81322" lon="0.27421">
        <ele>2069</ele>
        <time>2020-07-27T16:06:56.022Z</time>
      </trkpt>
      <trkpt lat="42.81323" lon="0.27426">
        <ele>2069</ele>
        <time>2020-07-27T16:06:57.022Z</time>
      </trkpt>
      <trkpt lat="42.81323" lon="0.2743">
        <ele>2068</ele>
        <time>2020-07-27T16:06:58.022Z</time>
      </trkpt>
      <trkpt lat="42.81324" lon="0.27435">
        <ele>2067</ele>
        <time>2020-07-27T16:06:59.022Z</time>
      </trkpt>
      <trkpt lat="42.81324" lon="0.2744">
        <ele>2067</ele>
        <time>2020-07-27T16:07:00.022Z</time>
      </trkpt>
      <trkpt lat="42.81323" lon="0.27445">
        <ele>2067</ele>
        <time>2020-07-27T16:07:01.022Z</time>
      </trkpt>
      <trkpt lat="42.81322" lon="0.27449">
        <ele>2066</ele>
        <time>2020-07-27T16:07:02.022Z</time>
      </trkpt>
      <trkpt lat="42.81321" lon="0.27454">
        <ele>2065</ele>
        <time>2020-07-27T16:07:03.022Z</time>
      </trkpt>
      <trkpt lat="42.8132" lon="0.27458">
        <ele>2065</ele>
        <time>2020-07-27T16:07:04.022Z</time>
      </trkpt>
      <trkpt lat="42.81318" lon="0.27463">
        <ele>2065</ele>
        <time>2020-07-27T16:07:05.022Z</time>
      </trkpt>
      <trkpt lat="42.81316" lon="0.27467">
        <ele>2064</ele>
        <time>2020-07-27T16:07:06.022Z</time>
      </trkpt>
      <trkpt lat="42.81314" lon="0.2747">
        <ele>2064</ele>
        <time>2020-07-27T16:07:07.022Z</time>
      </trkpt>
      <trkpt lat="42.81313" lon="0.27474">
        <ele>2064</ele>
        <time>2020-07-27T16:07:08.022Z</time>
      </trkpt>
      <trkpt lat="42.81312" lon="0.27478">
        <ele>2063</ele>
        <time>2020-07-27T16:07:09.022Z</time>
      </trkpt>
      <trkpt lat="42.81311" lon="0.27482">
        <ele>2063</ele>
        <time>2020-07-27T16:07:10.022Z</time>
      </trkpt>
      <trkpt lat="42.8131" lon="0.27486">
        <ele>2063</ele>
        <time>2020-07-27T16:07:11.022Z</time>
      </trkpt>
      <trkpt lat="42.81309" lon="0.27491">
        <ele>2062</ele>
        <time>2020-07-27T16:07:12.022Z</time>
      </trkpt>
      <trkpt lat="42.81308" lon="0.27495">
        <ele>2062</ele>
        <time>2020-07-27T16:07:13.022Z</time>
      </trkpt>
      <trkpt lat="42.81308" lon="0.27499">
        <ele>2061</ele>
        <time>2020-07-27T16:07:14.022Z</time>
      </trkpt>
      <trkpt lat="42.81307" lon="0.27503">
        <ele>2061</ele>
        <time>2020-07-27T16:07:15.022Z</time>
      </trkpt>
      <trkpt lat="42.81307" lon="0.27506">
        <ele>2061</ele>
        <time>2020-07-27T16:07:16.022Z</time>
      </trkpt>
      <trkpt lat="42.81307" lon="0.27508">
        <ele>2061</ele>
        <time>2020-07-27T16:07:17.022Z</time>
      </trkpt>
      <trkpt lat="42.81304" lon="0.27521">
        <ele>2060</ele>
        <time>2020-07-27T16:07:18.115Z</time>
      </trkpt>
      <trkpt lat="42.81304" lon="0.27521">
        <ele>2060</ele>
        <time>2020-07-27T16:07:19.115Z</time>
      </trkpt>
      <trkpt lat="42.81304" lon="0.27522">
        <ele>2059</ele>
        <time>2020-07-27T16:07:20.115Z</time>
      </trkpt>
      <trkpt lat="42.81305" lon="0.27524">
        <ele>2058</ele>
        <time>2020-07-27T16:07:21.115Z</time>
      </trkpt>
      <trkpt lat="42.81306" lon="0.27527">
        <ele>2058</ele>
        <time>2020-07-27T16:07:22.115Z</time>
      </trkpt>
      <trkpt lat="42.81307" lon="0.2753">
        <ele>2057</ele>
        <time>2020-07-27T16:07:23.115Z</time>
      </trkpt>
      <trkpt lat="42.81309" lon="0.27532">
        <ele>2056</ele>
        <time>2020-07-27T16:07:24.115Z</time>
      </trkpt>
      <trkpt lat="42.81311" lon="0.27535">
        <ele>2056</ele>
        <time>2020-07-27T16:07:25.115Z</time>
      </trkpt>
      <trkpt lat="42.81313" lon="0.27537">
        <ele>2055</ele>
        <time>2020-07-27T16:07:26.115Z</time>
      </trkpt>
      <trkpt lat="42.81316" lon="0.27539">
        <ele>2055</ele>
        <time>2020-07-27T16:07:27.115Z</time>
      </trkpt>
      <trkpt lat="42.81319" lon="0.27541">
        <ele>2054</ele>
        <time>2020-07-27T16:07:28.115Z</time>
      </trkpt>
      <trkpt lat="42.81321" lon="0.27544">
        <ele>2053</ele>
        <time>2020-07-27T16:07:29.115Z</time>
      </trkpt>
      <trkpt lat="42.81323" lon="0.27547">
        <ele>2053</ele>
        <time>2020-07-27T16:07:30.115Z</time>
      </trkpt>
      <trkpt lat="42.81325" lon="0.2755">
        <ele>2053</ele>
        <time>2020-07-27T16:07:31.115Z</time>
      </trkpt>
      <trkpt lat="42.81326" lon="0.27553">
        <ele>2053</ele>
        <time>2020-07-27T16:07:32.115Z</time>
      </trkpt>
      <trkpt lat="42.81327" lon="0.27557">
        <ele>2052</ele>
        <time>2020-07-27T16:07:33.115Z</time>
      </trkpt>
      <trkpt lat="42.81327" lon="0.27559">
        <ele>2050</ele>
        <time>2020-07-27T16:07:34.115Z</time>
      </trkpt>
      <trkpt lat="42.81326" lon="0.2756">
        <ele>2050</ele>
        <time>2020-07-27T16:07:35.115Z</time>
      </trkpt>
      <trkpt lat="42.81324" lon="0.27561">
        <ele>2052</ele>
        <time>2020-07-27T16:07:36.115Z</time>
      </trkpt>
      <trkpt lat="42.81322" lon="0.27561">
        <ele>2052</ele>
        <time>2020-07-27T16:07:37.115Z</time>
      </trkpt>
      <trkpt lat="42.8132" lon="0.27562">
        <ele>2051</ele>
        <time>2020-07-27T16:07:38.115Z</time>
      </trkpt>
      <trkpt lat="42.81318" lon="0.27562">
        <ele>2051</ele>
        <time>2020-07-27T16:07:39.115Z</time>
      </trkpt>
      <trkpt lat="42.81316" lon="0.27563">
        <ele>2051</ele>
        <time>2020-07-27T16:07:40.115Z</time>
      </trkpt>
      <trkpt lat="42.81314" lon="0.27563">
        <ele>2051</ele>
        <time>2020-07-27T16:07:41.115Z</time>
      </trkpt>
      <trkpt lat="42.81311" lon="0.27564">
        <ele>2051</ele>
        <time>2020-07-27T16:07:42.115Z</time>
      </trkpt>
      <trkpt lat="42.81308" lon="0.27564">
        <ele>2050</ele>
        <time>2020-07-27T16:07:43.115Z</time>
      </trkpt>
      <trkpt lat="42.81305" lon="0.27564">
        <ele>2049</ele>
        <time>2020-07-27T16:07:44.115Z</time>
      </trkpt>
      <trkpt lat="42.81302" lon="0.27564">
        <ele>2049</ele>
        <time>2020-07-27T16:07:45.115Z</time>
      </trkpt>
      <trkpt lat="42.81299" lon="0.27565">
        <ele>2049</ele>
        <time>2020-07-27T16:07:46.115Z</time>
      </trkpt>
      <trkpt lat="42.81296" lon="0.27565">
        <ele>2049</ele>
        <time>2020-07-27T16:07:47.115Z</time>
      </trkpt>
      <trkpt lat="42.81293" lon="0.27566">
        <ele>2049</ele>
        <time>2020-07-27T16:07:48.115Z</time>
      </trkpt>
      <trkpt lat="42.8129" lon="0.27566">
        <ele>2049</ele>
        <time>2020-07-27T16:07:49.115Z</time>
      </trkpt>
      <trkpt lat="42.81288" lon="0.27567">
        <ele>2049</ele>
        <time>2020-07-27T16:07:50.115Z</time>
      </trkpt>
      <trkpt lat="42.81285" lon="0.27568">
        <ele>2047</ele>
        <time>2020-07-27T16:07:51.115Z</time>
      </trkpt>
      <trkpt lat="42.81282" lon="0.27569">
        <ele>2046</ele>
        <time>2020-07-27T16:07:52.115Z</time>
      </trkpt>
      <trkpt lat="42.81281" lon="0.27571">
        <ele>2044</ele>
        <time>2020-07-27T16:07:53.115Z</time>
      </trkpt>
      <trkpt lat="42.81279" lon="0.27573">
        <ele>2042</ele>
        <time>2020-07-27T16:07:54.115Z</time>
      </trkpt>
      <trkpt lat="42.81278" lon="0.27576">
        <ele>2040</ele>
        <time>2020-07-27T16:07:55.115Z</time>
      </trkpt>
      <trkpt lat="42.81278" lon="0.27578">
        <ele>2039</ele>
        <time>2020-07-27T16:07:56.115Z</time>
      </trkpt>
      <trkpt lat="42.81278" lon="0.2758">
        <ele>2038</ele>
        <time>2020-07-27T16:07:57.115Z</time>
      </trkpt>
      <trkpt lat="42.81278" lon="0.27582">
        <ele>2036</ele>
        <time>2020-07-27T16:07:58.115Z</time>
      </trkpt>
      <trkpt lat="42.81279" lon="0.27585">
        <ele>2035</ele>
        <time>2020-07-27T16:07:59.115Z</time>
      </trkpt>
      <trkpt lat="42.81279" lon="0.27587">
        <ele>2035</ele>
        <time>2020-07-27T16:08:00.115Z</time>
      </trkpt>
      <trkpt lat="42.81278" lon="0.27589">
        <ele>2033</ele>
        <time>2020-07-27T16:08:01.115Z</time>
      </trkpt>
      <trkpt lat="42.81276" lon="0.27591">
        <ele>2032</ele>
        <time>2020-07-27T16:08:02.115Z</time>
      </trkpt>
      <trkpt lat="42.81274" lon="0.27592">
        <ele>2033</ele>
        <time>2020-07-27T16:08:03.115Z</time>
      </trkpt>
      <trkpt lat="42.81271" lon="0.27593">
        <ele>2033</ele>
        <time>2020-07-27T16:08:04.115Z</time>
      </trkpt>
      <trkpt lat="42.81269" lon="0.27593">
        <ele>2033</ele>
        <time>2020-07-27T16:08:05.115Z</time>
      </trkpt>
      <trkpt lat="42.81267" lon="0.27594">
        <ele>2031</ele>
        <time>2020-07-27T16:08:06.115Z</time>
      </trkpt>
      <trkpt lat="42.81266" lon="0.27595">
        <ele>2029</ele>
        <time>2020-07-27T16:08:07.115Z</time>
      </trkpt>
      <trkpt lat="42.81265" lon="0.27597">
        <ele>2027</ele>
        <time>2020-07-27T16:08:08.115Z</time>
      </trkpt>
      <trkpt lat="42.81265" lon="0.27599">
        <ele>2026</ele>
        <time>2020-07-27T16:08:09.115Z</time>
      </trkpt>
      <trkpt lat="42.81265" lon="0.27602">
        <ele>2024</ele>
        <time>2020-07-27T16:08:10.115Z</time>
      </trkpt>
      <trkpt lat="42.81264" lon="0.27604">
        <ele>2024</ele>
        <time>2020-07-27T16:08:11.115Z</time>
      </trkpt>
      <trkpt lat="42.81264" lon="0.27607">
        <ele>2023</ele>
        <time>2020-07-27T16:08:12.115Z</time>
      </trkpt>
      <trkpt lat="42.81263" lon="0.27609">
        <ele>2023</ele>
        <time>2020-07-27T16:08:13.115Z</time>
      </trkpt>
      <trkpt lat="42.81261" lon="0.2761">
        <ele>2023</ele>
        <time>2020-07-27T16:08:14.115Z</time>
      </trkpt>
      <trkpt lat="42.81259" lon="0.27612">
        <ele>2023</ele>
        <time>2020-07-27T16:08:15.115Z</time>
      </trkpt>
      <trkpt lat="42.81256" lon="0.27613">
        <ele>2023</ele>
        <time>2020-07-27T16:08:16.115Z</time>
      </trkpt>
      <trkpt lat="42.81255" lon="0.27614">
        <ele>2022</ele>
        <time>2020-07-27T16:08:17.115Z</time>
      </trkpt>
      <trkpt lat="42.81253" lon="0.27616">
        <ele>2021</ele>
        <time>2020-07-27T16:08:18.115Z</time>
      </trkpt>
      <trkpt lat="42.81252" lon="0.27618">
        <ele>2019</ele>
        <time>2020-07-27T16:08:19.115Z</time>
      </trkpt>
      <trkpt lat="42.81252" lon="0.27621">
        <ele>2018</ele>
        <time>2020-07-27T16:08:20.115Z</time>
      </trkpt>
      <trkpt lat="42.81253" lon="0.27623">
        <ele>2016</ele>
        <time>2020-07-27T16:08:21.115Z</time>
      </trkpt>
      <trkpt lat="42.81255" lon="0.27624">
        <ele>2016</ele>
        <time>2020-07-27T16:08:22.115Z</time>
      </trkpt>
      <trkpt lat="42.81256" lon="0.27626">
        <ele>2015</ele>
        <time>2020-07-27T16:08:23.115Z</time>
      </trkpt>
      <trkpt lat="42.81258" lon="0.27628">
        <ele>2015</ele>
        <time>2020-07-27T16:08:24.115Z</time>
      </trkpt>
      <trkpt lat="42.81257" lon="0.2763">
        <ele>2011</ele>
        <time>2020-07-27T16:08:25.115Z</time>
      </trkpt>
      <trkpt lat="42.81256" lon="0.27632">
        <ele>2011</ele>
        <time>2020-07-27T16:08:26.115Z</time>
      </trkpt>
      <trkpt lat="42.81254" lon="0.27632">
        <ele>2011</ele>
        <time>2020-07-27T16:08:27.115Z</time>
      </trkpt>
      <trkpt lat="42.81252" lon="0.27633">
        <ele>2011</ele>
        <time>2020-07-27T16:08:28.115Z</time>
      </trkpt>
      <trkpt lat="42.8125" lon="0.27634">
        <ele>2010</ele>
        <time>2020-07-27T16:08:29.115Z</time>
      </trkpt>
      <trkpt lat="42.81249" lon="0.27636">
        <ele>2006</ele>
        <time>2020-07-27T16:08:30.115Z</time>
      </trkpt>
      <trkpt lat="42.81249" lon="0.27637">
        <ele>2004</ele>
        <time>2020-07-27T16:08:31.115Z</time>
      </trkpt>
      <trkpt lat="42.81249" lon="0.27639">
        <ele>2003</ele>
        <time>2020-07-27T16:08:32.115Z</time>
      </trkpt>
      <trkpt lat="42.81251" lon="0.27641">
        <ele>2004</ele>
        <time>2020-07-27T16:08:33.115Z</time>
      </trkpt>
      <trkpt lat="42.81254" lon="0.27644">
        <ele>2005</ele>
        <time>2020-07-27T16:08:34.115Z</time>
      </trkpt>
      <trkpt lat="42.81255" lon="0.27646">
        <ele>2005</ele>
        <time>2020-07-27T16:08:35.115Z</time>
      </trkpt>
      <trkpt lat="42.81256" lon="0.27649">
        <ele>2005</ele>
        <time>2020-07-27T16:08:36.115Z</time>
      </trkpt>
      <trkpt lat="42.81256" lon="0.27651">
        <ele>2006</ele>
        <time>2020-07-27T16:08:37.115Z</time>
      </trkpt>
      <trkpt lat="42.81254" lon="0.27653">
        <ele>2005</ele>
        <time>2020-07-27T16:08:38.115Z</time>
      </trkpt>
      <trkpt lat="42.81253" lon="0.27654">
        <ele>2004</ele>
        <time>2020-07-27T16:08:39.115Z</time>
      </trkpt>
      <trkpt lat="42.81251" lon="0.27655">
        <ele>2003</ele>
        <time>2020-07-27T16:08:40.115Z</time>
      </trkpt>
      <trkpt lat="42.81251" lon="0.27657">
        <ele>2001</ele>
        <time>2020-07-27T16:08:41.115Z</time>
      </trkpt>
      <trkpt lat="42.81251" lon="0.2766">
        <ele>2000</ele>
        <time>2020-07-27T16:08:42.115Z</time>
      </trkpt>
      <trkpt lat="42.81251" lon="0.27662">
        <ele>2000</ele>
        <time>2020-07-27T16:08:43.115Z</time>
      </trkpt>
      <trkpt lat="42.81253" lon="0.27664">
        <ele>2000</ele>
        <time>2020-07-27T16:08:44.115Z</time>
      </trkpt>
      <trkpt lat="42.81254" lon="0.27666">
        <ele>1999</ele>
        <time>2020-07-27T16:08:45.115Z</time>
      </trkpt>
      <trkpt lat="42.81255" lon="0.27669">
        <ele>1998</ele>
        <time>2020-07-27T16:08:46.115Z</time>
      </trkpt>
      <trkpt lat="42.81255" lon="0.27672">
        <ele>1997</ele>
        <time>2020-07-27T16:08:47.115Z</time>
      </trkpt>
      <trkpt lat="42.81255" lon="0.27675">
        <ele>1996</ele>
        <time>2020-07-27T16:08:48.115Z</time>
      </trkpt>
      <trkpt lat="42.81254" lon="0.27677">
        <ele>1996</ele>
        <time>2020-07-27T16:08:49.115Z</time>
      </trkpt>
      <trkpt lat="42.81252" lon="0.27679">
        <ele>1995</ele>
        <time>2020-07-27T16:08:50.115Z</time>
      </trkpt>
      <trkpt lat="42.81249" lon="0.2768">
        <ele>1996</ele>
        <time>2020-07-27T16:08:51.115Z</time>
      </trkpt>
      <trkpt lat="42.81247" lon="0.27681">
        <ele>1996</ele>
        <time>2020-07-27T16:08:52.115Z</time>
      </trkpt>
      <trkpt lat="42.81245" lon="0.27682">
        <ele>1995</ele>
        <time>2020-07-27T16:08:53.115Z</time>
      </trkpt>
      <trkpt lat="42.81243" lon="0.27684">
        <ele>1995</ele>
        <time>2020-07-27T16:08:54.115Z</time>
      </trkpt>
      <trkpt lat="42.81243" lon="0.27684">
        <ele>1996</ele>
        <time>2020-07-27T16:08:55.115Z</time>
      </trkpt>
      <trkpt lat="42.81243" lon="0.27685">
        <ele>1997</ele>
        <time>2020-07-27T16:08:56.115Z</time>
      </trkpt>
      <trkpt lat="42.81243" lon="0.27684">
        <ele>1998</ele>
        <time>2020-07-27T16:08:57.115Z</time>
      </trkpt>
      <trkpt lat="42.81244" lon="0.27683">
        <ele>1999</ele>
        <time>2020-07-27T16:08:58.115Z</time>
      </trkpt>
      <trkpt lat="42.81245" lon="0.27681">
        <ele>2009</ele>
        <time>2020-07-27T16:08:59.100Z</time>
      </trkpt>
      <trkpt lat="42.81245" lon="0.27681">
        <ele>2009</ele>
        <time>2020-07-27T16:09:00.100Z</time>
      </trkpt>
      <trkpt lat="42.81246" lon="0.2768">
        <ele>2009</ele>
        <time>2020-07-27T16:09:01.100Z</time>
      </trkpt>
      <trkpt lat="42.81247" lon="0.2768">
        <ele>2009</ele>
        <time>2020-07-27T16:09:02.100Z</time>
      </trkpt>
      <trkpt lat="42.81248" lon="0.27679">
        <ele>2010</ele>
        <time>2020-07-27T16:09:03.100Z</time>
      </trkpt>
      <trkpt lat="42.8125" lon="0.27677">
        <ele>2010</ele>
        <time>2020-07-27T16:09:04.100Z</time>
      </trkpt>
      <trkpt lat="42.81252" lon="0.27676">
        <ele>2010</ele>
        <time>2020-07-27T16:09:05.100Z</time>
      </trkpt>
      <trkpt lat="42.81254" lon="0.27675">
        <ele>2010</ele>
        <time>2020-07-27T16:09:06.100Z</time>
      </trkpt>
      <trkpt lat="42.81255" lon="0.27673">
        <ele>2011</ele>
        <time>2020-07-27T16:09:07.100Z</time>
      </trkpt>
      <trkpt lat="42.81256" lon="0.27672">
        <ele>2010</ele>
        <time>2020-07-27T16:09:08.100Z</time>
      </trkpt>
      <trkpt lat="42.81257" lon="0.2767">
        <ele>2010</ele>
        <time>2020-07-27T16:09:09.100Z</time>
      </trkpt>
      <trkpt lat="42.81257" lon="0.27668">
        <ele>2010</ele>
        <time>2020-07-27T16:09:10.100Z</time>
      </trkpt>
      <trkpt lat="42.81258" lon="0.27666">
        <ele>2010</ele>
        <time>2020-07-27T16:09:11.100Z</time>
      </trkpt>
      <trkpt lat="42.81258" lon="0.27665">
        <ele>2011</ele>
        <time>2020-07-27T16:09:12.100Z</time>
      </trkpt>
      <trkpt lat="42.81259" lon="0.27663">
        <ele>2011</ele>
        <time>2020-07-27T16:09:13.100Z</time>
      </trkpt>
      <trkpt lat="42.81259" lon="0.27662">
        <ele>2012</ele>
        <time>2020-07-27T16:09:14.100Z</time>
      </trkpt>
      <trkpt lat="42.8126" lon="0.27661">
        <ele>2013</ele>
        <time>2020-07-27T16:09:15.100Z</time>
      </trkpt>
      <trkpt lat="42.8126" lon="0.2766">
        <ele>2014</ele>
        <time>2020-07-27T16:09:16.100Z</time>
      </trkpt>
      <trkpt lat="42.8126" lon="0.27659">
        <ele>2014</ele>
        <time>2020-07-27T16:09:17.100Z</time>
      </trkpt>
      <trkpt lat="42.81261" lon="0.27658">
        <ele>2015</ele>
        <time>2020-07-27T16:09:18.100Z</time>
      </trkpt>
      <trkpt lat="42.81261" lon="0.27657">
        <ele>2014</ele>
        <time>2020-07-27T16:09:19.100Z</time>
      </trkpt>
      <trkpt lat="42.81261" lon="0.27656">
        <ele>2014</ele>
        <time>2020-07-27T16:09:20.100Z</time>
      </trkpt>
      <trkpt lat="42.81261" lon="0.27655">
        <ele>2015</ele>
        <time>2020-07-27T16:09:21.100Z</time>
      </trkpt>
      <trkpt lat="42.81262" lon="0.27654">
        <ele>2014</ele>
        <time>2020-07-27T16:09:22.100Z</time>
      </trkpt>
      <trkpt lat="42.81262" lon="0.27653">
        <ele>2014</ele>
        <time>2020-07-27T16:09:23.100Z</time>
      </trkpt>
      <trkpt lat="42.81262" lon="0.27653">
        <ele>2015</ele>
        <time>2020-07-27T16:09:24.100Z</time>
      </trkpt>
      <trkpt lat="42.81262" lon="0.27652">
        <ele>2016</ele>
        <time>2020-07-27T16:09:25.100Z</time>
      </trkpt>
      <trkpt lat="42.81263" lon="0.27651">
        <ele>2016</ele>
        <time>2020-07-27T16:09:26.100Z</time>
      </trkpt>
      <trkpt lat="42.81263" lon="0.2765">
        <ele>2017</ele>
        <time>2020-07-27T16:09:27.100Z</time>
      </trkpt>
      <trkpt lat="42.81263" lon="0.27649">
        <ele>2017</ele>
        <time>2020-07-27T16:09:28.100Z</time>
      </trkpt>
      <trkpt lat="42.81263" lon="0.27648">
        <ele>2017</ele>
        <time>2020-07-27T16:09:29.100Z</time>
      </trkpt>
      <trkpt lat="42.81264" lon="0.27647">
        <ele>2018</ele>
        <time>2020-07-27T16:09:30.100Z</time>
      </trkpt>
      <trkpt lat="42.81264" lon="0.27646">
        <ele>2018</ele>
        <time>2020-07-27T16:09:31.100Z</time>
      </trkpt>
      <trkpt lat="42.81265" lon="0.27646">
        <ele>2019</ele>
        <time>2020-07-27T16:09:32.100Z</time>
      </trkpt>
      <trkpt lat="42.81265" lon="0.27645">
        <ele>2019</ele>
        <time>2020-07-27T16:09:33.100Z</time>
      </trkpt>
      <trkpt lat="42.81266" lon="0.27644">
        <ele>2019</ele>
        <time>2020-07-27T16:09:34.100Z</time>
      </trkpt>
      <trkpt lat="42.81266" lon="0.27643">
        <ele>2020</ele>
        <time>2020-07-27T16:09:35.100Z</time>
      </trkpt>
      <trkpt lat="42.81266" lon="0.27642">
        <ele>2021</ele>
        <time>2020-07-27T16:09:36.100Z</time>
      </trkpt>
      <trkpt lat="42.81267" lon="0.27642">
        <ele>2021</ele>
        <time>2020-07-27T16:09:37.100Z</time>
      </trkpt>
      <trkpt lat="42.81267" lon="0.27641">
        <ele>2022</ele>
        <time>2020-07-27T16:09:38.100Z</time>
      </trkpt>
      <trkpt lat="42.81267" lon="0.2764">
        <ele>2022</ele>
        <time>2020-07-27T16:09:39.100Z</time>
      </trkpt>
      <trkpt lat="42.81266" lon="0.27639">
        <ele>2023</ele>
        <time>2020-07-27T16:09:40.100Z</time>
      </trkpt>
      <trkpt lat="42.81266" lon="0.27637">
        <ele>2023</ele>
        <time>2020-07-27T16:09:41.100Z</time>
      </trkpt>
      <trkpt lat="42.81266" lon="0.27636">
        <ele>2023</ele>
        <time>2020-07-27T16:09:42.100Z</time>
      </trkpt>
      <trkpt lat="42.81266" lon="0.27635">
        <ele>2023</ele>
        <time>2020-07-27T16:09:43.100Z</time>
      </trkpt>
      <trkpt lat="42.81267" lon="0.27634">
        <ele>2023</ele>
        <time>2020-07-27T16:09:44.100Z</time>
      </trkpt>
      <trkpt lat="42.81268" lon="0.27634">
        <ele>2024</ele>
        <time>2020-07-27T16:09:45.100Z</time>
      </trkpt>
      <trkpt lat="42.81268" lon="0.27633">
        <ele>2024</ele>
        <time>2020-07-27T16:09:46.100Z</time>
      </trkpt>
      <trkpt lat="42.81268" lon="0.27633">
        <ele>2025</ele>
        <time>2020-07-27T16:09:47.100Z</time>
      </trkpt>
      <trkpt lat="42.81269" lon="0.27632">
        <ele>2024</ele>
        <time>2020-07-27T16:09:48.100Z</time>
      </trkpt>
      <trkpt lat="42.81269" lon="0.27631">
        <ele>2024</ele>
        <time>2020-07-27T16:09:49.100Z</time>
      </trkpt>
      <trkpt lat="42.81269" lon="0.2763">
        <ele>2024</ele>
        <time>2020-07-27T16:09:50.100Z</time>
      </trkpt>
      <trkpt lat="42.8127" lon="0.27629">
        <ele>2024</ele>
        <time>2020-07-27T16:09:51.100Z</time>
      </trkpt>
      <trkpt lat="42.8127" lon="0.27628">
        <ele>2025</ele>
        <time>2020-07-27T16:09:52.100Z</time>
      </trkpt>
      <trkpt lat="42.81269" lon="0.27627">
        <ele>2025</ele>
        <time>2020-07-27T16:09:53.100Z</time>
      </trkpt>
      <trkpt lat="42.81269" lon="0.27626">
        <ele>2026</ele>
        <time>2020-07-27T16:09:54.100Z</time>
      </trkpt>
      <trkpt lat="42.81269" lon="0.27624">
        <ele>2026</ele>
        <time>2020-07-27T16:09:55.100Z</time>
      </trkpt>
      <trkpt lat="42.81269" lon="0.27623">
        <ele>2026</ele>
        <time>2020-07-27T16:09:56.100Z</time>
      </trkpt>
      <trkpt lat="42.81269" lon="0.27622">
        <ele>2027</ele>
        <time>2020-07-27T16:09:57.100Z</time>
      </trkpt>
      <trkpt lat="42.8127" lon="0.27621">
        <ele>2027</ele>
        <time>2020-07-27T16:09:58.100Z</time>
      </trkpt>
      <trkpt lat="42.8127" lon="0.2762">
        <ele>2028</ele>
        <time>2020-07-27T16:09:59.100Z</time>
      </trkpt>
      <trkpt lat="42.81271" lon="0.27619">
        <ele>2028</ele>
        <time>2020-07-27T16:10:00.100Z</time>
      </trkpt>
      <trkpt lat="42.81271" lon="0.27618">
        <ele>2029</ele>
        <time>2020-07-27T16:10:01.100Z</time>
      </trkpt>
      <trkpt lat="42.81272" lon="0.27617">
        <ele>2029</ele>
        <time>2020-07-27T16:10:02.100Z</time>
      </trkpt>
      <trkpt lat="42.81273" lon="0.27616">
        <ele>2030</ele>
        <time>2020-07-27T16:10:03.100Z</time>
      </trkpt>
      <trkpt lat="42.81274" lon="0.27615">
        <ele>2030</ele>
        <time>2020-07-27T16:10:04.100Z</time>
      </trkpt>
      <trkpt lat="42.81275" lon="0.27614">
        <ele>2030</ele>
        <time>2020-07-27T16:10:05.100Z</time>
      </trkpt>
      <trkpt lat="42.81275" lon="0.27613">
        <ele>2030</ele>
        <time>2020-07-27T16:10:06.100Z</time>
      </trkpt>
      <trkpt lat="42.81275" lon="0.27612">
        <ele>2030</ele>
        <time>2020-07-27T16:10:07.100Z</time>
      </trkpt>
      <trkpt lat="42.81275" lon="0.27611">
        <ele>2030</ele>
        <time>2020-07-27T16:10:08.100Z</time>
      </trkpt>
      <trkpt lat="42.81275" lon="0.2761">
        <ele>2030</ele>
        <time>2020-07-27T16:10:09.100Z</time>
      </trkpt>
      <trkpt lat="42.81275" lon="0.27609">
        <ele>2030</ele>
        <time>2020-07-27T16:10:10.100Z</time>
      </trkpt>
      <trkpt lat="42.81274" lon="0.27608">
        <ele>2031</ele>
        <time>2020-07-27T16:10:11.100Z</time>
      </trkpt>
      <trkpt lat="42.81274" lon="0.27607">
        <ele>2031</ele>
        <time>2020-07-27T16:10:12.100Z</time>
      </trkpt>
      <trkpt lat="42.81274" lon="0.27606">
        <ele>2031</ele>
        <time>2020-07-27T16:10:13.100Z</time>
      </trkpt>
      <trkpt lat="42.81275" lon="0.27605">
        <ele>2031</ele>
        <time>2020-07-27T16:10:14.100Z</time>
      </trkpt>
      <trkpt lat="42.81275" lon="0.27604">
        <ele>2031</ele>
        <time>2020-07-27T16:10:15.100Z</time>
      </trkpt>
      <trkpt lat="42.81276" lon="0.27603">
        <ele>2031</ele>
        <time>2020-07-27T16:10:16.100Z</time>
      </trkpt>
      <trkpt lat="42.81276" lon="0.27602">
        <ele>2032</ele>
        <time>2020-07-27T16:10:17.100Z</time>
      </trkpt>
      <trkpt lat="42.81277" lon="0.27601">
        <ele>2032</ele>
        <time>2020-07-27T16:10:18.100Z</time>
      </trkpt>
      <trkpt lat="42.81278" lon="0.276">
        <ele>2033</ele>
        <time>2020-07-27T16:10:19.100Z</time>
      </trkpt>
      <trkpt lat="42.81279" lon="0.27599">
        <ele>2033</ele>
        <time>2020-07-27T16:10:20.100Z</time>
      </trkpt>
      <trkpt lat="42.81279" lon="0.27599">
        <ele>2033</ele>
        <time>2020-07-27T16:10:21.100Z</time>
      </trkpt>
      <trkpt lat="42.81279" lon="0.27598">
        <ele>2034</ele>
        <time>2020-07-27T16:10:22.100Z</time>
      </trkpt>
      <trkpt lat="42.81279" lon="0.27597">
        <ele>2034</ele>
        <time>2020-07-27T16:10:23.100Z</time>
      </trkpt>
      <trkpt lat="42.81279" lon="0.27595">
        <ele>2034</ele>
        <time>2020-07-27T16:10:24.100Z</time>
      </trkpt>
      <trkpt lat="42.81278" lon="0.27594">
        <ele>2034</ele>
        <time>2020-07-27T16:10:25.100Z</time>
      </trkpt>
      <trkpt lat="42.81278" lon="0.27593">
        <ele>2034</ele>
        <time>2020-07-27T16:10:26.100Z</time>
      </trkpt>
      <trkpt lat="42.81277" lon="0.27592">
        <ele>2035</ele>
        <time>2020-07-27T16:10:27.100Z</time>
      </trkpt>
      <trkpt lat="42.81277" lon="0.27592">
        <ele>2035</ele>
        <time>2020-07-27T16:10:28.100Z</time>
      </trkpt>
      <trkpt lat="42.81277" lon="0.27591">
        <ele>2036</ele>
        <time>2020-07-27T16:10:29.100Z</time>
      </trkpt>
      <trkpt lat="42.81277" lon="0.2759">
        <ele>2036</ele>
        <time>2020-07-27T16:10:30.100Z</time>
      </trkpt>
      <trkpt lat="42.81277" lon="0.27589">
        <ele>2036</ele>
        <time>2020-07-27T16:10:31.100Z</time>
      </trkpt>
      <trkpt lat="42.81277" lon="0.27588">
        <ele>2036</ele>
        <time>2020-07-27T16:10:32.100Z</time>
      </trkpt>
      <trkpt lat="42.81278" lon="0.27587">
        <ele>2036</ele>
        <time>2020-07-27T16:10:33.100Z</time>
      </trkpt>
      <trkpt lat="42.81278" lon="0.27586">
        <ele>2037</ele>
        <time>2020-07-27T16:10:34.100Z</time>
      </trkpt>
      <trkpt lat="42.81278" lon="0.27586">
        <ele>2037</ele>
        <time>2020-07-27T16:10:35.100Z</time>
      </trkpt>
      <trkpt lat="42.81279" lon="0.27585">
        <ele>2037</ele>
        <time>2020-07-27T16:10:36.100Z</time>
      </trkpt>
      <trkpt lat="42.8128" lon="0.27585">
        <ele>2038</ele>
        <time>2020-07-27T16:10:37.100Z</time>
      </trkpt>
      <trkpt lat="42.81282" lon="0.27585">
        <ele>2038</ele>
        <time>2020-07-27T16:10:38.100Z</time>
      </trkpt>
      <trkpt lat="42.81282" lon="0.27584">
        <ele>2039</ele>
        <time>2020-07-27T16:10:39.100Z</time>
      </trkpt>
      <trkpt lat="42.81286" lon="0.27582">
        <ele>2042</ele>
        <time>2020-07-27T16:10:40.069Z</time>
      </trkpt>
      <trkpt lat="42.81286" lon="0.27582">
        <ele>2042</ele>
        <time>2020-07-27T16:10:41.069Z</time>
      </trkpt>
      <trkpt lat="42.81286" lon="0.27582">
        <ele>2043</ele>
        <time>2020-07-27T16:10:42.069Z</time>
      </trkpt>
      <trkpt lat="42.81288" lon="0.27581">
        <ele>2044</ele>
        <time>2020-07-27T16:10:43.069Z</time>
      </trkpt>
      <trkpt lat="42.81289" lon="0.27581">
        <ele>2045</ele>
        <time>2020-07-27T16:10:44.069Z</time>
      </trkpt>
      <trkpt lat="42.8129" lon="0.2758">
        <ele>2045</ele>
        <time>2020-07-27T16:10:45.069Z</time>
      </trkpt>
      <trkpt lat="42.81291" lon="0.2758">
        <ele>2045</ele>
        <time>2020-07-27T16:10:46.069Z</time>
      </trkpt>
      <trkpt lat="42.81292" lon="0.2758">
        <ele>2045</ele>
        <time>2020-07-27T16:10:47.069Z</time>
      </trkpt>
      <trkpt lat="42.81293" lon="0.27579">
        <ele>2046</ele>
        <time>2020-07-27T16:10:48.069Z</time>
      </trkpt>
      <trkpt lat="42.81295" lon="0.27579">
        <ele>2046</ele>
        <time>2020-07-27T16:10:49.069Z</time>
      </trkpt>
      <trkpt lat="42.81296" lon="0.27578">
        <ele>2046</ele>
        <time>2020-07-27T16:10:50.069Z</time>
      </trkpt>
      <trkpt lat="42.81297" lon="0.27577">
        <ele>2047</ele>
        <time>2020-07-27T16:10:51.069Z</time>
      </trkpt>
      <trkpt lat="42.81299" lon="0.27577">
        <ele>2047</ele>
        <time>2020-07-27T16:10:52.069Z</time>
      </trkpt>
      <trkpt lat="42.813" lon="0.27576">
        <ele>2046</ele>
        <time>2020-07-27T16:10:53.069Z</time>
      </trkpt>
      <trkpt lat="42.81301" lon="0.27576">
        <ele>2047</ele>
        <time>2020-07-27T16:10:54.069Z</time>
      </trkpt>
      <trkpt lat="42.81302" lon="0.27575">
        <ele>2047</ele>
        <time>2020-07-27T16:10:55.069Z</time>
      </trkpt>
      <trkpt lat="42.81303" lon="0.27574">
        <ele>2047</ele>
        <time>2020-07-27T16:10:56.069Z</time>
      </trkpt>
      <trkpt lat="42.81304" lon="0.27574">
        <ele>2047</ele>
        <time>2020-07-27T16:10:57.069Z</time>
      </trkpt>
      <trkpt lat="42.81305" lon="0.27573">
        <ele>2047</ele>
        <time>2020-07-27T16:10:58.069Z</time>
      </trkpt>
      <trkpt lat="42.81306" lon="0.27572">
        <ele>2048</ele>
        <time>2020-07-27T16:10:59.069Z</time>
      </trkpt>
      <trkpt lat="42.81307" lon="0.27572">
        <ele>2048</ele>
        <time>2020-07-27T16:11:00.069Z</time>
      </trkpt>
      <trkpt lat="42.81308" lon="0.27571">
        <ele>2047</ele>
        <time>2020-07-27T16:11:01.069Z</time>
      </trkpt>
      <trkpt lat="42.81309" lon="0.2757">
        <ele>2048</ele>
        <time>2020-07-27T16:11:02.069Z</time>
      </trkpt>
      <trkpt lat="42.8131" lon="0.27569">
        <ele>2048</ele>
        <time>2020-07-27T16:11:03.069Z</time>
      </trkpt>
      <trkpt lat="42.81311" lon="0.27569">
        <ele>2049</ele>
        <time>2020-07-27T16:11:04.069Z</time>
      </trkpt>
      <trkpt lat="42.81312" lon="0.27568">
        <ele>2049</ele>
        <time>2020-07-27T16:11:05.069Z</time>
      </trkpt>
      <trkpt lat="42.81313" lon="0.27568">
        <ele>2049</ele>
        <time>2020-07-27T16:11:06.069Z</time>
      </trkpt>
      <trkpt lat="42.81314" lon="0.27567">
        <ele>2049</ele>
        <time>2020-07-27T16:11:07.069Z</time>
      </trkpt>
      <trkpt lat="42.81315" lon="0.27567">
        <ele>2049</ele>
        <time>2020-07-27T16:11:08.069Z</time>
      </trkpt>
      <trkpt lat="42.81316" lon="0.27566">
        <ele>2049</ele>
        <time>2020-07-27T16:11:09.069Z</time>
      </trkpt>
      <trkpt lat="42.81316" lon="0.27566">
        <ele>2048</ele>
        <time>2020-07-27T16:11:10.069Z</time>
      </trkpt>
      <trkpt lat="42.81317" lon="0.27565">
        <ele>2048</ele>
        <time>2020-07-27T16:11:11.069Z</time>
      </trkpt>
      <trkpt lat="42.81318" lon="0.27565">
        <ele>2048</ele>
        <time>2020-07-27T16:11:12.069Z</time>
      </trkpt>
      <trkpt lat="42.81319" lon="0.27564">
        <ele>2047</ele>
        <time>2020-07-27T16:11:13.069Z</time>
      </trkpt>
      <trkpt lat="42.8132" lon="0.27563">
        <ele>2048</ele>
        <time>2020-07-27T16:11:14.069Z</time>
      </trkpt>
      <trkpt lat="42.81321" lon="0.27563">
        <ele>2048</ele>
        <time>2020-07-27T16:11:15.069Z</time>
      </trkpt>
      <trkpt lat="42.81323" lon="0.27562">
        <ele>2048</ele>
        <time>2020-07-27T16:11:16.069Z</time>
      </trkpt>
      <trkpt lat="42.81324" lon="0.27561">
        <ele>2049</ele>
        <time>2020-07-27T16:11:17.069Z</time>
      </trkpt>
      <trkpt lat="42.81324" lon="0.2756">
        <ele>2049</ele>
        <time>2020-07-27T16:11:18.069Z</time>
      </trkpt>
      <trkpt lat="42.81325" lon="0.27559">
        <ele>2049</ele>
        <time>2020-07-27T16:11:19.069Z</time>
      </trkpt>
      <trkpt lat="42.81326" lon="0.27558">
        <ele>2049</ele>
        <time>2020-07-27T16:11:20.069Z</time>
      </trkpt>
      <trkpt lat="42.81327" lon="0.27557">
        <ele>2049</ele>
        <time>2020-07-27T16:11:21.069Z</time>
      </trkpt>
      <trkpt lat="42.81327" lon="0.27555">
        <ele>2049</ele>
        <time>2020-07-27T16:11:22.069Z</time>
      </trkpt>
      <trkpt lat="42.81328" lon="0.27554">
        <ele>2049</ele>
        <time>2020-07-27T16:11:23.069Z</time>
      </trkpt>
      <trkpt lat="42.81329" lon="0.27553">
        <ele>2050</ele>
        <time>2020-07-27T16:11:24.069Z</time>
      </trkpt>
      <trkpt lat="42.8133" lon="0.27552">
        <ele>2050</ele>
        <time>2020-07-27T16:11:25.069Z</time>
      </trkpt>
      <trkpt lat="42.81331" lon="0.27551">
        <ele>2050</ele>
        <time>2020-07-27T16:11:26.069Z</time>
      </trkpt>
      <trkpt lat="42.81332" lon="0.2755">
        <ele>2049</ele>
        <time>2020-07-27T16:11:27.069Z</time>
      </trkpt>
      <trkpt lat="42.81333" lon="0.27549">
        <ele>2050</ele>
        <time>2020-07-27T16:11:28.069Z</time>
      </trkpt>
      <trkpt lat="42.81333" lon="0.27547">
        <ele>2050</ele>
        <time>2020-07-27T16:11:29.069Z</time>
      </trkpt>
      <trkpt lat="42.81333" lon="0.27546">
        <ele>2050</ele>
        <time>2020-07-27T16:11:30.069Z</time>
      </trkpt>
      <trkpt lat="42.81334" lon="0.27545">
        <ele>2051</ele>
        <time>2020-07-27T16:11:31.069Z</time>
      </trkpt>
      <trkpt lat="42.81334" lon="0.27544">
        <ele>2052</ele>
        <time>2020-07-27T16:11:32.069Z</time>
      </trkpt>
      <trkpt lat="42.81335" lon="0.27542">
        <ele>2051</ele>
        <time>2020-07-27T16:11:33.069Z</time>
      </trkpt>
      <trkpt lat="42.81336" lon="0.27541">
        <ele>2052</ele>
        <time>2020-07-27T16:11:34.069Z</time>
      </trkpt>
      <trkpt lat="42.81337" lon="0.27539">
        <ele>2052</ele>
        <time>2020-07-27T16:11:35.069Z</time>
      </trkpt>
      <trkpt lat="42.81337" lon="0.27538">
        <ele>2052</ele>
        <time>2020-07-27T16:11:36.069Z</time>
      </trkpt>
      <trkpt lat="42.81338" lon="0.27537">
        <ele>2052</ele>
        <time>2020-07-27T16:11:37.069Z</time>
      </trkpt>
      <trkpt lat="42.81339" lon="0.27536">
        <ele>2053</ele>
        <time>2020-07-27T16:11:38.069Z</time>
      </trkpt>
      <trkpt lat="42.8134" lon="0.27535">
        <ele>2053</ele>
        <time>2020-07-27T16:11:39.069Z</time>
      </trkpt>
      <trkpt lat="42.8134" lon="0.27533">
        <ele>2053</ele>
        <time>2020-07-27T16:11:40.069Z</time>
      </trkpt>
      <trkpt lat="42.8134" lon="0.27532">
        <ele>2054</ele>
        <time>2020-07-27T16:11:41.069Z</time>
      </trkpt>
      <trkpt lat="42.81341" lon="0.2753">
        <ele>2055</ele>
        <time>2020-07-27T16:11:42.069Z</time>
      </trkpt>
      <trkpt lat="42.81341" lon="0.27528">
        <ele>2055</ele>
        <time>2020-07-27T16:11:43.069Z</time>
      </trkpt>
      <trkpt lat="42.81341" lon="0.27527">
        <ele>2055</ele>
        <time>2020-07-27T16:11:44.069Z</time>
      </trkpt>
      <trkpt lat="42.81341" lon="0.27525">
        <ele>2055</ele>
        <time>2020-07-27T16:11:45.069Z</time>
      </trkpt>
      <trkpt lat="42.81341" lon="0.27523">
        <ele>2055</ele>
        <time>2020-07-27T16:11:46.069Z</time>
      </trkpt>
      <trkpt lat="42.81341" lon="0.27521">
        <ele>2056</ele>
        <time>2020-07-27T16:11:47.069Z</time>
      </trkpt>
      <trkpt lat="42.81341" lon="0.27519">
        <ele>2057</ele>
        <time>2020-07-27T16:11:48.069Z</time>
      </trkpt>
      <trkpt lat="42.81341" lon="0.27518">
        <ele>2057</ele>
        <time>2020-07-27T16:11:49.069Z</time>
      </trkpt>
      <trkpt lat="42.81341" lon="0.27515">
        <ele>2057</ele>
        <time>2020-07-27T16:11:50.069Z</time>
      </trkpt>
      <trkpt lat="42.81341" lon="0.27512">
        <ele>2057</ele>
        <time>2020-07-27T16:11:51.069Z</time>
      </trkpt>
      <trkpt lat="42.81341" lon="0.2751">
        <ele>2057</ele>
        <time>2020-07-27T16:11:52.069Z</time>
      </trkpt>
      <trkpt lat="42.81341" lon="0.27508">
        <ele>2058</ele>
        <time>2020-07-27T16:11:53.069Z</time>
      </trkpt>
      <trkpt lat="42.81341" lon="0.27506">
        <ele>2058</ele>
        <time>2020-07-27T16:11:54.069Z</time>
      </trkpt>
      <trkpt lat="42.8134" lon="0.27505">
        <ele>2058</ele>
        <time>2020-07-27T16:11:55.069Z</time>
      </trkpt>
      <trkpt lat="42.8134" lon="0.27503">
        <ele>2059</ele>
        <time>2020-07-27T16:11:56.069Z</time>
      </trkpt>
      <trkpt lat="42.8134" lon="0.27501">
        <ele>2059</ele>
        <time>2020-07-27T16:11:57.069Z</time>
      </trkpt>
      <trkpt lat="42.8134" lon="0.27498">
        <ele>2060</ele>
        <time>2020-07-27T16:11:58.069Z</time>
      </trkpt>
      <trkpt lat="42.8134" lon="0.27495">
        <ele>2060</ele>
        <time>2020-07-27T16:11:59.069Z</time>
      </trkpt>
      <trkpt lat="42.81341" lon="0.27492">
        <ele>2060</ele>
        <time>2020-07-27T16:12:00.069Z</time>
      </trkpt>
      <trkpt lat="42.81341" lon="0.27489">
        <ele>2061</ele>
        <time>2020-07-27T16:12:01.069Z</time>
      </trkpt>
      <trkpt lat="42.81341" lon="0.27486">
        <ele>2061</ele>
        <time>2020-07-27T16:12:02.069Z</time>
      </trkpt>
      <trkpt lat="42.81342" lon="0.27483">
        <ele>2061</ele>
        <time>2020-07-27T16:12:03.069Z</time>
      </trkpt>
      <trkpt lat="42.81342" lon="0.2748">
        <ele>2061</ele>
        <time>2020-07-27T16:12:04.069Z</time>
      </trkpt>
      <trkpt lat="42.81343" lon="0.27477">
        <ele>2061</ele>
        <time>2020-07-27T16:12:05.069Z</time>
      </trkpt>
      <trkpt lat="42.81344" lon="0.27474">
        <ele>2062</ele>
        <time>2020-07-27T16:12:06.069Z</time>
      </trkpt>
      <trkpt lat="42.81345" lon="0.27471">
        <ele>2062</ele>
        <time>2020-07-27T16:12:07.069Z</time>
      </trkpt>
      <trkpt lat="42.81346" lon="0.27468">
        <ele>2061</ele>
        <time>2020-07-27T16:12:08.069Z</time>
      </trkpt>
      <trkpt lat="42.81348" lon="0.27465">
        <ele>2060</ele>
        <time>2020-07-27T16:12:09.069Z</time>
      </trkpt>
      <trkpt lat="42.8135" lon="0.27462">
        <ele>2059</ele>
        <time>2020-07-27T16:12:10.069Z</time>
      </trkpt>
      <trkpt lat="42.81351" lon="0.27459">
        <ele>2059</ele>
        <time>2020-07-27T16:12:11.069Z</time>
      </trkpt>
      <trkpt lat="42.81353" lon="0.27456">
        <ele>2058</ele>
        <time>2020-07-27T16:12:12.069Z</time>
      </trkpt>
      <trkpt lat="42.81355" lon="0.27453">
        <ele>2058</ele>
        <time>2020-07-27T16:12:13.069Z</time>
      </trkpt>
      <trkpt lat="42.81357" lon="0.2745">
        <ele>2058</ele>
        <time>2020-07-27T16:12:14.069Z</time>
      </trkpt>
      <trkpt lat="42.81359" lon="0.27447">
        <ele>2057</ele>
        <time>2020-07-27T16:12:15.069Z</time>
      </trkpt>
      <trkpt lat="42.81361" lon="0.27444">
        <ele>2056</ele>
        <time>2020-07-27T16:12:16.069Z</time>
      </trkpt>
      <trkpt lat="42.81363" lon="0.27441">
        <ele>2056</ele>
        <time>2020-07-27T16:12:17.069Z</time>
      </trkpt>
      <trkpt lat="42.81365" lon="0.27438">
        <ele>2055</ele>
        <time>2020-07-27T16:12:18.069Z</time>
      </trkpt>
      <trkpt lat="42.81367" lon="0.27435">
        <ele>2055</ele>
        <time>2020-07-27T16:12:19.069Z</time>
      </trkpt>
      <trkpt lat="42.8137" lon="0.27432">
        <ele>2055</ele>
        <time>2020-07-27T16:12:20.069Z</time>
      </trkpt>
      <trkpt lat="42.81372" lon="0.2743">
        <ele>2055</ele>
        <time>2020-07-27T16:12:21.069Z</time>
      </trkpt>
      <trkpt lat="42.81374" lon="0.27427">
        <ele>2055</ele>
        <time>2020-07-27T16:12:22.069Z</time>
      </trkpt>
      <trkpt lat="42.81376" lon="0.27423">
        <ele>2054</ele>
        <time>2020-07-27T16:12:23.069Z</time>
      </trkpt>
      <trkpt lat="42.81378" lon="0.2742">
        <ele>2053</ele>
        <time>2020-07-27T16:12:24.069Z</time>
      </trkpt>
      <trkpt lat="42.8138" lon="0.27417">
        <ele>2053</ele>
        <time>2020-07-27T16:12:25.069Z</time>
      </trkpt>
      <trkpt lat="42.81382" lon="0.27413">
        <ele>2053</ele>
        <time>2020-07-27T16:12:26.069Z</time>
      </trkpt>
      <trkpt lat="42.81383" lon="0.2741">
        <ele>2053</ele>
        <time>2020-07-27T16:12:27.069Z</time>
      </trkpt>
      <trkpt lat="42.81385" lon="0.27406">
        <ele>2052</ele>
        <time>2020-07-27T16:12:28.069Z</time>
      </trkpt>
      <trkpt lat="42.81386" lon="0.27403">
        <ele>2053</ele>
        <time>2020-07-27T16:12:29.069Z</time>
      </trkpt>
      <trkpt lat="42.81388" lon="0.27399">
        <ele>2053</ele>
        <time>2020-07-27T16:12:30.069Z</time>
      </trkpt>
      <trkpt lat="42.81389" lon="0.27395">
        <ele>2053</ele>
        <time>2020-07-27T16:12:31.069Z</time>
      </trkpt>
      <trkpt lat="42.81391" lon="0.27392">
        <ele>2053</ele>
        <time>2020-07-27T16:12:32.069Z</time>
      </trkpt>
      <trkpt lat="42.81392" lon="0.27388">
        <ele>2053</ele>
        <time>2020-07-27T16:12:33.069Z</time>
      </trkpt>
      <trkpt lat="42.81394" lon="0.27385">
        <ele>2052</ele>
        <time>2020-07-27T16:12:34.069Z</time>
      </trkpt>
      <trkpt lat="42.81397" lon="0.27382">
        <ele>2054</ele>
        <time>2020-07-27T16:12:35.069Z</time>
      </trkpt>
      <trkpt lat="42.81399" lon="0.2738">
        <ele>2053</ele>
        <time>2020-07-27T16:12:36.069Z</time>
      </trkpt>
      <trkpt lat="42.81402" lon="0.27378">
        <ele>2052</ele>
        <time>2020-07-27T16:12:37.069Z</time>
      </trkpt>
      <trkpt lat="42.81405" lon="0.27376">
        <ele>2050</ele>
        <time>2020-07-27T16:12:38.069Z</time>
      </trkpt>
      <trkpt lat="42.81408" lon="0.27376">
        <ele>2049</ele>
        <time>2020-07-27T16:12:39.069Z</time>
      </trkpt>
      <trkpt lat="42.81411" lon="0.27378">
        <ele>2049</ele>
        <time>2020-07-27T16:12:40.069Z</time>
      </trkpt>
      <trkpt lat="42.81415" lon="0.2738">
        <ele>2047</ele>
        <time>2020-07-27T16:12:41.069Z</time>
      </trkpt>
      <trkpt lat="42.81417" lon="0.27383">
        <ele>2045</ele>
        <time>2020-07-27T16:12:42.069Z</time>
      </trkpt>
      <trkpt lat="42.8142" lon="0.27386">
        <ele>2045</ele>
        <time>2020-07-27T16:12:43.069Z</time>
      </trkpt>
      <trkpt lat="42.81423" lon="0.27389">
        <ele>2045</ele>
        <time>2020-07-27T16:12:44.069Z</time>
      </trkpt>
      <trkpt lat="42.81425" lon="0.27392">
        <ele>2044</ele>
        <time>2020-07-27T16:12:45.069Z</time>
      </trkpt>
      <trkpt lat="42.81427" lon="0.27396">
        <ele>2043</ele>
        <time>2020-07-27T16:12:46.069Z</time>
      </trkpt>
      <trkpt lat="42.81428" lon="0.274">
        <ele>2043</ele>
        <time>2020-07-27T16:12:47.069Z</time>
      </trkpt>
      <trkpt lat="42.81429" lon="0.27404">
        <ele>2042</ele>
        <time>2020-07-27T16:12:48.069Z</time>
      </trkpt>
      <trkpt lat="42.8143" lon="0.27408">
        <ele>2042</ele>
        <time>2020-07-27T16:12:49.069Z</time>
      </trkpt>
      <trkpt lat="42.81432" lon="0.27412">
        <ele>2041</ele>
        <time>2020-07-27T16:12:50.069Z</time>
      </trkpt>
      <trkpt lat="42.81433" lon="0.27416">
        <ele>2040</ele>
        <time>2020-07-27T16:12:51.069Z</time>
      </trkpt>
      <trkpt lat="42.81434" lon="0.2742">
        <ele>2039</ele>
        <time>2020-07-27T16:12:52.069Z</time>
      </trkpt>
      <trkpt lat="42.81436" lon="0.27424">
        <ele>2039</ele>
        <time>2020-07-27T16:12:53.069Z</time>
      </trkpt>
      <trkpt lat="42.81438" lon="0.27427">
        <ele>2037</ele>
        <time>2020-07-27T16:12:54.069Z</time>
      </trkpt>
      <trkpt lat="42.8144" lon="0.2743">
        <ele>2035</ele>
        <time>2020-07-27T16:12:55.069Z</time>
      </trkpt>
      <trkpt lat="42.81443" lon="0.27431">
        <ele>2034</ele>
        <time>2020-07-27T16:12:56.069Z</time>
      </trkpt>
      <trkpt lat="42.81446" lon="0.27432">
        <ele>2034</ele>
        <time>2020-07-27T16:12:57.069Z</time>
      </trkpt>
      <trkpt lat="42.81449" lon="0.27432">
        <ele>2033</ele>
        <time>2020-07-27T16:12:58.069Z</time>
      </trkpt>
      <trkpt lat="42.81452" lon="0.27431">
        <ele>2031</ele>
        <time>2020-07-27T16:12:59.069Z</time>
      </trkpt>
      <trkpt lat="42.81455" lon="0.27431">
        <ele>2030</ele>
        <time>2020-07-27T16:13:00.069Z</time>
      </trkpt>
      <trkpt lat="42.81457" lon="0.2743">
        <ele>2029</ele>
        <time>2020-07-27T16:13:01.069Z</time>
      </trkpt>
      <trkpt lat="42.8146" lon="0.27428">
        <ele>2029</ele>
        <time>2020-07-27T16:13:02.069Z</time>
      </trkpt>
      <trkpt lat="42.81463" lon="0.27426">
        <ele>2028</ele>
        <time>2020-07-27T16:13:03.069Z</time>
      </trkpt>
      <trkpt lat="42.81465" lon="0.27424">
        <ele>2027</ele>
        <time>2020-07-27T16:13:04.069Z</time>
      </trkpt>
      <trkpt lat="42.81467" lon="0.27421">
        <ele>2027</ele>
        <time>2020-07-27T16:13:05.069Z</time>
      </trkpt>
      <trkpt lat="42.8147" lon="0.27419">
        <ele>2026</ele>
        <time>2020-07-27T16:13:06.069Z</time>
      </trkpt>
      <trkpt lat="42.81472" lon="0.27417">
        <ele>2025</ele>
        <time>2020-07-27T16:13:07.069Z</time>
      </trkpt>
      <trkpt lat="42.81475" lon="0.27415">
        <ele>2025</ele>
        <time>2020-07-27T16:13:08.069Z</time>
      </trkpt>
      <trkpt lat="42.81478" lon="0.27413">
        <ele>2024</ele>
        <time>2020-07-27T16:13:09.069Z</time>
      </trkpt>
      <trkpt lat="42.81481" lon="0.27411">
        <ele>2023</ele>
        <time>2020-07-27T16:13:10.069Z</time>
      </trkpt>
      <trkpt lat="42.81483" lon="0.27409">
        <ele>2023</ele>
        <time>2020-07-27T16:13:11.069Z</time>
      </trkpt>
      <trkpt lat="42.81486" lon="0.27407">
        <ele>2022</ele>
        <time>2020-07-27T16:13:12.069Z</time>
      </trkpt>
      <trkpt lat="42.81489" lon="0.27405">
        <ele>2022</ele>
        <time>2020-07-27T16:13:13.069Z</time>
      </trkpt>
      <trkpt lat="42.81492" lon="0.27403">
        <ele>2021</ele>
        <time>2020-07-27T16:13:14.069Z</time>
      </trkpt>
      <trkpt lat="42.81495" lon="0.27401">
        <ele>2020</ele>
        <time>2020-07-27T16:13:15.069Z</time>
      </trkpt>
      <trkpt lat="42.81498" lon="0.27399">
        <ele>2019</ele>
        <time>2020-07-27T16:13:16.069Z</time>
      </trkpt>
      <trkpt lat="42.81501" lon="0.27397">
        <ele>2019</ele>
        <time>2020-07-27T16:13:17.069Z</time>
      </trkpt>
      <trkpt lat="42.81505" lon="0.27396">
        <ele>2018</ele>
        <time>2020-07-27T16:13:18.069Z</time>
      </trkpt>
      <trkpt lat="42.81508" lon="0.27395">
        <ele>2018</ele>
        <time>2020-07-27T16:13:19.069Z</time>
      </trkpt>
      <trkpt lat="42.81512" lon="0.27395">
        <ele>2018</ele>
        <time>2020-07-27T16:13:20.069Z</time>
      </trkpt>
      <trkpt lat="42.81515" lon="0.27394">
        <ele>2017</ele>
        <time>2020-07-27T16:13:21.069Z</time>
      </trkpt>
      <trkpt lat="42.81519" lon="0.27393">
        <ele>2016</ele>
        <time>2020-07-27T16:13:22.069Z</time>
      </trkpt>
      <trkpt lat="42.81522" lon="0.27392">
        <ele>2016</ele>
        <time>2020-07-27T16:13:23.069Z</time>
      </trkpt>
      <trkpt lat="42.81525" lon="0.27391">
        <ele>2015</ele>
        <time>2020-07-27T16:13:24.069Z</time>
      </trkpt>
      <trkpt lat="42.81529" lon="0.2739">
        <ele>2015</ele>
        <time>2020-07-27T16:13:25.069Z</time>
      </trkpt>
      <trkpt lat="42.81532" lon="0.27389">
        <ele>2015</ele>
        <time>2020-07-27T16:13:26.069Z</time>
      </trkpt>
      <trkpt lat="42.81536" lon="0.27388">
        <ele>2014</ele>
        <time>2020-07-27T16:13:27.069Z</time>
      </trkpt>
      <trkpt lat="42.81539" lon="0.27387">
        <ele>2014</ele>
        <time>2020-07-27T16:13:28.069Z</time>
      </trkpt>
      <trkpt lat="42.81542" lon="0.27387">
        <ele>2013</ele>
        <time>2020-07-27T16:13:29.069Z</time>
      </trkpt>
      <trkpt lat="42.81545" lon="0.27386">
        <ele>2013</ele>
        <time>2020-07-27T16:13:30.069Z</time>
      </trkpt>
      <trkpt lat="42.81548" lon="0.27385">
        <ele>2013</ele>
        <time>2020-07-27T16:13:31.069Z</time>
      </trkpt>
      <trkpt lat="42.81552" lon="0.27384">
        <ele>2012</ele>
        <time>2020-07-27T16:13:32.069Z</time>
      </trkpt>
      <trkpt lat="42.81555" lon="0.27383">
        <ele>2012</ele>
        <time>2020-07-27T16:13:33.069Z</time>
      </trkpt>
      <trkpt lat="42.81558" lon="0.27382">
        <ele>2012</ele>
        <time>2020-07-27T16:13:34.069Z</time>
      </trkpt>
      <trkpt lat="42.81561" lon="0.27382">
        <ele>2012</ele>
        <time>2020-07-27T16:13:35.069Z</time>
      </trkpt>
      <trkpt lat="42.81565" lon="0.27381">
        <ele>2012</ele>
        <time>2020-07-27T16:13:36.069Z</time>
      </trkpt>
      <trkpt lat="42.81568" lon="0.2738">
        <ele>2011</ele>
        <time>2020-07-27T16:13:37.069Z</time>
      </trkpt>
      <trkpt lat="42.81571" lon="0.27379">
        <ele>2011</ele>
        <time>2020-07-27T16:13:38.069Z</time>
      </trkpt>
      <trkpt lat="42.81574" lon="0.27378">
        <ele>2011</ele>
        <time>2020-07-27T16:13:39.069Z</time>
      </trkpt>
      <trkpt lat="42.81577" lon="0.27377">
        <ele>2011</ele>
        <time>2020-07-27T16:13:40.069Z</time>
      </trkpt>
      <trkpt lat="42.8158" lon="0.27376">
        <ele>2011</ele>
        <time>2020-07-27T16:13:41.069Z</time>
      </trkpt>
      <trkpt lat="42.81584" lon="0.27375">
        <ele>2011</ele>
        <time>2020-07-27T16:13:42.069Z</time>
      </trkpt>
      <trkpt lat="42.81586" lon="0.27374">
        <ele>2010</ele>
        <time>2020-07-27T16:13:43.069Z</time>
      </trkpt>
      <trkpt lat="42.81589" lon="0.27373">
        <ele>2010</ele>
        <time>2020-07-27T16:13:44.069Z</time>
      </trkpt>
      <trkpt lat="42.81592" lon="0.27372">
        <ele>2010</ele>
        <time>2020-07-27T16:13:45.069Z</time>
      </trkpt>
      <trkpt lat="42.81595" lon="0.27371">
        <ele>2010</ele>
        <time>2020-07-27T16:13:46.069Z</time>
      </trkpt>
      <trkpt lat="42.81597" lon="0.2737">
        <ele>2010</ele>
        <time>2020-07-27T16:13:47.069Z</time>
      </trkpt>
      <trkpt lat="42.816" lon="0.2737">
        <ele>2012</ele>
        <time>2020-07-27T16:13:48.069Z</time>
      </trkpt>
      <trkpt lat="42.81612" lon="0.27374">
        <ele>2014</ele>
        <time>2020-07-27T16:13:49.085Z</time>
      </trkpt>
      <trkpt lat="42.81613" lon="0.27373">
        <ele>2014</ele>
        <time>2020-07-27T16:13:50.085Z</time>
      </trkpt>
      <trkpt lat="42.81613" lon="0.27372">
        <ele>2014</ele>
        <time>2020-07-27T16:13:51.085Z</time>
      </trkpt>
      <trkpt lat="42.81613" lon="0.27369">
        <ele>2015</ele>
        <time>2020-07-27T16:13:52.085Z</time>
      </trkpt>
      <trkpt lat="42.81613" lon="0.27366">
        <ele>2014</ele>
        <time>2020-07-27T16:13:53.085Z</time>
      </trkpt>
      <trkpt lat="42.81613" lon="0.27362">
        <ele>2014</ele>
        <time>2020-07-27T16:13:54.085Z</time>
      </trkpt>
      <trkpt lat="42.81613" lon="0.27359">
        <ele>2015</ele>
        <time>2020-07-27T16:13:55.085Z</time>
      </trkpt>
      <trkpt lat="42.81613" lon="0.27355">
        <ele>2014</ele>
        <time>2020-07-27T16:13:56.085Z</time>
      </trkpt>
      <trkpt lat="42.81615" lon="0.27351">
        <ele>2014</ele>
        <time>2020-07-27T16:13:57.085Z</time>
      </trkpt>
      <trkpt lat="42.81616" lon="0.27348">
        <ele>2014</ele>
        <time>2020-07-27T16:13:58.085Z</time>
      </trkpt>
      <trkpt lat="42.81617" lon="0.27344">
        <ele>2014</ele>
        <time>2020-07-27T16:13:59.085Z</time>
      </trkpt>
      <trkpt lat="42.81619" lon="0.27341">
        <ele>2014</ele>
        <time>2020-07-27T16:14:00.085Z</time>
      </trkpt>
      <trkpt lat="42.8162" lon="0.27337">
        <ele>2014</ele>
        <time>2020-07-27T16:14:01.085Z</time>
      </trkpt>
      <trkpt lat="42.81622" lon="0.27334">
        <ele>2013</ele>
        <time>2020-07-27T16:14:02.085Z</time>
      </trkpt>
      <trkpt lat="42.81623" lon="0.27331">
        <ele>2012</ele>
        <time>2020-07-27T16:14:03.085Z</time>
      </trkpt>
      <trkpt lat="42.81625" lon="0.27328">
        <ele>2012</ele>
        <time>2020-07-27T16:14:04.085Z</time>
      </trkpt>
      <trkpt lat="42.81626" lon="0.27324">
        <ele>2011</ele>
        <time>2020-07-27T16:14:05.085Z</time>
      </trkpt>
      <trkpt lat="42.81628" lon="0.27321">
        <ele>2009</ele>
        <time>2020-07-27T16:14:06.085Z</time>
      </trkpt>
      <trkpt lat="42.8163" lon="0.27317">
        <ele>2007</ele>
        <time>2020-07-27T16:14:07.085Z</time>
      </trkpt>
      <trkpt lat="42.81631" lon="0.27313">
        <ele>2007</ele>
        <time>2020-07-27T16:14:08.085Z</time>
      </trkpt>
      <trkpt lat="42.81633" lon="0.2731">
        <ele>2006</ele>
        <time>2020-07-27T16:14:09.085Z</time>
      </trkpt>
      <trkpt lat="42.81634" lon="0.27306">
        <ele>2005</ele>
        <time>2020-07-27T16:14:10.085Z</time>
      </trkpt>
      <trkpt lat="42.81636" lon="0.27303">
        <ele>2004</ele>
        <time>2020-07-27T16:14:11.085Z</time>
      </trkpt>
      <trkpt lat="42.81638" lon="0.27299">
        <ele>2004</ele>
        <time>2020-07-27T16:14:12.085Z</time>
      </trkpt>
      <trkpt lat="42.8164" lon="0.27296">
        <ele>2003</ele>
        <time>2020-07-27T16:14:13.085Z</time>
      </trkpt>
      <trkpt lat="42.81642" lon="0.27293">
        <ele>2002</ele>
        <time>2020-07-27T16:14:14.085Z</time>
      </trkpt>
      <trkpt lat="42.81644" lon="0.27289">
        <ele>2001</ele>
        <time>2020-07-27T16:14:15.085Z</time>
      </trkpt>
      <trkpt lat="42.81646" lon="0.27286">
        <ele>2001</ele>
        <time>2020-07-27T16:14:16.085Z</time>
      </trkpt>
      <trkpt lat="42.81648" lon="0.27283">
        <ele>2000</ele>
        <time>2020-07-27T16:14:17.085Z</time>
      </trkpt>
      <trkpt lat="42.81651" lon="0.2728">
        <ele>1999</ele>
        <time>2020-07-27T16:14:18.085Z</time>
      </trkpt>
      <trkpt lat="42.81653" lon="0.27278">
        <ele>1998</ele>
        <time>2020-07-27T16:14:19.085Z</time>
      </trkpt>
      <trkpt lat="42.81656" lon="0.27275">
        <ele>1998</ele>
        <time>2020-07-27T16:14:20.085Z</time>
      </trkpt>
      <trkpt lat="42.81659" lon="0.27272">
        <ele>1998</ele>
        <time>2020-07-27T16:14:21.085Z</time>
      </trkpt>
      <trkpt lat="42.81661" lon="0.2727">
        <ele>1998</ele>
        <time>2020-07-27T16:14:22.085Z</time>
      </trkpt>
      <trkpt lat="42.81664" lon="0.27268">
        <ele>1997</ele>
        <time>2020-07-27T16:14:23.085Z</time>
      </trkpt>
      <trkpt lat="42.81667" lon="0.27266">
        <ele>1996</ele>
        <time>2020-07-27T16:14:24.085Z</time>
      </trkpt>
      <trkpt lat="42.81669" lon="0.27264">
        <ele>1995</ele>
        <time>2020-07-27T16:14:25.085Z</time>
      </trkpt>
      <trkpt lat="42.81672" lon="0.27261">
        <ele>1995</ele>
        <time>2020-07-27T16:14:26.085Z</time>
      </trkpt>
      <trkpt lat="42.81674" lon="0.27259">
        <ele>1995</ele>
        <time>2020-07-27T16:14:27.085Z</time>
      </trkpt>
      <trkpt lat="42.81677" lon="0.27257">
        <ele>1995</ele>
        <time>2020-07-27T16:14:28.085Z</time>
      </trkpt>
      <trkpt lat="42.8168" lon="0.27255">
        <ele>1994</ele>
        <time>2020-07-27T16:14:29.085Z</time>
      </trkpt>
      <trkpt lat="42.81683" lon="0.27253">
        <ele>1994</ele>
        <time>2020-07-27T16:14:30.085Z</time>
      </trkpt>
      <trkpt lat="42.81685" lon="0.27251">
        <ele>1994</ele>
        <time>2020-07-27T16:14:31.085Z</time>
      </trkpt>
      <trkpt lat="42.81688" lon="0.27249">
        <ele>1993</ele>
        <time>2020-07-27T16:14:32.085Z</time>
      </trkpt>
      <trkpt lat="42.81691" lon="0.27246">
        <ele>1992</ele>
        <time>2020-07-27T16:14:33.085Z</time>
      </trkpt>
      <trkpt lat="42.81693" lon="0.27244">
        <ele>1991</ele>
        <time>2020-07-27T16:14:34.085Z</time>
      </trkpt>
      <trkpt lat="42.81696" lon="0.27241">
        <ele>1991</ele>
        <time>2020-07-27T16:14:35.085Z</time>
      </trkpt>
      <trkpt lat="42.81698" lon="0.27238">
        <ele>1990</ele>
        <time>2020-07-27T16:14:36.085Z</time>
      </trkpt>
      <trkpt lat="42.81701" lon="0.27235">
        <ele>1989</ele>
        <time>2020-07-27T16:14:37.085Z</time>
      </trkpt>
      <trkpt lat="42.81703" lon="0.27232">
        <ele>1989</ele>
        <time>2020-07-27T16:14:38.085Z</time>
      </trkpt>
      <trkpt lat="42.81705" lon="0.27229">
        <ele>1989</ele>
        <time>2020-07-27T16:14:39.085Z</time>
      </trkpt>
      <trkpt lat="42.81708" lon="0.27226">
        <ele>1989</ele>
        <time>2020-07-27T16:14:40.085Z</time>
      </trkpt>
      <trkpt lat="42.8171" lon="0.27223">
        <ele>1989</ele>
        <time>2020-07-27T16:14:41.085Z</time>
      </trkpt>
      <trkpt lat="42.81712" lon="0.2722">
        <ele>1986</ele>
        <time>2020-07-27T16:14:42.085Z</time>
      </trkpt>
      <trkpt lat="42.81713" lon="0.27217">
        <ele>1986</ele>
        <time>2020-07-27T16:14:43.085Z</time>
      </trkpt>
      <trkpt lat="42.81715" lon="0.27213">
        <ele>1985</ele>
        <time>2020-07-27T16:14:44.085Z</time>
      </trkpt>
      <trkpt lat="42.81716" lon="0.2721">
        <ele>1985</ele>
        <time>2020-07-27T16:14:45.085Z</time>
      </trkpt>
      <trkpt lat="42.81718" lon="0.27207">
        <ele>1984</ele>
        <time>2020-07-27T16:14:46.085Z</time>
      </trkpt>
      <trkpt lat="42.8172" lon="0.27203">
        <ele>1981</ele>
        <time>2020-07-27T16:14:47.085Z</time>
      </trkpt>
      <trkpt lat="42.81722" lon="0.272">
        <ele>1980</ele>
        <time>2020-07-27T16:14:48.085Z</time>
      </trkpt>
      <trkpt lat="42.81723" lon="0.27196">
        <ele>1980</ele>
        <time>2020-07-27T16:14:49.085Z</time>
      </trkpt>
      <trkpt lat="42.81725" lon="0.27192">
        <ele>1979</ele>
        <time>2020-07-27T16:14:50.085Z</time>
      </trkpt>
      <trkpt lat="42.81727" lon="0.27188">
        <ele>1977</ele>
        <time>2020-07-27T16:14:51.085Z</time>
      </trkpt>
      <trkpt lat="42.81729" lon="0.27185">
        <ele>1977</ele>
        <time>2020-07-27T16:14:52.085Z</time>
      </trkpt>
      <trkpt lat="42.81731" lon="0.27181">
        <ele>1976</ele>
        <time>2020-07-27T16:14:53.085Z</time>
      </trkpt>
      <trkpt lat="42.81733" lon="0.27178">
        <ele>1975</ele>
        <time>2020-07-27T16:14:54.085Z</time>
      </trkpt>
      <trkpt lat="42.81735" lon="0.27174">
        <ele>1974</ele>
        <time>2020-07-27T16:14:55.085Z</time>
      </trkpt>
      <trkpt lat="42.81737" lon="0.2717">
        <ele>1974</ele>
        <time>2020-07-27T16:14:56.085Z</time>
      </trkpt>
      <trkpt lat="42.81739" lon="0.27167">
        <ele>1974</ele>
        <time>2020-07-27T16:14:57.085Z</time>
      </trkpt>
      <trkpt lat="42.81741" lon="0.27163">
        <ele>1974</ele>
        <time>2020-07-27T16:14:58.085Z</time>
      </trkpt>
      <trkpt lat="42.81742" lon="0.27159">
        <ele>1972</ele>
        <time>2020-07-27T16:14:59.085Z</time>
      </trkpt>
      <trkpt lat="42.81744" lon="0.27156">
        <ele>1971</ele>
        <time>2020-07-27T16:15:00.085Z</time>
      </trkpt>
      <trkpt lat="42.81745" lon="0.27152">
        <ele>1970</ele>
        <time>2020-07-27T16:15:01.085Z</time>
      </trkpt>
      <trkpt lat="42.81747" lon="0.27148">
        <ele>1970</ele>
        <time>2020-07-27T16:15:02.085Z</time>
      </trkpt>
      <trkpt lat="42.81749" lon="0.27145">
        <ele>1971</ele>
        <time>2020-07-27T16:15:03.085Z</time>
      </trkpt>
      <trkpt lat="42.8175" lon="0.27141">
        <ele>1970</ele>
        <time>2020-07-27T16:15:04.085Z</time>
      </trkpt>
      <trkpt lat="42.81752" lon="0.27137">
        <ele>1970</ele>
        <time>2020-07-27T16:15:05.085Z</time>
      </trkpt>
      <trkpt lat="42.81753" lon="0.27133">
        <ele>1971</ele>
        <time>2020-07-27T16:15:06.085Z</time>
      </trkpt>
      <trkpt lat="42.81754" lon="0.2713">
        <ele>1972</ele>
        <time>2020-07-27T16:15:07.085Z</time>
      </trkpt>
      <trkpt lat="42.81756" lon="0.27126">
        <ele>1972</ele>
        <time>2020-07-27T16:15:08.085Z</time>
      </trkpt>
      <trkpt lat="42.81757" lon="0.27123">
        <ele>1972</ele>
        <time>2020-07-27T16:15:09.085Z</time>
      </trkpt>
      <trkpt lat="42.81759" lon="0.27119">
        <ele>1972</ele>
        <time>2020-07-27T16:15:10.085Z</time>
      </trkpt>
      <trkpt lat="42.81761" lon="0.27115">
        <ele>1972</ele>
        <time>2020-07-27T16:15:11.085Z</time>
      </trkpt>
      <trkpt lat="42.81763" lon="0.27112">
        <ele>1971</ele>
        <time>2020-07-27T16:15:12.085Z</time>
      </trkpt>
      <trkpt lat="42.81765" lon="0.27108">
        <ele>1971</ele>
        <time>2020-07-27T16:15:13.085Z</time>
      </trkpt>
      <trkpt lat="42.81766" lon="0.27105">
        <ele>1970</ele>
        <time>2020-07-27T16:15:14.085Z</time>
      </trkpt>
      <trkpt lat="42.81768" lon="0.27102">
        <ele>1970</ele>
        <time>2020-07-27T16:15:15.085Z</time>
      </trkpt>
      <trkpt lat="42.8177" lon="0.27098">
        <ele>1970</ele>
        <time>2020-07-27T16:15:16.085Z</time>
      </trkpt>
      <trkpt lat="42.81771" lon="0.27095">
        <ele>1969</ele>
        <time>2020-07-27T16:15:17.085Z</time>
      </trkpt>
      <trkpt lat="42.81773" lon="0.27091">
        <ele>1969</ele>
        <time>2020-07-27T16:15:18.085Z</time>
      </trkpt>
      <trkpt lat="42.81774" lon="0.27087">
        <ele>1968</ele>
        <time>2020-07-27T16:15:19.085Z</time>
      </trkpt>
      <trkpt lat="42.81776" lon="0.27083">
        <ele>1968</ele>
        <time>2020-07-27T16:15:20.085Z</time>
      </trkpt>
      <trkpt lat="42.81777" lon="0.27079">
        <ele>1968</ele>
        <time>2020-07-27T16:15:21.085Z</time>
      </trkpt>
      <trkpt lat="42.81779" lon="0.27075">
        <ele>1967</ele>
        <time>2020-07-27T16:15:22.085Z</time>
      </trkpt>
      <trkpt lat="42.8178" lon="0.27071">
        <ele>1966</ele>
        <time>2020-07-27T16:15:23.085Z</time>
      </trkpt>
      <trkpt lat="42.81781" lon="0.27067">
        <ele>1965</ele>
        <time>2020-07-27T16:15:24.085Z</time>
      </trkpt>
      <trkpt lat="42.81783" lon="0.27063">
        <ele>1965</ele>
        <time>2020-07-27T16:15:25.085Z</time>
      </trkpt>
      <trkpt lat="42.81784" lon="0.27059">
        <ele>1965</ele>
        <time>2020-07-27T16:15:26.085Z</time>
      </trkpt>
      <trkpt lat="42.81785" lon="0.27055">
        <ele>1964</ele>
        <time>2020-07-27T16:15:27.085Z</time>
      </trkpt>
      <trkpt lat="42.81787" lon="0.27051">
        <ele>1964</ele>
        <time>2020-07-27T16:15:28.085Z</time>
      </trkpt>
      <trkpt lat="42.81788" lon="0.27047">
        <ele>1964</ele>
        <time>2020-07-27T16:15:29.085Z</time>
      </trkpt>
      <trkpt lat="42.81789" lon="0.27043">
        <ele>1965</ele>
        <time>2020-07-27T16:15:30.085Z</time>
      </trkpt>
      <trkpt lat="42.81789" lon="0.27039">
        <ele>1966</ele>
        <time>2020-07-27T16:15:31.085Z</time>
      </trkpt>
      <trkpt lat="42.8179" lon="0.27034">
        <ele>1966</ele>
        <time>2020-07-27T16:15:32.085Z</time>
      </trkpt>
      <trkpt lat="42.81791" lon="0.2703">
        <ele>1964</ele>
        <time>2020-07-27T16:15:33.085Z</time>
      </trkpt>
      <trkpt lat="42.81791" lon="0.27026">
        <ele>1964</ele>
        <time>2020-07-27T16:15:34.085Z</time>
      </trkpt>
      <trkpt lat="42.81791" lon="0.27021">
        <ele>1965</ele>
        <time>2020-07-27T16:15:35.085Z</time>
      </trkpt>
      <trkpt lat="42.8179" lon="0.27017">
        <ele>1964</ele>
        <time>2020-07-27T16:15:36.085Z</time>
      </trkpt>
      <trkpt lat="42.81789" lon="0.27012">
        <ele>1964</ele>
        <time>2020-07-27T16:15:37.085Z</time>
      </trkpt>
      <trkpt lat="42.81789" lon="0.27008">
        <ele>1963</ele>
        <time>2020-07-27T16:15:38.085Z</time>
      </trkpt>
      <trkpt lat="42.81788" lon="0.27004">
        <ele>1962</ele>
        <time>2020-07-27T16:15:39.085Z</time>
      </trkpt>
      <trkpt lat="42.81788" lon="0.27">
        <ele>1961</ele>
        <time>2020-07-27T16:15:40.085Z</time>
      </trkpt>
      <trkpt lat="42.81787" lon="0.26995">
        <ele>1960</ele>
        <time>2020-07-27T16:15:41.085Z</time>
      </trkpt>
      <trkpt lat="42.81786" lon="0.26991">
        <ele>1960</ele>
        <time>2020-07-27T16:15:42.085Z</time>
      </trkpt>
      <trkpt lat="42.81786" lon="0.26987">
        <ele>1960</ele>
        <time>2020-07-27T16:15:43.085Z</time>
      </trkpt>
      <trkpt lat="42.81784" lon="0.26983">
        <ele>1959</ele>
        <time>2020-07-27T16:15:44.085Z</time>
      </trkpt>
      <trkpt lat="42.81783" lon="0.26979">
        <ele>1959</ele>
        <time>2020-07-27T16:15:45.085Z</time>
      </trkpt>
      <trkpt lat="42.81782" lon="0.26975">
        <ele>1959</ele>
        <time>2020-07-27T16:15:46.085Z</time>
      </trkpt>
      <trkpt lat="42.81781" lon="0.26971">
        <ele>1957</ele>
        <time>2020-07-27T16:15:47.085Z</time>
      </trkpt>
      <trkpt lat="42.8178" lon="0.26967">
        <ele>1957</ele>
        <time>2020-07-27T16:15:48.085Z</time>
      </trkpt>
      <trkpt lat="42.8178" lon="0.26963">
        <ele>1957</ele>
        <time>2020-07-27T16:15:49.085Z</time>
      </trkpt>
      <trkpt lat="42.81779" lon="0.26958">
        <ele>1956</ele>
        <time>2020-07-27T16:15:50.085Z</time>
      </trkpt>
      <trkpt lat="42.81779" lon="0.26954">
        <ele>1956</ele>
        <time>2020-07-27T16:15:51.085Z</time>
      </trkpt>
      <trkpt lat="42.81778" lon="0.2695">
        <ele>1955</ele>
        <time>2020-07-27T16:15:52.085Z</time>
      </trkpt>
      <trkpt lat="42.81777" lon="0.26945">
        <ele>1955</ele>
        <time>2020-07-27T16:15:53.085Z</time>
      </trkpt>
      <trkpt lat="42.81776" lon="0.26941">
        <ele>1955</ele>
        <time>2020-07-27T16:15:54.085Z</time>
      </trkpt>
      <trkpt lat="42.81776" lon="0.26937">
        <ele>1955</ele>
        <time>2020-07-27T16:15:55.085Z</time>
      </trkpt>
      <trkpt lat="42.81775" lon="0.26933">
        <ele>1955</ele>
        <time>2020-07-27T16:15:56.085Z</time>
      </trkpt>
      <trkpt lat="42.81775" lon="0.26929">
        <ele>1954</ele>
        <time>2020-07-27T16:15:57.085Z</time>
      </trkpt>
      <trkpt lat="42.81775" lon="0.26925">
        <ele>1954</ele>
        <time>2020-07-27T16:15:58.085Z</time>
      </trkpt>
      <trkpt lat="42.81775" lon="0.2692">
        <ele>1953</ele>
        <time>2020-07-27T16:15:59.085Z</time>
      </trkpt>
      <trkpt lat="42.81776" lon="0.26916">
        <ele>1953</ele>
        <time>2020-07-27T16:16:00.085Z</time>
      </trkpt>
      <trkpt lat="42.81776" lon="0.26912">
        <ele>1952</ele>
        <time>2020-07-27T16:16:01.085Z</time>
      </trkpt>
      <trkpt lat="42.81776" lon="0.26908">
        <ele>1951</ele>
        <time>2020-07-27T16:16:02.085Z</time>
      </trkpt>
      <trkpt lat="42.81777" lon="0.26903">
        <ele>1950</ele>
        <time>2020-07-27T16:16:03.085Z</time>
      </trkpt>
      <trkpt lat="42.81777" lon="0.26898">
        <ele>1949</ele>
        <time>2020-07-27T16:16:04.085Z</time>
      </trkpt>
      <trkpt lat="42.81777" lon="0.26893">
        <ele>1948</ele>
        <time>2020-07-27T16:16:05.085Z</time>
      </trkpt>
      <trkpt lat="42.81777" lon="0.26888">
        <ele>1947</ele>
        <time>2020-07-27T16:16:06.085Z</time>
      </trkpt>
      <trkpt lat="42.81777" lon="0.26884">
        <ele>1946</ele>
        <time>2020-07-27T16:16:07.085Z</time>
      </trkpt>
      <trkpt lat="42.81776" lon="0.2688">
        <ele>1946</ele>
        <time>2020-07-27T16:16:08.085Z</time>
      </trkpt>
      <trkpt lat="42.81776" lon="0.26875">
        <ele>1946</ele>
        <time>2020-07-27T16:16:09.085Z</time>
      </trkpt>
      <trkpt lat="42.81776" lon="0.26871">
        <ele>1945</ele>
        <time>2020-07-27T16:16:10.085Z</time>
      </trkpt>
      <trkpt lat="42.81776" lon="0.26867">
        <ele>1945</ele>
        <time>2020-07-27T16:16:11.085Z</time>
      </trkpt>
      <trkpt lat="42.81776" lon="0.26863">
        <ele>1944</ele>
        <time>2020-07-27T16:16:12.085Z</time>
      </trkpt>
      <trkpt lat="42.81776" lon="0.26859">
        <ele>1944</ele>
        <time>2020-07-27T16:16:13.085Z</time>
      </trkpt>
      <trkpt lat="42.81775" lon="0.26855">
        <ele>1943</ele>
        <time>2020-07-27T16:16:14.085Z</time>
      </trkpt>
      <trkpt lat="42.81775" lon="0.26851">
        <ele>1943</ele>
        <time>2020-07-27T16:16:15.085Z</time>
      </trkpt>
      <trkpt lat="42.81775" lon="0.26847">
        <ele>1942</ele>
        <time>2020-07-27T16:16:16.085Z</time>
      </trkpt>
      <trkpt lat="42.81774" lon="0.26842">
        <ele>1942</ele>
        <time>2020-07-27T16:16:17.085Z</time>
      </trkpt>
      <trkpt lat="42.81774" lon="0.26838">
        <ele>1941</ele>
        <time>2020-07-27T16:16:18.085Z</time>
      </trkpt>
      <trkpt lat="42.81774" lon="0.26834">
        <ele>1941</ele>
        <time>2020-07-27T16:16:19.085Z</time>
      </trkpt>
      <trkpt lat="42.81774" lon="0.26829">
        <ele>1940</ele>
        <time>2020-07-27T16:16:20.085Z</time>
      </trkpt>
      <trkpt lat="42.81774" lon="0.26825">
        <ele>1939</ele>
        <time>2020-07-27T16:16:21.085Z</time>
      </trkpt>
      <trkpt lat="42.81774" lon="0.2682">
        <ele>1938</ele>
        <time>2020-07-27T16:16:22.085Z</time>
      </trkpt>
      <trkpt lat="42.81774" lon="0.26816">
        <ele>1938</ele>
        <time>2020-07-27T16:16:23.085Z</time>
      </trkpt>
      <trkpt lat="42.81774" lon="0.26811">
        <ele>1938</ele>
        <time>2020-07-27T16:16:24.085Z</time>
      </trkpt>
      <trkpt lat="42.81774" lon="0.26807">
        <ele>1937</ele>
        <time>2020-07-27T16:16:25.085Z</time>
      </trkpt>
      <trkpt lat="42.81773" lon="0.26802">
        <ele>1936</ele>
        <time>2020-07-27T16:16:26.085Z</time>
      </trkpt>
      <trkpt lat="42.81773" lon="0.26798">
        <ele>1936</ele>
        <time>2020-07-27T16:16:27.085Z</time>
      </trkpt>
      <trkpt lat="42.81773" lon="0.26793">
        <ele>1936</ele>
        <time>2020-07-27T16:16:28.085Z</time>
      </trkpt>
      <trkpt lat="42.81772" lon="0.26788">
        <ele>1935</ele>
        <time>2020-07-27T16:16:29.085Z</time>
      </trkpt>
      <trkpt lat="42.81772" lon="0.26784">
        <ele>1934</ele>
        <time>2020-07-27T16:16:30.085Z</time>
      </trkpt>
      <trkpt lat="42.81772" lon="0.26779">
        <ele>1933</ele>
        <time>2020-07-27T16:16:31.085Z</time>
      </trkpt>
      <trkpt lat="42.81772" lon="0.26775">
        <ele>1932</ele>
        <time>2020-07-27T16:16:32.085Z</time>
      </trkpt>
      <trkpt lat="42.81772" lon="0.2677">
        <ele>1932</ele>
        <time>2020-07-27T16:16:33.085Z</time>
      </trkpt>
      <trkpt lat="42.81772" lon="0.26766">
        <ele>1931</ele>
        <time>2020-07-27T16:16:34.085Z</time>
      </trkpt>
      <trkpt lat="42.81772" lon="0.26762">
        <ele>1932</ele>
        <time>2020-07-27T16:16:35.085Z</time>
      </trkpt>
      <trkpt lat="42.81772" lon="0.26758">
        <ele>1933</ele>
        <time>2020-07-27T16:16:36.085Z</time>
      </trkpt>
      <trkpt lat="42.81773" lon="0.26753">
        <ele>1933</ele>
        <time>2020-07-27T16:16:37.085Z</time>
      </trkpt>
      <trkpt lat="42.81774" lon="0.26748">
        <ele>1934</ele>
        <time>2020-07-27T16:16:38.085Z</time>
      </trkpt>
      <trkpt lat="42.81774" lon="0.26743">
        <ele>1935</ele>
        <time>2020-07-27T16:16:39.085Z</time>
      </trkpt>
      <trkpt lat="42.81775" lon="0.26738">
        <ele>1934</ele>
        <time>2020-07-27T16:16:40.085Z</time>
      </trkpt>
      <trkpt lat="42.81775" lon="0.26733">
        <ele>1934</ele>
        <time>2020-07-27T16:16:41.085Z</time>
      </trkpt>
      <trkpt lat="42.81776" lon="0.26728">
        <ele>1934</ele>
        <time>2020-07-27T16:16:42.085Z</time>
      </trkpt>
      <trkpt lat="42.81776" lon="0.26724">
        <ele>1934</ele>
        <time>2020-07-27T16:16:43.085Z</time>
      </trkpt>
      <trkpt lat="42.81777" lon="0.26719">
        <ele>1934</ele>
        <time>2020-07-27T16:16:44.085Z</time>
      </trkpt>
      <trkpt lat="42.81778" lon="0.26714">
        <ele>1934</ele>
        <time>2020-07-27T16:16:45.085Z</time>
      </trkpt>
      <trkpt lat="42.81778" lon="0.2671">
        <ele>1935</ele>
        <time>2020-07-27T16:16:46.085Z</time>
      </trkpt>
      <trkpt lat="42.81779" lon="0.26705">
        <ele>1934</ele>
        <time>2020-07-27T16:16:47.085Z</time>
      </trkpt>
      <trkpt lat="42.8178" lon="0.26701">
        <ele>1934</ele>
        <time>2020-07-27T16:16:48.085Z</time>
      </trkpt>
      <trkpt lat="42.81781" lon="0.26696">
        <ele>1934</ele>
        <time>2020-07-27T16:16:49.085Z</time>
      </trkpt>
      <trkpt lat="42.81782" lon="0.26692">
        <ele>1934</ele>
        <time>2020-07-27T16:16:50.085Z</time>
      </trkpt>
      <trkpt lat="42.81782" lon="0.26688">
        <ele>1934</ele>
        <time>2020-07-27T16:16:51.085Z</time>
      </trkpt>
      <trkpt lat="42.81783" lon="0.26683">
        <ele>1934</ele>
        <time>2020-07-27T16:16:52.085Z</time>
      </trkpt>
      <trkpt lat="42.81784" lon="0.26679">
        <ele>1933</ele>
        <time>2020-07-27T16:16:53.085Z</time>
      </trkpt>
      <trkpt lat="42.81785" lon="0.26675">
        <ele>1934</ele>
        <time>2020-07-27T16:16:54.085Z</time>
      </trkpt>
      <trkpt lat="42.81786" lon="0.26671">
        <ele>1935</ele>
        <time>2020-07-27T16:16:55.085Z</time>
      </trkpt>
      <trkpt lat="42.81787" lon="0.26667">
        <ele>1935</ele>
        <time>2020-07-27T16:16:56.085Z</time>
      </trkpt>
      <trkpt lat="42.81787" lon="0.26662">
        <ele>1934</ele>
        <time>2020-07-27T16:16:57.085Z</time>
      </trkpt>
      <trkpt lat="42.81788" lon="0.26658">
        <ele>1934</ele>
        <time>2020-07-27T16:16:58.085Z</time>
      </trkpt>
      <trkpt lat="42.81789" lon="0.26653">
        <ele>1933</ele>
        <time>2020-07-27T16:16:59.085Z</time>
      </trkpt>
      <trkpt lat="42.81789" lon="0.26648">
        <ele>1933</ele>
        <time>2020-07-27T16:17:00.085Z</time>
      </trkpt>
      <trkpt lat="42.8179" lon="0.26644">
        <ele>1932</ele>
        <time>2020-07-27T16:17:01.085Z</time>
      </trkpt>
      <trkpt lat="42.81791" lon="0.2664">
        <ele>1932</ele>
        <time>2020-07-27T16:17:02.085Z</time>
      </trkpt>
      <trkpt lat="42.81792" lon="0.26635">
        <ele>1932</ele>
        <time>2020-07-27T16:17:03.085Z</time>
      </trkpt>
      <trkpt lat="42.81792" lon="0.26631">
        <ele>1932</ele>
        <time>2020-07-27T16:17:04.085Z</time>
      </trkpt>
      <trkpt lat="42.81793" lon="0.26627">
        <ele>1932</ele>
        <time>2020-07-27T16:17:05.085Z</time>
      </trkpt>
      <trkpt lat="42.81793" lon="0.26622">
        <ele>1932</ele>
        <time>2020-07-27T16:17:06.085Z</time>
      </trkpt>
      <trkpt lat="42.81794" lon="0.26618">
        <ele>1932</ele>
        <time>2020-07-27T16:17:07.085Z</time>
      </trkpt>
      <trkpt lat="42.81794" lon="0.26614">
        <ele>1932</ele>
        <time>2020-07-27T16:17:08.085Z</time>
      </trkpt>
      <trkpt lat="42.81795" lon="0.2661">
        <ele>1932</ele>
        <time>2020-07-27T16:17:09.085Z</time>
      </trkpt>
      <trkpt lat="42.81796" lon="0.26606">
        <ele>1931</ele>
        <time>2020-07-27T16:17:10.085Z</time>
      </trkpt>
      <trkpt lat="42.81797" lon="0.26602">
        <ele>1931</ele>
        <time>2020-07-27T16:17:11.085Z</time>
      </trkpt>
      <trkpt lat="42.81799" lon="0.26598">
        <ele>1930</ele>
        <time>2020-07-27T16:17:12.085Z</time>
      </trkpt>
      <trkpt lat="42.818" lon="0.26594">
        <ele>1929</ele>
        <time>2020-07-27T16:17:13.085Z</time>
      </trkpt>
      <trkpt lat="42.81801" lon="0.26589">
        <ele>1929</ele>
        <time>2020-07-27T16:17:14.085Z</time>
      </trkpt>
      <trkpt lat="42.81803" lon="0.26585">
        <ele>1928</ele>
        <time>2020-07-27T16:17:15.085Z</time>
      </trkpt>
      <trkpt lat="42.81804" lon="0.26581">
        <ele>1929</ele>
        <time>2020-07-27T16:17:16.085Z</time>
      </trkpt>
      <trkpt lat="42.81806" lon="0.26577">
        <ele>1929</ele>
        <time>2020-07-27T16:17:17.085Z</time>
      </trkpt>
      <trkpt lat="42.81808" lon="0.26573">
        <ele>1928</ele>
        <time>2020-07-27T16:17:18.085Z</time>
      </trkpt>
      <trkpt lat="42.8181" lon="0.2657">
        <ele>1928</ele>
        <time>2020-07-27T16:17:19.085Z</time>
      </trkpt>
      <trkpt lat="42.81812" lon="0.26566">
        <ele>1928</ele>
        <time>2020-07-27T16:17:20.085Z</time>
      </trkpt>
      <trkpt lat="42.81814" lon="0.26562">
        <ele>1927</ele>
        <time>2020-07-27T16:17:21.085Z</time>
      </trkpt>
      <trkpt lat="42.81815" lon="0.26558">
        <ele>1927</ele>
        <time>2020-07-27T16:17:22.085Z</time>
      </trkpt>
      <trkpt lat="42.81817" lon="0.26554">
        <ele>1926</ele>
        <time>2020-07-27T16:17:23.085Z</time>
      </trkpt>
      <trkpt lat="42.81818" lon="0.2655">
        <ele>1926</ele>
        <time>2020-07-27T16:17:24.085Z</time>
      </trkpt>
      <trkpt lat="42.8182" lon="0.26547">
        <ele>1927</ele>
        <time>2020-07-27T16:17:25.085Z</time>
      </trkpt>
      <trkpt lat="42.81822" lon="0.26543">
        <ele>1927</ele>
        <time>2020-07-27T16:17:26.085Z</time>
      </trkpt>
      <trkpt lat="42.81824" lon="0.26539">
        <ele>1926</ele>
        <time>2020-07-27T16:17:27.085Z</time>
      </trkpt>
      <trkpt lat="42.81825" lon="0.26536">
        <ele>1924</ele>
        <time>2020-07-27T16:17:28.085Z</time>
      </trkpt>
      <trkpt lat="42.81827" lon="0.26532">
        <ele>1925</ele>
        <time>2020-07-27T16:17:29.085Z</time>
      </trkpt>
      <trkpt lat="42.81829" lon="0.26529">
        <ele>1926</ele>
        <time>2020-07-27T16:17:30.085Z</time>
      </trkpt>
      <trkpt lat="42.81831" lon="0.26525">
        <ele>1925</ele>
        <time>2020-07-27T16:17:31.085Z</time>
      </trkpt>
      <trkpt lat="42.81833" lon="0.26521">
        <ele>1926</ele>
        <time>2020-07-27T16:17:32.085Z</time>
      </trkpt>
      <trkpt lat="42.81834" lon="0.26518">
        <ele>1925</ele>
        <time>2020-07-27T16:17:33.085Z</time>
      </trkpt>
      <trkpt lat="42.81836" lon="0.26515">
        <ele>1924</ele>
        <time>2020-07-27T16:17:34.085Z</time>
      </trkpt>
      <trkpt lat="42.81838" lon="0.26511">
        <ele>1925</ele>
        <time>2020-07-27T16:17:35.085Z</time>
      </trkpt>
      <trkpt lat="42.8184" lon="0.26508">
        <ele>1925</ele>
        <time>2020-07-27T16:17:36.085Z</time>
      </trkpt>
      <trkpt lat="42.81842" lon="0.26504">
        <ele>1925</ele>
        <time>2020-07-27T16:17:37.085Z</time>
      </trkpt>
      <trkpt lat="42.81844" lon="0.265">
        <ele>1924</ele>
        <time>2020-07-27T16:17:38.085Z</time>
      </trkpt>
      <trkpt lat="42.81847" lon="0.26497">
        <ele>1923</ele>
        <time>2020-07-27T16:17:39.085Z</time>
      </trkpt>
      <trkpt lat="42.81849" lon="0.26495">
        <ele>1923</ele>
        <time>2020-07-27T16:17:40.085Z</time>
      </trkpt>
      <trkpt lat="42.81852" lon="0.26493">
        <ele>1923</ele>
        <time>2020-07-27T16:17:41.085Z</time>
      </trkpt>
      <trkpt lat="42.81855" lon="0.26493">
        <ele>1922</ele>
        <time>2020-07-27T16:17:42.085Z</time>
      </trkpt>
      <trkpt lat="42.81858" lon="0.26493">
        <ele>1920</ele>
        <time>2020-07-27T16:17:43.085Z</time>
      </trkpt>
      <trkpt lat="42.81862" lon="0.26495">
        <ele>1921</ele>
        <time>2020-07-27T16:17:44.085Z</time>
      </trkpt>
      <trkpt lat="42.81864" lon="0.26498">
        <ele>1919</ele>
        <time>2020-07-27T16:17:45.085Z</time>
      </trkpt>
      <trkpt lat="42.81867" lon="0.26502">
        <ele>1919</ele>
        <time>2020-07-27T16:17:46.085Z</time>
      </trkpt>
      <trkpt lat="42.81869" lon="0.26506">
        <ele>1919</ele>
        <time>2020-07-27T16:17:47.085Z</time>
      </trkpt>
      <trkpt lat="42.8187" lon="0.26511">
        <ele>1919</ele>
        <time>2020-07-27T16:17:48.085Z</time>
      </trkpt>
      <trkpt lat="42.81871" lon="0.26515">
        <ele>1919</ele>
        <time>2020-07-27T16:17:49.085Z</time>
      </trkpt>
      <trkpt lat="42.81871" lon="0.2652">
        <ele>1919</ele>
        <time>2020-07-27T16:17:50.085Z</time>
      </trkpt>
      <trkpt lat="42.81872" lon="0.26525">
        <ele>1918</ele>
        <time>2020-07-27T16:17:51.085Z</time>
      </trkpt>
      <trkpt lat="42.81872" lon="0.26529">
        <ele>1918</ele>
        <time>2020-07-27T16:17:52.085Z</time>
      </trkpt>
      <trkpt lat="42.81872" lon="0.26534">
        <ele>1918</ele>
        <time>2020-07-27T16:17:53.085Z</time>
      </trkpt>
      <trkpt lat="42.81872" lon="0.26538">
        <ele>1918</ele>
        <time>2020-07-27T16:17:54.085Z</time>
      </trkpt>
      <trkpt lat="42.81871" lon="0.26542">
        <ele>1918</ele>
        <time>2020-07-27T16:17:55.085Z</time>
      </trkpt>
      <trkpt lat="42.81871" lon="0.26547">
        <ele>1917</ele>
        <time>2020-07-27T16:17:56.085Z</time>
      </trkpt>
      <trkpt lat="42.81871" lon="0.26551">
        <ele>1917</ele>
        <time>2020-07-27T16:17:57.085Z</time>
      </trkpt>
      <trkpt lat="42.81871" lon="0.26556">
        <ele>1917</ele>
        <time>2020-07-27T16:17:58.085Z</time>
      </trkpt>
      <trkpt lat="42.8187" lon="0.2656">
        <ele>1916</ele>
        <time>2020-07-27T16:17:59.085Z</time>
      </trkpt>
      <trkpt lat="42.8187" lon="0.26564">
        <ele>1917</ele>
        <time>2020-07-27T16:18:00.085Z</time>
      </trkpt>
      <trkpt lat="42.8187" lon="0.26569">
        <ele>1917</ele>
        <time>2020-07-27T16:18:01.085Z</time>
      </trkpt>
      <trkpt lat="42.8187" lon="0.26573">
        <ele>1916</ele>
        <time>2020-07-27T16:18:02.085Z</time>
      </trkpt>
      <trkpt lat="42.8187" lon="0.26578">
        <ele>1916</ele>
        <time>2020-07-27T16:18:03.085Z</time>
      </trkpt>
      <trkpt lat="42.81869" lon="0.26582">
        <ele>1916</ele>
        <time>2020-07-27T16:18:04.085Z</time>
      </trkpt>
      <trkpt lat="42.81869" lon="0.26586">
        <ele>1915</ele>
        <time>2020-07-27T16:18:05.085Z</time>
      </trkpt>
      <trkpt lat="42.81869" lon="0.26591">
        <ele>1915</ele>
        <time>2020-07-27T16:18:06.085Z</time>
      </trkpt>
      <trkpt lat="42.81869" lon="0.26595">
        <ele>1914</ele>
        <time>2020-07-27T16:18:07.085Z</time>
      </trkpt>
      <trkpt lat="42.81869" lon="0.26599">
        <ele>1914</ele>
        <time>2020-07-27T16:18:08.085Z</time>
      </trkpt>
      <trkpt lat="42.81869" lon="0.26603">
        <ele>1914</ele>
        <time>2020-07-27T16:18:09.085Z</time>
      </trkpt>
      <trkpt lat="42.81869" lon="0.26607">
        <ele>1914</ele>
        <time>2020-07-27T16:18:10.085Z</time>
      </trkpt>
      <trkpt lat="42.81869" lon="0.26612">
        <ele>1913</ele>
        <time>2020-07-27T16:18:11.085Z</time>
      </trkpt>
      <trkpt lat="42.8187" lon="0.26616">
        <ele>1913</ele>
        <time>2020-07-27T16:18:12.085Z</time>
      </trkpt>
      <trkpt lat="42.8187" lon="0.2662">
        <ele>1912</ele>
        <time>2020-07-27T16:18:13.085Z</time>
      </trkpt>
      <trkpt lat="42.81869" lon="0.26625">
        <ele>1911</ele>
        <time>2020-07-27T16:18:14.085Z</time>
      </trkpt>
      <trkpt lat="42.81869" lon="0.26629">
        <ele>1910</ele>
        <time>2020-07-27T16:18:15.085Z</time>
      </trkpt>
      <trkpt lat="42.81869" lon="0.26632">
        <ele>1910</ele>
        <time>2020-07-27T16:18:16.085Z</time>
      </trkpt>
      <trkpt lat="42.8187" lon="0.26636">
        <ele>1909</ele>
        <time>2020-07-27T16:18:17.085Z</time>
      </trkpt>
      <trkpt lat="42.81871" lon="0.2664">
        <ele>1909</ele>
        <time>2020-07-27T16:18:18.085Z</time>
      </trkpt>
      <trkpt lat="42.81871" lon="0.26644">
        <ele>1908</ele>
        <time>2020-07-27T16:18:19.085Z</time>
      </trkpt>
      <trkpt lat="42.81872" lon="0.26648">
        <ele>1907</ele>
        <time>2020-07-27T16:18:20.085Z</time>
      </trkpt>
      <trkpt lat="42.81869" lon="0.26658">
        <ele>1905</ele>
        <time>2020-07-27T16:18:21.116Z</time>
      </trkpt>
      <trkpt lat="42.81869" lon="0.26659">
        <ele>1905</ele>
        <time>2020-07-27T16:18:22.116Z</time>
      </trkpt>
      <trkpt lat="42.81869" lon="0.26662">
        <ele>1904</ele>
        <time>2020-07-27T16:18:23.116Z</time>
      </trkpt>
      <trkpt lat="42.81869" lon="0.26665">
        <ele>1904</ele>
        <time>2020-07-27T16:18:24.116Z</time>
      </trkpt>
      <trkpt lat="42.81869" lon="0.26669">
        <ele>1905</ele>
        <time>2020-07-27T16:18:25.116Z</time>
      </trkpt>
      <trkpt lat="42.8187" lon="0.26674">
        <ele>1904</ele>
        <time>2020-07-27T16:18:26.116Z</time>
      </trkpt>
      <trkpt lat="42.8187" lon="0.26678">
        <ele>1905</ele>
        <time>2020-07-27T16:18:27.116Z</time>
      </trkpt>
      <trkpt lat="42.8187" lon="0.26682">
        <ele>1904</ele>
        <time>2020-07-27T16:18:28.116Z</time>
      </trkpt>
      <trkpt lat="42.8187" lon="0.26687">
        <ele>1904</ele>
        <time>2020-07-27T16:18:29.116Z</time>
      </trkpt>
      <trkpt lat="42.81869" lon="0.26691">
        <ele>1904</ele>
        <time>2020-07-27T16:18:30.116Z</time>
      </trkpt>
      <trkpt lat="42.81869" lon="0.26695">
        <ele>1904</ele>
        <time>2020-07-27T16:18:31.116Z</time>
      </trkpt>
      <trkpt lat="42.81868" lon="0.26699">
        <ele>1903</ele>
        <time>2020-07-27T16:18:32.116Z</time>
      </trkpt>
      <trkpt lat="42.81868" lon="0.26704">
        <ele>1903</ele>
        <time>2020-07-27T16:18:33.116Z</time>
      </trkpt>
      <trkpt lat="42.81867" lon="0.26708">
        <ele>1903</ele>
        <time>2020-07-27T16:18:34.116Z</time>
      </trkpt>
      <trkpt lat="42.81867" lon="0.26713">
        <ele>1903</ele>
        <time>2020-07-27T16:18:35.116Z</time>
      </trkpt>
      <trkpt lat="42.81866" lon="0.26717">
        <ele>1903</ele>
        <time>2020-07-27T16:18:36.116Z</time>
      </trkpt>
      <trkpt lat="42.81866" lon="0.26721">
        <ele>1902</ele>
        <time>2020-07-27T16:18:37.116Z</time>
      </trkpt>
      <trkpt lat="42.81865" lon="0.26726">
        <ele>1902</ele>
        <time>2020-07-27T16:18:38.116Z</time>
      </trkpt>
      <trkpt lat="42.81865" lon="0.2673">
        <ele>1902</ele>
        <time>2020-07-27T16:18:39.116Z</time>
      </trkpt>
      <trkpt lat="42.81864" lon="0.26735">
        <ele>1901</ele>
        <time>2020-07-27T16:18:40.116Z</time>
      </trkpt>
      <trkpt lat="42.81864" lon="0.26739">
        <ele>1901</ele>
        <time>2020-07-27T16:18:41.116Z</time>
      </trkpt>
      <trkpt lat="42.81864" lon="0.26744">
        <ele>1900</ele>
        <time>2020-07-27T16:18:42.116Z</time>
      </trkpt>
      <trkpt lat="42.81864" lon="0.26748">
        <ele>1899</ele>
        <time>2020-07-27T16:18:43.116Z</time>
      </trkpt>
      <trkpt lat="42.81864" lon="0.26753">
        <ele>1899</ele>
        <time>2020-07-27T16:18:44.116Z</time>
      </trkpt>
      <trkpt lat="42.81863" lon="0.26758">
        <ele>1899</ele>
        <time>2020-07-27T16:18:45.116Z</time>
      </trkpt>
      <trkpt lat="42.81864" lon="0.26762">
        <ele>1898</ele>
        <time>2020-07-27T16:18:46.116Z</time>
      </trkpt>
      <trkpt lat="42.81864" lon="0.26767">
        <ele>1898</ele>
        <time>2020-07-27T16:18:47.116Z</time>
      </trkpt>
      <trkpt lat="42.81865" lon="0.26772">
        <ele>1897</ele>
        <time>2020-07-27T16:18:48.116Z</time>
      </trkpt>
      <trkpt lat="42.81865" lon="0.26776">
        <ele>1896</ele>
        <time>2020-07-27T16:18:49.116Z</time>
      </trkpt>
      <trkpt lat="42.81866" lon="0.26781">
        <ele>1895</ele>
        <time>2020-07-27T16:18:50.116Z</time>
      </trkpt>
      <trkpt lat="42.81867" lon="0.26785">
        <ele>1895</ele>
        <time>2020-07-27T16:18:51.116Z</time>
      </trkpt>
      <trkpt lat="42.81869" lon="0.26788">
        <ele>1894</ele>
        <time>2020-07-27T16:18:52.116Z</time>
      </trkpt>
      <trkpt lat="42.8187" lon="0.26792">
        <ele>1894</ele>
        <time>2020-07-27T16:18:53.116Z</time>
      </trkpt>
      <trkpt lat="42.81872" lon="0.26796">
        <ele>1894</ele>
        <time>2020-07-27T16:18:54.116Z</time>
      </trkpt>
      <trkpt lat="42.81873" lon="0.26799">
        <ele>1893</ele>
        <time>2020-07-27T16:18:55.116Z</time>
      </trkpt>
      <trkpt lat="42.81875" lon="0.26803">
        <ele>1892</ele>
        <time>2020-07-27T16:18:56.116Z</time>
      </trkpt>
      <trkpt lat="42.81877" lon="0.26807">
        <ele>1892</ele>
        <time>2020-07-27T16:18:57.116Z</time>
      </trkpt>
      <trkpt lat="42.81878" lon="0.2681">
        <ele>1891</ele>
        <time>2020-07-27T16:18:58.116Z</time>
      </trkpt>
      <trkpt lat="42.8188" lon="0.26814">
        <ele>1892</ele>
        <time>2020-07-27T16:18:59.116Z</time>
      </trkpt>
      <trkpt lat="42.81882" lon="0.26817">
        <ele>1891</ele>
        <time>2020-07-27T16:19:00.116Z</time>
      </trkpt>
      <trkpt lat="42.81884" lon="0.26821">
        <ele>1892</ele>
        <time>2020-07-27T16:19:01.116Z</time>
      </trkpt>
      <trkpt lat="42.81885" lon="0.26825">
        <ele>1892</ele>
        <time>2020-07-27T16:19:02.116Z</time>
      </trkpt>
      <trkpt lat="42.81886" lon="0.26829">
        <ele>1891</ele>
        <time>2020-07-27T16:19:03.116Z</time>
      </trkpt>
      <trkpt lat="42.81887" lon="0.26834">
        <ele>1890</ele>
        <time>2020-07-27T16:19:04.116Z</time>
      </trkpt>
      <trkpt lat="42.81888" lon="0.26838">
        <ele>1890</ele>
        <time>2020-07-27T16:19:05.116Z</time>
      </trkpt>
      <trkpt lat="42.81889" lon="0.26842">
        <ele>1890</ele>
        <time>2020-07-27T16:19:06.116Z</time>
      </trkpt>
      <trkpt lat="42.8189" lon="0.26846">
        <ele>1890</ele>
        <time>2020-07-27T16:19:07.116Z</time>
      </trkpt>
      <trkpt lat="42.81892" lon="0.2685">
        <ele>1890</ele>
        <time>2020-07-27T16:19:08.116Z</time>
      </trkpt>
      <trkpt lat="42.81893" lon="0.26854">
        <ele>1890</ele>
        <time>2020-07-27T16:19:09.116Z</time>
      </trkpt>
      <trkpt lat="42.81894" lon="0.26858">
        <ele>1890</ele>
        <time>2020-07-27T16:19:10.116Z</time>
      </trkpt>
      <trkpt lat="42.81895" lon="0.26862">
        <ele>1890</ele>
        <time>2020-07-27T16:19:11.116Z</time>
      </trkpt>
      <trkpt lat="42.81897" lon="0.26866">
        <ele>1890</ele>
        <time>2020-07-27T16:19:12.116Z</time>
      </trkpt>
      <trkpt lat="42.81898" lon="0.26871">
        <ele>1889</ele>
        <time>2020-07-27T16:19:13.116Z</time>
      </trkpt>
      <trkpt lat="42.81899" lon="0.26875">
        <ele>1889</ele>
        <time>2020-07-27T16:19:14.116Z</time>
      </trkpt>
      <trkpt lat="42.819" lon="0.26879">
        <ele>1888</ele>
        <time>2020-07-27T16:19:15.116Z</time>
      </trkpt>
      <trkpt lat="42.81902" lon="0.26884">
        <ele>1888</ele>
        <time>2020-07-27T16:19:16.116Z</time>
      </trkpt>
      <trkpt lat="42.81903" lon="0.26888">
        <ele>1888</ele>
        <time>2020-07-27T16:19:17.116Z</time>
      </trkpt>
      <trkpt lat="42.81904" lon="0.26892">
        <ele>1888</ele>
        <time>2020-07-27T16:19:18.116Z</time>
      </trkpt>
      <trkpt lat="42.81905" lon="0.26897">
        <ele>1888</ele>
        <time>2020-07-27T16:19:19.116Z</time>
      </trkpt>
      <trkpt lat="42.81907" lon="0.26901">
        <ele>1888</ele>
        <time>2020-07-27T16:19:20.116Z</time>
      </trkpt>
      <trkpt lat="42.81908" lon="0.26906">
        <ele>1888</ele>
        <time>2020-07-27T16:19:21.116Z</time>
      </trkpt>
      <trkpt lat="42.8191" lon="0.2691">
        <ele>1887</ele>
        <time>2020-07-27T16:19:22.116Z</time>
      </trkpt>
      <trkpt lat="42.81912" lon="0.26913">
        <ele>1887</ele>
        <time>2020-07-27T16:19:23.116Z</time>
      </trkpt>
      <trkpt lat="42.81913" lon="0.26917">
        <ele>1886</ele>
        <time>2020-07-27T16:19:24.116Z</time>
      </trkpt>
      <trkpt lat="42.81915" lon="0.26921">
        <ele>1886</ele>
        <time>2020-07-27T16:19:25.116Z</time>
      </trkpt>
      <trkpt lat="42.81918" lon="0.26925">
        <ele>1886</ele>
        <time>2020-07-27T16:19:26.116Z</time>
      </trkpt>
      <trkpt lat="42.8192" lon="0.26929">
        <ele>1886</ele>
        <time>2020-07-27T16:19:27.116Z</time>
      </trkpt>
      <trkpt lat="42.81922" lon="0.26932">
        <ele>1885</ele>
        <time>2020-07-27T16:19:28.116Z</time>
      </trkpt>
      <trkpt lat="42.81925" lon="0.26935">
        <ele>1885</ele>
        <time>2020-07-27T16:19:29.116Z</time>
      </trkpt>
      <trkpt lat="42.81927" lon="0.26939">
        <ele>1885</ele>
        <time>2020-07-27T16:19:30.116Z</time>
      </trkpt>
      <trkpt lat="42.8193" lon="0.26942">
        <ele>1884</ele>
        <time>2020-07-27T16:19:31.116Z</time>
      </trkpt>
      <trkpt lat="42.81932" lon="0.26945">
        <ele>1884</ele>
        <time>2020-07-27T16:19:32.116Z</time>
      </trkpt>
      <trkpt lat="42.81935" lon="0.26948">
        <ele>1884</ele>
        <time>2020-07-27T16:19:33.116Z</time>
      </trkpt>
      <trkpt lat="42.81937" lon="0.2695">
        <ele>1883</ele>
        <time>2020-07-27T16:19:34.116Z</time>
      </trkpt>
      <trkpt lat="42.8194" lon="0.26953">
        <ele>1882</ele>
        <time>2020-07-27T16:19:35.116Z</time>
      </trkpt>
      <trkpt lat="42.81942" lon="0.26956">
        <ele>1880</ele>
        <time>2020-07-27T16:19:36.116Z</time>
      </trkpt>
      <trkpt lat="42.81944" lon="0.26958">
        <ele>1880</ele>
        <time>2020-07-27T16:19:37.116Z</time>
      </trkpt>
      <trkpt lat="42.81947" lon="0.26961">
        <ele>1880</ele>
        <time>2020-07-27T16:19:38.116Z</time>
      </trkpt>
      <trkpt lat="42.8195" lon="0.26963">
        <ele>1879</ele>
        <time>2020-07-27T16:19:39.116Z</time>
      </trkpt>
      <trkpt lat="42.81952" lon="0.26965">
        <ele>1879</ele>
        <time>2020-07-27T16:19:40.116Z</time>
      </trkpt>
      <trkpt lat="42.81955" lon="0.26967">
        <ele>1880</ele>
        <time>2020-07-27T16:19:41.116Z</time>
      </trkpt>
      <trkpt lat="42.81958" lon="0.26969">
        <ele>1879</ele>
        <time>2020-07-27T16:19:42.116Z</time>
      </trkpt>
      <trkpt lat="42.81961" lon="0.26972">
        <ele>1879</ele>
        <time>2020-07-27T16:19:43.116Z</time>
      </trkpt>
      <trkpt lat="42.81964" lon="0.26974">
        <ele>1879</ele>
        <time>2020-07-27T16:19:44.116Z</time>
      </trkpt>
      <trkpt lat="42.81967" lon="0.26976">
        <ele>1878</ele>
        <time>2020-07-27T16:19:45.116Z</time>
      </trkpt>
      <trkpt lat="42.81969" lon="0.26978">
        <ele>1877</ele>
        <time>2020-07-27T16:19:46.116Z</time>
      </trkpt>
      <trkpt lat="42.81972" lon="0.2698">
        <ele>1877</ele>
        <time>2020-07-27T16:19:47.116Z</time>
      </trkpt>
      <trkpt lat="42.81975" lon="0.26983">
        <ele>1875</ele>
        <time>2020-07-27T16:19:48.116Z</time>
      </trkpt>
      <trkpt lat="42.81977" lon="0.26986">
        <ele>1875</ele>
        <time>2020-07-27T16:19:49.116Z</time>
      </trkpt>
      <trkpt lat="42.81979" lon="0.26989">
        <ele>1876</ele>
        <time>2020-07-27T16:19:50.116Z</time>
      </trkpt>
      <trkpt lat="42.81981" lon="0.26993">
        <ele>1876</ele>
        <time>2020-07-27T16:19:51.116Z</time>
      </trkpt>
      <trkpt lat="42.81983" lon="0.26997">
        <ele>1878</ele>
        <time>2020-07-27T16:19:52.116Z</time>
      </trkpt>
      <trkpt lat="42.81985" lon="0.27001">
        <ele>1878</ele>
        <time>2020-07-27T16:19:53.116Z</time>
      </trkpt>
      <trkpt lat="42.81987" lon="0.27005">
        <ele>1877</ele>
        <time>2020-07-27T16:19:54.116Z</time>
      </trkpt>
      <trkpt lat="42.81988" lon="0.27009">
        <ele>1877</ele>
        <time>2020-07-27T16:19:55.116Z</time>
      </trkpt>
      <trkpt lat="42.81989" lon="0.27013">
        <ele>1877</ele>
        <time>2020-07-27T16:19:56.116Z</time>
      </trkpt>
      <trkpt lat="42.8199" lon="0.27017">
        <ele>1876</ele>
        <time>2020-07-27T16:19:57.116Z</time>
      </trkpt>
      <trkpt lat="42.8199" lon="0.27022">
        <ele>1875</ele>
        <time>2020-07-27T16:19:58.116Z</time>
      </trkpt>
      <trkpt lat="42.81991" lon="0.27026">
        <ele>1875</ele>
        <time>2020-07-27T16:19:59.116Z</time>
      </trkpt>
      <trkpt lat="42.81992" lon="0.27031">
        <ele>1875</ele>
        <time>2020-07-27T16:20:00.116Z</time>
      </trkpt>
      <trkpt lat="42.81992" lon="0.27035">
        <ele>1875</ele>
        <time>2020-07-27T16:20:01.116Z</time>
      </trkpt>
      <trkpt lat="42.81993" lon="0.27039">
        <ele>1874</ele>
        <time>2020-07-27T16:20:02.116Z</time>
      </trkpt>
      <trkpt lat="42.81994" lon="0.27044">
        <ele>1873</ele>
        <time>2020-07-27T16:20:03.116Z</time>
      </trkpt>
      <trkpt lat="42.81995" lon="0.27048">
        <ele>1873</ele>
        <time>2020-07-27T16:20:04.116Z</time>
      </trkpt>
      <trkpt lat="42.81995" lon="0.27053">
        <ele>1872</ele>
        <time>2020-07-27T16:20:05.116Z</time>
      </trkpt>
      <trkpt lat="42.81996" lon="0.27057">
        <ele>1871</ele>
        <time>2020-07-27T16:20:06.116Z</time>
      </trkpt>
      <trkpt lat="42.81996" lon="0.27062">
        <ele>1871</ele>
        <time>2020-07-27T16:20:07.116Z</time>
      </trkpt>
      <trkpt lat="42.81997" lon="0.27066">
        <ele>1871</ele>
        <time>2020-07-27T16:20:08.116Z</time>
      </trkpt>
      <trkpt lat="42.81998" lon="0.27071">
        <ele>1871</ele>
        <time>2020-07-27T16:20:09.116Z</time>
      </trkpt>
      <trkpt lat="42.81998" lon="0.27075">
        <ele>1870</ele>
        <time>2020-07-27T16:20:10.116Z</time>
      </trkpt>
      <trkpt lat="42.81999" lon="0.2708">
        <ele>1870</ele>
        <time>2020-07-27T16:20:11.116Z</time>
      </trkpt>
      <trkpt lat="42.82" lon="0.27084">
        <ele>1870</ele>
        <time>2020-07-27T16:20:12.116Z</time>
      </trkpt>
      <trkpt lat="42.82001" lon="0.27089">
        <ele>1871</ele>
        <time>2020-07-27T16:20:13.116Z</time>
      </trkpt>
      <trkpt lat="42.82002" lon="0.27093">
        <ele>1871</ele>
        <time>2020-07-27T16:20:14.116Z</time>
      </trkpt>
      <trkpt lat="42.82003" lon="0.27098">
        <ele>1870</ele>
        <time>2020-07-27T16:20:15.116Z</time>
      </trkpt>
      <trkpt lat="42.82004" lon="0.27102">
        <ele>1870</ele>
        <time>2020-07-27T16:20:16.116Z</time>
      </trkpt>
      <trkpt lat="42.82005" lon="0.27106">
        <ele>1870</ele>
        <time>2020-07-27T16:20:17.116Z</time>
      </trkpt>
      <trkpt lat="42.82005" lon="0.27111">
        <ele>1870</ele>
        <time>2020-07-27T16:20:18.116Z</time>
      </trkpt>
      <trkpt lat="42.82006" lon="0.27115">
        <ele>1869</ele>
        <time>2020-07-27T16:20:19.116Z</time>
      </trkpt>
      <trkpt lat="42.82007" lon="0.2712">
        <ele>1870</ele>
        <time>2020-07-27T16:20:20.116Z</time>
      </trkpt>
      <trkpt lat="42.82007" lon="0.27124">
        <ele>1869</ele>
        <time>2020-07-27T16:20:21.116Z</time>
      </trkpt>
      <trkpt lat="42.82008" lon="0.27128">
        <ele>1869</ele>
        <time>2020-07-27T16:20:22.116Z</time>
      </trkpt>
      <trkpt lat="42.82009" lon="0.27132">
        <ele>1869</ele>
        <time>2020-07-27T16:20:23.116Z</time>
      </trkpt>
      <trkpt lat="42.82009" lon="0.27137">
        <ele>1869</ele>
        <time>2020-07-27T16:20:24.116Z</time>
      </trkpt>
      <trkpt lat="42.8201" lon="0.27141">
        <ele>1868</ele>
        <time>2020-07-27T16:20:25.116Z</time>
      </trkpt>
      <trkpt lat="42.82012" lon="0.27146">
        <ele>1868</ele>
        <time>2020-07-27T16:20:26.116Z</time>
      </trkpt>
      <trkpt lat="42.82013" lon="0.2715">
        <ele>1868</ele>
        <time>2020-07-27T16:20:27.116Z</time>
      </trkpt>
      <trkpt lat="42.82014" lon="0.27155">
        <ele>1868</ele>
        <time>2020-07-27T16:20:28.116Z</time>
      </trkpt>
      <trkpt lat="42.82015" lon="0.27159">
        <ele>1867</ele>
        <time>2020-07-27T16:20:29.116Z</time>
      </trkpt>
      <trkpt lat="42.82016" lon="0.27163">
        <ele>1867</ele>
        <time>2020-07-27T16:20:30.116Z</time>
      </trkpt>
      <trkpt lat="42.82017" lon="0.27167">
        <ele>1867</ele>
        <time>2020-07-27T16:20:31.116Z</time>
      </trkpt>
      <trkpt lat="42.82018" lon="0.27172">
        <ele>1866</ele>
        <time>2020-07-27T16:20:32.116Z</time>
      </trkpt>
      <trkpt lat="42.8202" lon="0.27176">
        <ele>1866</ele>
        <time>2020-07-27T16:20:33.116Z</time>
      </trkpt>
      <trkpt lat="42.82021" lon="0.2718">
        <ele>1866</ele>
        <time>2020-07-27T16:20:34.116Z</time>
      </trkpt>
      <trkpt lat="42.82023" lon="0.27185">
        <ele>1865</ele>
        <time>2020-07-27T16:20:35.116Z</time>
      </trkpt>
      <trkpt lat="42.82024" lon="0.27189">
        <ele>1864</ele>
        <time>2020-07-27T16:20:36.116Z</time>
      </trkpt>
      <trkpt lat="42.82025" lon="0.27194">
        <ele>1863</ele>
        <time>2020-07-27T16:20:37.116Z</time>
      </trkpt>
      <trkpt lat="42.82027" lon="0.27198">
        <ele>1863</ele>
        <time>2020-07-27T16:20:38.116Z</time>
      </trkpt>
      <trkpt lat="42.82028" lon="0.27202">
        <ele>1862</ele>
        <time>2020-07-27T16:20:39.116Z</time>
      </trkpt>
      <trkpt lat="42.82029" lon="0.27207">
        <ele>1862</ele>
        <time>2020-07-27T16:20:40.116Z</time>
      </trkpt>
      <trkpt lat="42.82031" lon="0.27211">
        <ele>1861</ele>
        <time>2020-07-27T16:20:41.116Z</time>
      </trkpt>
      <trkpt lat="42.82032" lon="0.27215">
        <ele>1860</ele>
        <time>2020-07-27T16:20:42.116Z</time>
      </trkpt>
      <trkpt lat="42.82034" lon="0.27219">
        <ele>1859</ele>
        <time>2020-07-27T16:20:43.116Z</time>
      </trkpt>
      <trkpt lat="42.82036" lon="0.27223">
        <ele>1859</ele>
        <time>2020-07-27T16:20:44.116Z</time>
      </trkpt>
      <trkpt lat="42.82037" lon="0.27227">
        <ele>1858</ele>
        <time>2020-07-27T16:20:45.116Z</time>
      </trkpt>
      <trkpt lat="42.82039" lon="0.27231">
        <ele>1857</ele>
        <time>2020-07-27T16:20:46.116Z</time>
      </trkpt>
      <trkpt lat="42.82041" lon="0.27235">
        <ele>1857</ele>
        <time>2020-07-27T16:20:47.116Z</time>
      </trkpt>
      <trkpt lat="42.82043" lon="0.27238">
        <ele>1855</ele>
        <time>2020-07-27T16:20:48.116Z</time>
      </trkpt>
      <trkpt lat="42.82044" lon="0.27242">
        <ele>1854</ele>
        <time>2020-07-27T16:20:49.116Z</time>
      </trkpt>
      <trkpt lat="42.82046" lon="0.27246">
        <ele>1853</ele>
        <time>2020-07-27T16:20:50.116Z</time>
      </trkpt>
      <trkpt lat="42.82047" lon="0.2725">
        <ele>1852</ele>
        <time>2020-07-27T16:20:51.116Z</time>
      </trkpt>
      <trkpt lat="42.82049" lon="0.27254">
        <ele>1853</ele>
        <time>2020-07-27T16:20:52.116Z</time>
      </trkpt>
      <trkpt lat="42.82051" lon="0.27258">
        <ele>1853</ele>
        <time>2020-07-27T16:20:53.116Z</time>
      </trkpt>
      <trkpt lat="42.82053" lon="0.27262">
        <ele>1853</ele>
        <time>2020-07-27T16:20:54.116Z</time>
      </trkpt>
      <trkpt lat="42.82055" lon="0.27265">
        <ele>1852</ele>
        <time>2020-07-27T16:20:55.116Z</time>
      </trkpt>
      <trkpt lat="42.82056" lon="0.27268">
        <ele>1852</ele>
        <time>2020-07-27T16:20:56.116Z</time>
      </trkpt>
      <trkpt lat="42.82067" lon="0.27288">
        <ele>1850</ele>
        <time>2020-07-27T16:20:57.007Z</time>
      </trkpt>
      <trkpt lat="42.82067" lon="0.27289">
        <ele>1850</ele>
        <time>2020-07-27T16:20:58.007Z</time>
      </trkpt>
      <trkpt lat="42.82066" lon="0.2729">
        <ele>1850</ele>
        <time>2020-07-27T16:20:59.007Z</time>
      </trkpt>
      <trkpt lat="42.82066" lon="0.27292">
        <ele>1850</ele>
        <time>2020-07-27T16:21:00.007Z</time>
      </trkpt>
      <trkpt lat="42.82065" lon="0.27294">
        <ele>1850</ele>
        <time>2020-07-27T16:21:01.007Z</time>
      </trkpt>
      <trkpt lat="42.82065" lon="0.27297">
        <ele>1850</ele>
        <time>2020-07-27T16:21:02.007Z</time>
      </trkpt>
      <trkpt lat="42.82063" lon="0.273">
        <ele>1850</ele>
        <time>2020-07-27T16:21:03.007Z</time>
      </trkpt>
      <trkpt lat="42.82062" lon="0.27304">
        <ele>1851</ele>
        <time>2020-07-27T16:21:04.007Z</time>
      </trkpt>
      <trkpt lat="42.82061" lon="0.27308">
        <ele>1851</ele>
        <time>2020-07-27T16:21:05.007Z</time>
      </trkpt>
      <trkpt lat="42.8206" lon="0.27312">
        <ele>1851</ele>
        <time>2020-07-27T16:21:06.007Z</time>
      </trkpt>
      <trkpt lat="42.8206" lon="0.27316">
        <ele>1851</ele>
        <time>2020-07-27T16:21:07.007Z</time>
      </trkpt>
      <trkpt lat="42.82059" lon="0.27319">
        <ele>1850</ele>
        <time>2020-07-27T16:21:08.007Z</time>
      </trkpt>
      <trkpt lat="42.82058" lon="0.27323">
        <ele>1850</ele>
        <time>2020-07-27T16:21:09.007Z</time>
      </trkpt>
      <trkpt lat="42.82057" lon="0.27327">
        <ele>1849</ele>
        <time>2020-07-27T16:21:10.007Z</time>
      </trkpt>
      <trkpt lat="42.82057" lon="0.27331">
        <ele>1850</ele>
        <time>2020-07-27T16:21:11.007Z</time>
      </trkpt>
      <trkpt lat="42.82056" lon="0.27335">
        <ele>1849</ele>
        <time>2020-07-27T16:21:12.007Z</time>
      </trkpt>
      <trkpt lat="42.82055" lon="0.2734">
        <ele>1848</ele>
        <time>2020-07-27T16:21:13.007Z</time>
      </trkpt>
      <trkpt lat="42.82053" lon="0.27344">
        <ele>1848</ele>
        <time>2020-07-27T16:21:14.007Z</time>
      </trkpt>
      <trkpt lat="42.82052" lon="0.27348">
        <ele>1848</ele>
        <time>2020-07-27T16:21:15.007Z</time>
      </trkpt>
      <trkpt lat="42.82051" lon="0.27352">
        <ele>1847</ele>
        <time>2020-07-27T16:21:16.007Z</time>
      </trkpt>
      <trkpt lat="42.8205" lon="0.27356">
        <ele>1847</ele>
        <time>2020-07-27T16:21:17.007Z</time>
      </trkpt>
      <trkpt lat="42.82048" lon="0.2736">
        <ele>1847</ele>
        <time>2020-07-27T16:21:18.007Z</time>
      </trkpt>
      <trkpt lat="42.82047" lon="0.27364">
        <ele>1847</ele>
        <time>2020-07-27T16:21:19.007Z</time>
      </trkpt>
      <trkpt lat="42.82046" lon="0.27368">
        <ele>1846</ele>
        <time>2020-07-27T16:21:20.007Z</time>
      </trkpt>
      <trkpt lat="42.82045" lon="0.27372">
        <ele>1846</ele>
        <time>2020-07-27T16:21:21.007Z</time>
      </trkpt>
      <trkpt lat="42.82044" lon="0.27375">
        <ele>1846</ele>
        <time>2020-07-27T16:21:22.007Z</time>
      </trkpt>
      <trkpt lat="42.82042" lon="0.27379">
        <ele>1845</ele>
        <time>2020-07-27T16:21:23.007Z</time>
      </trkpt>
      <trkpt lat="42.82041" lon="0.27383">
        <ele>1846</ele>
        <time>2020-07-27T16:21:24.007Z</time>
      </trkpt>
      <trkpt lat="42.8204" lon="0.27387">
        <ele>1846</ele>
        <time>2020-07-27T16:21:25.007Z</time>
      </trkpt>
      <trkpt lat="42.82039" lon="0.27391">
        <ele>1845</ele>
        <time>2020-07-27T16:21:26.007Z</time>
      </trkpt>
      <trkpt lat="42.82038" lon="0.27395">
        <ele>1845</ele>
        <time>2020-07-27T16:21:27.007Z</time>
      </trkpt>
      <trkpt lat="42.82037" lon="0.274">
        <ele>1845</ele>
        <time>2020-07-27T16:21:28.007Z</time>
      </trkpt>
      <trkpt lat="42.82037" lon="0.27404">
        <ele>1844</ele>
        <time>2020-07-27T16:21:29.007Z</time>
      </trkpt>
      <trkpt lat="42.82035" lon="0.27408">
        <ele>1844</ele>
        <time>2020-07-27T16:21:30.007Z</time>
      </trkpt>
      <trkpt lat="42.82034" lon="0.27412">
        <ele>1844</ele>
        <time>2020-07-27T16:21:31.007Z</time>
      </trkpt>
      <trkpt lat="42.82033" lon="0.27416">
        <ele>1844</ele>
        <time>2020-07-27T16:21:32.007Z</time>
      </trkpt>
      <trkpt lat="42.82032" lon="0.27419">
        <ele>1843</ele>
        <time>2020-07-27T16:21:33.007Z</time>
      </trkpt>
      <trkpt lat="42.8203" lon="0.27423">
        <ele>1843</ele>
        <time>2020-07-27T16:21:34.007Z</time>
      </trkpt>
      <trkpt lat="42.82028" lon="0.27427">
        <ele>1841</ele>
        <time>2020-07-27T16:21:35.007Z</time>
      </trkpt>
      <trkpt lat="42.82026" lon="0.2743">
        <ele>1840</ele>
        <time>2020-07-27T16:21:36.007Z</time>
      </trkpt>
      <trkpt lat="42.82024" lon="0.27433">
        <ele>1839</ele>
        <time>2020-07-27T16:21:37.007Z</time>
      </trkpt>
      <trkpt lat="42.82021" lon="0.27436">
        <ele>1839</ele>
        <time>2020-07-27T16:21:38.007Z</time>
      </trkpt>
      <trkpt lat="42.82018" lon="0.27438">
        <ele>1839</ele>
        <time>2020-07-27T16:21:39.007Z</time>
      </trkpt>
      <trkpt lat="42.82015" lon="0.2744">
        <ele>1838</ele>
        <time>2020-07-27T16:21:40.007Z</time>
      </trkpt>
      <trkpt lat="42.82012" lon="0.27441">
        <ele>1837</ele>
        <time>2020-07-27T16:21:41.007Z</time>
      </trkpt>
      <trkpt lat="42.82009" lon="0.27443">
        <ele>1835</ele>
        <time>2020-07-27T16:21:42.007Z</time>
      </trkpt>
      <trkpt lat="42.82007" lon="0.27445">
        <ele>1834</ele>
        <time>2020-07-27T16:21:43.007Z</time>
      </trkpt>
      <trkpt lat="42.82004" lon="0.27448">
        <ele>1834</ele>
        <time>2020-07-27T16:21:44.007Z</time>
      </trkpt>
      <trkpt lat="42.82001" lon="0.27451">
        <ele>1833</ele>
        <time>2020-07-27T16:21:45.007Z</time>
      </trkpt>
      <trkpt lat="42.81999" lon="0.27454">
        <ele>1832</ele>
        <time>2020-07-27T16:21:46.007Z</time>
      </trkpt>
      <trkpt lat="42.81996" lon="0.27457">
        <ele>1832</ele>
        <time>2020-07-27T16:21:47.007Z</time>
      </trkpt>
      <trkpt lat="42.81994" lon="0.27459">
        <ele>1831</ele>
        <time>2020-07-27T16:21:48.007Z</time>
      </trkpt>
      <trkpt lat="42.81991" lon="0.27461">
        <ele>1830</ele>
        <time>2020-07-27T16:21:49.007Z</time>
      </trkpt>
      <trkpt lat="42.81989" lon="0.27463">
        <ele>1829</ele>
        <time>2020-07-27T16:21:50.007Z</time>
      </trkpt>
      <trkpt lat="42.81986" lon="0.27463">
        <ele>1829</ele>
        <time>2020-07-27T16:21:51.007Z</time>
      </trkpt>
      <trkpt lat="42.81983" lon="0.27464">
        <ele>1830</ele>
        <time>2020-07-27T16:21:52.007Z</time>
      </trkpt>
      <trkpt lat="42.81979" lon="0.27464">
        <ele>1830</ele>
        <time>2020-07-27T16:21:53.007Z</time>
      </trkpt>
      <trkpt lat="42.81976" lon="0.27464">
        <ele>1830</ele>
        <time>2020-07-27T16:21:54.007Z</time>
      </trkpt>
      <trkpt lat="42.81973" lon="0.27464">
        <ele>1829</ele>
        <time>2020-07-27T16:21:55.007Z</time>
      </trkpt>
      <trkpt lat="42.8197" lon="0.27464">
        <ele>1829</ele>
        <time>2020-07-27T16:21:56.007Z</time>
      </trkpt>
      <trkpt lat="42.81967" lon="0.27465">
        <ele>1828</ele>
        <time>2020-07-27T16:21:57.007Z</time>
      </trkpt>
      <trkpt lat="42.81964" lon="0.27466">
        <ele>1827</ele>
        <time>2020-07-27T16:21:58.007Z</time>
      </trkpt>
      <trkpt lat="42.81962" lon="0.27468">
        <ele>1827</ele>
        <time>2020-07-27T16:21:59.007Z</time>
      </trkpt>
      <trkpt lat="42.81959" lon="0.2747">
        <ele>1827</ele>
        <time>2020-07-27T16:22:00.007Z</time>
      </trkpt>
      <trkpt lat="42.81957" lon="0.27473">
        <ele>1826</ele>
        <time>2020-07-27T16:22:01.007Z</time>
      </trkpt>
      <trkpt lat="42.81954" lon="0.27475">
        <ele>1826</ele>
        <time>2020-07-27T16:22:02.007Z</time>
      </trkpt>
      <trkpt lat="42.81952" lon="0.27476">
        <ele>1825</ele>
        <time>2020-07-27T16:22:03.007Z</time>
      </trkpt>
      <trkpt lat="42.81949" lon="0.27477">
        <ele>1825</ele>
        <time>2020-07-27T16:22:04.007Z</time>
      </trkpt>
      <trkpt lat="42.81946" lon="0.27477">
        <ele>1825</ele>
        <time>2020-07-27T16:22:05.007Z</time>
      </trkpt>
      <trkpt lat="42.81943" lon="0.27477">
        <ele>1825</ele>
        <time>2020-07-27T16:22:06.007Z</time>
      </trkpt>
      <trkpt lat="42.81939" lon="0.27477">
        <ele>1824</ele>
        <time>2020-07-27T16:22:07.007Z</time>
      </trkpt>
      <trkpt lat="42.81936" lon="0.27477">
        <ele>1824</ele>
        <time>2020-07-27T16:22:08.007Z</time>
      </trkpt>
      <trkpt lat="42.81933" lon="0.27477">
        <ele>1824</ele>
        <time>2020-07-27T16:22:09.007Z</time>
      </trkpt>
      <trkpt lat="42.8193" lon="0.27477">
        <ele>1823</ele>
        <time>2020-07-27T16:22:10.007Z</time>
      </trkpt>
      <trkpt lat="42.81927" lon="0.27478">
        <ele>1822</ele>
        <time>2020-07-27T16:22:11.007Z</time>
      </trkpt>
      <trkpt lat="42.81924" lon="0.2748">
        <ele>1822</ele>
        <time>2020-07-27T16:22:12.007Z</time>
      </trkpt>
      <trkpt lat="42.81922" lon="0.27482">
        <ele>1822</ele>
        <time>2020-07-27T16:22:13.007Z</time>
      </trkpt>
      <trkpt lat="42.81919" lon="0.27484">
        <ele>1822</ele>
        <time>2020-07-27T16:22:14.007Z</time>
      </trkpt>
      <trkpt lat="42.81917" lon="0.27487">
        <ele>1820</ele>
        <time>2020-07-27T16:22:15.007Z</time>
      </trkpt>
      <trkpt lat="42.81914" lon="0.2749">
        <ele>1819</ele>
        <time>2020-07-27T16:22:16.007Z</time>
      </trkpt>
      <trkpt lat="42.81912" lon="0.27493">
        <ele>1819</ele>
        <time>2020-07-27T16:22:17.007Z</time>
      </trkpt>
      <trkpt lat="42.8191" lon="0.27496">
        <ele>1818</ele>
        <time>2020-07-27T16:22:18.007Z</time>
      </trkpt>
      <trkpt lat="42.81908" lon="0.27499">
        <ele>1817</ele>
        <time>2020-07-27T16:22:19.007Z</time>
      </trkpt>
      <trkpt lat="42.81905" lon="0.27502">
        <ele>1817</ele>
        <time>2020-07-27T16:22:20.007Z</time>
      </trkpt>
      <trkpt lat="42.81903" lon="0.27504">
        <ele>1815</ele>
        <time>2020-07-27T16:22:21.007Z</time>
      </trkpt>
      <trkpt lat="42.819" lon="0.27507">
        <ele>1815</ele>
        <time>2020-07-27T16:22:22.007Z</time>
      </trkpt>
      <trkpt lat="42.81898" lon="0.27509">
        <ele>1814</ele>
        <time>2020-07-27T16:22:23.007Z</time>
      </trkpt>
      <trkpt lat="42.81895" lon="0.27511">
        <ele>1814</ele>
        <time>2020-07-27T16:22:24.007Z</time>
      </trkpt>
      <trkpt lat="42.81892" lon="0.27514">
        <ele>1813</ele>
        <time>2020-07-27T16:22:25.007Z</time>
      </trkpt>
      <trkpt lat="42.8189" lon="0.27516">
        <ele>1812</ele>
        <time>2020-07-27T16:22:26.007Z</time>
      </trkpt>
      <trkpt lat="42.81887" lon="0.27518">
        <ele>1811</ele>
        <time>2020-07-27T16:22:27.007Z</time>
      </trkpt>
      <trkpt lat="42.81885" lon="0.27521">
        <ele>1809</ele>
        <time>2020-07-27T16:22:28.007Z</time>
      </trkpt>
      <trkpt lat="42.81883" lon="0.27524">
        <ele>1809</ele>
        <time>2020-07-27T16:22:29.007Z</time>
      </trkpt>
      <trkpt lat="42.8188" lon="0.27527">
        <ele>1808</ele>
        <time>2020-07-27T16:22:30.007Z</time>
      </trkpt>
      <trkpt lat="42.81878" lon="0.27531">
        <ele>1806</ele>
        <time>2020-07-27T16:22:31.007Z</time>
      </trkpt>
      <trkpt lat="42.81876" lon="0.27534">
        <ele>1805</ele>
        <time>2020-07-27T16:22:32.007Z</time>
      </trkpt>
      <trkpt lat="42.81874" lon="0.27536">
        <ele>1805</ele>
        <time>2020-07-27T16:22:33.007Z</time>
      </trkpt>
      <trkpt lat="42.81871" lon="0.27539">
        <ele>1804</ele>
        <time>2020-07-27T16:22:34.007Z</time>
      </trkpt>
      <trkpt lat="42.81869" lon="0.27543">
        <ele>1804</ele>
        <time>2020-07-27T16:22:35.007Z</time>
      </trkpt>
      <trkpt lat="42.81867" lon="0.27546">
        <ele>1803</ele>
        <time>2020-07-27T16:22:36.007Z</time>
      </trkpt>
      <trkpt lat="42.81865" lon="0.27549">
        <ele>1803</ele>
        <time>2020-07-27T16:22:37.007Z</time>
      </trkpt>
      <trkpt lat="42.81863" lon="0.27553">
        <ele>1802</ele>
        <time>2020-07-27T16:22:38.007Z</time>
      </trkpt>
      <trkpt lat="42.81861" lon="0.27556">
        <ele>1802</ele>
        <time>2020-07-27T16:22:39.007Z</time>
      </trkpt>
      <trkpt lat="42.81858" lon="0.2756">
        <ele>1802</ele>
        <time>2020-07-27T16:22:40.007Z</time>
      </trkpt>
      <trkpt lat="42.81856" lon="0.27563">
        <ele>1801</ele>
        <time>2020-07-27T16:22:41.007Z</time>
      </trkpt>
      <trkpt lat="42.81854" lon="0.27566">
        <ele>1800</ele>
        <time>2020-07-27T16:22:42.007Z</time>
      </trkpt>
      <trkpt lat="42.81853" lon="0.2757">
        <ele>1800</ele>
        <time>2020-07-27T16:22:43.007Z</time>
      </trkpt>
      <trkpt lat="42.81851" lon="0.27574">
        <ele>1798</ele>
        <time>2020-07-27T16:22:44.007Z</time>
      </trkpt>
      <trkpt lat="42.8185" lon="0.27578">
        <ele>1797</ele>
        <time>2020-07-27T16:22:45.007Z</time>
      </trkpt>
      <trkpt lat="42.81849" lon="0.27581">
        <ele>1797</ele>
        <time>2020-07-27T16:22:46.007Z</time>
      </trkpt>
      <trkpt lat="42.81848" lon="0.27585">
        <ele>1797</ele>
        <time>2020-07-27T16:22:47.007Z</time>
      </trkpt>
      <trkpt lat="42.81847" lon="0.27589">
        <ele>1796</ele>
        <time>2020-07-27T16:22:48.007Z</time>
      </trkpt>
      <trkpt lat="42.81845" lon="0.27594">
        <ele>1795</ele>
        <time>2020-07-27T16:22:49.007Z</time>
      </trkpt>
      <trkpt lat="42.81845" lon="0.27598">
        <ele>1794</ele>
        <time>2020-07-27T16:22:50.007Z</time>
      </trkpt>
      <trkpt lat="42.81844" lon="0.27602">
        <ele>1793</ele>
        <time>2020-07-27T16:22:51.007Z</time>
      </trkpt>
      <trkpt lat="42.81844" lon="0.27606">
        <ele>1792</ele>
        <time>2020-07-27T16:22:52.007Z</time>
      </trkpt>
      <trkpt lat="42.81844" lon="0.27611">
        <ele>1791</ele>
        <time>2020-07-27T16:22:53.007Z</time>
      </trkpt>
      <trkpt lat="42.81845" lon="0.27616">
        <ele>1790</ele>
        <time>2020-07-27T16:22:54.007Z</time>
      </trkpt>
      <trkpt lat="42.81845" lon="0.2762">
        <ele>1789</ele>
        <time>2020-07-27T16:22:55.007Z</time>
      </trkpt>
      <trkpt lat="42.81846" lon="0.27624">
        <ele>1787</ele>
        <time>2020-07-27T16:22:56.007Z</time>
      </trkpt>
      <trkpt lat="42.81846" lon="0.27629">
        <ele>1786</ele>
        <time>2020-07-27T16:22:57.007Z</time>
      </trkpt>
      <trkpt lat="42.81847" lon="0.27633">
        <ele>1785</ele>
        <time>2020-07-27T16:22:58.007Z</time>
      </trkpt>
      <trkpt lat="42.81847" lon="0.27638">
        <ele>1784</ele>
        <time>2020-07-27T16:22:59.007Z</time>
      </trkpt>
      <trkpt lat="42.81848" lon="0.27642">
        <ele>1783</ele>
        <time>2020-07-27T16:23:00.007Z</time>
      </trkpt>
      <trkpt lat="42.81849" lon="0.27646">
        <ele>1781</ele>
        <time>2020-07-27T16:23:01.007Z</time>
      </trkpt>
      <trkpt lat="42.8185" lon="0.27651">
        <ele>1780</ele>
        <time>2020-07-27T16:23:02.007Z</time>
      </trkpt>
      <trkpt lat="42.81851" lon="0.27655">
        <ele>1780</ele>
        <time>2020-07-27T16:23:03.007Z</time>
      </trkpt>
      <trkpt lat="42.81852" lon="0.27659">
        <ele>1778</ele>
        <time>2020-07-27T16:23:04.007Z</time>
      </trkpt>
      <trkpt lat="42.81853" lon="0.27664">
        <ele>1778</ele>
        <time>2020-07-27T16:23:05.007Z</time>
      </trkpt>
      <trkpt lat="42.81854" lon="0.27668">
        <ele>1777</ele>
        <time>2020-07-27T16:23:06.007Z</time>
      </trkpt>
      <trkpt lat="42.81855" lon="0.27673">
        <ele>1776</ele>
        <time>2020-07-27T16:23:07.007Z</time>
      </trkpt>
      <trkpt lat="42.81857" lon="0.27677">
        <ele>1776</ele>
        <time>2020-07-27T16:23:08.007Z</time>
      </trkpt>
      <trkpt lat="42.81858" lon="0.27681">
        <ele>1776</ele>
        <time>2020-07-27T16:23:09.007Z</time>
      </trkpt>
      <trkpt lat="42.81859" lon="0.27686">
        <ele>1776</ele>
        <time>2020-07-27T16:23:10.007Z</time>
      </trkpt>
      <trkpt lat="42.81861" lon="0.2769">
        <ele>1775</ele>
        <time>2020-07-27T16:23:11.007Z</time>
      </trkpt>
      <trkpt lat="42.81862" lon="0.27694">
        <ele>1775</ele>
        <time>2020-07-27T16:23:12.007Z</time>
      </trkpt>
      <trkpt lat="42.81863" lon="0.27698">
        <ele>1774</ele>
        <time>2020-07-27T16:23:13.007Z</time>
      </trkpt>
      <trkpt lat="42.81865" lon="0.27702">
        <ele>1774</ele>
        <time>2020-07-27T16:23:14.007Z</time>
      </trkpt>
      <trkpt lat="42.81866" lon="0.27707">
        <ele>1774</ele>
        <time>2020-07-27T16:23:15.007Z</time>
      </trkpt>
      <trkpt lat="42.81867" lon="0.27711">
        <ele>1774</ele>
        <time>2020-07-27T16:23:16.007Z</time>
      </trkpt>
      <trkpt lat="42.81869" lon="0.27715">
        <ele>1774</ele>
        <time>2020-07-27T16:23:17.007Z</time>
      </trkpt>
      <trkpt lat="42.8187" lon="0.27719">
        <ele>1773</ele>
        <time>2020-07-27T16:23:18.007Z</time>
      </trkpt>
      <trkpt lat="42.81871" lon="0.27723">
        <ele>1773</ele>
        <time>2020-07-27T16:23:19.007Z</time>
      </trkpt>
      <trkpt lat="42.81872" lon="0.27728">
        <ele>1772</ele>
        <time>2020-07-27T16:23:20.007Z</time>
      </trkpt>
      <trkpt lat="42.81873" lon="0.27732">
        <ele>1771</ele>
        <time>2020-07-27T16:23:21.007Z</time>
      </trkpt>
      <trkpt lat="42.81874" lon="0.27736">
        <ele>1771</ele>
        <time>2020-07-27T16:23:22.007Z</time>
      </trkpt>
      <trkpt lat="42.81875" lon="0.27741">
        <ele>1771</ele>
        <time>2020-07-27T16:23:23.007Z</time>
      </trkpt>
      <trkpt lat="42.81875" lon="0.27745">
        <ele>1770</ele>
        <time>2020-07-27T16:23:24.007Z</time>
      </trkpt>
      <trkpt lat="42.81876" lon="0.2775">
        <ele>1769</ele>
        <time>2020-07-27T16:23:25.007Z</time>
      </trkpt>
      <trkpt lat="42.81876" lon="0.27754">
        <ele>1769</ele>
        <time>2020-07-27T16:23:26.007Z</time>
      </trkpt>
      <trkpt lat="42.81877" lon="0.27759">
        <ele>1768</ele>
        <time>2020-07-27T16:23:27.007Z</time>
      </trkpt>
      <trkpt lat="42.81877" lon="0.27764">
        <ele>1767</ele>
        <time>2020-07-27T16:23:28.007Z</time>
      </trkpt>
      <trkpt lat="42.81878" lon="0.27769">
        <ele>1767</ele>
        <time>2020-07-27T16:23:29.007Z</time>
      </trkpt>
      <trkpt lat="42.81878" lon="0.27774">
        <ele>1766</ele>
        <time>2020-07-27T16:23:30.007Z</time>
      </trkpt>
      <trkpt lat="42.81877" lon="0.27778">
        <ele>1766</ele>
        <time>2020-07-27T16:23:31.007Z</time>
      </trkpt>
      <trkpt lat="42.81877" lon="0.27783">
        <ele>1764</ele>
        <time>2020-07-27T16:23:32.007Z</time>
      </trkpt>
      <trkpt lat="42.81876" lon="0.27788">
        <ele>1763</ele>
        <time>2020-07-27T16:23:33.007Z</time>
      </trkpt>
      <trkpt lat="42.81875" lon="0.27793">
        <ele>1763</ele>
        <time>2020-07-27T16:23:34.007Z</time>
      </trkpt>
      <trkpt lat="42.81874" lon="0.27797">
        <ele>1762</ele>
        <time>2020-07-27T16:23:35.007Z</time>
      </trkpt>
      <trkpt lat="42.81873" lon="0.27801">
        <ele>1762</ele>
        <time>2020-07-27T16:23:36.007Z</time>
      </trkpt>
      <trkpt lat="42.81872" lon="0.27806">
        <ele>1761</ele>
        <time>2020-07-27T16:23:37.007Z</time>
      </trkpt>
      <trkpt lat="42.81871" lon="0.2781">
        <ele>1760</ele>
        <time>2020-07-27T16:23:38.007Z</time>
      </trkpt>
      <trkpt lat="42.81871" lon="0.27815">
        <ele>1760</ele>
        <time>2020-07-27T16:23:39.007Z</time>
      </trkpt>
      <trkpt lat="42.81871" lon="0.2782">
        <ele>1760</ele>
        <time>2020-07-27T16:23:40.007Z</time>
      </trkpt>
      <trkpt lat="42.8187" lon="0.27824">
        <ele>1759</ele>
        <time>2020-07-27T16:23:41.007Z</time>
      </trkpt>
      <trkpt lat="42.81869" lon="0.27829">
        <ele>1759</ele>
        <time>2020-07-27T16:23:42.007Z</time>
      </trkpt>
      <trkpt lat="42.81868" lon="0.27833">
        <ele>1759</ele>
        <time>2020-07-27T16:23:43.007Z</time>
      </trkpt>
      <trkpt lat="42.81868" lon="0.27837">
        <ele>1758</ele>
        <time>2020-07-27T16:23:44.007Z</time>
      </trkpt>
      <trkpt lat="42.81868" lon="0.27842">
        <ele>1758</ele>
        <time>2020-07-27T16:23:45.007Z</time>
      </trkpt>
      <trkpt lat="42.81868" lon="0.27846">
        <ele>1758</ele>
        <time>2020-07-27T16:23:46.007Z</time>
      </trkpt>
      <trkpt lat="42.81867" lon="0.27851">
        <ele>1758</ele>
        <time>2020-07-27T16:23:47.007Z</time>
      </trkpt>
      <trkpt lat="42.81867" lon="0.27856">
        <ele>1758</ele>
        <time>2020-07-27T16:23:48.007Z</time>
      </trkpt>
      <trkpt lat="42.81866" lon="0.2786">
        <ele>1758</ele>
        <time>2020-07-27T16:23:49.007Z</time>
      </trkpt>
      <trkpt lat="42.81866" lon="0.27865">
        <ele>1757</ele>
        <time>2020-07-27T16:23:50.007Z</time>
      </trkpt>
      <trkpt lat="42.81865" lon="0.2787">
        <ele>1757</ele>
        <time>2020-07-27T16:23:51.007Z</time>
      </trkpt>
      <trkpt lat="42.81865" lon="0.27874">
        <ele>1757</ele>
        <time>2020-07-27T16:23:52.007Z</time>
      </trkpt>
      <trkpt lat="42.81864" lon="0.27879">
        <ele>1756</ele>
        <time>2020-07-27T16:23:53.007Z</time>
      </trkpt>
      <trkpt lat="42.81863" lon="0.27884">
        <ele>1756</ele>
        <time>2020-07-27T16:23:54.007Z</time>
      </trkpt>
      <trkpt lat="42.81862" lon="0.27888">
        <ele>1755</ele>
        <time>2020-07-27T16:23:55.007Z</time>
      </trkpt>
      <trkpt lat="42.81861" lon="0.27893">
        <ele>1754</ele>
        <time>2020-07-27T16:23:56.007Z</time>
      </trkpt>
      <trkpt lat="42.8186" lon="0.27897">
        <ele>1754</ele>
        <time>2020-07-27T16:23:57.007Z</time>
      </trkpt>
      <trkpt lat="42.81859" lon="0.27902">
        <ele>1754</ele>
        <time>2020-07-27T16:23:58.007Z</time>
      </trkpt>
      <trkpt lat="42.81858" lon="0.27907">
        <ele>1753</ele>
        <time>2020-07-27T16:23:59.007Z</time>
      </trkpt>
      <trkpt lat="42.81857" lon="0.27911">
        <ele>1753</ele>
        <time>2020-07-27T16:24:00.007Z</time>
      </trkpt>
      <trkpt lat="42.81856" lon="0.27916">
        <ele>1753</ele>
        <time>2020-07-27T16:24:01.007Z</time>
      </trkpt>
      <trkpt lat="42.81855" lon="0.27921">
        <ele>1752</ele>
        <time>2020-07-27T16:24:02.007Z</time>
      </trkpt>
      <trkpt lat="42.81854" lon="0.27925">
        <ele>1752</ele>
        <time>2020-07-27T16:24:03.007Z</time>
      </trkpt>
      <trkpt lat="42.81853" lon="0.2793">
        <ele>1751</ele>
        <time>2020-07-27T16:24:04.007Z</time>
      </trkpt>
      <trkpt lat="42.81852" lon="0.27934">
        <ele>1751</ele>
        <time>2020-07-27T16:24:05.007Z</time>
      </trkpt>
      <trkpt lat="42.81852" lon="0.27939">
        <ele>1751</ele>
        <time>2020-07-27T16:24:06.007Z</time>
      </trkpt>
      <trkpt lat="42.81851" lon="0.27943">
        <ele>1750</ele>
        <time>2020-07-27T16:24:07.007Z</time>
      </trkpt>
      <trkpt lat="42.81851" lon="0.27948">
        <ele>1750</ele>
        <time>2020-07-27T16:24:08.007Z</time>
      </trkpt>
      <trkpt lat="42.8185" lon="0.27953">
        <ele>1749</ele>
        <time>2020-07-27T16:24:09.007Z</time>
      </trkpt>
      <trkpt lat="42.8185" lon="0.27957">
        <ele>1748</ele>
        <time>2020-07-27T16:24:10.007Z</time>
      </trkpt>
      <trkpt lat="42.81849" lon="0.27962">
        <ele>1749</ele>
        <time>2020-07-27T16:24:11.007Z</time>
      </trkpt>
      <trkpt lat="42.81849" lon="0.27966">
        <ele>1748</ele>
        <time>2020-07-27T16:24:12.007Z</time>
      </trkpt>
      <trkpt lat="42.81848" lon="0.27971">
        <ele>1748</ele>
        <time>2020-07-27T16:24:13.007Z</time>
      </trkpt>
      <trkpt lat="42.81847" lon="0.27975">
        <ele>1748</ele>
        <time>2020-07-27T16:24:14.007Z</time>
      </trkpt>
      <trkpt lat="42.81846" lon="0.27979">
        <ele>1749</ele>
        <time>2020-07-27T16:24:15.007Z</time>
      </trkpt>
      <trkpt lat="42.81846" lon="0.27984">
        <ele>1748</ele>
        <time>2020-07-27T16:24:16.007Z</time>
      </trkpt>
      <trkpt lat="42.81845" lon="0.27988">
        <ele>1748</ele>
        <time>2020-07-27T16:24:17.007Z</time>
      </trkpt>
      <trkpt lat="42.81844" lon="0.27992">
        <ele>1748</ele>
        <time>2020-07-27T16:24:18.007Z</time>
      </trkpt>
      <trkpt lat="42.81843" lon="0.27997">
        <ele>1748</ele>
        <time>2020-07-27T16:24:19.007Z</time>
      </trkpt>
      <trkpt lat="42.81842" lon="0.28001">
        <ele>1748</ele>
        <time>2020-07-27T16:24:20.007Z</time>
      </trkpt>
      <trkpt lat="42.81842" lon="0.28006">
        <ele>1749</ele>
        <time>2020-07-27T16:24:21.007Z</time>
      </trkpt>
      <trkpt lat="42.81841" lon="0.2801">
        <ele>1749</ele>
        <time>2020-07-27T16:24:22.007Z</time>
      </trkpt>
      <trkpt lat="42.81841" lon="0.28014">
        <ele>1750</ele>
        <time>2020-07-27T16:24:23.007Z</time>
      </trkpt>
      <trkpt lat="42.81841" lon="0.28019">
        <ele>1751</ele>
        <time>2020-07-27T16:24:24.007Z</time>
      </trkpt>
      <trkpt lat="42.81841" lon="0.28023">
        <ele>1751</ele>
        <time>2020-07-27T16:24:25.007Z</time>
      </trkpt>
      <trkpt lat="42.8184" lon="0.28027">
        <ele>1751</ele>
        <time>2020-07-27T16:24:26.007Z</time>
      </trkpt>
      <trkpt lat="42.81839" lon="0.28032">
        <ele>1751</ele>
        <time>2020-07-27T16:24:27.007Z</time>
      </trkpt>
      <trkpt lat="42.81839" lon="0.28036">
        <ele>1751</ele>
        <time>2020-07-27T16:24:28.007Z</time>
      </trkpt>
      <trkpt lat="42.81839" lon="0.28041">
        <ele>1751</ele>
        <time>2020-07-27T16:24:29.007Z</time>
      </trkpt>
      <trkpt lat="42.81839" lon="0.28045">
        <ele>1751</ele>
        <time>2020-07-27T16:24:30.007Z</time>
      </trkpt>
      <trkpt lat="42.81838" lon="0.28049">
        <ele>1751</ele>
        <time>2020-07-27T16:24:31.007Z</time>
      </trkpt>
      <trkpt lat="42.81837" lon="0.28054">
        <ele>1750</ele>
        <time>2020-07-27T16:24:32.007Z</time>
      </trkpt>
      <trkpt lat="42.81836" lon="0.28059">
        <ele>1750</ele>
        <time>2020-07-27T16:24:33.007Z</time>
      </trkpt>
      <trkpt lat="42.81836" lon="0.28063">
        <ele>1751</ele>
        <time>2020-07-27T16:24:34.007Z</time>
      </trkpt>
      <trkpt lat="42.81835" lon="0.28068">
        <ele>1750</ele>
        <time>2020-07-27T16:24:35.007Z</time>
      </trkpt>
      <trkpt lat="42.81834" lon="0.28072">
        <ele>1749</ele>
        <time>2020-07-27T16:24:36.007Z</time>
      </trkpt>
      <trkpt lat="42.81834" lon="0.28077">
        <ele>1749</ele>
        <time>2020-07-27T16:24:37.007Z</time>
      </trkpt>
      <trkpt lat="42.81834" lon="0.28081">
        <ele>1749</ele>
        <time>2020-07-27T16:24:38.007Z</time>
      </trkpt>
      <trkpt lat="42.81833" lon="0.28086">
        <ele>1748</ele>
        <time>2020-07-27T16:24:39.007Z</time>
      </trkpt>
      <trkpt lat="42.81833" lon="0.2809">
        <ele>1747</ele>
        <time>2020-07-27T16:24:40.007Z</time>
      </trkpt>
      <trkpt lat="42.81833" lon="0.28095">
        <ele>1747</ele>
        <time>2020-07-27T16:24:41.007Z</time>
      </trkpt>
      <trkpt lat="42.81833" lon="0.281">
        <ele>1747</ele>
        <time>2020-07-27T16:24:42.007Z</time>
      </trkpt>
      <trkpt lat="42.81833" lon="0.28105">
        <ele>1746</ele>
        <time>2020-07-27T16:24:43.007Z</time>
      </trkpt>
      <trkpt lat="42.81833" lon="0.28109">
        <ele>1746</ele>
        <time>2020-07-27T16:24:44.007Z</time>
      </trkpt>
      <trkpt lat="42.81834" lon="0.28113">
        <ele>1745</ele>
        <time>2020-07-27T16:24:45.007Z</time>
      </trkpt>
      <trkpt lat="42.81834" lon="0.28117">
        <ele>1745</ele>
        <time>2020-07-27T16:24:46.007Z</time>
      </trkpt>
      <trkpt lat="42.81835" lon="0.28121">
        <ele>1745</ele>
        <time>2020-07-27T16:24:47.007Z</time>
      </trkpt>
      <trkpt lat="42.81837" lon="0.28125">
        <ele>1745</ele>
        <time>2020-07-27T16:24:48.007Z</time>
      </trkpt>
      <trkpt lat="42.81838" lon="0.28129">
        <ele>1745</ele>
        <time>2020-07-27T16:24:49.007Z</time>
      </trkpt>
      <trkpt lat="42.81838" lon="0.28133">
        <ele>1745</ele>
        <time>2020-07-27T16:24:50.007Z</time>
      </trkpt>
      <trkpt lat="42.81839" lon="0.28138">
        <ele>1746</ele>
        <time>2020-07-27T16:24:51.007Z</time>
      </trkpt>
      <trkpt lat="42.81839" lon="0.28142">
        <ele>1746</ele>
        <time>2020-07-27T16:24:52.007Z</time>
      </trkpt>
      <trkpt lat="42.8184" lon="0.28147">
        <ele>1745</ele>
        <time>2020-07-27T16:24:53.007Z</time>
      </trkpt>
      <trkpt lat="42.8184" lon="0.28151">
        <ele>1746</ele>
        <time>2020-07-27T16:24:54.007Z</time>
      </trkpt>
      <trkpt lat="42.8184" lon="0.28155">
        <ele>1745</ele>
        <time>2020-07-27T16:24:55.007Z</time>
      </trkpt>
      <trkpt lat="42.8184" lon="0.2816">
        <ele>1744</ele>
        <time>2020-07-27T16:24:56.007Z</time>
      </trkpt>
      <trkpt lat="42.8184" lon="0.28164">
        <ele>1745</ele>
        <time>2020-07-27T16:24:57.007Z</time>
      </trkpt>
      <trkpt lat="42.8184" lon="0.28168">
        <ele>1744</ele>
        <time>2020-07-27T16:24:58.007Z</time>
      </trkpt>
      <trkpt lat="42.8184" lon="0.28172">
        <ele>1743</ele>
        <time>2020-07-27T16:24:59.007Z</time>
      </trkpt>
      <trkpt lat="42.81839" lon="0.28176">
        <ele>1742</ele>
        <time>2020-07-27T16:25:00.007Z</time>
      </trkpt>
      <trkpt lat="42.81839" lon="0.28181">
        <ele>1742</ele>
        <time>2020-07-27T16:25:01.007Z</time>
      </trkpt>
      <trkpt lat="42.81838" lon="0.28185">
        <ele>1741</ele>
        <time>2020-07-27T16:25:02.007Z</time>
      </trkpt>
      <trkpt lat="42.81837" lon="0.28188">
        <ele>1740</ele>
        <time>2020-07-27T16:25:03.007Z</time>
      </trkpt>
      <trkpt lat="42.81836" lon="0.28192">
        <ele>1739</ele>
        <time>2020-07-27T16:25:04.007Z</time>
      </trkpt>
      <trkpt lat="42.81835" lon="0.28196">
        <ele>1738</ele>
        <time>2020-07-27T16:25:05.007Z</time>
      </trkpt>
      <trkpt lat="42.81833" lon="0.282">
        <ele>1738</ele>
        <time>2020-07-27T16:25:06.007Z</time>
      </trkpt>
      <trkpt lat="42.81832" lon="0.28204">
        <ele>1738</ele>
        <time>2020-07-27T16:25:07.007Z</time>
      </trkpt>
      <trkpt lat="42.81831" lon="0.28209">
        <ele>1738</ele>
        <time>2020-07-27T16:25:08.007Z</time>
      </trkpt>
      <trkpt lat="42.8183" lon="0.28213">
        <ele>1738</ele>
        <time>2020-07-27T16:25:09.007Z</time>
      </trkpt>
      <trkpt lat="42.81829" lon="0.28218">
        <ele>1738</ele>
        <time>2020-07-27T16:25:10.007Z</time>
      </trkpt>
      <trkpt lat="42.81828" lon="0.28222">
        <ele>1738</ele>
        <time>2020-07-27T16:25:11.007Z</time>
      </trkpt>
      <trkpt lat="42.81827" lon="0.28226">
        <ele>1737</ele>
        <time>2020-07-27T16:25:12.007Z</time>
      </trkpt>
      <trkpt lat="42.81826" lon="0.28231">
        <ele>1737</ele>
        <time>2020-07-27T16:25:13.007Z</time>
      </trkpt>
      <trkpt lat="42.81826" lon="0.28235">
        <ele>1737</ele>
        <time>2020-07-27T16:25:14.007Z</time>
      </trkpt>
      <trkpt lat="42.81826" lon="0.2824">
        <ele>1737</ele>
        <time>2020-07-27T16:25:15.007Z</time>
      </trkpt>
      <trkpt lat="42.81825" lon="0.28244">
        <ele>1737</ele>
        <time>2020-07-27T16:25:16.007Z</time>
      </trkpt>
      <trkpt lat="42.81825" lon="0.28249">
        <ele>1738</ele>
        <time>2020-07-27T16:25:17.007Z</time>
      </trkpt>
      <trkpt lat="42.81824" lon="0.28254">
        <ele>1737</ele>
        <time>2020-07-27T16:25:18.007Z</time>
      </trkpt>
      <trkpt lat="42.81824" lon="0.28258">
        <ele>1737</ele>
        <time>2020-07-27T16:25:19.007Z</time>
      </trkpt>
      <trkpt lat="42.81823" lon="0.28263">
        <ele>1737</ele>
        <time>2020-07-27T16:25:20.007Z</time>
      </trkpt>
      <trkpt lat="42.81822" lon="0.28267">
        <ele>1736</ele>
        <time>2020-07-27T16:25:21.007Z</time>
      </trkpt>
      <trkpt lat="42.81822" lon="0.28272">
        <ele>1736</ele>
        <time>2020-07-27T16:25:22.007Z</time>
      </trkpt>
      <trkpt lat="42.81821" lon="0.28276">
        <ele>1736</ele>
        <time>2020-07-27T16:25:23.007Z</time>
      </trkpt>
      <trkpt lat="42.8182" lon="0.28281">
        <ele>1736</ele>
        <time>2020-07-27T16:25:24.007Z</time>
      </trkpt>
      <trkpt lat="42.81819" lon="0.28285">
        <ele>1735</ele>
        <time>2020-07-27T16:25:25.007Z</time>
      </trkpt>
      <trkpt lat="42.81819" lon="0.2829">
        <ele>1735</ele>
        <time>2020-07-27T16:25:26.007Z</time>
      </trkpt>
      <trkpt lat="42.81818" lon="0.28294">
        <ele>1736</ele>
        <time>2020-07-27T16:25:27.007Z</time>
      </trkpt>
      <trkpt lat="42.81817" lon="0.28298">
        <ele>1734</ele>
        <time>2020-07-27T16:25:28.007Z</time>
      </trkpt>
      <trkpt lat="42.81816" lon="0.28302">
        <ele>1734</ele>
        <time>2020-07-27T16:25:29.007Z</time>
      </trkpt>
      <trkpt lat="42.81815" lon="0.28307">
        <ele>1734</ele>
        <time>2020-07-27T16:25:30.007Z</time>
      </trkpt>
      <trkpt lat="42.81813" lon="0.28311">
        <ele>1733</ele>
        <time>2020-07-27T16:25:31.007Z</time>
      </trkpt>
      <trkpt lat="42.81812" lon="0.28315">
        <ele>1732</ele>
        <time>2020-07-27T16:25:32.007Z</time>
      </trkpt>
      <trkpt lat="42.8181" lon="0.28319">
        <ele>1732</ele>
        <time>2020-07-27T16:25:33.007Z</time>
      </trkpt>
      <trkpt lat="42.81809" lon="0.28323">
        <ele>1731</ele>
        <time>2020-07-27T16:25:34.007Z</time>
      </trkpt>
      <trkpt lat="42.81807" lon="0.28328">
        <ele>1731</ele>
        <time>2020-07-27T16:25:35.007Z</time>
      </trkpt>
      <trkpt lat="42.81806" lon="0.28332">
        <ele>1731</ele>
        <time>2020-07-27T16:25:36.007Z</time>
      </trkpt>
      <trkpt lat="42.81805" lon="0.28336">
        <ele>1731</ele>
        <time>2020-07-27T16:25:37.007Z</time>
      </trkpt>
      <trkpt lat="42.81803" lon="0.28341">
        <ele>1730</ele>
        <time>2020-07-27T16:25:38.007Z</time>
      </trkpt>
      <trkpt lat="42.81801" lon="0.28345">
        <ele>1730</ele>
        <time>2020-07-27T16:25:39.007Z</time>
      </trkpt>
      <trkpt lat="42.81799" lon="0.28349">
        <ele>1729</ele>
        <time>2020-07-27T16:25:40.007Z</time>
      </trkpt>
      <trkpt lat="42.81798" lon="0.28353">
        <ele>1729</ele>
        <time>2020-07-27T16:25:41.007Z</time>
      </trkpt>
      <trkpt lat="42.81796" lon="0.28357">
        <ele>1729</ele>
        <time>2020-07-27T16:25:42.007Z</time>
      </trkpt>
      <trkpt lat="42.81795" lon="0.28361">
        <ele>1729</ele>
        <time>2020-07-27T16:25:43.007Z</time>
      </trkpt>
      <trkpt lat="42.81794" lon="0.28365">
        <ele>1729</ele>
        <time>2020-07-27T16:25:44.007Z</time>
      </trkpt>
      <trkpt lat="42.81793" lon="0.28369">
        <ele>1729</ele>
        <time>2020-07-27T16:25:45.007Z</time>
      </trkpt>
      <trkpt lat="42.81791" lon="0.28373">
        <ele>1729</ele>
        <time>2020-07-27T16:25:46.007Z</time>
      </trkpt>
      <trkpt lat="42.8179" lon="0.28378">
        <ele>1728</ele>
        <time>2020-07-27T16:25:47.007Z</time>
      </trkpt>
      <trkpt lat="42.81788" lon="0.28382">
        <ele>1729</ele>
        <time>2020-07-27T16:25:48.007Z</time>
      </trkpt>
      <trkpt lat="42.81786" lon="0.28386">
        <ele>1728</ele>
        <time>2020-07-27T16:25:49.007Z</time>
      </trkpt>
      <trkpt lat="42.81785" lon="0.2839">
        <ele>1727</ele>
        <time>2020-07-27T16:25:50.007Z</time>
      </trkpt>
      <trkpt lat="42.81783" lon="0.28394">
        <ele>1728</ele>
        <time>2020-07-27T16:25:51.007Z</time>
      </trkpt>
      <trkpt lat="42.81781" lon="0.28398">
        <ele>1727</ele>
        <time>2020-07-27T16:25:52.007Z</time>
      </trkpt>
      <trkpt lat="42.81779" lon="0.28402">
        <ele>1727</ele>
        <time>2020-07-27T16:25:53.007Z</time>
      </trkpt>
      <trkpt lat="42.81778" lon="0.28406">
        <ele>1727</ele>
        <time>2020-07-27T16:25:54.007Z</time>
      </trkpt>
      <trkpt lat="42.81776" lon="0.28409">
        <ele>1727</ele>
        <time>2020-07-27T16:25:55.007Z</time>
      </trkpt>
      <trkpt lat="42.81773" lon="0.28413">
        <ele>1727</ele>
        <time>2020-07-27T16:25:56.007Z</time>
      </trkpt>
      <trkpt lat="42.81771" lon="0.28416">
        <ele>1727</ele>
        <time>2020-07-27T16:25:57.007Z</time>
      </trkpt>
      <trkpt lat="42.81768" lon="0.28419">
        <ele>1726</ele>
        <time>2020-07-27T16:25:58.007Z</time>
      </trkpt>
      <trkpt lat="42.81766" lon="0.28422">
        <ele>1726</ele>
        <time>2020-07-27T16:25:59.007Z</time>
      </trkpt>
      <trkpt lat="42.81763" lon="0.28425">
        <ele>1725</ele>
        <time>2020-07-27T16:26:00.007Z</time>
      </trkpt>
      <trkpt lat="42.8176" lon="0.28427">
        <ele>1725</ele>
        <time>2020-07-27T16:26:01.007Z</time>
      </trkpt>
      <trkpt lat="42.81757" lon="0.28429">
        <ele>1725</ele>
        <time>2020-07-27T16:26:02.007Z</time>
      </trkpt>
      <trkpt lat="42.81754" lon="0.28431">
        <ele>1725</ele>
        <time>2020-07-27T16:26:03.007Z</time>
      </trkpt>
      <trkpt lat="42.81751" lon="0.28432">
        <ele>1725</ele>
        <time>2020-07-27T16:26:04.007Z</time>
      </trkpt>
      <trkpt lat="42.81748" lon="0.28433">
        <ele>1724</ele>
        <time>2020-07-27T16:26:05.007Z</time>
      </trkpt>
      <trkpt lat="42.81745" lon="0.28435">
        <ele>1723</ele>
        <time>2020-07-27T16:26:06.007Z</time>
      </trkpt>
      <trkpt lat="42.81742" lon="0.28436">
        <ele>1723</ele>
        <time>2020-07-27T16:26:07.007Z</time>
      </trkpt>
      <trkpt lat="42.81738" lon="0.28437">
        <ele>1724</ele>
        <time>2020-07-27T16:26:08.007Z</time>
      </trkpt>
      <trkpt lat="42.81735" lon="0.28438">
        <ele>1724</ele>
        <time>2020-07-27T16:26:09.007Z</time>
      </trkpt>
      <trkpt lat="42.81732" lon="0.28439">
        <ele>1723</ele>
        <time>2020-07-27T16:26:10.007Z</time>
      </trkpt>
      <trkpt lat="42.81729" lon="0.2844">
        <ele>1723</ele>
        <time>2020-07-27T16:26:11.007Z</time>
      </trkpt>
      <trkpt lat="42.81725" lon="0.28441">
        <ele>1723</ele>
        <time>2020-07-27T16:26:12.007Z</time>
      </trkpt>
      <trkpt lat="42.81722" lon="0.28442">
        <ele>1723</ele>
        <time>2020-07-27T16:26:13.007Z</time>
      </trkpt>
      <trkpt lat="42.81719" lon="0.28444">
        <ele>1723</ele>
        <time>2020-07-27T16:26:14.007Z</time>
      </trkpt>
      <trkpt lat="42.81716" lon="0.28445">
        <ele>1723</ele>
        <time>2020-07-27T16:26:15.007Z</time>
      </trkpt>
      <trkpt lat="42.81712" lon="0.28446">
        <ele>1722</ele>
        <time>2020-07-27T16:26:16.007Z</time>
      </trkpt>
      <trkpt lat="42.81709" lon="0.28446">
        <ele>1722</ele>
        <time>2020-07-27T16:26:17.007Z</time>
      </trkpt>
      <trkpt lat="42.81706" lon="0.28447">
        <ele>1721</ele>
        <time>2020-07-27T16:26:18.007Z</time>
      </trkpt>
      <trkpt lat="42.81703" lon="0.28448">
        <ele>1721</ele>
        <time>2020-07-27T16:26:19.007Z</time>
      </trkpt>
      <trkpt lat="42.817" lon="0.28449">
        <ele>1721</ele>
        <time>2020-07-27T16:26:20.007Z</time>
      </trkpt>
      <trkpt lat="42.81697" lon="0.28449">
        <ele>1721</ele>
        <time>2020-07-27T16:26:21.007Z</time>
      </trkpt>
      <trkpt lat="42.81694" lon="0.2845">
        <ele>1721</ele>
        <time>2020-07-27T16:26:22.007Z</time>
      </trkpt>
      <trkpt lat="42.81691" lon="0.28451">
        <ele>1721</ele>
        <time>2020-07-27T16:26:23.007Z</time>
      </trkpt>
      <trkpt lat="42.81688" lon="0.28451">
        <ele>1722</ele>
        <time>2020-07-27T16:26:24.007Z</time>
      </trkpt>
      <trkpt lat="42.81684" lon="0.28452">
        <ele>1721</ele>
        <time>2020-07-27T16:26:25.007Z</time>
      </trkpt>
      <trkpt lat="42.81681" lon="0.28452">
        <ele>1721</ele>
        <time>2020-07-27T16:26:26.007Z</time>
      </trkpt>
      <trkpt lat="42.81678" lon="0.28453">
        <ele>1721</ele>
        <time>2020-07-27T16:26:27.007Z</time>
      </trkpt>
      <trkpt lat="42.81675" lon="0.28453">
        <ele>1721</ele>
        <time>2020-07-27T16:26:28.007Z</time>
      </trkpt>
      <trkpt lat="42.81672" lon="0.28453">
        <ele>1721</ele>
        <time>2020-07-27T16:26:29.007Z</time>
      </trkpt>
      <trkpt lat="42.81669" lon="0.28453">
        <ele>1720</ele>
        <time>2020-07-27T16:26:30.007Z</time>
      </trkpt>
      <trkpt lat="42.81665" lon="0.28453">
        <ele>1720</ele>
        <time>2020-07-27T16:26:31.007Z</time>
      </trkpt>
      <trkpt lat="42.81662" lon="0.28454">
        <ele>1721</ele>
        <time>2020-07-27T16:26:32.007Z</time>
      </trkpt>
      <trkpt lat="42.81659" lon="0.28454">
        <ele>1721</ele>
        <time>2020-07-27T16:26:33.007Z</time>
      </trkpt>
      <trkpt lat="42.81656" lon="0.28454">
        <ele>1721</ele>
        <time>2020-07-27T16:26:34.007Z</time>
      </trkpt>
      <trkpt lat="42.81652" lon="0.28453">
        <ele>1721</ele>
        <time>2020-07-27T16:26:35.007Z</time>
      </trkpt>
      <trkpt lat="42.81649" lon="0.28453">
        <ele>1720</ele>
        <time>2020-07-27T16:26:36.007Z</time>
      </trkpt>
      <trkpt lat="42.81645" lon="0.28453">
        <ele>1720</ele>
        <time>2020-07-27T16:26:37.007Z</time>
      </trkpt>
      <trkpt lat="42.81642" lon="0.28453">
        <ele>1719</ele>
        <time>2020-07-27T16:26:38.007Z</time>
      </trkpt>
      <trkpt lat="42.81639" lon="0.28453">
        <ele>1719</ele>
        <time>2020-07-27T16:26:39.007Z</time>
      </trkpt>
      <trkpt lat="42.81635" lon="0.28454">
        <ele>1719</ele>
        <time>2020-07-27T16:26:40.007Z</time>
      </trkpt>
      <trkpt lat="42.81632" lon="0.28454">
        <ele>1719</ele>
        <time>2020-07-27T16:26:41.007Z</time>
      </trkpt>
      <trkpt lat="42.81628" lon="0.28455">
        <ele>1719</ele>
        <time>2020-07-27T16:26:42.007Z</time>
      </trkpt>
      <trkpt lat="42.81625" lon="0.28456">
        <ele>1719</ele>
        <time>2020-07-27T16:26:43.007Z</time>
      </trkpt>
      <trkpt lat="42.81622" lon="0.28457">
        <ele>1719</ele>
        <time>2020-07-27T16:26:44.007Z</time>
      </trkpt>
      <trkpt lat="42.81619" lon="0.28458">
        <ele>1719</ele>
        <time>2020-07-27T16:26:45.007Z</time>
      </trkpt>
      <trkpt lat="42.81616" lon="0.2846">
        <ele>1718</ele>
        <time>2020-07-27T16:26:46.007Z</time>
      </trkpt>
      <trkpt lat="42.81613" lon="0.28462">
        <ele>1718</ele>
        <time>2020-07-27T16:26:47.007Z</time>
      </trkpt>
      <trkpt lat="42.8161" lon="0.28464">
        <ele>1718</ele>
        <time>2020-07-27T16:26:48.007Z</time>
      </trkpt>
      <trkpt lat="42.81608" lon="0.28467">
        <ele>1717</ele>
        <time>2020-07-27T16:26:49.007Z</time>
      </trkpt>
      <trkpt lat="42.81605" lon="0.28469">
        <ele>1718</ele>
        <time>2020-07-27T16:26:50.007Z</time>
      </trkpt>
      <trkpt lat="42.81602" lon="0.28472">
        <ele>1717</ele>
        <time>2020-07-27T16:26:51.007Z</time>
      </trkpt>
      <trkpt lat="42.81599" lon="0.28474">
        <ele>1717</ele>
        <time>2020-07-27T16:26:52.007Z</time>
      </trkpt>
      <trkpt lat="42.81597" lon="0.28477">
        <ele>1716</ele>
        <time>2020-07-27T16:26:53.007Z</time>
      </trkpt>
      <trkpt lat="42.81594" lon="0.2848">
        <ele>1717</ele>
        <time>2020-07-27T16:26:54.007Z</time>
      </trkpt>
      <trkpt lat="42.81592" lon="0.28483">
        <ele>1717</ele>
        <time>2020-07-27T16:26:55.007Z</time>
      </trkpt>
      <trkpt lat="42.8159" lon="0.28486">
        <ele>1716</ele>
        <time>2020-07-27T16:26:56.007Z</time>
      </trkpt>
      <trkpt lat="42.81588" lon="0.28489">
        <ele>1716</ele>
        <time>2020-07-27T16:26:57.007Z</time>
      </trkpt>
      <trkpt lat="42.81586" lon="0.28492">
        <ele>1716</ele>
        <time>2020-07-27T16:26:58.007Z</time>
      </trkpt>
      <trkpt lat="42.81583" lon="0.28496">
        <ele>1716</ele>
        <time>2020-07-27T16:26:59.007Z</time>
      </trkpt>
      <trkpt lat="42.81581" lon="0.28499">
        <ele>1716</ele>
        <time>2020-07-27T16:27:00.007Z</time>
      </trkpt>
      <trkpt lat="42.81579" lon="0.28502">
        <ele>1716</ele>
        <time>2020-07-27T16:27:01.007Z</time>
      </trkpt>
      <trkpt lat="42.81576" lon="0.28505">
        <ele>1715</ele>
        <time>2020-07-27T16:27:02.007Z</time>
      </trkpt>
      <trkpt lat="42.81574" lon="0.28508">
        <ele>1714</ele>
        <time>2020-07-27T16:27:03.007Z</time>
      </trkpt>
      <trkpt lat="42.81571" lon="0.28511">
        <ele>1714</ele>
        <time>2020-07-27T16:27:04.007Z</time>
      </trkpt>
      <trkpt lat="42.81568" lon="0.28514">
        <ele>1714</ele>
        <time>2020-07-27T16:27:05.007Z</time>
      </trkpt>
      <trkpt lat="42.81566" lon="0.28517">
        <ele>1713</ele>
        <time>2020-07-27T16:27:06.007Z</time>
      </trkpt>
      <trkpt lat="42.81564" lon="0.2852">
        <ele>1713</ele>
        <time>2020-07-27T16:27:07.007Z</time>
      </trkpt>
      <trkpt lat="42.81561" lon="0.28523">
        <ele>1713</ele>
        <time>2020-07-27T16:27:08.007Z</time>
      </trkpt>
      <trkpt lat="42.81559" lon="0.28526">
        <ele>1713</ele>
        <time>2020-07-27T16:27:09.007Z</time>
      </trkpt>
      <trkpt lat="42.81556" lon="0.28529">
        <ele>1713</ele>
        <time>2020-07-27T16:27:10.007Z</time>
      </trkpt>
      <trkpt lat="42.81554" lon="0.28532">
        <ele>1713</ele>
        <time>2020-07-27T16:27:11.007Z</time>
      </trkpt>
      <trkpt lat="42.81552" lon="0.28535">
        <ele>1713</ele>
        <time>2020-07-27T16:27:12.007Z</time>
      </trkpt>
      <trkpt lat="42.81549" lon="0.28538">
        <ele>1712</ele>
        <time>2020-07-27T16:27:13.007Z</time>
      </trkpt>
      <trkpt lat="42.81546" lon="0.28541">
        <ele>1712</ele>
        <time>2020-07-27T16:27:14.007Z</time>
      </trkpt>
      <trkpt lat="42.81544" lon="0.28544">
        <ele>1711</ele>
        <time>2020-07-27T16:27:15.007Z</time>
      </trkpt>
      <trkpt lat="42.81541" lon="0.28547">
        <ele>1711</ele>
        <time>2020-07-27T16:27:16.007Z</time>
      </trkpt>
      <trkpt lat="42.81538" lon="0.2855">
        <ele>1711</ele>
        <time>2020-07-27T16:27:17.007Z</time>
      </trkpt>
      <trkpt lat="42.81536" lon="0.28553">
        <ele>1712</ele>
        <time>2020-07-27T16:27:18.007Z</time>
      </trkpt>
      <trkpt lat="42.81533" lon="0.28556">
        <ele>1711</ele>
        <time>2020-07-27T16:27:19.007Z</time>
      </trkpt>
      <trkpt lat="42.81531" lon="0.28559">
        <ele>1712</ele>
        <time>2020-07-27T16:27:20.007Z</time>
      </trkpt>
      <trkpt lat="42.81528" lon="0.28562">
        <ele>1712</ele>
        <time>2020-07-27T16:27:21.007Z</time>
      </trkpt>
      <trkpt lat="42.81526" lon="0.28565">
        <ele>1711</ele>
        <time>2020-07-27T16:27:22.007Z</time>
      </trkpt>
      <trkpt lat="42.81523" lon="0.28568">
        <ele>1710</ele>
        <time>2020-07-27T16:27:23.007Z</time>
      </trkpt>
      <trkpt lat="42.81521" lon="0.28571">
        <ele>1710</ele>
        <time>2020-07-27T16:27:24.007Z</time>
      </trkpt>
      <trkpt lat="42.81518" lon="0.28574">
        <ele>1710</ele>
        <time>2020-07-27T16:27:25.007Z</time>
      </trkpt>
      <trkpt lat="42.81516" lon="0.28576">
        <ele>1710</ele>
        <time>2020-07-27T16:27:26.007Z</time>
      </trkpt>
      <trkpt lat="42.81513" lon="0.28579">
        <ele>1710</ele>
        <time>2020-07-27T16:27:27.007Z</time>
      </trkpt>
      <trkpt lat="42.81511" lon="0.28583">
        <ele>1709</ele>
        <time>2020-07-27T16:27:28.007Z</time>
      </trkpt>
      <trkpt lat="42.81508" lon="0.28586">
        <ele>1709</ele>
        <time>2020-07-27T16:27:29.007Z</time>
      </trkpt>
      <trkpt lat="42.81506" lon="0.28588">
        <ele>1709</ele>
        <time>2020-07-27T16:27:30.007Z</time>
      </trkpt>
      <trkpt lat="42.81503" lon="0.28591">
        <ele>1708</ele>
        <time>2020-07-27T16:27:31.007Z</time>
      </trkpt>
      <trkpt lat="42.815" lon="0.28594">
        <ele>1708</ele>
        <time>2020-07-27T16:27:32.007Z</time>
      </trkpt>
      <trkpt lat="42.81498" lon="0.28597">
        <ele>1707</ele>
        <time>2020-07-27T16:27:33.007Z</time>
      </trkpt>
      <trkpt lat="42.81495" lon="0.286">
        <ele>1707</ele>
        <time>2020-07-27T16:27:34.007Z</time>
      </trkpt>
      <trkpt lat="42.81492" lon="0.28603">
        <ele>1706</ele>
        <time>2020-07-27T16:27:35.007Z</time>
      </trkpt>
      <trkpt lat="42.81489" lon="0.28606">
        <ele>1706</ele>
        <time>2020-07-27T16:27:36.007Z</time>
      </trkpt>
      <trkpt lat="42.81486" lon="0.28609">
        <ele>1706</ele>
        <time>2020-07-27T16:27:37.007Z</time>
      </trkpt>
      <trkpt lat="42.81483" lon="0.28612">
        <ele>1705</ele>
        <time>2020-07-27T16:27:38.007Z</time>
      </trkpt>
      <trkpt lat="42.81481" lon="0.28615">
        <ele>1705</ele>
        <time>2020-07-27T16:27:39.007Z</time>
      </trkpt>
      <trkpt lat="42.81478" lon="0.28618">
        <ele>1705</ele>
        <time>2020-07-27T16:27:40.007Z</time>
      </trkpt>
      <trkpt lat="42.81475" lon="0.28621">
        <ele>1704</ele>
        <time>2020-07-27T16:27:41.007Z</time>
      </trkpt>
      <trkpt lat="42.81473" lon="0.28624">
        <ele>1704</ele>
        <time>2020-07-27T16:27:42.007Z</time>
      </trkpt>
      <trkpt lat="42.8147" lon="0.28626">
        <ele>1704</ele>
        <time>2020-07-27T16:27:43.007Z</time>
      </trkpt>
      <trkpt lat="42.81468" lon="0.28629">
        <ele>1703</ele>
        <time>2020-07-27T16:27:44.007Z</time>
      </trkpt>
      <trkpt lat="42.81465" lon="0.28632">
        <ele>1703</ele>
        <time>2020-07-27T16:27:45.007Z</time>
      </trkpt>
      <trkpt lat="42.81463" lon="0.28635">
        <ele>1702</ele>
        <time>2020-07-27T16:27:46.007Z</time>
      </trkpt>
      <trkpt lat="42.8146" lon="0.28638">
        <ele>1701</ele>
        <time>2020-07-27T16:27:47.007Z</time>
      </trkpt>
      <trkpt lat="42.81458" lon="0.28641">
        <ele>1701</ele>
        <time>2020-07-27T16:27:48.007Z</time>
      </trkpt>
      <trkpt lat="42.81455" lon="0.28645">
        <ele>1702</ele>
        <time>2020-07-27T16:27:49.007Z</time>
      </trkpt>
      <trkpt lat="42.81453" lon="0.28649">
        <ele>1701</ele>
        <time>2020-07-27T16:27:50.007Z</time>
      </trkpt>
      <trkpt lat="42.81451" lon="0.28652">
        <ele>1701</ele>
        <time>2020-07-27T16:27:51.007Z</time>
      </trkpt>
      <trkpt lat="42.81449" lon="0.28656">
        <ele>1701</ele>
        <time>2020-07-27T16:27:52.007Z</time>
      </trkpt>
      <trkpt lat="42.81447" lon="0.28659">
        <ele>1701</ele>
        <time>2020-07-27T16:27:53.007Z</time>
      </trkpt>
      <trkpt lat="42.81444" lon="0.28662">
        <ele>1700</ele>
        <time>2020-07-27T16:27:54.007Z</time>
      </trkpt>
      <trkpt lat="42.81442" lon="0.28666">
        <ele>1700</ele>
        <time>2020-07-27T16:27:55.007Z</time>
      </trkpt>
      <trkpt lat="42.8144" lon="0.28669">
        <ele>1700</ele>
        <time>2020-07-27T16:27:56.007Z</time>
      </trkpt>
      <trkpt lat="42.81438" lon="0.28672">
        <ele>1700</ele>
        <time>2020-07-27T16:27:57.007Z</time>
      </trkpt>
      <trkpt lat="42.81435" lon="0.28675">
        <ele>1700</ele>
        <time>2020-07-27T16:27:58.007Z</time>
      </trkpt>
      <trkpt lat="42.81433" lon="0.28678">
        <ele>1700</ele>
        <time>2020-07-27T16:27:59.007Z</time>
      </trkpt>
      <trkpt lat="42.81431" lon="0.28681">
        <ele>1699</ele>
        <time>2020-07-27T16:28:00.007Z</time>
      </trkpt>
      <trkpt lat="42.81428" lon="0.28685">
        <ele>1700</ele>
        <time>2020-07-27T16:28:01.007Z</time>
      </trkpt>
      <trkpt lat="42.81426" lon="0.28688">
        <ele>1700</ele>
        <time>2020-07-27T16:28:02.007Z</time>
      </trkpt>
      <trkpt lat="42.81423" lon="0.28691">
        <ele>1699</ele>
        <time>2020-07-27T16:28:03.007Z</time>
      </trkpt>
      <trkpt lat="42.81421" lon="0.28694">
        <ele>1700</ele>
        <time>2020-07-27T16:28:04.007Z</time>
      </trkpt>
      <trkpt lat="42.81419" lon="0.28697">
        <ele>1699</ele>
        <time>2020-07-27T16:28:05.007Z</time>
      </trkpt>
      <trkpt lat="42.81417" lon="0.287">
        <ele>1699</ele>
        <time>2020-07-27T16:28:06.007Z</time>
      </trkpt>
      <trkpt lat="42.81414" lon="0.28704">
        <ele>1698</ele>
        <time>2020-07-27T16:28:07.007Z</time>
      </trkpt>
      <trkpt lat="42.81411" lon="0.28707">
        <ele>1697</ele>
        <time>2020-07-27T16:28:08.007Z</time>
      </trkpt>
      <trkpt lat="42.81409" lon="0.2871">
        <ele>1697</ele>
        <time>2020-07-27T16:28:09.007Z</time>
      </trkpt>
      <trkpt lat="42.81406" lon="0.28713">
        <ele>1697</ele>
        <time>2020-07-27T16:28:10.007Z</time>
      </trkpt>
      <trkpt lat="42.81404" lon="0.28716">
        <ele>1697</ele>
        <time>2020-07-27T16:28:11.007Z</time>
      </trkpt>
      <trkpt lat="42.81402" lon="0.28719">
        <ele>1696</ele>
        <time>2020-07-27T16:28:12.007Z</time>
      </trkpt>
      <trkpt lat="42.81399" lon="0.28722">
        <ele>1695</ele>
        <time>2020-07-27T16:28:13.007Z</time>
      </trkpt>
      <trkpt lat="42.81396" lon="0.28724">
        <ele>1694</ele>
        <time>2020-07-27T16:28:14.007Z</time>
      </trkpt>
      <trkpt lat="42.81394" lon="0.28726">
        <ele>1693</ele>
        <time>2020-07-27T16:28:15.007Z</time>
      </trkpt>
      <trkpt lat="42.81392" lon="0.28727">
        <ele>1693</ele>
        <time>2020-07-27T16:28:16.007Z</time>
      </trkpt>
      <trkpt lat="42.8139" lon="0.28729">
        <ele>1693</ele>
        <time>2020-07-27T16:28:17.007Z</time>
      </trkpt>
      <trkpt lat="42.81387" lon="0.28731">
        <ele>1692</ele>
        <time>2020-07-27T16:28:18.007Z</time>
      </trkpt>
      <trkpt lat="42.81385" lon="0.28733">
        <ele>1692</ele>
        <time>2020-07-27T16:28:19.007Z</time>
      </trkpt>
      <trkpt lat="42.81383" lon="0.28735">
        <ele>1691</ele>
        <time>2020-07-27T16:28:20.007Z</time>
      </trkpt>
      <trkpt lat="42.81381" lon="0.28738">
        <ele>1690</ele>
        <time>2020-07-27T16:28:21.007Z</time>
      </trkpt>
      <trkpt lat="42.81379" lon="0.28741">
        <ele>1690</ele>
        <time>2020-07-27T16:28:22.007Z</time>
      </trkpt>
      <trkpt lat="42.81377" lon="0.28745">
        <ele>1689</ele>
        <time>2020-07-27T16:28:23.007Z</time>
      </trkpt>
      <trkpt lat="42.81375" lon="0.28748">
        <ele>1687</ele>
        <time>2020-07-27T16:28:24.007Z</time>
      </trkpt>
      <trkpt lat="42.81373" lon="0.28751">
        <ele>1687</ele>
        <time>2020-07-27T16:28:25.007Z</time>
      </trkpt>
      <trkpt lat="42.81372" lon="0.28754">
        <ele>1686</ele>
        <time>2020-07-27T16:28:26.007Z</time>
      </trkpt>
      <trkpt lat="42.81371" lon="0.28758">
        <ele>1685</ele>
        <time>2020-07-27T16:28:27.007Z</time>
      </trkpt>
      <trkpt lat="42.8137" lon="0.28762">
        <ele>1684</ele>
        <time>2020-07-27T16:28:28.007Z</time>
      </trkpt>
      <trkpt lat="42.81369" lon="0.28766">
        <ele>1684</ele>
        <time>2020-07-27T16:28:29.007Z</time>
      </trkpt>
      <trkpt lat="42.81369" lon="0.2877">
        <ele>1683</ele>
        <time>2020-07-27T16:28:30.007Z</time>
      </trkpt>
      <trkpt lat="42.81369" lon="0.28774">
        <ele>1681</ele>
        <time>2020-07-27T16:28:31.007Z</time>
      </trkpt>
      <trkpt lat="42.81369" lon="0.28778">
        <ele>1680</ele>
        <time>2020-07-27T16:28:32.007Z</time>
      </trkpt>
      <trkpt lat="42.81369" lon="0.28782">
        <ele>1679</ele>
        <time>2020-07-27T16:28:33.007Z</time>
      </trkpt>
      <trkpt lat="42.8137" lon="0.28786">
        <ele>1678</ele>
        <time>2020-07-27T16:28:34.007Z</time>
      </trkpt>
      <trkpt lat="42.8137" lon="0.28791">
        <ele>1677</ele>
        <time>2020-07-27T16:28:35.007Z</time>
      </trkpt>
      <trkpt lat="42.8137" lon="0.28795">
        <ele>1677</ele>
        <time>2020-07-27T16:28:36.007Z</time>
      </trkpt>
      <trkpt lat="42.81369" lon="0.288">
        <ele>1677</ele>
        <time>2020-07-27T16:28:37.007Z</time>
      </trkpt>
      <trkpt lat="42.81369" lon="0.28804">
        <ele>1676</ele>
        <time>2020-07-27T16:28:38.007Z</time>
      </trkpt>
      <trkpt lat="42.81369" lon="0.28809">
        <ele>1676</ele>
        <time>2020-07-27T16:28:39.007Z</time>
      </trkpt>
      <trkpt lat="42.81369" lon="0.28813">
        <ele>1676</ele>
        <time>2020-07-27T16:28:40.007Z</time>
      </trkpt>
      <trkpt lat="42.81368" lon="0.28818">
        <ele>1676</ele>
        <time>2020-07-27T16:28:41.007Z</time>
      </trkpt>
      <trkpt lat="42.81368" lon="0.28822">
        <ele>1676</ele>
        <time>2020-07-27T16:28:42.007Z</time>
      </trkpt>
      <trkpt lat="42.81367" lon="0.28827">
        <ele>1676</ele>
        <time>2020-07-27T16:28:43.007Z</time>
      </trkpt>
      <trkpt lat="42.81366" lon="0.28831">
        <ele>1676</ele>
        <time>2020-07-27T16:28:44.007Z</time>
      </trkpt>
      <trkpt lat="42.81365" lon="0.28835">
        <ele>1675</ele>
        <time>2020-07-27T16:28:45.007Z</time>
      </trkpt>
      <trkpt lat="42.81364" lon="0.2884">
        <ele>1675</ele>
        <time>2020-07-27T16:28:46.007Z</time>
      </trkpt>
      <trkpt lat="42.81363" lon="0.28844">
        <ele>1674</ele>
        <time>2020-07-27T16:28:47.007Z</time>
      </trkpt>
      <trkpt lat="42.81363" lon="0.28849">
        <ele>1673</ele>
        <time>2020-07-27T16:28:48.007Z</time>
      </trkpt>
      <trkpt lat="42.81362" lon="0.28854">
        <ele>1673</ele>
        <time>2020-07-27T16:28:49.007Z</time>
      </trkpt>
      <trkpt lat="42.81362" lon="0.28858">
        <ele>1672</ele>
        <time>2020-07-27T16:28:50.007Z</time>
      </trkpt>
      <trkpt lat="42.81362" lon="0.28863">
        <ele>1672</ele>
        <time>2020-07-27T16:28:51.007Z</time>
      </trkpt>
      <trkpt lat="42.81362" lon="0.28867">
        <ele>1671</ele>
        <time>2020-07-27T16:28:52.007Z</time>
      </trkpt>
      <trkpt lat="42.81362" lon="0.28871">
        <ele>1671</ele>
        <time>2020-07-27T16:28:53.007Z</time>
      </trkpt>
      <trkpt lat="42.81361" lon="0.28876">
        <ele>1671</ele>
        <time>2020-07-27T16:28:54.007Z</time>
      </trkpt>
      <trkpt lat="42.81361" lon="0.2888">
        <ele>1670</ele>
        <time>2020-07-27T16:28:55.007Z</time>
      </trkpt>
      <trkpt lat="42.8136" lon="0.28885">
        <ele>1670</ele>
        <time>2020-07-27T16:28:56.007Z</time>
      </trkpt>
      <trkpt lat="42.8136" lon="0.28889">
        <ele>1669</ele>
        <time>2020-07-27T16:28:57.007Z</time>
      </trkpt>
      <trkpt lat="42.81359" lon="0.28893">
        <ele>1668</ele>
        <time>2020-07-27T16:28:58.007Z</time>
      </trkpt>
      <trkpt lat="42.81359" lon="0.28898">
        <ele>1668</ele>
        <time>2020-07-27T16:28:59.007Z</time>
      </trkpt>
      <trkpt lat="42.81359" lon="0.28902">
        <ele>1667</ele>
        <time>2020-07-27T16:29:00.007Z</time>
      </trkpt>
      <trkpt lat="42.8136" lon="0.28906">
        <ele>1667</ele>
        <time>2020-07-27T16:29:01.007Z</time>
      </trkpt>
      <trkpt lat="42.8136" lon="0.2891">
        <ele>1666</ele>
        <time>2020-07-27T16:29:02.007Z</time>
      </trkpt>
      <trkpt lat="42.8136" lon="0.28915">
        <ele>1665</ele>
        <time>2020-07-27T16:29:03.007Z</time>
      </trkpt>
      <trkpt lat="42.8136" lon="0.28919">
        <ele>1664</ele>
        <time>2020-07-27T16:29:04.007Z</time>
      </trkpt>
      <trkpt lat="42.8136" lon="0.28924">
        <ele>1663</ele>
        <time>2020-07-27T16:29:05.007Z</time>
      </trkpt>
      <trkpt lat="42.8136" lon="0.28928">
        <ele>1663</ele>
        <time>2020-07-27T16:29:06.007Z</time>
      </trkpt>
      <trkpt lat="42.8136" lon="0.28933">
        <ele>1662</ele>
        <time>2020-07-27T16:29:07.007Z</time>
      </trkpt>
      <trkpt lat="42.8136" lon="0.28937">
        <ele>1660</ele>
        <time>2020-07-27T16:29:08.007Z</time>
      </trkpt>
      <trkpt lat="42.8136" lon="0.28941">
        <ele>1659</ele>
        <time>2020-07-27T16:29:09.007Z</time>
      </trkpt>
      <trkpt lat="42.81361" lon="0.28945">
        <ele>1658</ele>
        <time>2020-07-27T16:29:10.007Z</time>
      </trkpt>
      <trkpt lat="42.81361" lon="0.28949">
        <ele>1657</ele>
        <time>2020-07-27T16:29:11.007Z</time>
      </trkpt>
      <trkpt lat="42.81361" lon="0.28954">
        <ele>1657</ele>
        <time>2020-07-27T16:29:12.007Z</time>
      </trkpt>
      <trkpt lat="42.81361" lon="0.28958">
        <ele>1656</ele>
        <time>2020-07-27T16:29:13.007Z</time>
      </trkpt>
      <trkpt lat="42.81361" lon="0.28963">
        <ele>1655</ele>
        <time>2020-07-27T16:29:14.007Z</time>
      </trkpt>
      <trkpt lat="42.81361" lon="0.28967">
        <ele>1654</ele>
        <time>2020-07-27T16:29:15.007Z</time>
      </trkpt>
      <trkpt lat="42.81361" lon="0.28972">
        <ele>1654</ele>
        <time>2020-07-27T16:29:16.007Z</time>
      </trkpt>
      <trkpt lat="42.81361" lon="0.28976">
        <ele>1653</ele>
        <time>2020-07-27T16:29:17.007Z</time>
      </trkpt>
      <trkpt lat="42.81361" lon="0.2898">
        <ele>1652</ele>
        <time>2020-07-27T16:29:18.007Z</time>
      </trkpt>
      <trkpt lat="42.81361" lon="0.28984">
        <ele>1651</ele>
        <time>2020-07-27T16:29:19.007Z</time>
      </trkpt>
      <trkpt lat="42.81362" lon="0.28989">
        <ele>1651</ele>
        <time>2020-07-27T16:29:20.007Z</time>
      </trkpt>
      <trkpt lat="42.81363" lon="0.28993">
        <ele>1651</ele>
        <time>2020-07-27T16:29:21.007Z</time>
      </trkpt>
      <trkpt lat="42.81364" lon="0.28997">
        <ele>1650</ele>
        <time>2020-07-27T16:29:22.007Z</time>
      </trkpt>
      <trkpt lat="42.81364" lon="0.29002">
        <ele>1650</ele>
        <time>2020-07-27T16:29:23.007Z</time>
      </trkpt>
      <trkpt lat="42.81364" lon="0.29006">
        <ele>1649</ele>
        <time>2020-07-27T16:29:24.007Z</time>
      </trkpt>
      <trkpt lat="42.81364" lon="0.2901">
        <ele>1649</ele>
        <time>2020-07-27T16:29:25.007Z</time>
      </trkpt>
      <trkpt lat="42.81364" lon="0.29015">
        <ele>1649</ele>
        <time>2020-07-27T16:29:26.007Z</time>
      </trkpt>
      <trkpt lat="42.81364" lon="0.29019">
        <ele>1649</ele>
        <time>2020-07-27T16:29:27.007Z</time>
      </trkpt>
      <trkpt lat="42.81364" lon="0.29024">
        <ele>1648</ele>
        <time>2020-07-27T16:29:28.007Z</time>
      </trkpt>
      <trkpt lat="42.81364" lon="0.29028">
        <ele>1647</ele>
        <time>2020-07-27T16:29:29.007Z</time>
      </trkpt>
      <trkpt lat="42.81364" lon="0.29033">
        <ele>1648</ele>
        <time>2020-07-27T16:29:30.007Z</time>
      </trkpt>
      <trkpt lat="42.81362" lon="0.29037">
        <ele>1645</ele>
        <time>2020-07-27T16:29:31.007Z</time>
      </trkpt>
      <trkpt lat="42.8136" lon="0.2904">
        <ele>1645</ele>
        <time>2020-07-27T16:29:32.007Z</time>
      </trkpt>
      <trkpt lat="42.81357" lon="0.29044">
        <ele>1644</ele>
        <time>2020-07-27T16:29:33.007Z</time>
      </trkpt>
      <trkpt lat="42.81355" lon="0.29046">
        <ele>1643</ele>
        <time>2020-07-27T16:29:34.007Z</time>
      </trkpt>
      <trkpt lat="42.81352" lon="0.29048">
        <ele>1644</ele>
        <time>2020-07-27T16:29:35.007Z</time>
      </trkpt>
      <trkpt lat="42.8135" lon="0.29049">
        <ele>1645</ele>
        <time>2020-07-27T16:29:36.007Z</time>
      </trkpt>
      <trkpt lat="42.81347" lon="0.2905">
        <ele>1645</ele>
        <time>2020-07-27T16:29:37.007Z</time>
      </trkpt>
      <trkpt lat="42.81345" lon="0.2905">
        <ele>1645</ele>
        <time>2020-07-27T16:29:38.007Z</time>
      </trkpt>
      <trkpt lat="42.81343" lon="0.2905">
        <ele>1646</ele>
        <time>2020-07-27T16:29:39.007Z</time>
      </trkpt>
      <trkpt lat="42.8134" lon="0.2905">
        <ele>1646</ele>
        <time>2020-07-27T16:29:40.007Z</time>
      </trkpt>
      <trkpt lat="42.81338" lon="0.2905">
        <ele>1646</ele>
        <time>2020-07-27T16:29:41.007Z</time>
      </trkpt>
      <trkpt lat="42.81336" lon="0.2905">
        <ele>1646</ele>
        <time>2020-07-27T16:29:42.007Z</time>
      </trkpt>
      <trkpt lat="42.81334" lon="0.2905">
        <ele>1646</ele>
        <time>2020-07-27T16:29:43.007Z</time>
      </trkpt>
      <trkpt lat="42.81331" lon="0.2905">
        <ele>1646</ele>
        <time>2020-07-27T16:29:44.007Z</time>
      </trkpt>
      <trkpt lat="42.81329" lon="0.29049">
        <ele>1646</ele>
        <time>2020-07-27T16:29:45.007Z</time>
      </trkpt>
      <trkpt lat="42.81326" lon="0.29049">
        <ele>1647</ele>
        <time>2020-07-27T16:29:46.007Z</time>
      </trkpt>
      <trkpt lat="42.81324" lon="0.29049">
        <ele>1647</ele>
        <time>2020-07-27T16:29:47.007Z</time>
      </trkpt>
      <trkpt lat="42.81322" lon="0.29048">
        <ele>1648</ele>
        <time>2020-07-27T16:29:48.007Z</time>
      </trkpt>
      <trkpt lat="42.8132" lon="0.29049">
        <ele>1650</ele>
        <time>2020-07-27T16:29:49.007Z</time>
      </trkpt>
      <trkpt lat="42.81318" lon="0.29048">
        <ele>1651</ele>
        <time>2020-07-27T16:29:50.007Z</time>
      </trkpt>
      <trkpt lat="42.81316" lon="0.29049">
        <ele>1651</ele>
        <time>2020-07-27T16:29:51.007Z</time>
      </trkpt>
      <trkpt lat="42.81314" lon="0.29049">
        <ele>1652</ele>
        <time>2020-07-27T16:29:52.007Z</time>
      </trkpt>
      <trkpt lat="42.81312" lon="0.29049">
        <ele>1652</ele>
        <time>2020-07-27T16:29:53.007Z</time>
      </trkpt>
      <trkpt lat="42.81311" lon="0.2905">
        <ele>1652</ele>
        <time>2020-07-27T16:29:54.007Z</time>
      </trkpt>
      <trkpt lat="42.81309" lon="0.29051">
        <ele>1652</ele>
        <time>2020-07-27T16:29:55.007Z</time>
      </trkpt>
      <trkpt lat="42.81307" lon="0.29052">
        <ele>1652</ele>
        <time>2020-07-27T16:29:56.007Z</time>
      </trkpt>
      <trkpt lat="42.81306" lon="0.29053">
        <ele>1652</ele>
        <time>2020-07-27T16:29:57.007Z</time>
      </trkpt>
      <trkpt lat="42.81305" lon="0.29055">
        <ele>1652</ele>
        <time>2020-07-27T16:29:58.007Z</time>
      </trkpt>
      <trkpt lat="42.81303" lon="0.29057">
        <ele>1652</ele>
        <time>2020-07-27T16:29:59.007Z</time>
      </trkpt>
      <trkpt lat="42.81302" lon="0.29059">
        <ele>1652</ele>
        <time>2020-07-27T16:30:00.007Z</time>
      </trkpt>
      <trkpt lat="42.813" lon="0.29061">
        <ele>1653</ele>
        <time>2020-07-27T16:30:01.007Z</time>
      </trkpt>
      <trkpt lat="42.81299" lon="0.29063">
        <ele>1653</ele>
        <time>2020-07-27T16:30:02.007Z</time>
      </trkpt>
      <trkpt lat="42.81297" lon="0.29066">
        <ele>1653</ele>
        <time>2020-07-27T16:30:03.007Z</time>
      </trkpt>
      <trkpt lat="42.81296" lon="0.29068">
        <ele>1654</ele>
        <time>2020-07-27T16:30:04.007Z</time>
      </trkpt>
      <trkpt lat="42.81294" lon="0.29071">
        <ele>1655</ele>
        <time>2020-07-27T16:30:05.007Z</time>
      </trkpt>
      <trkpt lat="42.81292" lon="0.29074">
        <ele>1655</ele>
        <time>2020-07-27T16:30:06.007Z</time>
      </trkpt>
      <trkpt lat="42.8129" lon="0.29076">
        <ele>1656</ele>
        <time>2020-07-27T16:30:07.007Z</time>
      </trkpt>
      <trkpt lat="42.81289" lon="0.29078">
        <ele>1656</ele>
        <time>2020-07-27T16:30:08.007Z</time>
      </trkpt>
      <trkpt lat="42.81287" lon="0.2908">
        <ele>1657</ele>
        <time>2020-07-27T16:30:09.007Z</time>
      </trkpt>
      <trkpt lat="42.81285" lon="0.29082">
        <ele>1657</ele>
        <time>2020-07-27T16:30:10.007Z</time>
      </trkpt>
      <trkpt lat="42.81283" lon="0.29084">
        <ele>1658</ele>
        <time>2020-07-27T16:30:11.007Z</time>
      </trkpt>
      <trkpt lat="42.81281" lon="0.29085">
        <ele>1658</ele>
        <time>2020-07-27T16:30:12.007Z</time>
      </trkpt>
      <trkpt lat="42.81279" lon="0.29087">
        <ele>1660</ele>
        <time>2020-07-27T16:30:13.007Z</time>
      </trkpt>
      <trkpt lat="42.81277" lon="0.29089">
        <ele>1661</ele>
        <time>2020-07-27T16:30:14.007Z</time>
      </trkpt>
      <trkpt lat="42.81275" lon="0.29091">
        <ele>1660</ele>
        <time>2020-07-27T16:30:15.007Z</time>
      </trkpt>
      <trkpt lat="42.81274" lon="0.29094">
        <ele>1659</ele>
        <time>2020-07-27T16:30:16.007Z</time>
      </trkpt>
      <trkpt lat="42.81273" lon="0.29097">
        <ele>1660</ele>
        <time>2020-07-27T16:30:17.007Z</time>
      </trkpt>
      <trkpt lat="42.81271" lon="0.29101">
        <ele>1661</ele>
        <time>2020-07-27T16:30:18.007Z</time>
      </trkpt>
      <trkpt lat="42.81271" lon="0.29104">
        <ele>1661</ele>
        <time>2020-07-27T16:30:19.007Z</time>
      </trkpt>
      <trkpt lat="42.8127" lon="0.29108">
        <ele>1661</ele>
        <time>2020-07-27T16:30:20.007Z</time>
      </trkpt>
      <trkpt lat="42.8127" lon="0.29111">
        <ele>1661</ele>
        <time>2020-07-27T16:30:21.007Z</time>
      </trkpt>
      <trkpt lat="42.81269" lon="0.29115">
        <ele>1662</ele>
        <time>2020-07-27T16:30:22.007Z</time>
      </trkpt>
      <trkpt lat="42.81269" lon="0.29118">
        <ele>1662</ele>
        <time>2020-07-27T16:30:23.007Z</time>
      </trkpt>
      <trkpt lat="42.81268" lon="0.29122">
        <ele>1662</ele>
        <time>2020-07-27T16:30:24.007Z</time>
      </trkpt>
      <trkpt lat="42.81268" lon="0.29125">
        <ele>1662</ele>
        <time>2020-07-27T16:30:25.007Z</time>
      </trkpt>
      <trkpt lat="42.81267" lon="0.29129">
        <ele>1662</ele>
        <time>2020-07-27T16:30:26.007Z</time>
      </trkpt>
      <trkpt lat="42.81267" lon="0.29132">
        <ele>1663</ele>
        <time>2020-07-27T16:30:27.007Z</time>
      </trkpt>
      <trkpt lat="42.81266" lon="0.29136">
        <ele>1663</ele>
        <time>2020-07-27T16:30:28.007Z</time>
      </trkpt>
      <trkpt lat="42.81266" lon="0.2914">
        <ele>1663</ele>
        <time>2020-07-27T16:30:29.007Z</time>
      </trkpt>
      <trkpt lat="42.81265" lon="0.29143">
        <ele>1663</ele>
        <time>2020-07-27T16:30:30.007Z</time>
      </trkpt>
      <trkpt lat="42.81265" lon="0.29147">
        <ele>1663</ele>
        <time>2020-07-27T16:30:31.007Z</time>
      </trkpt>
      <trkpt lat="42.81264" lon="0.2915">
        <ele>1664</ele>
        <time>2020-07-27T16:30:32.007Z</time>
      </trkpt>
      <trkpt lat="42.81264" lon="0.29154">
        <ele>1663</ele>
        <time>2020-07-27T16:30:33.007Z</time>
      </trkpt>
      <trkpt lat="42.81264" lon="0.29157">
        <ele>1664</ele>
        <time>2020-07-27T16:30:34.007Z</time>
      </trkpt>
      <trkpt lat="42.81263" lon="0.29161">
        <ele>1665</ele>
        <time>2020-07-27T16:30:35.007Z</time>
      </trkpt>
      <trkpt lat="42.81263" lon="0.29164">
        <ele>1664</ele>
        <time>2020-07-27T16:30:36.007Z</time>
      </trkpt>
      <trkpt lat="42.81262" lon="0.29168">
        <ele>1664</ele>
        <time>2020-07-27T16:30:37.007Z</time>
      </trkpt>
      <trkpt lat="42.81262" lon="0.29172">
        <ele>1664</ele>
        <time>2020-07-27T16:30:38.007Z</time>
      </trkpt>
      <trkpt lat="42.81261" lon="0.29176">
        <ele>1664</ele>
        <time>2020-07-27T16:30:39.007Z</time>
      </trkpt>
      <trkpt lat="42.8126" lon="0.29179">
        <ele>1664</ele>
        <time>2020-07-27T16:30:40.007Z</time>
      </trkpt>
      <trkpt lat="42.8126" lon="0.29183">
        <ele>1665</ele>
        <time>2020-07-27T16:30:41.007Z</time>
      </trkpt>
      <trkpt lat="42.81259" lon="0.29186">
        <ele>1665</ele>
        <time>2020-07-27T16:30:42.007Z</time>
      </trkpt>
      <trkpt lat="42.81259" lon="0.2919">
        <ele>1664</ele>
        <time>2020-07-27T16:30:43.007Z</time>
      </trkpt>
      <trkpt lat="42.81258" lon="0.29194">
        <ele>1664</ele>
        <time>2020-07-27T16:30:44.007Z</time>
      </trkpt>
      <trkpt lat="42.81257" lon="0.29197">
        <ele>1664</ele>
        <time>2020-07-27T16:30:45.007Z</time>
      </trkpt>
      <trkpt lat="42.81257" lon="0.29201">
        <ele>1665</ele>
        <time>2020-07-27T16:30:46.007Z</time>
      </trkpt>
      <trkpt lat="42.81257" lon="0.29205">
        <ele>1665</ele>
        <time>2020-07-27T16:30:47.007Z</time>
      </trkpt>
      <trkpt lat="42.81256" lon="0.29208">
        <ele>1665</ele>
        <time>2020-07-27T16:30:48.007Z</time>
      </trkpt>
      <trkpt lat="42.81256" lon="0.29212">
        <ele>1665</ele>
        <time>2020-07-27T16:30:49.007Z</time>
      </trkpt>
      <trkpt lat="42.81256" lon="0.29216">
        <ele>1666</ele>
        <time>2020-07-27T16:30:50.007Z</time>
      </trkpt>
      <trkpt lat="42.81256" lon="0.29219">
        <ele>1666</ele>
        <time>2020-07-27T16:30:51.007Z</time>
      </trkpt>
      <trkpt lat="42.81255" lon="0.29223">
        <ele>1667</ele>
        <time>2020-07-27T16:30:52.007Z</time>
      </trkpt>
      <trkpt lat="42.81255" lon="0.29227">
        <ele>1667</ele>
        <time>2020-07-27T16:30:53.007Z</time>
      </trkpt>
      <trkpt lat="42.81255" lon="0.29231">
        <ele>1668</ele>
        <time>2020-07-27T16:30:54.007Z</time>
      </trkpt>
      <trkpt lat="42.81255" lon="0.29235">
        <ele>1669</ele>
        <time>2020-07-27T16:30:55.007Z</time>
      </trkpt>
      <trkpt lat="42.81255" lon="0.29239">
        <ele>1669</ele>
        <time>2020-07-27T16:30:56.007Z</time>
      </trkpt>
      <trkpt lat="42.81254" lon="0.29243">
        <ele>1670</ele>
        <time>2020-07-27T16:30:57.007Z</time>
      </trkpt>
      <trkpt lat="42.81254" lon="0.29247">
        <ele>1670</ele>
        <time>2020-07-27T16:30:58.007Z</time>
      </trkpt>
      <trkpt lat="42.81253" lon="0.2925">
        <ele>1670</ele>
        <time>2020-07-27T16:30:59.007Z</time>
      </trkpt>
      <trkpt lat="42.81253" lon="0.29254">
        <ele>1670</ele>
        <time>2020-07-27T16:31:00.007Z</time>
      </trkpt>
      <trkpt lat="42.81252" lon="0.29258">
        <ele>1670</ele>
        <time>2020-07-27T16:31:01.007Z</time>
      </trkpt>
      <trkpt lat="42.81252" lon="0.29262">
        <ele>1670</ele>
        <time>2020-07-27T16:31:02.007Z</time>
      </trkpt>
      <trkpt lat="42.81252" lon="0.29265">
        <ele>1669</ele>
        <time>2020-07-27T16:31:03.007Z</time>
      </trkpt>
      <trkpt lat="42.81252" lon="0.29269">
        <ele>1670</ele>
        <time>2020-07-27T16:31:04.007Z</time>
      </trkpt>
      <trkpt lat="42.81252" lon="0.29273">
        <ele>1671</ele>
        <time>2020-07-27T16:31:05.007Z</time>
      </trkpt>
      <trkpt lat="42.81253" lon="0.29277">
        <ele>1670</ele>
        <time>2020-07-27T16:31:06.007Z</time>
      </trkpt>
      <trkpt lat="42.81252" lon="0.2928">
        <ele>1670</ele>
        <time>2020-07-27T16:31:07.007Z</time>
      </trkpt>
      <trkpt lat="42.81251" lon="0.29284">
        <ele>1670</ele>
        <time>2020-07-27T16:31:08.007Z</time>
      </trkpt>
      <trkpt lat="42.8125" lon="0.29287">
        <ele>1670</ele>
        <time>2020-07-27T16:31:09.007Z</time>
      </trkpt>
      <trkpt lat="42.81249" lon="0.2929">
        <ele>1670</ele>
        <time>2020-07-27T16:31:10.007Z</time>
      </trkpt>
      <trkpt lat="42.81248" lon="0.29294">
        <ele>1670</ele>
        <time>2020-07-27T16:31:11.007Z</time>
      </trkpt>
      <trkpt lat="42.81248" lon="0.29298">
        <ele>1670</ele>
        <time>2020-07-27T16:31:12.007Z</time>
      </trkpt>
      <trkpt lat="42.81247" lon="0.29302">
        <ele>1671</ele>
        <time>2020-07-27T16:31:13.007Z</time>
      </trkpt>
      <trkpt lat="42.81247" lon="0.29305">
        <ele>1670</ele>
        <time>2020-07-27T16:31:14.007Z</time>
      </trkpt>
      <trkpt lat="42.81246" lon="0.29309">
        <ele>1671</ele>
        <time>2020-07-27T16:31:15.007Z</time>
      </trkpt>
      <trkpt lat="42.81246" lon="0.29313">
        <ele>1671</ele>
        <time>2020-07-27T16:31:16.007Z</time>
      </trkpt>
      <trkpt lat="42.81245" lon="0.29317">
        <ele>1672</ele>
        <time>2020-07-27T16:31:17.007Z</time>
      </trkpt>
      <trkpt lat="42.81245" lon="0.29321">
        <ele>1672</ele>
        <time>2020-07-27T16:31:18.007Z</time>
      </trkpt>
      <trkpt lat="42.81245" lon="0.29325">
        <ele>1671</ele>
        <time>2020-07-27T16:31:19.007Z</time>
      </trkpt>
      <trkpt lat="42.81244" lon="0.29328">
        <ele>1672</ele>
        <time>2020-07-27T16:31:20.007Z</time>
      </trkpt>
      <trkpt lat="42.81243" lon="0.29332">
        <ele>1672</ele>
        <time>2020-07-27T16:31:21.007Z</time>
      </trkpt>
      <trkpt lat="42.81243" lon="0.29336">
        <ele>1673</ele>
        <time>2020-07-27T16:31:22.007Z</time>
      </trkpt>
      <trkpt lat="42.81243" lon="0.29339">
        <ele>1673</ele>
        <time>2020-07-27T16:31:23.007Z</time>
      </trkpt>
      <trkpt lat="42.81242" lon="0.29343">
        <ele>1673</ele>
        <time>2020-07-27T16:31:24.007Z</time>
      </trkpt>
      <trkpt lat="42.81242" lon="0.29347">
        <ele>1673</ele>
        <time>2020-07-27T16:31:25.007Z</time>
      </trkpt>
      <trkpt lat="42.81241" lon="0.29351">
        <ele>1672</ele>
        <time>2020-07-27T16:31:26.007Z</time>
      </trkpt>
      <trkpt lat="42.8124" lon="0.29355">
        <ele>1673</ele>
        <time>2020-07-27T16:31:27.007Z</time>
      </trkpt>
      <trkpt lat="42.8124" lon="0.29359">
        <ele>1674</ele>
        <time>2020-07-27T16:31:28.007Z</time>
      </trkpt>
      <trkpt lat="42.8124" lon="0.29363">
        <ele>1674</ele>
        <time>2020-07-27T16:31:29.007Z</time>
      </trkpt>
      <trkpt lat="42.81239" lon="0.29367">
        <ele>1674</ele>
        <time>2020-07-27T16:31:30.007Z</time>
      </trkpt>
      <trkpt lat="42.81239" lon="0.29371">
        <ele>1675</ele>
        <time>2020-07-27T16:31:31.007Z</time>
      </trkpt>
      <trkpt lat="42.81239" lon="0.29375">
        <ele>1675</ele>
        <time>2020-07-27T16:31:32.007Z</time>
      </trkpt>
      <trkpt lat="42.81238" lon="0.29379">
        <ele>1676</ele>
        <time>2020-07-27T16:31:33.007Z</time>
      </trkpt>
      <trkpt lat="42.81238" lon="0.29382">
        <ele>1676</ele>
        <time>2020-07-27T16:31:34.007Z</time>
      </trkpt>
      <trkpt lat="42.81237" lon="0.29386">
        <ele>1677</ele>
        <time>2020-07-27T16:31:35.007Z</time>
      </trkpt>
      <trkpt lat="42.81237" lon="0.2939">
        <ele>1676</ele>
        <time>2020-07-27T16:31:36.007Z</time>
      </trkpt>
      <trkpt lat="42.81236" lon="0.29393">
        <ele>1676</ele>
        <time>2020-07-27T16:31:37.007Z</time>
      </trkpt>
      <trkpt lat="42.81235" lon="0.29397">
        <ele>1677</ele>
        <time>2020-07-27T16:31:38.007Z</time>
      </trkpt>
      <trkpt lat="42.81234" lon="0.29401">
        <ele>1677</ele>
        <time>2020-07-27T16:31:39.007Z</time>
      </trkpt>
      <trkpt lat="42.81233" lon="0.29405">
        <ele>1677</ele>
        <time>2020-07-27T16:31:40.007Z</time>
      </trkpt>
      <trkpt lat="42.81232" lon="0.29409">
        <ele>1677</ele>
        <time>2020-07-27T16:31:41.007Z</time>
      </trkpt>
      <trkpt lat="42.81232" lon="0.29412">
        <ele>1677</ele>
        <time>2020-07-27T16:31:42.007Z</time>
      </trkpt>
      <trkpt lat="42.81231" lon="0.29416">
        <ele>1677</ele>
        <time>2020-07-27T16:31:43.007Z</time>
      </trkpt>
      <trkpt lat="42.81229" lon="0.2942">
        <ele>1678</ele>
        <time>2020-07-27T16:31:44.007Z</time>
      </trkpt>
      <trkpt lat="42.81228" lon="0.29423">
        <ele>1678</ele>
        <time>2020-07-27T16:31:45.007Z</time>
      </trkpt>
      <trkpt lat="42.81227" lon="0.29427">
        <ele>1679</ele>
        <time>2020-07-27T16:31:46.007Z</time>
      </trkpt>
      <trkpt lat="42.81226" lon="0.2943">
        <ele>1678</ele>
        <time>2020-07-27T16:31:47.007Z</time>
      </trkpt>
      <trkpt lat="42.81225" lon="0.29433">
        <ele>1679</ele>
        <time>2020-07-27T16:31:48.007Z</time>
      </trkpt>
      <trkpt lat="42.81224" lon="0.29437">
        <ele>1679</ele>
        <time>2020-07-27T16:31:49.007Z</time>
      </trkpt>
      <trkpt lat="42.81223" lon="0.29441">
        <ele>1679</ele>
        <time>2020-07-27T16:31:50.007Z</time>
      </trkpt>
      <trkpt lat="42.81223" lon="0.29445">
        <ele>1680</ele>
        <time>2020-07-27T16:31:51.007Z</time>
      </trkpt>
      <trkpt lat="42.81222" lon="0.29448">
        <ele>1680</ele>
        <time>2020-07-27T16:31:52.007Z</time>
      </trkpt>
      <trkpt lat="42.81222" lon="0.29452">
        <ele>1679</ele>
        <time>2020-07-27T16:31:53.007Z</time>
      </trkpt>
      <trkpt lat="42.81221" lon="0.29455">
        <ele>1679</ele>
        <time>2020-07-27T16:31:54.007Z</time>
      </trkpt>
      <trkpt lat="42.81221" lon="0.29459">
        <ele>1680</ele>
        <time>2020-07-27T16:31:55.007Z</time>
      </trkpt>
      <trkpt lat="42.81221" lon="0.29462">
        <ele>1680</ele>
        <time>2020-07-27T16:31:56.007Z</time>
      </trkpt>
      <trkpt lat="42.81222" lon="0.29466">
        <ele>1681</ele>
        <time>2020-07-27T16:31:57.007Z</time>
      </trkpt>
      <trkpt lat="42.81223" lon="0.2947">
        <ele>1680</ele>
        <time>2020-07-27T16:31:58.007Z</time>
      </trkpt>
      <trkpt lat="42.81224" lon="0.29474">
        <ele>1680</ele>
        <time>2020-07-27T16:31:59.007Z</time>
      </trkpt>
      <trkpt lat="42.81225" lon="0.29478">
        <ele>1681</ele>
        <time>2020-07-27T16:32:00.007Z</time>
      </trkpt>
      <trkpt lat="42.81226" lon="0.29482">
        <ele>1681</ele>
        <time>2020-07-27T16:32:01.007Z</time>
      </trkpt>
      <trkpt lat="42.81227" lon="0.29485">
        <ele>1681</ele>
        <time>2020-07-27T16:32:02.007Z</time>
      </trkpt>
      <trkpt lat="42.81228" lon="0.29489">
        <ele>1682</ele>
        <time>2020-07-27T16:32:03.007Z</time>
      </trkpt>
      <trkpt lat="42.81228" lon="0.29493">
        <ele>1683</ele>
        <time>2020-07-27T16:32:04.007Z</time>
      </trkpt>
      <trkpt lat="42.8123" lon="0.29497">
        <ele>1682</ele>
        <time>2020-07-27T16:32:05.007Z</time>
      </trkpt>
      <trkpt lat="42.81231" lon="0.29501">
        <ele>1682</ele>
        <time>2020-07-27T16:32:06.007Z</time>
      </trkpt>
      <trkpt lat="42.81232" lon="0.29505">
        <ele>1682</ele>
        <time>2020-07-27T16:32:07.007Z</time>
      </trkpt>
      <trkpt lat="42.81233" lon="0.29509">
        <ele>1681</ele>
        <time>2020-07-27T16:32:08.007Z</time>
      </trkpt>
      <trkpt lat="42.81234" lon="0.29513">
        <ele>1681</ele>
        <time>2020-07-27T16:32:09.007Z</time>
      </trkpt>
      <trkpt lat="42.81235" lon="0.29517">
        <ele>1681</ele>
        <time>2020-07-27T16:32:10.007Z</time>
      </trkpt>
      <trkpt lat="42.81236" lon="0.29521">
        <ele>1681</ele>
        <time>2020-07-27T16:32:11.007Z</time>
      </trkpt>
      <trkpt lat="42.81237" lon="0.29525">
        <ele>1681</ele>
        <time>2020-07-27T16:32:12.007Z</time>
      </trkpt>
      <trkpt lat="42.81239" lon="0.29529">
        <ele>1681</ele>
        <time>2020-07-27T16:32:13.007Z</time>
      </trkpt>
      <trkpt lat="42.8124" lon="0.29533">
        <ele>1681</ele>
        <time>2020-07-27T16:32:14.007Z</time>
      </trkpt>
      <trkpt lat="42.81241" lon="0.29536">
        <ele>1680</ele>
        <time>2020-07-27T16:32:15.007Z</time>
      </trkpt>
      <trkpt lat="42.81242" lon="0.2954">
        <ele>1679</ele>
        <time>2020-07-27T16:32:16.007Z</time>
      </trkpt>
      <trkpt lat="42.81244" lon="0.29544">
        <ele>1680</ele>
        <time>2020-07-27T16:32:17.007Z</time>
      </trkpt>
      <trkpt lat="42.81245" lon="0.29548">
        <ele>1681</ele>
        <time>2020-07-27T16:32:18.007Z</time>
      </trkpt>
      <trkpt lat="42.81246" lon="0.29552">
        <ele>1679</ele>
        <time>2020-07-27T16:32:19.007Z</time>
      </trkpt>
      <trkpt lat="42.81246" lon="0.29556">
        <ele>1677</ele>
        <time>2020-07-27T16:32:20.007Z</time>
      </trkpt>
      <trkpt lat="42.81246" lon="0.29559">
        <ele>1676</ele>
        <time>2020-07-27T16:32:21.007Z</time>
      </trkpt>
      <trkpt lat="42.81245" lon="0.29562">
        <ele>1676</ele>
        <time>2020-07-27T16:32:22.007Z</time>
      </trkpt>
      <trkpt lat="42.81245" lon="0.29566">
        <ele>1676</ele>
        <time>2020-07-27T16:32:23.007Z</time>
      </trkpt>
      <trkpt lat="42.81244" lon="0.29569">
        <ele>1675</ele>
        <time>2020-07-27T16:32:24.007Z</time>
      </trkpt>
      <trkpt lat="42.81244" lon="0.29573">
        <ele>1675</ele>
        <time>2020-07-27T16:32:25.007Z</time>
      </trkpt>
      <trkpt lat="42.81243" lon="0.29576">
        <ele>1675</ele>
        <time>2020-07-27T16:32:26.007Z</time>
      </trkpt>
      <trkpt lat="42.81242" lon="0.29579">
        <ele>1675</ele>
        <time>2020-07-27T16:32:27.007Z</time>
      </trkpt>
      <trkpt lat="42.81241" lon="0.29582">
        <ele>1675</ele>
        <time>2020-07-27T16:32:28.007Z</time>
      </trkpt>
      <trkpt lat="42.81239" lon="0.29586">
        <ele>1675</ele>
        <time>2020-07-27T16:32:29.007Z</time>
      </trkpt>
      <trkpt lat="42.81238" lon="0.29589">
        <ele>1673</ele>
        <time>2020-07-27T16:32:30.007Z</time>
      </trkpt>
      <trkpt lat="42.81236" lon="0.29592">
        <ele>1673</ele>
        <time>2020-07-27T16:32:31.007Z</time>
      </trkpt>
      <trkpt lat="42.81235" lon="0.29596">
        <ele>1672</ele>
        <time>2020-07-27T16:32:32.007Z</time>
      </trkpt>
      <trkpt lat="42.81233" lon="0.296">
        <ele>1672</ele>
        <time>2020-07-27T16:32:33.007Z</time>
      </trkpt>
      <trkpt lat="42.81233" lon="0.29604">
        <ele>1671</ele>
        <time>2020-07-27T16:32:34.007Z</time>
      </trkpt>
      <trkpt lat="42.81233" lon="0.29608">
        <ele>1671</ele>
        <time>2020-07-27T16:32:35.007Z</time>
      </trkpt>
      <trkpt lat="42.81234" lon="0.29613">
        <ele>1670</ele>
        <time>2020-07-27T16:32:36.007Z</time>
      </trkpt>
      <trkpt lat="42.81235" lon="0.29617">
        <ele>1671</ele>
        <time>2020-07-27T16:32:37.007Z</time>
      </trkpt>
      <trkpt lat="42.81236" lon="0.29621">
        <ele>1671</ele>
        <time>2020-07-27T16:32:38.007Z</time>
      </trkpt>
      <trkpt lat="42.81237" lon="0.29625">
        <ele>1670</ele>
        <time>2020-07-27T16:32:39.007Z</time>
      </trkpt>
      <trkpt lat="42.81238" lon="0.29628">
        <ele>1670</ele>
        <time>2020-07-27T16:32:40.007Z</time>
      </trkpt>
      <trkpt lat="42.81239" lon="0.29632">
        <ele>1669</ele>
        <time>2020-07-27T16:32:41.007Z</time>
      </trkpt>
      <trkpt lat="42.8124" lon="0.29636">
        <ele>1671</ele>
        <time>2020-07-27T16:32:42.007Z</time>
      </trkpt>
      <trkpt lat="42.81241" lon="0.29639">
        <ele>1671</ele>
        <time>2020-07-27T16:32:43.007Z</time>
      </trkpt>
      <trkpt lat="42.81242" lon="0.29643">
        <ele>1671</ele>
        <time>2020-07-27T16:32:44.007Z</time>
      </trkpt>
      <trkpt lat="42.81244" lon="0.29646">
        <ele>1671</ele>
        <time>2020-07-27T16:32:45.007Z</time>
      </trkpt>
      <trkpt lat="42.81246" lon="0.29648">
        <ele>1671</ele>
        <time>2020-07-27T16:32:46.007Z</time>
      </trkpt>
      <trkpt lat="42.81248" lon="0.29649">
        <ele>1672</ele>
        <time>2020-07-27T16:32:47.007Z</time>
      </trkpt>
      <trkpt lat="42.81251" lon="0.2965">
        <ele>1672</ele>
        <time>2020-07-27T16:32:48.007Z</time>
      </trkpt>
      <trkpt lat="42.81253" lon="0.29652">
        <ele>1672</ele>
        <time>2020-07-27T16:32:49.007Z</time>
      </trkpt>
      <trkpt lat="42.81255" lon="0.29654">
        <ele>1672</ele>
        <time>2020-07-27T16:32:50.007Z</time>
      </trkpt>
      <trkpt lat="42.81257" lon="0.29657">
        <ele>1672</ele>
        <time>2020-07-27T16:32:51.007Z</time>
      </trkpt>
      <trkpt lat="42.81259" lon="0.29659">
        <ele>1671</ele>
        <time>2020-07-27T16:32:52.007Z</time>
      </trkpt>
      <trkpt lat="42.81261" lon="0.29661">
        <ele>1671</ele>
        <time>2020-07-27T16:32:53.007Z</time>
      </trkpt>
      <trkpt lat="42.81264" lon="0.29663">
        <ele>1671</ele>
        <time>2020-07-27T16:32:54.007Z</time>
      </trkpt>
      <trkpt lat="42.81266" lon="0.29664">
        <ele>1670</ele>
        <time>2020-07-27T16:32:55.007Z</time>
      </trkpt>
      <trkpt lat="42.81269" lon="0.29665">
        <ele>1671</ele>
        <time>2020-07-27T16:32:56.007Z</time>
      </trkpt>
      <trkpt lat="42.81271" lon="0.29666">
        <ele>1671</ele>
        <time>2020-07-27T16:32:57.007Z</time>
      </trkpt>
      <trkpt lat="42.81274" lon="0.29667">
        <ele>1672</ele>
        <time>2020-07-27T16:32:58.007Z</time>
      </trkpt>
      <trkpt lat="42.81277" lon="0.29666">
        <ele>1671</ele>
        <time>2020-07-27T16:32:59.007Z</time>
      </trkpt>
      <trkpt lat="42.8128" lon="0.29666">
        <ele>1671</ele>
        <time>2020-07-27T16:33:00.007Z</time>
      </trkpt>
      <trkpt lat="42.81283" lon="0.29667">
        <ele>1671</ele>
        <time>2020-07-27T16:33:01.007Z</time>
      </trkpt>
      <trkpt lat="42.81286" lon="0.29668">
        <ele>1671</ele>
        <time>2020-07-27T16:33:02.007Z</time>
      </trkpt>
      <trkpt lat="42.81289" lon="0.29669">
        <ele>1671</ele>
        <time>2020-07-27T16:33:03.007Z</time>
      </trkpt>
      <trkpt lat="42.81292" lon="0.29669">
        <ele>1671</ele>
        <time>2020-07-27T16:33:04.007Z</time>
      </trkpt>
      <trkpt lat="42.81295" lon="0.2967">
        <ele>1672</ele>
        <time>2020-07-27T16:33:05.007Z</time>
      </trkpt>
      <trkpt lat="42.81298" lon="0.29669">
        <ele>1671</ele>
        <time>2020-07-27T16:33:06.007Z</time>
      </trkpt>
      <trkpt lat="42.81301" lon="0.29668">
        <ele>1671</ele>
        <time>2020-07-27T16:33:07.007Z</time>
      </trkpt>
      <trkpt lat="42.81303" lon="0.29665">
        <ele>1673</ele>
        <time>2020-07-27T16:33:08.007Z</time>
      </trkpt>
      <trkpt lat="42.81306" lon="0.29663">
        <ele>1674</ele>
        <time>2020-07-27T16:33:09.007Z</time>
      </trkpt>
      <trkpt lat="42.81308" lon="0.29659">
        <ele>1674</ele>
        <time>2020-07-27T16:33:10.007Z</time>
      </trkpt>
      <trkpt lat="42.81309" lon="0.29656">
        <ele>1673</ele>
        <time>2020-07-27T16:33:11.007Z</time>
      </trkpt>
      <trkpt lat="42.81311" lon="0.29653">
        <ele>1673</ele>
        <time>2020-07-27T16:33:12.007Z</time>
      </trkpt>
      <trkpt lat="42.81312" lon="0.2965">
        <ele>1672</ele>
        <time>2020-07-27T16:33:13.007Z</time>
      </trkpt>
      <trkpt lat="42.81313" lon="0.29646">
        <ele>1672</ele>
        <time>2020-07-27T16:33:14.007Z</time>
      </trkpt>
      <trkpt lat="42.81315" lon="0.29643">
        <ele>1673</ele>
        <time>2020-07-27T16:33:15.007Z</time>
      </trkpt>
      <trkpt lat="42.81315" lon="0.29639">
        <ele>1675</ele>
        <time>2020-07-27T16:33:16.007Z</time>
      </trkpt>
      <trkpt lat="42.81315" lon="0.29634">
        <ele>1675</ele>
        <time>2020-07-27T16:33:17.007Z</time>
      </trkpt>
      <trkpt lat="42.81316" lon="0.2963">
        <ele>1676</ele>
        <time>2020-07-27T16:33:18.007Z</time>
      </trkpt>
      <trkpt lat="42.81316" lon="0.29626">
        <ele>1678</ele>
        <time>2020-07-27T16:33:19.007Z</time>
      </trkpt>
      <trkpt lat="42.81316" lon="0.29622">
        <ele>1679</ele>
        <time>2020-07-27T16:33:20.007Z</time>
      </trkpt>
      <trkpt lat="42.81317" lon="0.29619">
        <ele>1680</ele>
        <time>2020-07-27T16:33:21.007Z</time>
      </trkpt>
      <trkpt lat="42.81318" lon="0.29615">
        <ele>1680</ele>
        <time>2020-07-27T16:33:22.007Z</time>
      </trkpt>
      <trkpt lat="42.81319" lon="0.29611">
        <ele>1681</ele>
        <time>2020-07-27T16:33:23.007Z</time>
      </trkpt>
      <trkpt lat="42.81319" lon="0.29607">
        <ele>1679</ele>
        <time>2020-07-27T16:33:24.007Z</time>
      </trkpt>
      <trkpt lat="42.8132" lon="0.29602">
        <ele>1679</ele>
        <time>2020-07-27T16:33:25.007Z</time>
      </trkpt>
      <trkpt lat="42.8132" lon="0.29598">
        <ele>1680</ele>
        <time>2020-07-27T16:33:26.007Z</time>
      </trkpt>
      <trkpt lat="42.81321" lon="0.29594">
        <ele>1681</ele>
        <time>2020-07-27T16:33:27.007Z</time>
      </trkpt>
      <trkpt lat="42.81321" lon="0.2959">
        <ele>1681</ele>
        <time>2020-07-27T16:33:28.007Z</time>
      </trkpt>
      <trkpt lat="42.81322" lon="0.29586">
        <ele>1681</ele>
        <time>2020-07-27T16:33:29.007Z</time>
      </trkpt>
      <trkpt lat="42.81322" lon="0.29582">
        <ele>1681</ele>
        <time>2020-07-27T16:33:30.007Z</time>
      </trkpt>
      <trkpt lat="42.81322" lon="0.29579">
        <ele>1682</ele>
        <time>2020-07-27T16:33:31.007Z</time>
      </trkpt>
      <trkpt lat="42.81322" lon="0.29575">
        <ele>1684</ele>
        <time>2020-07-27T16:33:32.007Z</time>
      </trkpt>
      <trkpt lat="42.81322" lon="0.29572">
        <ele>1684</ele>
        <time>2020-07-27T16:33:33.007Z</time>
      </trkpt>
      <trkpt lat="42.81321" lon="0.29568">
        <ele>1684</ele>
        <time>2020-07-27T16:33:34.007Z</time>
      </trkpt>
      <trkpt lat="42.81321" lon="0.29565">
        <ele>1685</ele>
        <time>2020-07-27T16:33:35.007Z</time>
      </trkpt>
      <trkpt lat="42.8132" lon="0.29561">
        <ele>1686</ele>
        <time>2020-07-27T16:33:36.007Z</time>
      </trkpt>
      <trkpt lat="42.81319" lon="0.29558">
        <ele>1687</ele>
        <time>2020-07-27T16:33:37.007Z</time>
      </trkpt>
      <trkpt lat="42.81319" lon="0.29554">
        <ele>1687</ele>
        <time>2020-07-27T16:33:38.007Z</time>
      </trkpt>
      <trkpt lat="42.81318" lon="0.29551">
        <ele>1686</ele>
        <time>2020-07-27T16:33:39.007Z</time>
      </trkpt>
      <trkpt lat="42.81318" lon="0.29548">
        <ele>1687</ele>
        <time>2020-07-27T16:33:40.007Z</time>
      </trkpt>
      <trkpt lat="42.81317" lon="0.29544">
        <ele>1686</ele>
        <time>2020-07-27T16:33:41.007Z</time>
      </trkpt>
      <trkpt lat="42.81317" lon="0.29541">
        <ele>1686</ele>
        <time>2020-07-27T16:33:42.007Z</time>
      </trkpt>
      <trkpt lat="42.81316" lon="0.29537">
        <ele>1685</ele>
        <time>2020-07-27T16:33:43.007Z</time>
      </trkpt>
      <trkpt lat="42.81315" lon="0.29533">
        <ele>1685</ele>
        <time>2020-07-27T16:33:44.007Z</time>
      </trkpt>
      <trkpt lat="42.81314" lon="0.29529">
        <ele>1686</ele>
        <time>2020-07-27T16:33:45.007Z</time>
      </trkpt>
      <trkpt lat="42.81313" lon="0.29525">
        <ele>1685</ele>
        <time>2020-07-27T16:33:46.007Z</time>
      </trkpt>
      <trkpt lat="42.81312" lon="0.29521">
        <ele>1686</ele>
        <time>2020-07-27T16:33:47.007Z</time>
      </trkpt>
      <trkpt lat="42.81311" lon="0.29517">
        <ele>1685</ele>
        <time>2020-07-27T16:33:48.007Z</time>
      </trkpt>
      <trkpt lat="42.8131" lon="0.29514">
        <ele>1686</ele>
        <time>2020-07-27T16:33:49.007Z</time>
      </trkpt>
      <trkpt lat="42.81309" lon="0.2951">
        <ele>1685</ele>
        <time>2020-07-27T16:33:50.007Z</time>
      </trkpt>
      <trkpt lat="42.81308" lon="0.29506">
        <ele>1685</ele>
        <time>2020-07-27T16:33:51.007Z</time>
      </trkpt>
      <trkpt lat="42.81307" lon="0.29502">
        <ele>1685</ele>
        <time>2020-07-27T16:33:52.007Z</time>
      </trkpt>
      <trkpt lat="42.81306" lon="0.29499">
        <ele>1685</ele>
        <time>2020-07-27T16:33:53.007Z</time>
      </trkpt>
      <trkpt lat="42.81305" lon="0.29495">
        <ele>1686</ele>
        <time>2020-07-27T16:33:54.007Z</time>
      </trkpt>
      <trkpt lat="42.81304" lon="0.29491">
        <ele>1686</ele>
        <time>2020-07-27T16:33:55.007Z</time>
      </trkpt>
      <trkpt lat="42.81303" lon="0.29488">
        <ele>1686</ele>
        <time>2020-07-27T16:33:56.007Z</time>
      </trkpt>
      <trkpt lat="42.81302" lon="0.29484">
        <ele>1686</ele>
        <time>2020-07-27T16:33:57.007Z</time>
      </trkpt>
      <trkpt lat="42.81301" lon="0.2948">
        <ele>1685</ele>
        <time>2020-07-27T16:33:58.007Z</time>
      </trkpt>
      <trkpt lat="42.813" lon="0.29476">
        <ele>1684</ele>
        <time>2020-07-27T16:33:59.007Z</time>
      </trkpt>
      <trkpt lat="42.813" lon="0.29471">
        <ele>1683</ele>
        <time>2020-07-27T16:34:00.007Z</time>
      </trkpt>
      <trkpt lat="42.813" lon="0.29466">
        <ele>1683</ele>
        <time>2020-07-27T16:34:01.007Z</time>
      </trkpt>
      <trkpt lat="42.81301" lon="0.29462">
        <ele>1683</ele>
        <time>2020-07-27T16:34:02.007Z</time>
      </trkpt>
      <trkpt lat="42.813" lon="0.29458">
        <ele>1683</ele>
        <time>2020-07-27T16:34:03.007Z</time>
      </trkpt>
      <trkpt lat="42.813" lon="0.29454">
        <ele>1683</ele>
        <time>2020-07-27T16:34:04.007Z</time>
      </trkpt>
      <trkpt lat="42.81298" lon="0.29451">
        <ele>1684</ele>
        <time>2020-07-27T16:34:05.007Z</time>
      </trkpt>
      <trkpt lat="42.81297" lon="0.29449">
        <ele>1684</ele>
        <time>2020-07-27T16:34:06.007Z</time>
      </trkpt>
      <trkpt lat="42.81296" lon="0.29446">
        <ele>1685</ele>
        <time>2020-07-27T16:34:07.007Z</time>
      </trkpt>
      <trkpt lat="42.81295" lon="0.29444">
        <ele>1685</ele>
        <time>2020-07-27T16:34:08.007Z</time>
      </trkpt>
      <trkpt lat="42.81294" lon="0.29441">
        <ele>1684</ele>
        <time>2020-07-27T16:34:09.007Z</time>
      </trkpt>
    </trkseg>
  </trk>
</gpx>